<?xml version="1.0" encoding="utf-8"?>
<gpx xmlns:xsi="http://www.w3.org/2001/XMLSchema-instance" xmlns:xsd="http://www.w3.org/2001/XMLSchema" xsi:schemaLocation="http://www.topografix.com/GPX/1/1 http://www.topografix.com/GPX/1/1/gpx.xsd" version="1.1" creator="SportTracks 3.1" xmlns="http://www.topografix.com/GPX/1/1">
 <metadata />
 <trk>
  <name />
  <cmt />
  <trkseg>
   <trkpt lat="46.2341117858887" lon="7.31035900115967">
    <ele>525.599975585938</ele>
    <time>2012-04-30T14:44:27Z</time>
   </trkpt>
   <trkpt lat="46.2341575622559" lon="7.3103518486023">
    <ele>525.704711914062</ele>
    <time>2012-04-30T14:44:28Z</time>
   </trkpt>
   <trkpt lat="46.2342414855957" lon="7.31032657623291">
    <ele>525.914245605469</ele>
    <time>2012-04-30T14:44:30Z</time>
   </trkpt>
   <trkpt lat="46.2342796325684" lon="7.31031274795532">
    <ele>526.01904296875</ele>
    <time>2012-04-30T14:44:31Z</time>
   </trkpt>
   <trkpt lat="46.2343902587891" lon="7.3102536201477">
    <ele>526.333312988281</ele>
    <time>2012-04-30T14:44:34Z</time>
   </trkpt>
   <trkpt lat="46.2346076965332" lon="7.3100323677063">
    <ele>527.066650390625</ele>
    <time>2012-04-30T14:44:41Z</time>
   </trkpt>
   <trkpt lat="46.2346572875977" lon="7.309889793396">
    <ele>527.380920410156</ele>
    <time>2012-04-30T14:44:44Z</time>
   </trkpt>
   <trkpt lat="46.2346687316894" lon="7.30983829498291">
    <ele>527.485717773438</ele>
    <time>2012-04-30T14:44:45Z</time>
   </trkpt>
   <trkpt lat="46.2346839904785" lon="7.30978202819824">
    <ele>527.590454101562</ele>
    <time>2012-04-30T14:44:46Z</time>
   </trkpt>
   <trkpt lat="46.234691619873" lon="7.30973100662232">
    <ele>527.695251464844</ele>
    <time>2012-04-30T14:44:47Z</time>
   </trkpt>
   <trkpt lat="46.2346954345703" lon="7.30967855453491">
    <ele>527.799987792969</ele>
    <time>2012-04-30T14:44:48Z</time>
   </trkpt>
   <trkpt lat="46.2346839904785" lon="7.30947542190552">
    <ele>527.799987792969</ele>
    <time>2012-04-30T14:44:52Z</time>
   </trkpt>
   <trkpt lat="46.2346153259277" lon="7.30921936035156">
    <ele>529</ele>
    <time>2012-04-30T14:44:58Z</time>
   </trkpt>
   <trkpt lat="46.2345962524414" lon="7.30918550491333">
    <ele>529.200012207031</ele>
    <time>2012-04-30T14:44:59Z</time>
   </trkpt>
   <trkpt lat="46.2345733642578" lon="7.30915594100952">
    <ele>529.399963378906</ele>
    <time>2012-04-30T14:45:00Z</time>
   </trkpt>
   <trkpt lat="46.2345542907715" lon="7.3091311454773">
    <ele>529.599975585938</ele>
    <time>2012-04-30T14:45:01Z</time>
   </trkpt>
   <trkpt lat="46.2345314025879" lon="7.30909538269043">
    <ele>529.799987792969</ele>
    <time>2012-04-30T14:45:02Z</time>
   </trkpt>
   <trkpt lat="46.2344703674316" lon="7.30904197692871">
    <ele>529.799987792969</ele>
    <time>2012-04-30T14:45:04Z</time>
   </trkpt>
   <trkpt lat="46.2343368530273" lon="7.30894184112549">
    <ele>530.960693359375</ele>
    <time>2012-04-30T14:45:09Z</time>
   </trkpt>
   <trkpt lat="46.2343139648438" lon="7.30893182754517">
    <ele>531.19287109375</ele>
    <time>2012-04-30T14:45:10Z</time>
   </trkpt>
   <trkpt lat="46.234260559082" lon="7.30890560150146">
    <ele>531.657104492188</ele>
    <time>2012-04-30T14:45:12Z</time>
   </trkpt>
   <trkpt lat="46.2341384887695" lon="7.30886077880859">
    <ele>532.585693359375</ele>
    <time>2012-04-30T14:45:16Z</time>
   </trkpt>
   <trkpt lat="46.2341079711914" lon="7.30885648727417">
    <ele>532.81787109375</ele>
    <time>2012-04-30T14:45:17Z</time>
   </trkpt>
   <trkpt lat="46.2340545654297" lon="7.30883455276489">
    <ele>533.282104492188</ele>
    <time>2012-04-30T14:45:19Z</time>
   </trkpt>
   <trkpt lat="46.2340240478516" lon="7.3088207244873">
    <ele>533.514282226562</ele>
    <time>2012-04-30T14:45:20Z</time>
   </trkpt>
   <trkpt lat="46.2339897155762" lon="7.30880069732666">
    <ele>533.746398925781</ele>
    <time>2012-04-30T14:45:21Z</time>
   </trkpt>
   <trkpt lat="46.2339630126953" lon="7.30878067016602">
    <ele>533.978576660156</ele>
    <time>2012-04-30T14:45:22Z</time>
   </trkpt>
   <trkpt lat="46.2339401245117" lon="7.30876398086548">
    <ele>534.210693359375</ele>
    <time>2012-04-30T14:45:23Z</time>
   </trkpt>
   <trkpt lat="46.23388671875" lon="7.30872678756714">
    <ele>534.674987792969</ele>
    <time>2012-04-30T14:45:25Z</time>
   </trkpt>
   <trkpt lat="46.2338485717773" lon="7.30871391296387">
    <ele>534.907104492188</ele>
    <time>2012-04-30T14:45:26Z</time>
   </trkpt>
   <trkpt lat="46.2338256835938" lon="7.30870008468628">
    <ele>535.139282226562</ele>
    <time>2012-04-30T14:45:27Z</time>
   </trkpt>
   <trkpt lat="46.2337989807129" lon="7.30869054794312">
    <ele>535.371398925781</ele>
    <time>2012-04-30T14:45:28Z</time>
   </trkpt>
   <trkpt lat="46.2337646484375" lon="7.30867147445679">
    <ele>535.603576660156</ele>
    <time>2012-04-30T14:45:29Z</time>
   </trkpt>
   <trkpt lat="46.2336845397949" lon="7.30859756469726">
    <ele>536.299987792969</ele>
    <time>2012-04-30T14:45:32Z</time>
   </trkpt>
   <trkpt lat="46.2336616516113" lon="7.30857610702515">
    <ele>536.532104492188</ele>
    <time>2012-04-30T14:45:33Z</time>
   </trkpt>
   <trkpt lat="46.2336387634277" lon="7.30855464935303">
    <ele>536.764282226562</ele>
    <time>2012-04-30T14:45:34Z</time>
   </trkpt>
   <trkpt lat="46.2336196899414" lon="7.30853223800659">
    <ele>536.996398925781</ele>
    <time>2012-04-30T14:45:35Z</time>
   </trkpt>
   <trkpt lat="46.2336006164551" lon="7.30850744247436">
    <ele>537.228576660156</ele>
    <time>2012-04-30T14:45:36Z</time>
   </trkpt>
   <trkpt lat="46.2335243225098" lon="7.30841779708862">
    <ele>538.157104492188</ele>
    <time>2012-04-30T14:45:40Z</time>
   </trkpt>
   <trkpt lat="46.2335014343262" lon="7.30839347839356">
    <ele>538.389282226562</ele>
    <time>2012-04-30T14:45:41Z</time>
   </trkpt>
   <trkpt lat="46.2334823608398" lon="7.30837106704712">
    <ele>538.621398925781</ele>
    <time>2012-04-30T14:45:42Z</time>
   </trkpt>
   <trkpt lat="46.2334671020508" lon="7.30834579467774">
    <ele>538.853576660156</ele>
    <time>2012-04-30T14:45:43Z</time>
   </trkpt>
   <trkpt lat="46.2334518432617" lon="7.30831336975098">
    <ele>539.085693359375</ele>
    <time>2012-04-30T14:45:44Z</time>
   </trkpt>
   <trkpt lat="46.2333717346191" lon="7.30815935134888">
    <ele>540.246398925781</ele>
    <time>2012-04-30T14:45:49Z</time>
   </trkpt>
   <trkpt lat="46.2333564758301" lon="7.30813026428223">
    <ele>540.478576660156</ele>
    <time>2012-04-30T14:45:50Z</time>
   </trkpt>
   <trkpt lat="46.233341217041" lon="7.30810070037842">
    <ele>540.710693359375</ele>
    <time>2012-04-30T14:45:51Z</time>
   </trkpt>
   <trkpt lat="46.233325958252" lon="7.30807018280029">
    <ele>540.94287109375</ele>
    <time>2012-04-30T14:45:52Z</time>
   </trkpt>
   <trkpt lat="46.2333145141602" lon="7.30803298950195">
    <ele>541.174987792969</ele>
    <time>2012-04-30T14:45:53Z</time>
   </trkpt>
   <trkpt lat="46.2332763671875" lon="7.30794048309326">
    <ele>541.871398925781</ele>
    <time>2012-04-30T14:45:56Z</time>
   </trkpt>
   <trkpt lat="46.2332649230957" lon="7.30790901184082">
    <ele>542.103576660156</ele>
    <time>2012-04-30T14:45:57Z</time>
   </trkpt>
   <trkpt lat="46.2332572937012" lon="7.30787944793701">
    <ele>542.335693359375</ele>
    <time>2012-04-30T14:45:58Z</time>
   </trkpt>
   <trkpt lat="46.2332496643066" lon="7.30784940719604">
    <ele>542.56787109375</ele>
    <time>2012-04-30T14:45:59Z</time>
   </trkpt>
   <trkpt lat="46.2332420349121" lon="7.3078179359436">
    <ele>542.799987792969</ele>
    <time>2012-04-30T14:46:00Z</time>
   </trkpt>
   <trkpt lat="46.2332344055176" lon="7.30778932571411">
    <ele>542.799987792969</ele>
    <time>2012-04-30T14:46:01Z</time>
   </trkpt>
   <trkpt lat="46.2331924438477" lon="7.30763530731201">
    <ele>543.966674804688</ele>
    <time>2012-04-30T14:46:06Z</time>
   </trkpt>
   <trkpt lat="46.2331809997559" lon="7.3076024055481">
    <ele>544.200012207031</ele>
    <time>2012-04-30T14:46:07Z</time>
   </trkpt>
   <trkpt lat="46.2331733703613" lon="7.3075737953186">
    <ele>544.433349609375</ele>
    <time>2012-04-30T14:46:08Z</time>
   </trkpt>
   <trkpt lat="46.2331619262695" lon="7.30754661560059">
    <ele>544.666687011719</ele>
    <time>2012-04-30T14:46:09Z</time>
   </trkpt>
   <trkpt lat="46.2331581115723" lon="7.30751466751099">
    <ele>544.900024414062</ele>
    <time>2012-04-30T14:46:10Z</time>
   </trkpt>
   <trkpt lat="46.2331237792969" lon="7.30736446380615">
    <ele>546.066650390625</ele>
    <time>2012-04-30T14:46:15Z</time>
   </trkpt>
   <trkpt lat="46.2331161499023" lon="7.30733680725098">
    <ele>546.299987792969</ele>
    <time>2012-04-30T14:46:16Z</time>
   </trkpt>
   <trkpt lat="46.2331085205078" lon="7.3073091506958">
    <ele>546.533325195312</ele>
    <time>2012-04-30T14:46:17Z</time>
   </trkpt>
   <trkpt lat="46.2331008911133" lon="7.30727529525757">
    <ele>546.766662597656</ele>
    <time>2012-04-30T14:46:18Z</time>
   </trkpt>
   <trkpt lat="46.2330932617188" lon="7.30724573135376">
    <ele>547</ele>
    <time>2012-04-30T14:46:19Z</time>
   </trkpt>
   <trkpt lat="46.2330474853516" lon="7.30712080001831">
    <ele>547</ele>
    <time>2012-04-30T14:46:23Z</time>
   </trkpt>
   <trkpt lat="46.2330093383789" lon="7.30703353881836">
    <ele>547.857116699219</ele>
    <time>2012-04-30T14:46:26Z</time>
   </trkpt>
   <trkpt lat="46.2329978942871" lon="7.30701017379761">
    <ele>548.142883300781</ele>
    <time>2012-04-30T14:46:27Z</time>
   </trkpt>
   <trkpt lat="46.2329940795898" lon="7.3069863319397">
    <ele>548.428588867188</ele>
    <time>2012-04-30T14:46:28Z</time>
   </trkpt>
   <trkpt lat="46.232982635498" lon="7.30695533752441">
    <ele>548.714294433594</ele>
    <time>2012-04-30T14:46:29Z</time>
   </trkpt>
   <trkpt lat="46.2329711914062" lon="7.30692863464356">
    <ele>549</ele>
    <time>2012-04-30T14:46:30Z</time>
   </trkpt>
   <trkpt lat="46.2329597473144" lon="7.30690240859985">
    <ele>549</ele>
    <time>2012-04-30T14:46:31Z</time>
   </trkpt>
   <trkpt lat="46.2329139709473" lon="7.30678701400757">
    <ele>550.257141113281</ele>
    <time>2012-04-30T14:46:35Z</time>
   </trkpt>
   <trkpt lat="46.2328987121582" lon="7.30675983428955">
    <ele>550.571411132812</ele>
    <time>2012-04-30T14:46:36Z</time>
   </trkpt>
   <trkpt lat="46.2328834533691" lon="7.30673217773438">
    <ele>550.8857421875</ele>
    <time>2012-04-30T14:46:37Z</time>
   </trkpt>
   <trkpt lat="46.2328720092773" lon="7.30670404434204">
    <ele>551.200012207031</ele>
    <time>2012-04-30T14:46:38Z</time>
   </trkpt>
   <trkpt lat="46.232852935791" lon="7.30664014816284">
    <ele>551.200012207031</ele>
    <time>2012-04-30T14:46:40Z</time>
   </trkpt>
   <trkpt lat="46.2328186035156" lon="7.30657386779785">
    <ele>551.721252441406</ele>
    <time>2012-04-30T14:46:42Z</time>
   </trkpt>
   <trkpt lat="46.2328071594238" lon="7.30654573440552">
    <ele>551.981811523438</ele>
    <time>2012-04-30T14:46:43Z</time>
   </trkpt>
   <trkpt lat="46.232795715332" lon="7.30651378631592">
    <ele>552.242431640625</ele>
    <time>2012-04-30T14:46:44Z</time>
   </trkpt>
   <trkpt lat="46.232780456543" lon="7.30648231506348">
    <ele>552.503051757812</ele>
    <time>2012-04-30T14:46:45Z</time>
   </trkpt>
   <trkpt lat="46.2327728271484" lon="7.30644941329956">
    <ele>552.763671875</ele>
    <time>2012-04-30T14:46:46Z</time>
   </trkpt>
   <trkpt lat="46.232723236084" lon="7.3063178062439">
    <ele>553.806091308594</ele>
    <time>2012-04-30T14:46:50Z</time>
   </trkpt>
   <trkpt lat="46.2327156066894" lon="7.30628299713135">
    <ele>554.066650390625</ele>
    <time>2012-04-30T14:46:51Z</time>
   </trkpt>
   <trkpt lat="46.2327079772949" lon="7.30624866485596">
    <ele>554.327270507812</ele>
    <time>2012-04-30T14:46:52Z</time>
   </trkpt>
   <trkpt lat="46.2327003479004" lon="7.30621194839478">
    <ele>554.587890625</ele>
    <time>2012-04-30T14:46:53Z</time>
   </trkpt>
   <trkpt lat="46.2326927185059" lon="7.30617427825928">
    <ele>554.848510742188</ele>
    <time>2012-04-30T14:46:54Z</time>
   </trkpt>
   <trkpt lat="46.2326431274414" lon="7.30592584609985">
    <ele>556.672729492188</ele>
    <time>2012-04-30T14:47:01Z</time>
   </trkpt>
   <trkpt lat="46.2326431274414" lon="7.30589246749878">
    <ele>556.933349609375</ele>
    <time>2012-04-30T14:47:02Z</time>
   </trkpt>
   <trkpt lat="46.2326393127441" lon="7.30585241317749">
    <ele>557.193908691406</ele>
    <time>2012-04-30T14:47:03Z</time>
   </trkpt>
   <trkpt lat="46.2326354980469" lon="7.30581426620483">
    <ele>557.454528808594</ele>
    <time>2012-04-30T14:47:04Z</time>
   </trkpt>
   <trkpt lat="46.2326316833496" lon="7.30577278137207">
    <ele>557.715148925781</ele>
    <time>2012-04-30T14:47:05Z</time>
   </trkpt>
   <trkpt lat="46.2326354980469" lon="7.30562448501587">
    <ele>558.757568359375</ele>
    <time>2012-04-30T14:47:09Z</time>
   </trkpt>
   <trkpt lat="46.2326316833496" lon="7.3055853843689">
    <ele>559.018188476562</ele>
    <time>2012-04-30T14:47:10Z</time>
   </trkpt>
   <trkpt lat="46.2326316833496" lon="7.30554866790772">
    <ele>559.278747558594</ele>
    <time>2012-04-30T14:47:11Z</time>
   </trkpt>
   <trkpt lat="46.2326316833496" lon="7.30551242828369">
    <ele>559.539367675781</ele>
    <time>2012-04-30T14:47:12Z</time>
   </trkpt>
   <trkpt lat="46.2326316833496" lon="7.3054780960083">
    <ele>559.799987792969</ele>
    <time>2012-04-30T14:47:13Z</time>
   </trkpt>
   <trkpt lat="46.2326431274414" lon="7.30533266067505">
    <ele>559.799987792969</ele>
    <time>2012-04-30T14:47:17Z</time>
   </trkpt>
   <trkpt lat="46.232666015625" lon="7.30505037307739">
    <ele>561.604248046875</ele>
    <time>2012-04-30T14:47:25Z</time>
   </trkpt>
   <trkpt lat="46.232666015625" lon="7.30501937866211">
    <ele>561.829772949219</ele>
    <time>2012-04-30T14:47:26Z</time>
   </trkpt>
   <trkpt lat="46.2326698303223" lon="7.30498600006104">
    <ele>562.055297851562</ele>
    <time>2012-04-30T14:47:27Z</time>
   </trkpt>
   <trkpt lat="46.2326736450195" lon="7.30495166778564">
    <ele>562.280822753906</ele>
    <time>2012-04-30T14:47:28Z</time>
   </trkpt>
   <trkpt lat="46.2327003479004" lon="7.30474281311035">
    <ele>563.634033203125</ele>
    <time>2012-04-30T14:47:34Z</time>
   </trkpt>
   <trkpt lat="46.2327003479004" lon="7.30470705032349">
    <ele>563.859558105469</ele>
    <time>2012-04-30T14:47:35Z</time>
   </trkpt>
   <trkpt lat="46.2327079772949" lon="7.30467319488525">
    <ele>564.085083007812</ele>
    <time>2012-04-30T14:47:36Z</time>
   </trkpt>
   <trkpt lat="46.2327117919922" lon="7.30463886260986">
    <ele>564.310668945312</ele>
    <time>2012-04-30T14:47:37Z</time>
   </trkpt>
   <trkpt lat="46.2327156066894" lon="7.30460357666016">
    <ele>564.536193847656</ele>
    <time>2012-04-30T14:47:38Z</time>
   </trkpt>
   <trkpt lat="46.2327156066894" lon="7.30439186096191">
    <ele>565.889343261719</ele>
    <time>2012-04-30T14:47:44Z</time>
   </trkpt>
   <trkpt lat="46.2327117919922" lon="7.30436086654663">
    <ele>566.114929199219</ele>
    <time>2012-04-30T14:47:45Z</time>
   </trkpt>
   <trkpt lat="46.2327079772949" lon="7.30432558059692">
    <ele>566.340454101562</ele>
    <time>2012-04-30T14:47:46Z</time>
   </trkpt>
   <trkpt lat="46.2327041625977" lon="7.30429172515869">
    <ele>566.565979003906</ele>
    <time>2012-04-30T14:47:47Z</time>
   </trkpt>
   <trkpt lat="46.2327003479004" lon="7.30425786972046">
    <ele>566.79150390625</ele>
    <time>2012-04-30T14:47:48Z</time>
   </trkpt>
   <trkpt lat="46.2326736450195" lon="7.30408143997192">
    <ele>567.919189453125</ele>
    <time>2012-04-30T14:47:53Z</time>
   </trkpt>
   <trkpt lat="46.232666015625" lon="7.30404472351074">
    <ele>568.144714355469</ele>
    <time>2012-04-30T14:47:54Z</time>
   </trkpt>
   <trkpt lat="46.232666015625" lon="7.30400705337524">
    <ele>568.370239257812</ele>
    <time>2012-04-30T14:47:55Z</time>
   </trkpt>
   <trkpt lat="46.2326583862305" lon="7.30397415161133">
    <ele>568.595764160156</ele>
    <time>2012-04-30T14:47:56Z</time>
   </trkpt>
   <trkpt lat="46.2326545715332" lon="7.30394411087036">
    <ele>568.8212890625</ele>
    <time>2012-04-30T14:47:57Z</time>
   </trkpt>
   <trkpt lat="46.2326316833496" lon="7.30382442474365">
    <ele>569.497863769531</ele>
    <time>2012-04-30T14:48:00Z</time>
   </trkpt>
   <trkpt lat="46.2326240539551" lon="7.30378150939941">
    <ele>569.723449707031</ele>
    <time>2012-04-30T14:48:01Z</time>
   </trkpt>
   <trkpt lat="46.2326164245606" lon="7.30374240875244">
    <ele>569.948974609375</ele>
    <time>2012-04-30T14:48:02Z</time>
   </trkpt>
   <trkpt lat="46.2326126098633" lon="7.30370616912842">
    <ele>570.174499511719</ele>
    <time>2012-04-30T14:48:03Z</time>
   </trkpt>
   <trkpt lat="46.232608795166" lon="7.30367136001587">
    <ele>570.400024414062</ele>
    <time>2012-04-30T14:48:04Z</time>
   </trkpt>
   <trkpt lat="46.2325973510742" lon="7.30360412597656">
    <ele>570.400024414062</ele>
    <time>2012-04-30T14:48:06Z</time>
   </trkpt>
   <trkpt lat="46.2325897216797" lon="7.30352544784546">
    <ele>571.066711425781</ele>
    <time>2012-04-30T14:48:08Z</time>
   </trkpt>
   <trkpt lat="46.2325859069824" lon="7.30348920822144">
    <ele>571.400024414062</ele>
    <time>2012-04-30T14:48:09Z</time>
   </trkpt>
   <trkpt lat="46.2325859069824" lon="7.30345773696899">
    <ele>571.733337402344</ele>
    <time>2012-04-30T14:48:10Z</time>
   </trkpt>
   <trkpt lat="46.2325859069824" lon="7.30342626571655">
    <ele>572.066711425781</ele>
    <time>2012-04-30T14:48:11Z</time>
   </trkpt>
   <trkpt lat="46.232593536377" lon="7.30338525772095">
    <ele>572.400024414062</ele>
    <time>2012-04-30T14:48:12Z</time>
   </trkpt>
   <trkpt lat="46.232593536377" lon="7.30334234237671">
    <ele>572.400024414062</ele>
    <time>2012-04-30T14:48:13Z</time>
   </trkpt>
   <trkpt lat="46.2325782775879" lon="7.30305480957031">
    <ele>573.200012207031</ele>
    <time>2012-04-30T14:48:19Z</time>
   </trkpt>
   <trkpt lat="46.2325744628906" lon="7.30289506912232">
    <ele>573.733337402344</ele>
    <time>2012-04-30T14:48:23Z</time>
   </trkpt>
   <trkpt lat="46.2325706481934" lon="7.30284786224365">
    <ele>573.86669921875</ele>
    <time>2012-04-30T14:48:24Z</time>
   </trkpt>
   <trkpt lat="46.2325706481934" lon="7.30280494689941">
    <ele>574</ele>
    <time>2012-04-30T14:48:25Z</time>
   </trkpt>
   <trkpt lat="46.2325706481934" lon="7.30275774002075">
    <ele>574.133361816406</ele>
    <time>2012-04-30T14:48:26Z</time>
   </trkpt>
   <trkpt lat="46.2325744628906" lon="7.30270671844482">
    <ele>574.266662597656</ele>
    <time>2012-04-30T14:48:27Z</time>
   </trkpt>
   <trkpt lat="46.2325820922852" lon="7.3026556968689">
    <ele>574.400024414062</ele>
    <time>2012-04-30T14:48:28Z</time>
   </trkpt>
   <trkpt lat="46.2325859069824" lon="7.30261278152466">
    <ele>574.400024414062</ele>
    <time>2012-04-30T14:48:29Z</time>
   </trkpt>
   <trkpt lat="46.2326698303223" lon="7.30237007141113">
    <ele>575.105895996094</ele>
    <time>2012-04-30T14:48:35Z</time>
   </trkpt>
   <trkpt lat="46.2328224182129" lon="7.30223608016968">
    <ele>575.811767578125</ele>
    <time>2012-04-30T14:48:41Z</time>
   </trkpt>
   <trkpt lat="46.2328491210938" lon="7.30221796035767">
    <ele>575.929443359375</ele>
    <time>2012-04-30T14:48:42Z</time>
   </trkpt>
   <trkpt lat="46.2328796386719" lon="7.30221271514893">
    <ele>576.047058105469</ele>
    <time>2012-04-30T14:48:43Z</time>
   </trkpt>
   <trkpt lat="46.2329063415527" lon="7.30221128463745">
    <ele>576.164733886719</ele>
    <time>2012-04-30T14:48:44Z</time>
   </trkpt>
   <trkpt lat="46.2329330444336" lon="7.30220603942871">
    <ele>576.282348632812</ele>
    <time>2012-04-30T14:48:45Z</time>
   </trkpt>
   <trkpt lat="46.2329597473144" lon="7.30220794677734">
    <ele>576.400024414062</ele>
    <time>2012-04-30T14:48:46Z</time>
   </trkpt>
   <trkpt lat="46.2329902648926" lon="7.30222225189209">
    <ele>576.400024414062</ele>
    <time>2012-04-30T14:48:47Z</time>
   </trkpt>
   <trkpt lat="46.2331466674805" lon="7.30237579345703">
    <ele>577.799987792969</ele>
    <time>2012-04-30T14:48:54Z</time>
   </trkpt>
   <trkpt lat="46.2331657409668" lon="7.302405834198">
    <ele>578</ele>
    <time>2012-04-30T14:48:55Z</time>
   </trkpt>
   <trkpt lat="46.2331809997559" lon="7.30243253707886">
    <ele>578.200012207031</ele>
    <time>2012-04-30T14:48:56Z</time>
   </trkpt>
   <trkpt lat="46.2331962585449" lon="7.30246543884277">
    <ele>578.399963378906</ele>
    <time>2012-04-30T14:48:57Z</time>
   </trkpt>
   <trkpt lat="46.2332153320312" lon="7.30249404907226">
    <ele>578.599975585938</ele>
    <time>2012-04-30T14:48:58Z</time>
   </trkpt>
   <trkpt lat="46.2332725524902" lon="7.30260801315308">
    <ele>578.599975585938</ele>
    <time>2012-04-30T14:49:02Z</time>
   </trkpt>
   <trkpt lat="46.233283996582" lon="7.30264091491699">
    <ele>579.149963378906</ele>
    <time>2012-04-30T14:49:03Z</time>
   </trkpt>
   <trkpt lat="46.2332992553711" lon="7.30267095565796">
    <ele>579.699951171875</ele>
    <time>2012-04-30T14:49:04Z</time>
   </trkpt>
   <trkpt lat="46.2333106994629" lon="7.30270147323608">
    <ele>580.25</ele>
    <time>2012-04-30T14:49:05Z</time>
   </trkpt>
   <trkpt lat="46.2333221435547" lon="7.30273342132568">
    <ele>580.799987792969</ele>
    <time>2012-04-30T14:49:06Z</time>
   </trkpt>
   <trkpt lat="46.2333679199219" lon="7.30285692214966">
    <ele>580.799987792969</ele>
    <time>2012-04-30T14:49:10Z</time>
   </trkpt>
   <trkpt lat="46.2334480285644" lon="7.3030595779419">
    <ele>582.637512207031</ele>
    <time>2012-04-30T14:49:17Z</time>
   </trkpt>
   <trkpt lat="46.2334594726562" lon="7.30309104919434">
    <ele>582.900024414062</ele>
    <time>2012-04-30T14:49:18Z</time>
   </trkpt>
   <trkpt lat="46.2334747314453" lon="7.30312824249268">
    <ele>583.162475585938</ele>
    <time>2012-04-30T14:49:19Z</time>
   </trkpt>
   <trkpt lat="46.2334899902344" lon="7.30315113067627">
    <ele>583.424987792969</ele>
    <time>2012-04-30T14:49:20Z</time>
   </trkpt>
   <trkpt lat="46.2335052490234" lon="7.30318784713745">
    <ele>583.6875</ele>
    <time>2012-04-30T14:49:21Z</time>
   </trkpt>
   <trkpt lat="46.2335205078125" lon="7.30322122573852">
    <ele>583.950012207031</ele>
    <time>2012-04-30T14:49:22Z</time>
   </trkpt>
   <trkpt lat="46.2335357666016" lon="7.30325794219971">
    <ele>584.212524414062</ele>
    <time>2012-04-30T14:49:23Z</time>
   </trkpt>
   <trkpt lat="46.2335510253906" lon="7.30329418182373">
    <ele>584.474975585938</ele>
    <time>2012-04-30T14:49:24Z</time>
   </trkpt>
   <trkpt lat="46.2335624694824" lon="7.30332565307617">
    <ele>584.737487792969</ele>
    <time>2012-04-30T14:49:25Z</time>
   </trkpt>
   <trkpt lat="46.2335777282715" lon="7.30336236953735">
    <ele>585</ele>
    <time>2012-04-30T14:49:26Z</time>
   </trkpt>
   <trkpt lat="46.2336196899414" lon="7.30348968505859">
    <ele>585</ele>
    <time>2012-04-30T14:49:30Z</time>
   </trkpt>
   <trkpt lat="46.2336463928223" lon="7.30358695983887">
    <ele>585.900024414062</ele>
    <time>2012-04-30T14:49:33Z</time>
   </trkpt>
   <trkpt lat="46.2336730957031" lon="7.30364990234375">
    <ele>586.5</ele>
    <time>2012-04-30T14:49:35Z</time>
   </trkpt>
   <trkpt lat="46.2336807250977" lon="7.30367994308472">
    <ele>586.799987792969</ele>
    <time>2012-04-30T14:49:36Z</time>
   </trkpt>
   <trkpt lat="46.2336921691894" lon="7.30371236801148">
    <ele>587.099975585938</ele>
    <time>2012-04-30T14:49:37Z</time>
   </trkpt>
   <trkpt lat="46.233699798584" lon="7.30374336242676">
    <ele>587.400024414062</ele>
    <time>2012-04-30T14:49:38Z</time>
   </trkpt>
   <trkpt lat="46.2337112426758" lon="7.30377244949341">
    <ele>587.700012207031</ele>
    <time>2012-04-30T14:49:39Z</time>
   </trkpt>
   <trkpt lat="46.2337188720703" lon="7.30380487442017">
    <ele>588</ele>
    <time>2012-04-30T14:49:40Z</time>
   </trkpt>
   <trkpt lat="46.2337303161621" lon="7.30383634567261">
    <ele>588.299987792969</ele>
    <time>2012-04-30T14:49:41Z</time>
   </trkpt>
   <trkpt lat="46.2337379455566" lon="7.30386638641357">
    <ele>588.600036621094</ele>
    <time>2012-04-30T14:49:42Z</time>
   </trkpt>
   <trkpt lat="46.2337493896484" lon="7.30390310287476">
    <ele>588.900024414062</ele>
    <time>2012-04-30T14:49:43Z</time>
   </trkpt>
   <trkpt lat="46.233757019043" lon="7.30393934249878">
    <ele>589.200012207031</ele>
    <time>2012-04-30T14:49:44Z</time>
   </trkpt>
   <trkpt lat="46.233829498291" lon="7.30408620834351">
    <ele>589.200012207031</ele>
    <time>2012-04-30T14:49:48Z</time>
   </trkpt>
   <trkpt lat="46.2338600158691" lon="7.30414438247681">
    <ele>589.933349609375</ele>
    <time>2012-04-30T14:49:50Z</time>
   </trkpt>
   <trkpt lat="46.2338714599609" lon="7.30417394638062">
    <ele>590.300048828125</ele>
    <time>2012-04-30T14:49:51Z</time>
   </trkpt>
   <trkpt lat="46.2338829040527" lon="7.3042049407959">
    <ele>590.666687011719</ele>
    <time>2012-04-30T14:49:52Z</time>
   </trkpt>
   <trkpt lat="46.2338981628418" lon="7.3042368888855">
    <ele>591.033325195312</ele>
    <time>2012-04-30T14:49:53Z</time>
   </trkpt>
   <trkpt lat="46.2339096069336" lon="7.30427074432373">
    <ele>591.400024414062</ele>
    <time>2012-04-30T14:49:54Z</time>
   </trkpt>
   <trkpt lat="46.2339248657227" lon="7.30430221557617">
    <ele>591.400024414062</ele>
    <time>2012-04-30T14:49:55Z</time>
   </trkpt>
   <trkpt lat="46.2339973449707" lon="7.30447244644165">
    <ele>592.719970703125</ele>
    <time>2012-04-30T14:50:01Z</time>
   </trkpt>
   <trkpt lat="46.2340126037598" lon="7.30450439453125">
    <ele>592.940002441406</ele>
    <time>2012-04-30T14:50:02Z</time>
   </trkpt>
   <trkpt lat="46.2340278625488" lon="7.30453443527222">
    <ele>593.159973144531</ele>
    <time>2012-04-30T14:50:03Z</time>
   </trkpt>
   <trkpt lat="46.2340393066406" lon="7.3045654296875">
    <ele>593.380004882812</ele>
    <time>2012-04-30T14:50:04Z</time>
   </trkpt>
   <trkpt lat="46.2340545654297" lon="7.30459070205688">
    <ele>593.599975585938</ele>
    <time>2012-04-30T14:50:05Z</time>
   </trkpt>
   <trkpt lat="46.2341384887695" lon="7.30471086502075">
    <ele>593.599975585938</ele>
    <time>2012-04-30T14:50:10Z</time>
   </trkpt>
   <trkpt lat="46.2341728210449" lon="7.30475473403931">
    <ele>594.333312988281</ele>
    <time>2012-04-30T14:50:12Z</time>
   </trkpt>
   <trkpt lat="46.2341918945312" lon="7.30477476119995">
    <ele>594.699951171875</ele>
    <time>2012-04-30T14:50:13Z</time>
   </trkpt>
   <trkpt lat="46.2342071533203" lon="7.30480051040649">
    <ele>595.066650390625</ele>
    <time>2012-04-30T14:50:14Z</time>
   </trkpt>
   <trkpt lat="46.2342262268066" lon="7.3048243522644">
    <ele>595.433349609375</ele>
    <time>2012-04-30T14:50:15Z</time>
   </trkpt>
   <trkpt lat="46.234245300293" lon="7.30484676361084">
    <ele>595.799987792969</ele>
    <time>2012-04-30T14:50:16Z</time>
   </trkpt>
   <trkpt lat="46.2343139648438" lon="7.30490493774414">
    <ele>595.799987792969</ele>
    <time>2012-04-30T14:50:19Z</time>
   </trkpt>
   <trkpt lat="46.2344055175781" lon="7.30497598648071">
    <ele>596.599975585938</ele>
    <time>2012-04-30T14:50:23Z</time>
   </trkpt>
   <trkpt lat="46.2344589233398" lon="7.30500364303589">
    <ele>597</ele>
    <time>2012-04-30T14:50:25Z</time>
   </trkpt>
   <trkpt lat="46.234489440918" lon="7.30501699447632">
    <ele>597.200012207031</ele>
    <time>2012-04-30T14:50:26Z</time>
   </trkpt>
   <trkpt lat="46.2345161437988" lon="7.30502653121948">
    <ele>597.399963378906</ele>
    <time>2012-04-30T14:50:27Z</time>
   </trkpt>
   <trkpt lat="46.2345428466797" lon="7.30503845214844">
    <ele>597.599975585938</ele>
    <time>2012-04-30T14:50:28Z</time>
   </trkpt>
   <trkpt lat="46.2345657348633" lon="7.30503988265991">
    <ele>597.799987792969</ele>
    <time>2012-04-30T14:50:29Z</time>
   </trkpt>
   <trkpt lat="46.2347030639648" lon="7.30506563186646">
    <ele>597.799987792969</ele>
    <time>2012-04-30T14:50:34Z</time>
   </trkpt>
   <trkpt lat="46.2348442077637" lon="7.30506277084351">
    <ele>598.349975585938</ele>
    <time>2012-04-30T14:50:39Z</time>
   </trkpt>
   <trkpt lat="46.2349052429199" lon="7.3050365447998">
    <ele>598.570007324219</ele>
    <time>2012-04-30T14:50:41Z</time>
   </trkpt>
   <trkpt lat="46.2350044250488" lon="7.30498886108398">
    <ele>598.900024414062</ele>
    <time>2012-04-30T14:50:44Z</time>
   </trkpt>
   <trkpt lat="46.2351226806641" lon="7.30493497848511">
    <ele>599.339965820312</ele>
    <time>2012-04-30T14:50:48Z</time>
   </trkpt>
   <trkpt lat="46.235179901123" lon="7.3049054145813">
    <ele>599.559997558594</ele>
    <time>2012-04-30T14:50:50Z</time>
   </trkpt>
   <trkpt lat="46.2352066040039" lon="7.30488443374634">
    <ele>599.669982910156</ele>
    <time>2012-04-30T14:50:51Z</time>
   </trkpt>
   <trkpt lat="46.2352333068848" lon="7.30486440658569">
    <ele>599.780029296875</ele>
    <time>2012-04-30T14:50:52Z</time>
   </trkpt>
   <trkpt lat="46.2352600097656" lon="7.30484628677368">
    <ele>599.890014648438</ele>
    <time>2012-04-30T14:50:53Z</time>
   </trkpt>
   <trkpt lat="46.2352867126465" lon="7.30482912063599">
    <ele>600</ele>
    <time>2012-04-30T14:50:54Z</time>
   </trkpt>
   <trkpt lat="46.2353706359863" lon="7.30478382110596">
    <ele>600</ele>
    <time>2012-04-30T14:50:57Z</time>
   </trkpt>
   <trkpt lat="46.235523223877" lon="7.30469608306885">
    <ele>601.260009765625</ele>
    <time>2012-04-30T14:51:03Z</time>
   </trkpt>
   <trkpt lat="46.2355461120606" lon="7.30467987060547">
    <ele>601.470031738281</ele>
    <time>2012-04-30T14:51:04Z</time>
   </trkpt>
   <trkpt lat="46.2355728149414" lon="7.30466604232788">
    <ele>601.679992675781</ele>
    <time>2012-04-30T14:51:05Z</time>
   </trkpt>
   <trkpt lat="46.2355995178223" lon="7.3046498298645">
    <ele>601.890014648438</ele>
    <time>2012-04-30T14:51:06Z</time>
   </trkpt>
   <trkpt lat="46.2356224060059" lon="7.30463409423828">
    <ele>602.099975585938</ele>
    <time>2012-04-30T14:51:07Z</time>
   </trkpt>
   <trkpt lat="46.235767364502" lon="7.30454063415527">
    <ele>603.359985351562</ele>
    <time>2012-04-30T14:51:13Z</time>
   </trkpt>
   <trkpt lat="46.2357940673828" lon="7.30452489852905">
    <ele>603.570007324219</ele>
    <time>2012-04-30T14:51:14Z</time>
   </trkpt>
   <trkpt lat="46.2358207702637" lon="7.30450963973999">
    <ele>603.780029296875</ele>
    <time>2012-04-30T14:51:15Z</time>
   </trkpt>
   <trkpt lat="46.2358474731445" lon="7.30450105667114">
    <ele>603.989990234375</ele>
    <time>2012-04-30T14:51:16Z</time>
   </trkpt>
   <trkpt lat="46.2358703613281" lon="7.3044843673706">
    <ele>604.200012207031</ele>
    <time>2012-04-30T14:51:17Z</time>
   </trkpt>
   <trkpt lat="46.2359733581543" lon="7.3044376373291">
    <ele>604.200012207031</ele>
    <time>2012-04-30T14:51:21Z</time>
   </trkpt>
   <trkpt lat="46.2360763549805" lon="7.30440807342529">
    <ele>605.380981445312</ele>
    <time>2012-04-30T14:51:25Z</time>
   </trkpt>
   <trkpt lat="46.2360992431641" lon="7.3043999671936">
    <ele>605.676208496094</ele>
    <time>2012-04-30T14:51:26Z</time>
   </trkpt>
   <trkpt lat="46.2361259460449" lon="7.30439472198486">
    <ele>605.971435546875</ele>
    <time>2012-04-30T14:51:27Z</time>
   </trkpt>
   <trkpt lat="46.2361488342285" lon="7.30438804626465">
    <ele>606.266662597656</ele>
    <time>2012-04-30T14:51:28Z</time>
   </trkpt>
   <trkpt lat="46.2361755371094" lon="7.30438804626465">
    <ele>606.561950683594</ele>
    <time>2012-04-30T14:51:29Z</time>
   </trkpt>
   <trkpt lat="46.236270904541" lon="7.30439043045044">
    <ele>607.742858886719</ele>
    <time>2012-04-30T14:51:33Z</time>
   </trkpt>
   <trkpt lat="46.2362937927246" lon="7.30439472198486">
    <ele>608.0380859375</ele>
    <time>2012-04-30T14:51:34Z</time>
   </trkpt>
   <trkpt lat="46.2363166809082" lon="7.30439758300781">
    <ele>608.333374023438</ele>
    <time>2012-04-30T14:51:35Z</time>
   </trkpt>
   <trkpt lat="46.2363433837891" lon="7.30440187454224">
    <ele>608.628601074219</ele>
    <time>2012-04-30T14:51:36Z</time>
   </trkpt>
   <trkpt lat="46.2363929748535" lon="7.30441045761108">
    <ele>609.219055175781</ele>
    <time>2012-04-30T14:51:38Z</time>
   </trkpt>
   <trkpt lat="46.2364196777344" lon="7.30441331863403">
    <ele>609.514282226562</ele>
    <time>2012-04-30T14:51:39Z</time>
   </trkpt>
   <trkpt lat="46.236442565918" lon="7.30441665649414">
    <ele>609.8095703125</ele>
    <time>2012-04-30T14:51:40Z</time>
   </trkpt>
   <trkpt lat="46.2364654541016" lon="7.30442190170288">
    <ele>610.104797363281</ele>
    <time>2012-04-30T14:51:41Z</time>
   </trkpt>
   <trkpt lat="46.2364921569824" lon="7.30443096160889">
    <ele>610.400024414062</ele>
    <time>2012-04-30T14:51:42Z</time>
   </trkpt>
   <trkpt lat="46.2365646362305" lon="7.30444860458374">
    <ele>610.400024414062</ele>
    <time>2012-04-30T14:51:45Z</time>
   </trkpt>
   <trkpt lat="46.2366104125977" lon="7.30446243286133">
    <ele>611.133361816406</ele>
    <time>2012-04-30T14:51:47Z</time>
   </trkpt>
   <trkpt lat="46.2366371154785" lon="7.3044638633728">
    <ele>611.5</ele>
    <time>2012-04-30T14:51:48Z</time>
   </trkpt>
   <trkpt lat="46.2366638183594" lon="7.30446863174438">
    <ele>611.866638183594</ele>
    <time>2012-04-30T14:51:49Z</time>
   </trkpt>
   <trkpt lat="46.236686706543" lon="7.30447292327881">
    <ele>612.233337402344</ele>
    <time>2012-04-30T14:51:50Z</time>
   </trkpt>
   <trkpt lat="46.2367095947266" lon="7.30447864532471">
    <ele>612.599975585938</ele>
    <time>2012-04-30T14:51:51Z</time>
   </trkpt>
   <trkpt lat="46.236759185791" lon="7.30448484420776">
    <ele>612.599975585938</ele>
    <time>2012-04-30T14:51:53Z</time>
   </trkpt>
   <trkpt lat="46.2368774414062" lon="7.30449438095093">
    <ele>613.933288574219</ele>
    <time>2012-04-30T14:51:58Z</time>
   </trkpt>
   <trkpt lat="46.2369041442871" lon="7.30448818206787">
    <ele>614.199951171875</ele>
    <time>2012-04-30T14:51:59Z</time>
   </trkpt>
   <trkpt lat="46.236930847168" lon="7.30449485778809">
    <ele>614.466613769531</ele>
    <time>2012-04-30T14:52:00Z</time>
   </trkpt>
   <trkpt lat="46.2369537353516" lon="7.30449104309082">
    <ele>614.733337402344</ele>
    <time>2012-04-30T14:52:01Z</time>
   </trkpt>
   <trkpt lat="46.2370262145996" lon="7.30447626113892">
    <ele>615.533325195312</ele>
    <time>2012-04-30T14:52:04Z</time>
   </trkpt>
   <trkpt lat="46.2370491027832" lon="7.30447959899902">
    <ele>615.799987792969</ele>
    <time>2012-04-30T14:52:05Z</time>
   </trkpt>
   <trkpt lat="46.2370719909668" lon="7.30448341369629">
    <ele>616.066650390625</ele>
    <time>2012-04-30T14:52:06Z</time>
   </trkpt>
   <trkpt lat="46.2370948791504" lon="7.3044867515564">
    <ele>616.333312988281</ele>
    <time>2012-04-30T14:52:07Z</time>
   </trkpt>
   <trkpt lat="46.2371215820312" lon="7.30448770523071">
    <ele>616.599975585938</ele>
    <time>2012-04-30T14:52:08Z</time>
   </trkpt>
   <trkpt lat="46.2371482849121" lon="7.30448818206787">
    <ele>616.599975585938</ele>
    <time>2012-04-30T14:52:09Z</time>
   </trkpt>
   <trkpt lat="46.2373085021973" lon="7.30448055267334">
    <ele>618.070007324219</ele>
    <time>2012-04-30T14:52:16Z</time>
   </trkpt>
   <trkpt lat="46.2373352050781" lon="7.30448579788208">
    <ele>618.279968261719</ele>
    <time>2012-04-30T14:52:17Z</time>
   </trkpt>
   <trkpt lat="46.2373580932617" lon="7.30448722839356">
    <ele>618.489990234375</ele>
    <time>2012-04-30T14:52:18Z</time>
   </trkpt>
   <trkpt lat="46.2373809814453" lon="7.30448627471924">
    <ele>618.699951171875</ele>
    <time>2012-04-30T14:52:19Z</time>
   </trkpt>
   <trkpt lat="46.2374114990234" lon="7.30448246002197">
    <ele>618.909973144531</ele>
    <time>2012-04-30T14:52:20Z</time>
   </trkpt>
   <trkpt lat="46.2375259399414" lon="7.30448055267334">
    <ele>619.9599609375</ele>
    <time>2012-04-30T14:52:25Z</time>
   </trkpt>
   <trkpt lat="46.237548828125" lon="7.30448389053345">
    <ele>620.169982910156</ele>
    <time>2012-04-30T14:52:26Z</time>
   </trkpt>
   <trkpt lat="46.2375717163086" lon="7.30448246002197">
    <ele>620.380004882812</ele>
    <time>2012-04-30T14:52:27Z</time>
   </trkpt>
   <trkpt lat="46.2375946044922" lon="7.30448007583618">
    <ele>620.589965820312</ele>
    <time>2012-04-30T14:52:28Z</time>
   </trkpt>
   <trkpt lat="46.2376174926758" lon="7.30447721481323">
    <ele>620.799987792969</ele>
    <time>2012-04-30T14:52:29Z</time>
   </trkpt>
   <trkpt lat="46.2376976013184" lon="7.30448770523071">
    <ele>620.799987792969</ele>
    <time>2012-04-30T14:52:32Z</time>
   </trkpt>
   <trkpt lat="46.2377433776856" lon="7.30448579788208">
    <ele>621.533325195312</ele>
    <time>2012-04-30T14:52:34Z</time>
   </trkpt>
   <trkpt lat="46.2377662658691" lon="7.30448770523071">
    <ele>621.900024414062</ele>
    <time>2012-04-30T14:52:35Z</time>
   </trkpt>
   <trkpt lat="46.23779296875" lon="7.30448627471924">
    <ele>622.266662597656</ele>
    <time>2012-04-30T14:52:36Z</time>
   </trkpt>
   <trkpt lat="46.2378158569336" lon="7.30448627471924">
    <ele>622.63330078125</ele>
    <time>2012-04-30T14:52:37Z</time>
   </trkpt>
   <trkpt lat="46.2378387451172" lon="7.30449295043945">
    <ele>623</ele>
    <time>2012-04-30T14:52:38Z</time>
   </trkpt>
   <trkpt lat="46.2379150390625" lon="7.30450487136841">
    <ele>623</ele>
    <time>2012-04-30T14:52:41Z</time>
   </trkpt>
   <trkpt lat="46.2381172180176" lon="7.30456590652466">
    <ele>624.466674804688</ele>
    <time>2012-04-30T14:52:49Z</time>
   </trkpt>
   <trkpt lat="46.2381439208984" lon="7.30457448959351">
    <ele>624.650024414062</ele>
    <time>2012-04-30T14:52:50Z</time>
   </trkpt>
   <trkpt lat="46.2381706237793" lon="7.30458164215088">
    <ele>624.833374023438</ele>
    <time>2012-04-30T14:52:51Z</time>
   </trkpt>
   <trkpt lat="46.2381973266602" lon="7.30459833145142">
    <ele>625.016662597656</ele>
    <time>2012-04-30T14:52:52Z</time>
   </trkpt>
   <trkpt lat="46.238224029541" lon="7.3046088218689">
    <ele>625.200012207031</ele>
    <time>2012-04-30T14:52:53Z</time>
   </trkpt>
   <trkpt lat="46.2383232116699" lon="7.30466222763062">
    <ele>625.200012207031</ele>
    <time>2012-04-30T14:52:57Z</time>
   </trkpt>
   <trkpt lat="46.2385177612305" lon="7.30480813980102">
    <ele>626.666687011719</ele>
    <time>2012-04-30T14:53:05Z</time>
   </trkpt>
   <trkpt lat="46.2385406494141" lon="7.30482721328735">
    <ele>626.850036621094</ele>
    <time>2012-04-30T14:53:06Z</time>
   </trkpt>
   <trkpt lat="46.2385635375977" lon="7.30484580993652">
    <ele>627.033325195312</ele>
    <time>2012-04-30T14:53:07Z</time>
   </trkpt>
   <trkpt lat="46.2385864257812" lon="7.30486536026001">
    <ele>627.216674804688</ele>
    <time>2012-04-30T14:53:08Z</time>
   </trkpt>
   <trkpt lat="46.2386131286621" lon="7.3048882484436">
    <ele>627.400024414062</ele>
    <time>2012-04-30T14:53:09Z</time>
   </trkpt>
   <trkpt lat="46.2387237548828" lon="7.30500793457031">
    <ele>627.400024414062</ele>
    <time>2012-04-30T14:53:14Z</time>
   </trkpt>
   <trkpt lat="46.2388801574707" lon="7.30515766143799">
    <ele>628.028564453125</ele>
    <time>2012-04-30T14:53:20Z</time>
   </trkpt>
   <trkpt lat="46.2389030456543" lon="7.30518484115601">
    <ele>628.133361816406</ele>
    <time>2012-04-30T14:53:21Z</time>
   </trkpt>
   <trkpt lat="46.2390937805176" lon="7.30532312393188">
    <ele>628.866638183594</ele>
    <time>2012-04-30T14:53:28Z</time>
   </trkpt>
   <trkpt lat="46.2391242980957" lon="7.30534029006958">
    <ele>628.971435546875</ele>
    <time>2012-04-30T14:53:29Z</time>
   </trkpt>
   <trkpt lat="46.239185333252" lon="7.30537605285644">
    <ele>629.180908203125</ele>
    <time>2012-04-30T14:53:31Z</time>
   </trkpt>
   <trkpt lat="46.2392196655273" lon="7.30538892745972">
    <ele>629.285705566406</ele>
    <time>2012-04-30T14:53:32Z</time>
   </trkpt>
   <trkpt lat="46.2392501831055" lon="7.30540609359741">
    <ele>629.390441894531</ele>
    <time>2012-04-30T14:53:33Z</time>
   </trkpt>
   <trkpt lat="46.2392845153809" lon="7.30542802810669">
    <ele>629.495239257812</ele>
    <time>2012-04-30T14:53:34Z</time>
   </trkpt>
   <trkpt lat="46.239315032959" lon="7.30544662475586">
    <ele>629.599975585938</ele>
    <time>2012-04-30T14:53:35Z</time>
   </trkpt>
   <trkpt lat="46.2393493652344" lon="7.30546188354492">
    <ele>629.599975585938</ele>
    <time>2012-04-30T14:53:36Z</time>
   </trkpt>
   <trkpt lat="46.2395362854004" lon="7.3055477142334">
    <ele>630.523071289062</ele>
    <time>2012-04-30T14:53:42Z</time>
   </trkpt>
   <trkpt lat="46.2396202087402" lon="7.30560779571533">
    <ele>630.984619140625</ele>
    <time>2012-04-30T14:53:45Z</time>
   </trkpt>
   <trkpt lat="46.2396469116211" lon="7.30562973022461">
    <ele>631.138427734375</ele>
    <time>2012-04-30T14:53:46Z</time>
   </trkpt>
   <trkpt lat="46.2396697998047" lon="7.30565500259399">
    <ele>631.292297363281</ele>
    <time>2012-04-30T14:53:47Z</time>
   </trkpt>
   <trkpt lat="46.2396926879883" lon="7.30568218231201">
    <ele>631.446105957031</ele>
    <time>2012-04-30T14:53:48Z</time>
   </trkpt>
   <trkpt lat="46.2397117614746" lon="7.30570983886719">
    <ele>631.599975585938</ele>
    <time>2012-04-30T14:53:49Z</time>
   </trkpt>
   <trkpt lat="46.2398834228516" lon="7.30592250823975">
    <ele>631.599975585938</ele>
    <time>2012-04-30T14:53:57Z</time>
   </trkpt>
   <trkpt lat="46.2399749755859" lon="7.30604553222656">
    <ele>632.933288574219</ele>
    <time>2012-04-30T14:54:02Z</time>
   </trkpt>
   <trkpt lat="46.2399940490723" lon="7.30606842041016">
    <ele>633.199951171875</ele>
    <time>2012-04-30T14:54:03Z</time>
   </trkpt>
   <trkpt lat="46.2400131225586" lon="7.30609083175659">
    <ele>633.466674804688</ele>
    <time>2012-04-30T14:54:04Z</time>
   </trkpt>
   <trkpt lat="46.2400321960449" lon="7.30611324310303">
    <ele>633.733337402344</ele>
    <time>2012-04-30T14:54:05Z</time>
   </trkpt>
   <trkpt lat="46.2400817871094" lon="7.30617332458496">
    <ele>634.533325195312</ele>
    <time>2012-04-30T14:54:08Z</time>
   </trkpt>
   <trkpt lat="46.2401008605957" lon="7.30619478225708">
    <ele>634.799987792969</ele>
    <time>2012-04-30T14:54:09Z</time>
   </trkpt>
   <trkpt lat="46.2401161193848" lon="7.30621528625488">
    <ele>635.066650390625</ele>
    <time>2012-04-30T14:54:10Z</time>
   </trkpt>
   <trkpt lat="46.2401313781738" lon="7.30624008178711">
    <ele>635.333312988281</ele>
    <time>2012-04-30T14:54:11Z</time>
   </trkpt>
   <trkpt lat="46.2401504516602" lon="7.30626630783081">
    <ele>635.599975585938</ele>
    <time>2012-04-30T14:54:12Z</time>
   </trkpt>
   <trkpt lat="46.2402381896973" lon="7.3063817024231">
    <ele>636.933349609375</ele>
    <time>2012-04-30T14:54:17Z</time>
   </trkpt>
   <trkpt lat="46.2402648925781" lon="7.30640888214111">
    <ele>637.200012207031</ele>
    <time>2012-04-30T14:54:18Z</time>
   </trkpt>
   <trkpt lat="46.240291595459" lon="7.30643033981323">
    <ele>637.466674804688</ele>
    <time>2012-04-30T14:54:19Z</time>
   </trkpt>
   <trkpt lat="46.2403182983398" lon="7.30645275115967">
    <ele>637.733337402344</ele>
    <time>2012-04-30T14:54:20Z</time>
   </trkpt>
   <trkpt lat="46.2403335571289" lon="7.3064775466919">
    <ele>638</ele>
    <time>2012-04-30T14:54:21Z</time>
   </trkpt>
   <trkpt lat="46.2404365539551" lon="7.30654287338257">
    <ele>638</ele>
    <time>2012-04-30T14:54:25Z</time>
   </trkpt>
   <trkpt lat="46.2406463623047" lon="7.3065767288208">
    <ele>639.272705078125</ele>
    <time>2012-04-30T14:54:32Z</time>
   </trkpt>
   <trkpt lat="46.2406768798828" lon="7.30656957626343">
    <ele>639.454528808594</ele>
    <time>2012-04-30T14:54:33Z</time>
   </trkpt>
   <trkpt lat="46.2407112121582" lon="7.30656337738037">
    <ele>639.636352539062</ele>
    <time>2012-04-30T14:54:34Z</time>
   </trkpt>
   <trkpt lat="46.2407455444336" lon="7.3065505027771">
    <ele>639.818176269531</ele>
    <time>2012-04-30T14:54:35Z</time>
   </trkpt>
   <trkpt lat="46.2407760620117" lon="7.30653619766235">
    <ele>640</ele>
    <time>2012-04-30T14:54:36Z</time>
   </trkpt>
   <trkpt lat="46.2408485412598" lon="7.3065128326416">
    <ele>640</ele>
    <time>2012-04-30T14:54:38Z</time>
   </trkpt>
   <trkpt lat="46.2410430908203" lon="7.30649375915527">
    <ele>640.5</ele>
    <time>2012-04-30T14:54:43Z</time>
   </trkpt>
   <trkpt lat="46.2411003112793" lon="7.30647706985474">
    <ele>640.700012207031</ele>
    <time>2012-04-30T14:54:45Z</time>
   </trkpt>
   <trkpt lat="46.2412986755371" lon="7.30640840530396">
    <ele>641.299987792969</ele>
    <time>2012-04-30T14:54:51Z</time>
   </trkpt>
   <trkpt lat="46.241512298584" lon="7.30631589889526">
    <ele>642</ele>
    <time>2012-04-30T14:54:58Z</time>
   </trkpt>
   <trkpt lat="46.2415428161621" lon="7.30630254745483">
    <ele>642.100036621094</ele>
    <time>2012-04-30T14:54:59Z</time>
   </trkpt>
   <trkpt lat="46.241569519043" lon="7.30629062652588">
    <ele>642.200012207031</ele>
    <time>2012-04-30T14:55:00Z</time>
   </trkpt>
   <trkpt lat="46.2415962219238" lon="7.30627870559692">
    <ele>642.300048828125</ele>
    <time>2012-04-30T14:55:01Z</time>
   </trkpt>
   <trkpt lat="46.2416229248047" lon="7.30626583099365">
    <ele>642.400024414062</ele>
    <time>2012-04-30T14:55:02Z</time>
   </trkpt>
   <trkpt lat="46.2417831420898" lon="7.30618858337402">
    <ele>642.400024414062</ele>
    <time>2012-04-30T14:55:08Z</time>
   </trkpt>
   <trkpt lat="46.2418060302734" lon="7.30618000030518">
    <ele>642.880004882812</ele>
    <time>2012-04-30T14:55:09Z</time>
   </trkpt>
   <trkpt lat="46.2418327331543" lon="7.30617189407349">
    <ele>643.359985351562</ele>
    <time>2012-04-30T14:55:10Z</time>
   </trkpt>
   <trkpt lat="46.2418594360352" lon="7.30616283416748">
    <ele>643.840026855469</ele>
    <time>2012-04-30T14:55:11Z</time>
   </trkpt>
   <trkpt lat="46.2418823242188" lon="7.30615472793579">
    <ele>644.320007324219</ele>
    <time>2012-04-30T14:55:12Z</time>
   </trkpt>
   <trkpt lat="46.2419090270996" lon="7.30614757537842">
    <ele>644.799987792969</ele>
    <time>2012-04-30T14:55:13Z</time>
   </trkpt>
   <trkpt lat="46.2420349121094" lon="7.30613327026367">
    <ele>644.799987792969</ele>
    <time>2012-04-30T14:55:18Z</time>
   </trkpt>
   <trkpt lat="46.2421035766602" lon="7.30613565444946">
    <ele>645.85595703125</ele>
    <time>2012-04-30T14:55:21Z</time>
   </trkpt>
   <trkpt lat="46.2421264648438" lon="7.3061375617981">
    <ele>646.2080078125</ele>
    <time>2012-04-30T14:55:22Z</time>
   </trkpt>
   <trkpt lat="46.2421531677246" lon="7.30614566802978">
    <ele>646.559997558594</ele>
    <time>2012-04-30T14:55:23Z</time>
   </trkpt>
   <trkpt lat="46.2421798706055" lon="7.30615520477295">
    <ele>646.911987304688</ele>
    <time>2012-04-30T14:55:24Z</time>
   </trkpt>
   <trkpt lat="46.2422027587891" lon="7.30616998672485">
    <ele>647.263977050781</ele>
    <time>2012-04-30T14:55:25Z</time>
   </trkpt>
   <trkpt lat="46.2422752380371" lon="7.3061990737915">
    <ele>648.320007324219</ele>
    <time>2012-04-30T14:55:28Z</time>
   </trkpt>
   <trkpt lat="46.242301940918" lon="7.30620765686035">
    <ele>648.671997070312</ele>
    <time>2012-04-30T14:55:29Z</time>
   </trkpt>
   <trkpt lat="46.2423286437988" lon="7.30621862411499">
    <ele>649.023986816406</ele>
    <time>2012-04-30T14:55:30Z</time>
   </trkpt>
   <trkpt lat="46.2423553466797" lon="7.3062334060669">
    <ele>649.3759765625</ele>
    <time>2012-04-30T14:55:31Z</time>
   </trkpt>
   <trkpt lat="46.2423820495606" lon="7.30624771118164">
    <ele>649.727966308594</ele>
    <time>2012-04-30T14:55:32Z</time>
   </trkpt>
   <trkpt lat="46.2424392700195" lon="7.30626630783081">
    <ele>650.432006835938</ele>
    <time>2012-04-30T14:55:34Z</time>
   </trkpt>
   <trkpt lat="46.2424621582031" lon="7.30627536773682">
    <ele>650.783996582031</ele>
    <time>2012-04-30T14:55:35Z</time>
   </trkpt>
   <trkpt lat="46.2424850463867" lon="7.30628299713135">
    <ele>651.135986328125</ele>
    <time>2012-04-30T14:55:36Z</time>
   </trkpt>
   <trkpt lat="46.2425079345703" lon="7.30629062652588">
    <ele>651.487976074219</ele>
    <time>2012-04-30T14:55:37Z</time>
   </trkpt>
   <trkpt lat="46.2425308227539" lon="7.30629920959473">
    <ele>651.839965820312</ele>
    <time>2012-04-30T14:55:38Z</time>
   </trkpt>
   <trkpt lat="46.2425765991211" lon="7.30631494522095">
    <ele>652.544006347656</ele>
    <time>2012-04-30T14:55:40Z</time>
   </trkpt>
   <trkpt lat="46.2425956726074" lon="7.30632162094116">
    <ele>652.89599609375</ele>
    <time>2012-04-30T14:55:41Z</time>
   </trkpt>
   <trkpt lat="46.242618560791" lon="7.30632448196411">
    <ele>653.247985839844</ele>
    <time>2012-04-30T14:55:42Z</time>
   </trkpt>
   <trkpt lat="46.2426414489746" lon="7.30632734298706">
    <ele>653.599975585938</ele>
    <time>2012-04-30T14:55:43Z</time>
   </trkpt>
   <trkpt lat="46.2426910400391" lon="7.30633783340454">
    <ele>653.599975585938</ele>
    <time>2012-04-30T14:55:45Z</time>
   </trkpt>
   <trkpt lat="46.2428131103516" lon="7.306321144104">
    <ele>654.822204589844</ele>
    <time>2012-04-30T14:55:50Z</time>
   </trkpt>
   <trkpt lat="46.2428359985352" lon="7.30631399154663">
    <ele>655.066650390625</ele>
    <time>2012-04-30T14:55:51Z</time>
   </trkpt>
   <trkpt lat="46.2428588867188" lon="7.30630254745483">
    <ele>655.311096191406</ele>
    <time>2012-04-30T14:55:52Z</time>
   </trkpt>
   <trkpt lat="46.2428817749023" lon="7.30629062652588">
    <ele>655.555541992188</ele>
    <time>2012-04-30T14:55:53Z</time>
   </trkpt>
   <trkpt lat="46.2429046630859" lon="7.30627965927124">
    <ele>655.799987792969</ele>
    <time>2012-04-30T14:55:54Z</time>
   </trkpt>
   <trkpt lat="46.2430305480957" lon="7.30621480941772">
    <ele>655.799987792969</ele>
    <time>2012-04-30T14:55:59Z</time>
   </trkpt>
   <trkpt lat="46.2431106567383" lon="7.30621004104614">
    <ele>656.5615234375</ele>
    <time>2012-04-30T14:56:02Z</time>
   </trkpt>
   <trkpt lat="46.2431335449219" lon="7.30621194839478">
    <ele>656.815368652344</ele>
    <time>2012-04-30T14:56:03Z</time>
   </trkpt>
   <trkpt lat="46.2431564331055" lon="7.30621957778931">
    <ele>657.069213867188</ele>
    <time>2012-04-30T14:56:04Z</time>
   </trkpt>
   <trkpt lat="46.2431793212891" lon="7.30622911453247">
    <ele>657.323059082031</ele>
    <time>2012-04-30T14:56:05Z</time>
   </trkpt>
   <trkpt lat="46.2432022094727" lon="7.30624151229858">
    <ele>657.576904296875</ele>
    <time>2012-04-30T14:56:06Z</time>
   </trkpt>
   <trkpt lat="46.2432861328125" lon="7.30629920959473">
    <ele>658.59228515625</ele>
    <time>2012-04-30T14:56:10Z</time>
   </trkpt>
   <trkpt lat="46.2433052062988" lon="7.30632019042969">
    <ele>658.846130371094</ele>
    <time>2012-04-30T14:56:11Z</time>
   </trkpt>
   <trkpt lat="46.2433242797852" lon="7.30634164810181">
    <ele>659.099975585938</ele>
    <time>2012-04-30T14:56:12Z</time>
   </trkpt>
   <trkpt lat="46.2433433532715" lon="7.30636405944824">
    <ele>659.353881835938</ele>
    <time>2012-04-30T14:56:13Z</time>
   </trkpt>
   <trkpt lat="46.2433586120606" lon="7.30638551712036">
    <ele>659.607727050781</ele>
    <time>2012-04-30T14:56:14Z</time>
   </trkpt>
   <trkpt lat="46.2434692382812" lon="7.3065595626831">
    <ele>661.384643554688</ele>
    <time>2012-04-30T14:56:21Z</time>
   </trkpt>
   <trkpt lat="46.2434883117676" lon="7.30658483505249">
    <ele>661.638488769531</ele>
    <time>2012-04-30T14:56:22Z</time>
   </trkpt>
   <trkpt lat="46.2435035705566" lon="7.30660963058472">
    <ele>661.892333984375</ele>
    <time>2012-04-30T14:56:23Z</time>
   </trkpt>
   <trkpt lat="46.2435188293457" lon="7.30663347244263">
    <ele>662.146179199219</ele>
    <time>2012-04-30T14:56:24Z</time>
   </trkpt>
   <trkpt lat="46.2435340881348" lon="7.30665826797485">
    <ele>662.400024414062</ele>
    <time>2012-04-30T14:56:25Z</time>
   </trkpt>
   <trkpt lat="46.2436065673828" lon="7.30676221847534">
    <ele>662.400024414062</ele>
    <time>2012-04-30T14:56:29Z</time>
   </trkpt>
   <trkpt lat="46.2436256408691" lon="7.30678510665894">
    <ele>662.900024414062</ele>
    <time>2012-04-30T14:56:30Z</time>
   </trkpt>
   <trkpt lat="46.2436447143555" lon="7.30680227279663">
    <ele>663.400024414062</ele>
    <time>2012-04-30T14:56:31Z</time>
   </trkpt>
   <trkpt lat="46.2436676025391" lon="7.30681610107422">
    <ele>663.900024414062</ele>
    <time>2012-04-30T14:56:32Z</time>
   </trkpt>
   <trkpt lat="46.2436904907227" lon="7.30682897567749">
    <ele>664.400024414062</ele>
    <time>2012-04-30T14:56:33Z</time>
   </trkpt>
   <trkpt lat="46.2437400817871" lon="7.30684280395508">
    <ele>664.400024414062</ele>
    <time>2012-04-30T14:56:35Z</time>
   </trkpt>
   <trkpt lat="46.2437934875488" lon="7.30683755874634">
    <ele>665.200012207031</ele>
    <time>2012-04-30T14:56:37Z</time>
   </trkpt>
   <trkpt lat="46.2438125610352" lon="7.3068265914917">
    <ele>665.599975585938</ele>
    <time>2012-04-30T14:56:38Z</time>
   </trkpt>
   <trkpt lat="46.2438354492188" lon="7.30680751800537">
    <ele>666</ele>
    <time>2012-04-30T14:56:39Z</time>
   </trkpt>
   <trkpt lat="46.2438545227051" lon="7.30678272247314">
    <ele>666.400024414062</ele>
    <time>2012-04-30T14:56:40Z</time>
   </trkpt>
   <trkpt lat="46.2438697814941" lon="7.30674934387207">
    <ele>666.799987792969</ele>
    <time>2012-04-30T14:56:41Z</time>
   </trkpt>
   <trkpt lat="46.2438926696777" lon="7.30662965774536">
    <ele>666.799987792969</ele>
    <time>2012-04-30T14:56:44Z</time>
   </trkpt>
   <trkpt lat="46.2438430786133" lon="7.30639982223511">
    <ele>667.815368652344</ele>
    <time>2012-04-30T14:56:50Z</time>
   </trkpt>
   <trkpt lat="46.2437934875488" lon="7.30626630783081">
    <ele>668.492309570312</ele>
    <time>2012-04-30T14:56:54Z</time>
   </trkpt>
   <trkpt lat="46.2437782287598" lon="7.30623531341553">
    <ele>668.661560058594</ele>
    <time>2012-04-30T14:56:55Z</time>
   </trkpt>
   <trkpt lat="46.243766784668" lon="7.30620288848877">
    <ele>668.830749511719</ele>
    <time>2012-04-30T14:56:56Z</time>
   </trkpt>
   <trkpt lat="46.2437515258789" lon="7.30617237091064">
    <ele>669</ele>
    <time>2012-04-30T14:56:57Z</time>
   </trkpt>
   <trkpt lat="46.2437286376953" lon="7.30611181259155">
    <ele>669</ele>
    <time>2012-04-30T14:56:59Z</time>
   </trkpt>
   <trkpt lat="46.2436943054199" lon="7.30602550506592">
    <ele>669.857116699219</ele>
    <time>2012-04-30T14:57:02Z</time>
   </trkpt>
   <trkpt lat="46.2436790466309" lon="7.30599737167358">
    <ele>670.142883300781</ele>
    <time>2012-04-30T14:57:03Z</time>
   </trkpt>
   <trkpt lat="46.2436676025391" lon="7.30596828460693">
    <ele>670.428588867188</ele>
    <time>2012-04-30T14:57:04Z</time>
   </trkpt>
   <trkpt lat="46.24365234375" lon="7.30593824386597">
    <ele>670.714294433594</ele>
    <time>2012-04-30T14:57:05Z</time>
   </trkpt>
   <trkpt lat="46.2436408996582" lon="7.30591058731079">
    <ele>671</ele>
    <time>2012-04-30T14:57:06Z</time>
   </trkpt>
   <trkpt lat="46.2436294555664" lon="7.30588150024414">
    <ele>671</ele>
    <time>2012-04-30T14:57:07Z</time>
   </trkpt>
   <trkpt lat="46.2435913085938" lon="7.30578899383545">
    <ele>671.825012207031</ele>
    <time>2012-04-30T14:57:10Z</time>
   </trkpt>
   <trkpt lat="46.243579864502" lon="7.30575895309448">
    <ele>672.099975585938</ele>
    <time>2012-04-30T14:57:11Z</time>
   </trkpt>
   <trkpt lat="46.2435684204102" lon="7.30573081970215">
    <ele>672.375</ele>
    <time>2012-04-30T14:57:12Z</time>
   </trkpt>
   <trkpt lat="46.2435569763184" lon="7.3057017326355">
    <ele>672.650024414062</ele>
    <time>2012-04-30T14:57:13Z</time>
   </trkpt>
   <trkpt lat="46.2435493469238" lon="7.30567216873169">
    <ele>672.924987792969</ele>
    <time>2012-04-30T14:57:14Z</time>
   </trkpt>
   <trkpt lat="46.2435150146484" lon="7.3055157661438">
    <ele>674.300048828125</ele>
    <time>2012-04-30T14:57:19Z</time>
   </trkpt>
   <trkpt lat="46.2435111999512" lon="7.30548286437988">
    <ele>674.575012207031</ele>
    <time>2012-04-30T14:57:20Z</time>
   </trkpt>
   <trkpt lat="46.2435073852539" lon="7.30544900894165">
    <ele>674.850036621094</ele>
    <time>2012-04-30T14:57:21Z</time>
   </trkpt>
   <trkpt lat="46.2435035705566" lon="7.30541515350342">
    <ele>675.125</ele>
    <time>2012-04-30T14:57:22Z</time>
   </trkpt>
   <trkpt lat="46.2435035705566" lon="7.30538272857666">
    <ele>675.400024414062</ele>
    <time>2012-04-30T14:57:23Z</time>
   </trkpt>
   <trkpt lat="46.2434844970703" lon="7.3052167892456">
    <ele>675.400024414062</ele>
    <time>2012-04-30T14:57:28Z</time>
   </trkpt>
   <trkpt lat="46.243480682373" lon="7.30514812469482">
    <ele>676.133361816406</ele>
    <time>2012-04-30T14:57:30Z</time>
   </trkpt>
   <trkpt lat="46.243480682373" lon="7.30511331558228">
    <ele>676.5</ele>
    <time>2012-04-30T14:57:31Z</time>
   </trkpt>
   <trkpt lat="46.243480682373" lon="7.30507755279541">
    <ele>676.866638183594</ele>
    <time>2012-04-30T14:57:32Z</time>
   </trkpt>
   <trkpt lat="46.2434768676758" lon="7.30504322052002">
    <ele>677.233337402344</ele>
    <time>2012-04-30T14:57:33Z</time>
   </trkpt>
   <trkpt lat="46.2434768676758" lon="7.30500984191894">
    <ele>677.599975585938</ele>
    <time>2012-04-30T14:57:34Z</time>
   </trkpt>
   <trkpt lat="46.2434768676758" lon="7.30494260787964">
    <ele>677.599975585938</ele>
    <time>2012-04-30T14:57:36Z</time>
   </trkpt>
   <trkpt lat="46.2434616088867" lon="7.30480766296387">
    <ele>678.699951171875</ele>
    <time>2012-04-30T14:57:40Z</time>
   </trkpt>
   <trkpt lat="46.2434577941894" lon="7.304771900177">
    <ele>678.974975585938</ele>
    <time>2012-04-30T14:57:41Z</time>
   </trkpt>
   <trkpt lat="46.2434501647949" lon="7.30473709106445">
    <ele>679.25</ele>
    <time>2012-04-30T14:57:42Z</time>
   </trkpt>
   <trkpt lat="46.2434425354004" lon="7.30470371246338">
    <ele>679.524963378906</ele>
    <time>2012-04-30T14:57:43Z</time>
   </trkpt>
   <trkpt lat="46.2434349060059" lon="7.30467081069946">
    <ele>679.799987792969</ele>
    <time>2012-04-30T14:57:44Z</time>
   </trkpt>
   <trkpt lat="46.2434234619141" lon="7.3046383857727">
    <ele>679.799987792969</ele>
    <time>2012-04-30T14:57:45Z</time>
   </trkpt>
   <trkpt lat="46.2433662414551" lon="7.30448198318482">
    <ele>681.094116210938</ele>
    <time>2012-04-30T14:57:50Z</time>
   </trkpt>
   <trkpt lat="46.2433547973633" lon="7.30445146560669">
    <ele>681.352966308594</ele>
    <time>2012-04-30T14:57:51Z</time>
   </trkpt>
   <trkpt lat="46.2433471679688" lon="7.30442190170288">
    <ele>681.611755371094</ele>
    <time>2012-04-30T14:57:52Z</time>
   </trkpt>
   <trkpt lat="46.2433319091797" lon="7.30439329147339">
    <ele>681.87060546875</ele>
    <time>2012-04-30T14:57:53Z</time>
   </trkpt>
   <trkpt lat="46.2433204650879" lon="7.30436325073242">
    <ele>682.12939453125</ele>
    <time>2012-04-30T14:57:54Z</time>
   </trkpt>
   <trkpt lat="46.2432708740234" lon="7.30424690246582">
    <ele>683.164733886719</ele>
    <time>2012-04-30T14:57:58Z</time>
   </trkpt>
   <trkpt lat="46.2432594299316" lon="7.30421781539917">
    <ele>683.423522949219</ele>
    <time>2012-04-30T14:57:59Z</time>
   </trkpt>
   <trkpt lat="46.2432479858398" lon="7.30418682098389">
    <ele>683.682373046875</ele>
    <time>2012-04-30T14:58:00Z</time>
   </trkpt>
   <trkpt lat="46.243236541748" lon="7.30415630340576">
    <ele>683.941162109375</ele>
    <time>2012-04-30T14:58:01Z</time>
   </trkpt>
   <trkpt lat="46.243221282959" lon="7.304123878479">
    <ele>684.200012207031</ele>
    <time>2012-04-30T14:58:02Z</time>
   </trkpt>
   <trkpt lat="46.2432060241699" lon="7.3040566444397">
    <ele>684.200012207031</ele>
    <time>2012-04-30T14:58:04Z</time>
   </trkpt>
   <trkpt lat="46.2431983947754" lon="7.30402088165283">
    <ele>684.75</ele>
    <time>2012-04-30T14:58:05Z</time>
   </trkpt>
   <trkpt lat="46.2431945800781" lon="7.30398845672607">
    <ele>685.300048828125</ele>
    <time>2012-04-30T14:58:06Z</time>
   </trkpt>
   <trkpt lat="46.2431945800781" lon="7.30395317077637">
    <ele>685.850036621094</ele>
    <time>2012-04-30T14:58:07Z</time>
   </trkpt>
   <trkpt lat="46.2431907653809" lon="7.30391597747803">
    <ele>686.400024414062</ele>
    <time>2012-04-30T14:58:08Z</time>
   </trkpt>
   <trkpt lat="46.2431869506836" lon="7.30377817153931">
    <ele>686.400024414062</ele>
    <time>2012-04-30T14:58:12Z</time>
   </trkpt>
   <trkpt lat="46.2431831359863" lon="7.3037052154541">
    <ele>687.066711425781</ele>
    <time>2012-04-30T14:58:14Z</time>
   </trkpt>
   <trkpt lat="46.2431793212891" lon="7.30367088317871">
    <ele>687.400024414062</ele>
    <time>2012-04-30T14:58:15Z</time>
   </trkpt>
   <trkpt lat="46.2431678771973" lon="7.303635597229">
    <ele>687.733337402344</ele>
    <time>2012-04-30T14:58:16Z</time>
   </trkpt>
   <trkpt lat="46.2431526184082" lon="7.30360698699951">
    <ele>688.066711425781</ele>
    <time>2012-04-30T14:58:17Z</time>
   </trkpt>
   <trkpt lat="46.2431373596191" lon="7.30357885360718">
    <ele>688.400024414062</ele>
    <time>2012-04-30T14:58:18Z</time>
   </trkpt>
   <trkpt lat="46.2430076599121" lon="7.30349397659302">
    <ele>688.400024414062</ele>
    <time>2012-04-30T14:58:24Z</time>
   </trkpt>
   <trkpt lat="46.2429313659668" lon="7.30348825454712">
    <ele>689.3857421875</ele>
    <time>2012-04-30T14:58:27Z</time>
   </trkpt>
   <trkpt lat="46.2429084777832" lon="7.30349349975586">
    <ele>689.714294433594</ele>
    <time>2012-04-30T14:58:28Z</time>
   </trkpt>
   <trkpt lat="46.2428817749023" lon="7.30349922180176">
    <ele>690.042846679688</ele>
    <time>2012-04-30T14:58:29Z</time>
   </trkpt>
   <trkpt lat="46.2428550720215" lon="7.30350685119629">
    <ele>690.371459960938</ele>
    <time>2012-04-30T14:58:30Z</time>
   </trkpt>
   <trkpt lat="46.2428321838379" lon="7.30351161956787">
    <ele>690.700012207031</ele>
    <time>2012-04-30T14:58:31Z</time>
   </trkpt>
   <trkpt lat="46.2427558898926" lon="7.30352067947388">
    <ele>691.685729980469</ele>
    <time>2012-04-30T14:58:34Z</time>
   </trkpt>
   <trkpt lat="46.2427291870117" lon="7.30352115631104">
    <ele>692.014282226562</ele>
    <time>2012-04-30T14:58:35Z</time>
   </trkpt>
   <trkpt lat="46.2427024841309" lon="7.3035192489624">
    <ele>692.342834472656</ele>
    <time>2012-04-30T14:58:36Z</time>
   </trkpt>
   <trkpt lat="46.24267578125" lon="7.30351257324219">
    <ele>692.671447753906</ele>
    <time>2012-04-30T14:58:37Z</time>
   </trkpt>
   <trkpt lat="46.2426528930664" lon="7.30350494384766">
    <ele>693</ele>
    <time>2012-04-30T14:58:38Z</time>
   </trkpt>
   <trkpt lat="46.2426300048828" lon="7.30349159240723">
    <ele>693</ele>
    <time>2012-04-30T14:58:39Z</time>
   </trkpt>
   <trkpt lat="46.2425575256348" lon="7.30341005325317">
    <ele>694.023986816406</ele>
    <time>2012-04-30T14:58:43Z</time>
   </trkpt>
   <trkpt lat="46.2425422668457" lon="7.30338430404663">
    <ele>694.280029296875</ele>
    <time>2012-04-30T14:58:44Z</time>
   </trkpt>
   <trkpt lat="46.2425270080566" lon="7.30335521697998">
    <ele>694.536010742188</ele>
    <time>2012-04-30T14:58:45Z</time>
   </trkpt>
   <trkpt lat="46.2425117492676" lon="7.3033275604248">
    <ele>694.7919921875</ele>
    <time>2012-04-30T14:58:46Z</time>
   </trkpt>
   <trkpt lat="46.2424964904785" lon="7.3033013343811">
    <ele>695.047973632812</ele>
    <time>2012-04-30T14:58:47Z</time>
   </trkpt>
   <trkpt lat="46.2423973083496" lon="7.30313158035278">
    <ele>696.583984375</ele>
    <time>2012-04-30T14:58:53Z</time>
   </trkpt>
   <trkpt lat="46.2423820495606" lon="7.30310297012329">
    <ele>696.840026855469</ele>
    <time>2012-04-30T14:58:54Z</time>
   </trkpt>
   <trkpt lat="46.2423667907715" lon="7.30307483673096">
    <ele>697.096008300781</ele>
    <time>2012-04-30T14:58:55Z</time>
   </trkpt>
   <trkpt lat="46.2423515319824" lon="7.30304908752441">
    <ele>697.351989746094</ele>
    <time>2012-04-30T14:58:56Z</time>
   </trkpt>
   <trkpt lat="46.2423324584961" lon="7.30302095413208">
    <ele>697.608032226562</ele>
    <time>2012-04-30T14:58:57Z</time>
   </trkpt>
   <trkpt lat="46.2422676086426" lon="7.30290031433106">
    <ele>698.632019042969</ele>
    <time>2012-04-30T14:59:01Z</time>
   </trkpt>
   <trkpt lat="46.2422523498535" lon="7.30286979675293">
    <ele>698.888000488281</ele>
    <time>2012-04-30T14:59:02Z</time>
   </trkpt>
   <trkpt lat="46.2422370910644" lon="7.30283975601196">
    <ele>699.143981933594</ele>
    <time>2012-04-30T14:59:03Z</time>
   </trkpt>
   <trkpt lat="46.2422256469727" lon="7.30281352996826">
    <ele>699.400024414062</ele>
    <time>2012-04-30T14:59:04Z</time>
   </trkpt>
   <trkpt lat="46.2422103881836" lon="7.30278825759888">
    <ele>699.656005859375</ele>
    <time>2012-04-30T14:59:05Z</time>
   </trkpt>
   <trkpt lat="46.2421607971191" lon="7.30270910263062">
    <ele>700.424011230469</ele>
    <time>2012-04-30T14:59:08Z</time>
   </trkpt>
   <trkpt lat="46.2421455383301" lon="7.3026819229126">
    <ele>700.679992675781</ele>
    <time>2012-04-30T14:59:09Z</time>
   </trkpt>
   <trkpt lat="46.242130279541" lon="7.30265426635742">
    <ele>700.93603515625</ele>
    <time>2012-04-30T14:59:10Z</time>
   </trkpt>
   <trkpt lat="46.2421188354492" lon="7.30262613296509">
    <ele>701.192016601562</ele>
    <time>2012-04-30T14:59:11Z</time>
   </trkpt>
   <trkpt lat="46.2421035766602" lon="7.30259847640991">
    <ele>701.447998046875</ele>
    <time>2012-04-30T14:59:12Z</time>
   </trkpt>
   <trkpt lat="46.2420234680176" lon="7.30245590209961">
    <ele>702.72802734375</ele>
    <time>2012-04-30T14:59:17Z</time>
   </trkpt>
   <trkpt lat="46.2420082092285" lon="7.30242490768433">
    <ele>702.984008789062</ele>
    <time>2012-04-30T14:59:18Z</time>
   </trkpt>
   <trkpt lat="46.2419929504394" lon="7.30239629745483">
    <ele>703.239990234375</ele>
    <time>2012-04-30T14:59:19Z</time>
   </trkpt>
   <trkpt lat="46.2419776916504" lon="7.30236577987671">
    <ele>703.496032714844</ele>
    <time>2012-04-30T14:59:20Z</time>
   </trkpt>
   <trkpt lat="46.2419662475586" lon="7.30233478546143">
    <ele>703.752014160156</ele>
    <time>2012-04-30T14:59:21Z</time>
   </trkpt>
   <trkpt lat="46.2419281005859" lon="7.30223798751831">
    <ele>704.52001953125</ele>
    <time>2012-04-30T14:59:24Z</time>
   </trkpt>
   <trkpt lat="46.2419166564941" lon="7.3022050857544">
    <ele>704.776000976562</ele>
    <time>2012-04-30T14:59:25Z</time>
   </trkpt>
   <trkpt lat="46.2419052124023" lon="7.30217218399048">
    <ele>705.031982421875</ele>
    <time>2012-04-30T14:59:26Z</time>
   </trkpt>
   <trkpt lat="46.2418975830078" lon="7.30214262008667">
    <ele>705.288024902344</ele>
    <time>2012-04-30T14:59:27Z</time>
   </trkpt>
   <trkpt lat="46.2418899536133" lon="7.30211353302002">
    <ele>705.544006347656</ele>
    <time>2012-04-30T14:59:28Z</time>
   </trkpt>
   <trkpt lat="46.2418556213379" lon="7.30199575424194">
    <ele>706.567993164062</ele>
    <time>2012-04-30T14:59:32Z</time>
   </trkpt>
   <trkpt lat="46.2418479919434" lon="7.30196332931518">
    <ele>706.824035644531</ele>
    <time>2012-04-30T14:59:33Z</time>
   </trkpt>
   <trkpt lat="46.2418365478516" lon="7.3019289970398">
    <ele>707.080017089844</ele>
    <time>2012-04-30T14:59:34Z</time>
   </trkpt>
   <trkpt lat="46.2418251037598" lon="7.30189323425293">
    <ele>707.335998535156</ele>
    <time>2012-04-30T14:59:35Z</time>
   </trkpt>
   <trkpt lat="46.241813659668" lon="7.30186033248901">
    <ele>707.591979980469</ele>
    <time>2012-04-30T14:59:36Z</time>
   </trkpt>
   <trkpt lat="46.2417640686035" lon="7.30170106887817">
    <ele>708.872009277344</ele>
    <time>2012-04-30T14:59:41Z</time>
   </trkpt>
   <trkpt lat="46.241756439209" lon="7.30167055130005">
    <ele>709.127990722656</ele>
    <time>2012-04-30T14:59:42Z</time>
   </trkpt>
   <trkpt lat="46.2417449951172" lon="7.30163955688476">
    <ele>709.384033203125</ele>
    <time>2012-04-30T14:59:43Z</time>
   </trkpt>
   <trkpt lat="46.2417335510254" lon="7.30160999298096">
    <ele>709.640014648438</ele>
    <time>2012-04-30T14:59:44Z</time>
   </trkpt>
   <trkpt lat="46.2417221069336" lon="7.30157518386841">
    <ele>709.89599609375</ele>
    <time>2012-04-30T14:59:45Z</time>
   </trkpt>
   <trkpt lat="46.2416572570801" lon="7.30140590667725">
    <ele>711.176025390625</ele>
    <time>2012-04-30T14:59:50Z</time>
   </trkpt>
   <trkpt lat="46.241641998291" lon="7.30137825012207">
    <ele>711.432006835938</ele>
    <time>2012-04-30T14:59:51Z</time>
   </trkpt>
   <trkpt lat="46.2416305541992" lon="7.30135202407837">
    <ele>711.68798828125</ele>
    <time>2012-04-30T14:59:52Z</time>
   </trkpt>
   <trkpt lat="46.2416152954102" lon="7.30132246017456">
    <ele>711.944030761719</ele>
    <time>2012-04-30T14:59:53Z</time>
   </trkpt>
   <trkpt lat="46.2416038513184" lon="7.30129528045654">
    <ele>712.200012207031</ele>
    <time>2012-04-30T14:59:54Z</time>
   </trkpt>
   <trkpt lat="46.2415390014648" lon="7.30118417739868">
    <ele>712.200012207031</ele>
    <time>2012-04-30T14:59:58Z</time>
   </trkpt>
   <trkpt lat="46.2415046691894" lon="7.30112648010254">
    <ele>712.84619140625</ele>
    <time>2012-04-30T15:00:00Z</time>
   </trkpt>
   <trkpt lat="46.2414817810059" lon="7.3010950088501">
    <ele>713.169250488281</ele>
    <time>2012-04-30T15:00:01Z</time>
   </trkpt>
   <trkpt lat="46.2414588928223" lon="7.30107164382935">
    <ele>713.492309570312</ele>
    <time>2012-04-30T15:00:02Z</time>
   </trkpt>
   <trkpt lat="46.2414398193359" lon="7.30105113983154">
    <ele>713.8154296875</ele>
    <time>2012-04-30T15:00:03Z</time>
   </trkpt>
   <trkpt lat="46.2414207458496" lon="7.30102920532226">
    <ele>714.138488769531</ele>
    <time>2012-04-30T15:00:04Z</time>
   </trkpt>
   <trkpt lat="46.2413368225098" lon="7.30093812942505">
    <ele>715.430786132812</ele>
    <time>2012-04-30T15:00:08Z</time>
   </trkpt>
   <trkpt lat="46.2413139343262" lon="7.30091571807861">
    <ele>715.753845214844</ele>
    <time>2012-04-30T15:00:09Z</time>
   </trkpt>
   <trkpt lat="46.2412910461426" lon="7.30089521408081">
    <ele>716.076965332031</ele>
    <time>2012-04-30T15:00:10Z</time>
   </trkpt>
   <trkpt lat="46.241268157959" lon="7.3008770942688">
    <ele>716.400024414062</ele>
    <time>2012-04-30T15:00:11Z</time>
   </trkpt>
   <trkpt lat="46.2412452697754" lon="7.30085754394531">
    <ele>716.400024414062</ele>
    <time>2012-04-30T15:00:12Z</time>
   </trkpt>
   <trkpt lat="46.2411804199219" lon="7.30079889297485">
    <ele>717.369262695312</ele>
    <time>2012-04-30T15:00:15Z</time>
   </trkpt>
   <trkpt lat="46.2411613464356" lon="7.30077743530274">
    <ele>717.692321777344</ele>
    <time>2012-04-30T15:00:16Z</time>
   </trkpt>
   <trkpt lat="46.2411422729492" lon="7.30076169967651">
    <ele>718.015380859375</ele>
    <time>2012-04-30T15:00:17Z</time>
   </trkpt>
   <trkpt lat="46.2411231994629" lon="7.30074405670166">
    <ele>718.338439941406</ele>
    <time>2012-04-30T15:00:18Z</time>
   </trkpt>
   <trkpt lat="46.2411041259766" lon="7.30072546005249">
    <ele>718.661560058594</ele>
    <time>2012-04-30T15:00:19Z</time>
   </trkpt>
   <trkpt lat="46.2410659790039" lon="7.30068683624268">
    <ele>719.307678222656</ele>
    <time>2012-04-30T15:00:21Z</time>
   </trkpt>
   <trkpt lat="46.2410507202148" lon="7.30066680908203">
    <ele>719.630737304688</ele>
    <time>2012-04-30T15:00:22Z</time>
   </trkpt>
   <trkpt lat="46.2410316467285" lon="7.30064630508423">
    <ele>719.953857421875</ele>
    <time>2012-04-30T15:00:23Z</time>
   </trkpt>
   <trkpt lat="46.2410125732422" lon="7.30062532424927">
    <ele>720.276916503906</ele>
    <time>2012-04-30T15:00:24Z</time>
   </trkpt>
   <trkpt lat="46.2409973144531" lon="7.30060529708862">
    <ele>720.599975585938</ele>
    <time>2012-04-30T15:00:25Z</time>
   </trkpt>
   <trkpt lat="46.2409782409668" lon="7.30058860778809">
    <ele>720.599975585938</ele>
    <time>2012-04-30T15:00:26Z</time>
   </trkpt>
   <trkpt lat="46.2408866882324" lon="7.30049562454224">
    <ele>721.738891601562</ele>
    <time>2012-04-30T15:00:31Z</time>
   </trkpt>
   <trkpt lat="46.2408638000488" lon="7.30047845840454">
    <ele>721.966674804688</ele>
    <time>2012-04-30T15:00:32Z</time>
   </trkpt>
   <trkpt lat="46.2408447265625" lon="7.30045890808106">
    <ele>722.194396972656</ele>
    <time>2012-04-30T15:00:33Z</time>
   </trkpt>
   <trkpt lat="46.2408256530762" lon="7.30043983459473">
    <ele>722.422180175781</ele>
    <time>2012-04-30T15:00:34Z</time>
   </trkpt>
   <trkpt lat="46.2408065795898" lon="7.30042028427124">
    <ele>722.649963378906</ele>
    <time>2012-04-30T15:00:35Z</time>
   </trkpt>
   <trkpt lat="46.2407302856445" lon="7.30034875869751">
    <ele>723.333312988281</ele>
    <time>2012-04-30T15:00:38Z</time>
   </trkpt>
   <trkpt lat="46.2407112121582" lon="7.30033016204834">
    <ele>723.788879394531</ele>
    <time>2012-04-30T15:00:40Z</time>
   </trkpt>
   <trkpt lat="46.2406883239746" lon="7.30031204223633">
    <ele>724.016662597656</ele>
    <time>2012-04-30T15:00:41Z</time>
   </trkpt>
   <trkpt lat="46.2406692504883" lon="7.30029678344726">
    <ele>724.244445800781</ele>
    <time>2012-04-30T15:00:42Z</time>
   </trkpt>
   <trkpt lat="46.240650177002" lon="7.30027914047241">
    <ele>724.472229003906</ele>
    <time>2012-04-30T15:00:43Z</time>
   </trkpt>
   <trkpt lat="46.2405204772949" lon="7.30014753341675">
    <ele>726.066650390625</ele>
    <time>2012-04-30T15:00:50Z</time>
   </trkpt>
   <trkpt lat="46.2405052185059" lon="7.30012845993042">
    <ele>726.29443359375</ele>
    <time>2012-04-30T15:00:51Z</time>
   </trkpt>
   <trkpt lat="46.2404861450195" lon="7.30011081695557">
    <ele>726.522216796875</ele>
    <time>2012-04-30T15:00:52Z</time>
   </trkpt>
   <trkpt lat="46.2404670715332" lon="7.30009365081787">
    <ele>726.75</ele>
    <time>2012-04-30T15:00:53Z</time>
   </trkpt>
   <trkpt lat="46.2404479980469" lon="7.30007266998291">
    <ele>726.977783203125</ele>
    <time>2012-04-30T15:00:54Z</time>
   </trkpt>
   <trkpt lat="46.2403755187988" lon="7.29999446868896">
    <ele>727.888854980469</ele>
    <time>2012-04-30T15:00:58Z</time>
   </trkpt>
   <trkpt lat="46.2403526306152" lon="7.29997444152832">
    <ele>728.116638183594</ele>
    <time>2012-04-30T15:00:59Z</time>
   </trkpt>
   <trkpt lat="46.2403297424316" lon="7.29995584487915">
    <ele>728.344421386719</ele>
    <time>2012-04-30T15:01:00Z</time>
   </trkpt>
   <trkpt lat="46.2403106689453" lon="7.29993581771851">
    <ele>728.572204589844</ele>
    <time>2012-04-30T15:01:01Z</time>
   </trkpt>
   <trkpt lat="46.240291595459" lon="7.2999153137207">
    <ele>728.799987792969</ele>
    <time>2012-04-30T15:01:02Z</time>
   </trkpt>
   <trkpt lat="46.2402420043945" lon="7.29986047744751">
    <ele>728.799987792969</ele>
    <time>2012-04-30T15:01:05Z</time>
   </trkpt>
   <trkpt lat="46.2402229309082" lon="7.29984140396118">
    <ele>729.279968261719</ele>
    <time>2012-04-30T15:01:06Z</time>
   </trkpt>
   <trkpt lat="46.2402000427246" lon="7.29982376098633">
    <ele>729.760009765625</ele>
    <time>2012-04-30T15:01:07Z</time>
   </trkpt>
   <trkpt lat="46.2401847839356" lon="7.29980325698852">
    <ele>730.239990234375</ele>
    <time>2012-04-30T15:01:08Z</time>
   </trkpt>
   <trkpt lat="46.2401657104492" lon="7.29978466033936">
    <ele>730.720031738281</ele>
    <time>2012-04-30T15:01:09Z</time>
   </trkpt>
   <trkpt lat="46.2401428222656" lon="7.2997636795044">
    <ele>731.200012207031</ele>
    <time>2012-04-30T15:01:10Z</time>
   </trkpt>
   <trkpt lat="46.2400817871094" lon="7.29969692230225">
    <ele>731.200012207031</ele>
    <time>2012-04-30T15:01:13Z</time>
   </trkpt>
   <trkpt lat="46.2400321960449" lon="7.29962778091431">
    <ele>732.142883300781</ele>
    <time>2012-04-30T15:01:16Z</time>
   </trkpt>
   <trkpt lat="46.2400169372559" lon="7.2996015548706">
    <ele>732.457153320312</ele>
    <time>2012-04-30T15:01:17Z</time>
   </trkpt>
   <trkpt lat="46.2400016784668" lon="7.29957437515259">
    <ele>732.771423339844</ele>
    <time>2012-04-30T15:01:18Z</time>
   </trkpt>
   <trkpt lat="46.2399864196777" lon="7.29954767227173">
    <ele>733.085754394531</ele>
    <time>2012-04-30T15:01:19Z</time>
   </trkpt>
   <trkpt lat="46.2399749755859" lon="7.29952096939087">
    <ele>733.400024414062</ele>
    <time>2012-04-30T15:01:20Z</time>
   </trkpt>
   <trkpt lat="46.2399559020996" lon="7.29949331283569">
    <ele>733.400024414062</ele>
    <time>2012-04-30T15:01:21Z</time>
   </trkpt>
   <trkpt lat="46.2398948669434" lon="7.29938459396362">
    <ele>734.542907714844</ele>
    <time>2012-04-30T15:01:25Z</time>
   </trkpt>
   <trkpt lat="46.239875793457" lon="7.2993597984314">
    <ele>734.82861328125</ele>
    <time>2012-04-30T15:01:26Z</time>
   </trkpt>
   <trkpt lat="46.2398643493652" lon="7.29933309555054">
    <ele>735.114318847656</ele>
    <time>2012-04-30T15:01:27Z</time>
   </trkpt>
   <trkpt lat="46.2398490905762" lon="7.29930543899536">
    <ele>735.400024414062</ele>
    <time>2012-04-30T15:01:28Z</time>
   </trkpt>
   <trkpt lat="46.2398338317871" lon="7.29927682876587">
    <ele>735.400024414062</ele>
    <time>2012-04-30T15:01:29Z</time>
   </trkpt>
   <trkpt lat="46.2397842407227" lon="7.29919242858887">
    <ele>736.257141113281</ele>
    <time>2012-04-30T15:01:32Z</time>
   </trkpt>
   <trkpt lat="46.2397689819336" lon="7.29916381835938">
    <ele>736.542907714844</ele>
    <time>2012-04-30T15:01:33Z</time>
   </trkpt>
   <trkpt lat="46.2397499084473" lon="7.29913568496704">
    <ele>736.82861328125</ele>
    <time>2012-04-30T15:01:34Z</time>
   </trkpt>
   <trkpt lat="46.2397384643555" lon="7.29910802841186">
    <ele>737.114318847656</ele>
    <time>2012-04-30T15:01:35Z</time>
   </trkpt>
   <trkpt lat="46.2397232055664" lon="7.29908180236816">
    <ele>737.400024414062</ele>
    <time>2012-04-30T15:01:36Z</time>
   </trkpt>
   <trkpt lat="46.2397117614746" lon="7.29905319213867">
    <ele>737.400024414062</ele>
    <time>2012-04-30T15:01:37Z</time>
   </trkpt>
   <trkpt lat="46.2396392822266" lon="7.29890394210815">
    <ele>738.566650390625</ele>
    <time>2012-04-30T15:01:42Z</time>
   </trkpt>
   <trkpt lat="46.2396240234375" lon="7.2988748550415">
    <ele>738.799987792969</ele>
    <time>2012-04-30T15:01:43Z</time>
   </trkpt>
   <trkpt lat="46.2396087646484" lon="7.29884433746338">
    <ele>739.033325195312</ele>
    <time>2012-04-30T15:01:44Z</time>
   </trkpt>
   <trkpt lat="46.2395935058594" lon="7.2988133430481">
    <ele>739.266662597656</ele>
    <time>2012-04-30T15:01:45Z</time>
   </trkpt>
   <trkpt lat="46.2395782470703" lon="7.29878282546997">
    <ele>739.5</ele>
    <time>2012-04-30T15:01:46Z</time>
   </trkpt>
   <trkpt lat="46.2394981384277" lon="7.29861068725586">
    <ele>740.899963378906</ele>
    <time>2012-04-30T15:01:52Z</time>
   </trkpt>
   <trkpt lat="46.2394828796387" lon="7.29858112335205">
    <ele>741.13330078125</ele>
    <time>2012-04-30T15:01:53Z</time>
   </trkpt>
   <trkpt lat="46.2394676208496" lon="7.29855012893677">
    <ele>741.366638183594</ele>
    <time>2012-04-30T15:01:54Z</time>
   </trkpt>
   <trkpt lat="46.2394523620606" lon="7.29851675033569">
    <ele>741.599975585938</ele>
    <time>2012-04-30T15:01:55Z</time>
   </trkpt>
   <trkpt lat="46.2394371032715" lon="7.29848623275757">
    <ele>741.599975585938</ele>
    <time>2012-04-30T15:01:56Z</time>
   </trkpt>
   <trkpt lat="46.2393951416016" lon="7.29839563369751">
    <ele>742.542846679688</ele>
    <time>2012-04-30T15:01:59Z</time>
   </trkpt>
   <trkpt lat="46.2393798828125" lon="7.29836750030518">
    <ele>742.857116699219</ele>
    <time>2012-04-30T15:02:00Z</time>
   </trkpt>
   <trkpt lat="46.2393646240234" lon="7.29833841323852">
    <ele>743.17138671875</ele>
    <time>2012-04-30T15:02:01Z</time>
   </trkpt>
   <trkpt lat="46.2393531799316" lon="7.29830980300903">
    <ele>743.485717773438</ele>
    <time>2012-04-30T15:02:02Z</time>
   </trkpt>
   <trkpt lat="46.2393379211426" lon="7.29827833175659">
    <ele>743.799987792969</ele>
    <time>2012-04-30T15:02:03Z</time>
   </trkpt>
   <trkpt lat="46.2393226623535" lon="7.29825067520142">
    <ele>743.799987792969</ele>
    <time>2012-04-30T15:02:04Z</time>
   </trkpt>
   <trkpt lat="46.2392997741699" lon="7.29818916320801">
    <ele>744.533325195312</ele>
    <time>2012-04-30T15:02:06Z</time>
   </trkpt>
   <trkpt lat="46.2392845153809" lon="7.29815769195557">
    <ele>744.900024414062</ele>
    <time>2012-04-30T15:02:07Z</time>
   </trkpt>
   <trkpt lat="46.2392692565918" lon="7.29812717437744">
    <ele>745.266662597656</ele>
    <time>2012-04-30T15:02:08Z</time>
   </trkpt>
   <trkpt lat="46.2392539978027" lon="7.29809665679932">
    <ele>745.63330078125</ele>
    <time>2012-04-30T15:02:09Z</time>
   </trkpt>
   <trkpt lat="46.2392387390137" lon="7.29806661605835">
    <ele>746</ele>
    <time>2012-04-30T15:02:10Z</time>
   </trkpt>
   <trkpt lat="46.2392082214356" lon="7.29800891876221">
    <ele>746</ele>
    <time>2012-04-30T15:02:12Z</time>
   </trkpt>
   <trkpt lat="46.2391662597656" lon="7.29791164398193">
    <ele>747.200012207031</ele>
    <time>2012-04-30T15:02:15Z</time>
   </trkpt>
   <trkpt lat="46.2391548156738" lon="7.29788064956665">
    <ele>747.600036621094</ele>
    <time>2012-04-30T15:02:16Z</time>
   </trkpt>
   <trkpt lat="46.2391395568848" lon="7.29785060882568">
    <ele>748</ele>
    <time>2012-04-30T15:02:17Z</time>
   </trkpt>
   <trkpt lat="46.2391204833984" lon="7.29782199859619">
    <ele>748.400024414062</ele>
    <time>2012-04-30T15:02:18Z</time>
   </trkpt>
   <trkpt lat="46.239086151123" lon="7.29776334762573">
    <ele>748.400024414062</ele>
    <time>2012-04-30T15:02:20Z</time>
   </trkpt>
   <trkpt lat="46.2389450073242" lon="7.29753684997559">
    <ele>749.657165527344</ele>
    <time>2012-04-30T15:02:28Z</time>
   </trkpt>
   <trkpt lat="46.2389068603516" lon="7.2974853515625">
    <ele>749.971435546875</ele>
    <time>2012-04-30T15:02:30Z</time>
   </trkpt>
   <trkpt lat="46.238883972168" lon="7.29745674133301">
    <ele>750.128540039062</ele>
    <time>2012-04-30T15:02:31Z</time>
   </trkpt>
   <trkpt lat="46.2388648986816" lon="7.29742765426636">
    <ele>750.285705566406</ele>
    <time>2012-04-30T15:02:32Z</time>
   </trkpt>
   <trkpt lat="46.2388458251953" lon="7.29739809036255">
    <ele>750.442810058594</ele>
    <time>2012-04-30T15:02:33Z</time>
   </trkpt>
   <trkpt lat="46.2388229370117" lon="7.29736995697022">
    <ele>750.599975585938</ele>
    <time>2012-04-30T15:02:34Z</time>
   </trkpt>
   <trkpt lat="46.2387428283691" lon="7.29724836349487">
    <ele>750.599975585938</ele>
    <time>2012-04-30T15:02:38Z</time>
   </trkpt>
   <trkpt lat="46.2386207580566" lon="7.2970700263977">
    <ele>751.799987792969</ele>
    <time>2012-04-30T15:02:44Z</time>
   </trkpt>
   <trkpt lat="46.2386054992676" lon="7.29704093933106">
    <ele>752</ele>
    <time>2012-04-30T15:02:45Z</time>
   </trkpt>
   <trkpt lat="46.2385902404785" lon="7.29701280593872">
    <ele>752.199951171875</ele>
    <time>2012-04-30T15:02:46Z</time>
   </trkpt>
   <trkpt lat="46.2385749816894" lon="7.29698181152344">
    <ele>752.399963378906</ele>
    <time>2012-04-30T15:02:47Z</time>
   </trkpt>
   <trkpt lat="46.2385597229004" lon="7.29695224761963">
    <ele>752.599975585938</ele>
    <time>2012-04-30T15:02:48Z</time>
   </trkpt>
   <trkpt lat="46.2384300231934" lon="7.29674816131592">
    <ele>754</ele>
    <time>2012-04-30T15:02:55Z</time>
   </trkpt>
   <trkpt lat="46.2384147644043" lon="7.29672145843506">
    <ele>754.200012207031</ele>
    <time>2012-04-30T15:02:56Z</time>
   </trkpt>
   <trkpt lat="46.238395690918" lon="7.29669618606567">
    <ele>754.399963378906</ele>
    <time>2012-04-30T15:02:57Z</time>
   </trkpt>
   <trkpt lat="46.2383728027344" lon="7.29667234420776">
    <ele>754.599975585938</ele>
    <time>2012-04-30T15:02:58Z</time>
   </trkpt>
   <trkpt lat="46.2383499145508" lon="7.29664659500122">
    <ele>754.799987792969</ele>
    <time>2012-04-30T15:02:59Z</time>
   </trkpt>
   <trkpt lat="46.2382659912109" lon="7.29655456542969">
    <ele>754.799987792969</ele>
    <time>2012-04-30T15:03:03Z</time>
   </trkpt>
   <trkpt lat="46.238208770752" lon="7.29648685455322">
    <ele>755.900024414062</ele>
    <time>2012-04-30T15:03:06Z</time>
   </trkpt>
   <trkpt lat="46.2381935119629" lon="7.29645729064941">
    <ele>756.266662597656</ele>
    <time>2012-04-30T15:03:07Z</time>
   </trkpt>
   <trkpt lat="46.2381744384766" lon="7.29643058776856">
    <ele>756.63330078125</ele>
    <time>2012-04-30T15:03:08Z</time>
   </trkpt>
   <trkpt lat="46.2381591796875" lon="7.29640197753906">
    <ele>757</ele>
    <time>2012-04-30T15:03:09Z</time>
   </trkpt>
   <trkpt lat="46.2381439208984" lon="7.2963695526123">
    <ele>757</ele>
    <time>2012-04-30T15:03:10Z</time>
   </trkpt>
   <trkpt lat="46.2380867004394" lon="7.29628944396973">
    <ele>758.0615234375</ele>
    <time>2012-04-30T15:03:13Z</time>
   </trkpt>
   <trkpt lat="46.2380676269531" lon="7.29626369476318">
    <ele>758.415405273438</ele>
    <time>2012-04-30T15:03:14Z</time>
   </trkpt>
   <trkpt lat="46.2380485534668" lon="7.29623794555664">
    <ele>758.769226074219</ele>
    <time>2012-04-30T15:03:15Z</time>
   </trkpt>
   <trkpt lat="46.2380294799805" lon="7.29621362686157">
    <ele>759.123046875</ele>
    <time>2012-04-30T15:03:16Z</time>
   </trkpt>
   <trkpt lat="46.2380142211914" lon="7.2961893081665">
    <ele>759.476928710938</ele>
    <time>2012-04-30T15:03:17Z</time>
   </trkpt>
   <trkpt lat="46.237979888916" lon="7.29613971710205">
    <ele>760.1845703125</ele>
    <time>2012-04-30T15:03:19Z</time>
   </trkpt>
   <trkpt lat="46.2379608154297" lon="7.29611349105835">
    <ele>760.538452148438</ele>
    <time>2012-04-30T15:03:20Z</time>
   </trkpt>
   <trkpt lat="46.2379455566406" lon="7.29608583450317">
    <ele>760.892272949219</ele>
    <time>2012-04-30T15:03:21Z</time>
   </trkpt>
   <trkpt lat="46.2379302978516" lon="7.296058177948">
    <ele>761.246154785156</ele>
    <time>2012-04-30T15:03:22Z</time>
   </trkpt>
   <trkpt lat="46.2379150390625" lon="7.29602956771851">
    <ele>761.599975585938</ele>
    <time>2012-04-30T15:03:23Z</time>
   </trkpt>
   <trkpt lat="46.2378768920898" lon="7.29597187042236">
    <ele>761.599975585938</ele>
    <time>2012-04-30T15:03:25Z</time>
   </trkpt>
   <trkpt lat="46.2378120422363" lon="7.2958607673645">
    <ele>762.857116699219</ele>
    <time>2012-04-30T15:03:29Z</time>
   </trkpt>
   <trkpt lat="46.2378005981445" lon="7.29583168029785">
    <ele>763.17138671875</ele>
    <time>2012-04-30T15:03:30Z</time>
   </trkpt>
   <trkpt lat="46.2377853393555" lon="7.29580163955688">
    <ele>763.485717773438</ele>
    <time>2012-04-30T15:03:31Z</time>
   </trkpt>
   <trkpt lat="46.2377700805664" lon="7.29577207565308">
    <ele>763.799987792969</ele>
    <time>2012-04-30T15:03:32Z</time>
   </trkpt>
   <trkpt lat="46.2377548217773" lon="7.29574394226074">
    <ele>763.799987792969</ele>
    <time>2012-04-30T15:03:33Z</time>
   </trkpt>
   <trkpt lat="46.2376899719238" lon="7.29560136795044">
    <ele>765.13330078125</ele>
    <time>2012-04-30T15:03:38Z</time>
   </trkpt>
   <trkpt lat="46.237678527832" lon="7.29557275772095">
    <ele>765.400024414062</ele>
    <time>2012-04-30T15:03:39Z</time>
   </trkpt>
   <trkpt lat="46.2376670837402" lon="7.29554414749146">
    <ele>765.666687011719</ele>
    <time>2012-04-30T15:03:40Z</time>
   </trkpt>
   <trkpt lat="46.2376556396484" lon="7.2955117225647">
    <ele>765.933349609375</ele>
    <time>2012-04-30T15:03:41Z</time>
   </trkpt>
   <trkpt lat="46.2376403808594" lon="7.29548072814941">
    <ele>766.200012207031</ele>
    <time>2012-04-30T15:03:42Z</time>
   </trkpt>
   <trkpt lat="46.2375755310059" lon="7.29533386230469">
    <ele>767.533325195312</ele>
    <time>2012-04-30T15:03:47Z</time>
   </trkpt>
   <trkpt lat="46.2375640869141" lon="7.29530143737793">
    <ele>767.799987792969</ele>
    <time>2012-04-30T15:03:48Z</time>
   </trkpt>
   <trkpt lat="46.2375526428223" lon="7.29527044296265">
    <ele>768.066650390625</ele>
    <time>2012-04-30T15:03:49Z</time>
   </trkpt>
   <trkpt lat="46.2375450134277" lon="7.29523944854736">
    <ele>768.333312988281</ele>
    <time>2012-04-30T15:03:50Z</time>
   </trkpt>
   <trkpt lat="46.2375335693359" lon="7.29520845413208">
    <ele>768.599975585938</ele>
    <time>2012-04-30T15:03:51Z</time>
   </trkpt>
   <trkpt lat="46.2374992370606" lon="7.29511404037476">
    <ele>769.400024414062</ele>
    <time>2012-04-30T15:03:54Z</time>
   </trkpt>
   <trkpt lat="46.2374877929688" lon="7.29508256912232">
    <ele>769.666687011719</ele>
    <time>2012-04-30T15:03:55Z</time>
   </trkpt>
   <trkpt lat="46.2374725341797" lon="7.29505109786987">
    <ele>769.933349609375</ele>
    <time>2012-04-30T15:03:56Z</time>
   </trkpt>
   <trkpt lat="46.2374610900879" lon="7.29502201080322">
    <ele>770.200012207031</ele>
    <time>2012-04-30T15:03:57Z</time>
   </trkpt>
   <trkpt lat="46.2373962402344" lon="7.29483032226562">
    <ele>770.200012207031</ele>
    <time>2012-04-30T15:04:03Z</time>
   </trkpt>
   <trkpt lat="46.237377166748" lon="7.2947678565979">
    <ele>770.952941894531</ele>
    <time>2012-04-30T15:04:05Z</time>
   </trkpt>
   <trkpt lat="46.2373657226562" lon="7.29473733901978">
    <ele>771.329406738281</ele>
    <time>2012-04-30T15:04:06Z</time>
   </trkpt>
   <trkpt lat="46.2373580932617" lon="7.29470348358154">
    <ele>771.705871582031</ele>
    <time>2012-04-30T15:04:07Z</time>
   </trkpt>
   <trkpt lat="46.2373466491699" lon="7.2946720123291">
    <ele>772.082336425781</ele>
    <time>2012-04-30T15:04:08Z</time>
   </trkpt>
   <trkpt lat="46.2373390197754" lon="7.2946400642395">
    <ele>772.458801269531</ele>
    <time>2012-04-30T15:04:09Z</time>
   </trkpt>
   <trkpt lat="46.2373123168945" lon="7.29454326629639">
    <ele>773.588256835938</ele>
    <time>2012-04-30T15:04:12Z</time>
   </trkpt>
   <trkpt lat="46.2373046875" lon="7.29450702667236">
    <ele>773.964721679688</ele>
    <time>2012-04-30T15:04:13Z</time>
   </trkpt>
   <trkpt lat="46.2372970581055" lon="7.29447174072266">
    <ele>774.341186523438</ele>
    <time>2012-04-30T15:04:14Z</time>
   </trkpt>
   <trkpt lat="46.2372856140137" lon="7.29443740844726">
    <ele>774.717651367188</ele>
    <time>2012-04-30T15:04:15Z</time>
   </trkpt>
   <trkpt lat="46.2372817993164" lon="7.29440116882324">
    <ele>775.094116210938</ele>
    <time>2012-04-30T15:04:16Z</time>
   </trkpt>
   <trkpt lat="46.2372741699219" lon="7.2943639755249">
    <ele>775.470581054688</ele>
    <time>2012-04-30T15:04:17Z</time>
   </trkpt>
   <trkpt lat="46.2372703552246" lon="7.29432773590088">
    <ele>775.847045898438</ele>
    <time>2012-04-30T15:04:18Z</time>
   </trkpt>
   <trkpt lat="46.2372665405273" lon="7.29429292678833">
    <ele>776.223510742188</ele>
    <time>2012-04-30T15:04:19Z</time>
   </trkpt>
   <trkpt lat="46.2372627258301" lon="7.29425859451294">
    <ele>776.599975585938</ele>
    <time>2012-04-30T15:04:20Z</time>
   </trkpt>
   <trkpt lat="46.2372550964356" lon="7.29422187805176">
    <ele>776.599975585938</ele>
    <time>2012-04-30T15:04:21Z</time>
   </trkpt>
   <trkpt lat="46.237232208252" lon="7.29399871826172">
    <ele>777.47998046875</ele>
    <time>2012-04-30T15:04:27Z</time>
   </trkpt>
   <trkpt lat="46.237232208252" lon="7.29389333724976">
    <ele>777.919982910156</ele>
    <time>2012-04-30T15:04:30Z</time>
   </trkpt>
   <trkpt lat="46.2372398376465" lon="7.29382181167602">
    <ele>778.213317871094</ele>
    <time>2012-04-30T15:04:32Z</time>
   </trkpt>
   <trkpt lat="46.2372398376465" lon="7.293785572052">
    <ele>778.359985351562</ele>
    <time>2012-04-30T15:04:33Z</time>
   </trkpt>
   <trkpt lat="46.2372436523438" lon="7.29374885559082">
    <ele>778.506652832031</ele>
    <time>2012-04-30T15:04:34Z</time>
   </trkpt>
   <trkpt lat="46.237247467041" lon="7.29371404647827">
    <ele>778.6533203125</ele>
    <time>2012-04-30T15:04:35Z</time>
   </trkpt>
   <trkpt lat="46.2372512817383" lon="7.29367828369141">
    <ele>778.799987792969</ele>
    <time>2012-04-30T15:04:36Z</time>
   </trkpt>
   <trkpt lat="46.2372589111328" lon="7.29360580444336">
    <ele>778.799987792969</ele>
    <time>2012-04-30T15:04:38Z</time>
   </trkpt>
   <trkpt lat="46.2372894287109" lon="7.29343891143799">
    <ele>780.05712890625</ele>
    <time>2012-04-30T15:04:42Z</time>
   </trkpt>
   <trkpt lat="46.2373085021973" lon="7.29337024688721">
    <ele>781</ele>
    <time>2012-04-30T15:04:45Z</time>
   </trkpt>
   <trkpt lat="46.2373199462891" lon="7.29333734512329">
    <ele>781</ele>
    <time>2012-04-30T15:04:46Z</time>
   </trkpt>
   <trkpt lat="46.2374076843262" lon="7.29308080673218">
    <ele>782.768432617188</ele>
    <time>2012-04-30T15:04:54Z</time>
   </trkpt>
   <trkpt lat="46.237419128418" lon="7.29305171966553">
    <ele>782.989501953125</ele>
    <time>2012-04-30T15:04:55Z</time>
   </trkpt>
   <trkpt lat="46.237434387207" lon="7.29302024841309">
    <ele>783.210510253906</ele>
    <time>2012-04-30T15:04:56Z</time>
   </trkpt>
   <trkpt lat="46.2374496459961" lon="7.29299259185791">
    <ele>783.431579589844</ele>
    <time>2012-04-30T15:04:57Z</time>
   </trkpt>
   <trkpt lat="46.2374649047852" lon="7.29296350479126">
    <ele>783.652648925781</ele>
    <time>2012-04-30T15:04:58Z</time>
   </trkpt>
   <trkpt lat="46.2375144958496" lon="7.2928729057312">
    <ele>784.315795898438</ele>
    <time>2012-04-30T15:05:01Z</time>
   </trkpt>
   <trkpt lat="46.2375297546387" lon="7.29284572601318">
    <ele>784.536865234375</ele>
    <time>2012-04-30T15:05:02Z</time>
   </trkpt>
   <trkpt lat="46.2375450134277" lon="7.29281854629517">
    <ele>784.757934570312</ele>
    <time>2012-04-30T15:05:03Z</time>
   </trkpt>
   <trkpt lat="46.2375640869141" lon="7.29279470443726">
    <ele>784.978942871094</ele>
    <time>2012-04-30T15:05:04Z</time>
   </trkpt>
   <trkpt lat="46.2375869750977" lon="7.2927680015564">
    <ele>785.200012207031</ele>
    <time>2012-04-30T15:05:05Z</time>
   </trkpt>
   <trkpt lat="46.2376403808594" lon="7.29270601272583">
    <ele>785.200012207031</ele>
    <time>2012-04-30T15:05:08Z</time>
   </trkpt>
   <trkpt lat="46.2377662658691" lon="7.29257726669312">
    <ele>786.775024414062</ele>
    <time>2012-04-30T15:05:14Z</time>
   </trkpt>
   <trkpt lat="46.2377891540527" lon="7.29255962371826">
    <ele>787.037536621094</ele>
    <time>2012-04-30T15:05:15Z</time>
   </trkpt>
   <trkpt lat="46.2378120422363" lon="7.29254293441772">
    <ele>787.300048828125</ele>
    <time>2012-04-30T15:05:16Z</time>
   </trkpt>
   <trkpt lat="46.2378349304199" lon="7.2925271987915">
    <ele>787.5625</ele>
    <time>2012-04-30T15:05:17Z</time>
   </trkpt>
   <trkpt lat="46.2378540039062" lon="7.29251194000244">
    <ele>787.825012207031</ele>
    <time>2012-04-30T15:05:18Z</time>
   </trkpt>
   <trkpt lat="46.2378768920898" lon="7.29249954223633">
    <ele>788.087524414062</ele>
    <time>2012-04-30T15:05:19Z</time>
   </trkpt>
   <trkpt lat="46.2378997802734" lon="7.29248476028442">
    <ele>788.350036621094</ele>
    <time>2012-04-30T15:05:20Z</time>
   </trkpt>
   <trkpt lat="46.2379188537598" lon="7.29246997833252">
    <ele>788.612548828125</ele>
    <time>2012-04-30T15:05:21Z</time>
   </trkpt>
   <trkpt lat="46.2379417419434" lon="7.29245567321777">
    <ele>788.875</ele>
    <time>2012-04-30T15:05:22Z</time>
   </trkpt>
   <trkpt lat="46.237964630127" lon="7.29244041442871">
    <ele>789.137512207031</ele>
    <time>2012-04-30T15:05:23Z</time>
   </trkpt>
   <trkpt lat="46.2379875183106" lon="7.29242753982544">
    <ele>789.400024414062</ele>
    <time>2012-04-30T15:05:24Z</time>
   </trkpt>
   <trkpt lat="46.2381744384766" lon="7.29232406616211">
    <ele>789.400024414062</ele>
    <time>2012-04-30T15:05:32Z</time>
   </trkpt>
   <trkpt lat="46.2381935119629" lon="7.2923092842102">
    <ele>789.764709472656</ele>
    <time>2012-04-30T15:05:33Z</time>
   </trkpt>
   <trkpt lat="46.2382164001465" lon="7.29229211807251">
    <ele>790.129455566406</ele>
    <time>2012-04-30T15:05:34Z</time>
   </trkpt>
   <trkpt lat="46.2382354736328" lon="7.29227304458618">
    <ele>790.494140625</ele>
    <time>2012-04-30T15:05:35Z</time>
   </trkpt>
   <trkpt lat="46.2382545471191" lon="7.29225254058838">
    <ele>790.858825683594</ele>
    <time>2012-04-30T15:05:36Z</time>
   </trkpt>
   <trkpt lat="46.2383193969727" lon="7.292160987854">
    <ele>792.317626953125</ele>
    <time>2012-04-30T15:05:40Z</time>
   </trkpt>
   <trkpt lat="46.2383346557617" lon="7.29213666915894">
    <ele>792.682373046875</ele>
    <time>2012-04-30T15:05:41Z</time>
   </trkpt>
   <trkpt lat="46.2383499145508" lon="7.29211091995239">
    <ele>793.047058105469</ele>
    <time>2012-04-30T15:05:42Z</time>
   </trkpt>
   <trkpt lat="46.2383613586426" lon="7.29208087921143">
    <ele>793.411743164062</ele>
    <time>2012-04-30T15:05:43Z</time>
   </trkpt>
   <trkpt lat="46.2383689880371" lon="7.29204893112183">
    <ele>793.776489257812</ele>
    <time>2012-04-30T15:05:44Z</time>
   </trkpt>
   <trkpt lat="46.2383804321289" lon="7.29201650619507">
    <ele>794.141174316406</ele>
    <time>2012-04-30T15:05:45Z</time>
   </trkpt>
   <trkpt lat="46.2383918762207" lon="7.29198408126831">
    <ele>794.505859375</ele>
    <time>2012-04-30T15:05:46Z</time>
   </trkpt>
   <trkpt lat="46.2384033203125" lon="7.2919487953186">
    <ele>794.870544433594</ele>
    <time>2012-04-30T15:05:47Z</time>
   </trkpt>
   <trkpt lat="46.2384071350098" lon="7.29191255569458">
    <ele>795.235290527344</ele>
    <time>2012-04-30T15:05:48Z</time>
   </trkpt>
   <trkpt lat="46.2384147644043" lon="7.29187250137329">
    <ele>795.599975585938</ele>
    <time>2012-04-30T15:05:49Z</time>
   </trkpt>
   <trkpt lat="46.2384262084961" lon="7.2917366027832">
    <ele>795.599975585938</ele>
    <time>2012-04-30T15:05:53Z</time>
   </trkpt>
   <trkpt lat="46.2383766174316" lon="7.29144906997681">
    <ele>796.577758789062</ele>
    <time>2012-04-30T15:06:01Z</time>
   </trkpt>
   <trkpt lat="46.23828125" lon="7.29127216339111">
    <ele>797.311096191406</ele>
    <time>2012-04-30T15:06:07Z</time>
   </trkpt>
   <trkpt lat="46.2382659912109" lon="7.29124164581299">
    <ele>797.433349609375</ele>
    <time>2012-04-30T15:06:08Z</time>
   </trkpt>
   <trkpt lat="46.2382507324219" lon="7.29120922088623">
    <ele>797.555541992188</ele>
    <time>2012-04-30T15:06:09Z</time>
   </trkpt>
   <trkpt lat="46.2382316589356" lon="7.29117727279663">
    <ele>797.677734375</ele>
    <time>2012-04-30T15:06:10Z</time>
   </trkpt>
   <trkpt lat="46.2382125854492" lon="7.29114437103272">
    <ele>797.799987792969</ele>
    <time>2012-04-30T15:06:11Z</time>
   </trkpt>
   <trkpt lat="46.2381248474121" lon="7.29095840454102">
    <ele>797.799987792969</ele>
    <time>2012-04-30T15:06:16Z</time>
   </trkpt>
   <trkpt lat="46.2380332946777" lon="7.29070234298706">
    <ele>798.900024414062</ele>
    <time>2012-04-30T15:06:22Z</time>
   </trkpt>
   <trkpt lat="46.2380218505859" lon="7.29065608978272">
    <ele>799.083312988281</ele>
    <time>2012-04-30T15:06:23Z</time>
   </trkpt>
   <trkpt lat="46.2380027770996" lon="7.29061222076416">
    <ele>799.266662597656</ele>
    <time>2012-04-30T15:06:24Z</time>
   </trkpt>
   <trkpt lat="46.2379913330078" lon="7.29056310653686">
    <ele>799.450012207031</ele>
    <time>2012-04-30T15:06:25Z</time>
   </trkpt>
   <trkpt lat="46.237979888916" lon="7.29051542282104">
    <ele>799.63330078125</ele>
    <time>2012-04-30T15:06:26Z</time>
   </trkpt>
   <trkpt lat="46.237964630127" lon="7.29047012329102">
    <ele>799.816650390625</ele>
    <time>2012-04-30T15:06:27Z</time>
   </trkpt>
   <trkpt lat="46.2379493713379" lon="7.29042673110962">
    <ele>800</ele>
    <time>2012-04-30T15:06:28Z</time>
   </trkpt>
   <trkpt lat="46.2379417419434" lon="7.2903208732605">
    <ele>800</ele>
    <time>2012-04-30T15:06:30Z</time>
   </trkpt>
   <trkpt lat="46.2379531860352" lon="7.29006004333496">
    <ele>800.297302246094</ele>
    <time>2012-04-30T15:06:35Z</time>
   </trkpt>
   <trkpt lat="46.2380332946777" lon="7.28970623016357">
    <ele>800.713500976562</ele>
    <time>2012-04-30T15:06:42Z</time>
   </trkpt>
   <trkpt lat="46.2380027770996" lon="7.28939342498779">
    <ele>801.010803222656</ele>
    <time>2012-04-30T15:06:47Z</time>
   </trkpt>
   <trkpt lat="46.237964630127" lon="7.28921699523926">
    <ele>801.189208984375</ele>
    <time>2012-04-30T15:06:50Z</time>
   </trkpt>
   <trkpt lat="46.2379531860352" lon="7.28903484344482">
    <ele>801.367553710938</ele>
    <time>2012-04-30T15:06:53Z</time>
   </trkpt>
   <trkpt lat="46.2379302978516" lon="7.28869247436524">
    <ele>801.724304199219</ele>
    <time>2012-04-30T15:06:59Z</time>
   </trkpt>
   <trkpt lat="46.2379035949707" lon="7.28850984573364">
    <ele>801.962158203125</ele>
    <time>2012-04-30T15:07:03Z</time>
   </trkpt>
   <trkpt lat="46.2378997802734" lon="7.28846597671509">
    <ele>802.021606445312</ele>
    <time>2012-04-30T15:07:04Z</time>
   </trkpt>
   <trkpt lat="46.2378921508789" lon="7.2884259223938">
    <ele>802.081115722656</ele>
    <time>2012-04-30T15:07:05Z</time>
   </trkpt>
   <trkpt lat="46.2378883361816" lon="7.28838109970093">
    <ele>802.140563964844</ele>
    <time>2012-04-30T15:07:06Z</time>
   </trkpt>
   <trkpt lat="46.2378845214844" lon="7.28833627700806">
    <ele>802.200012207031</ele>
    <time>2012-04-30T15:07:07Z</time>
   </trkpt>
   <trkpt lat="46.2378692626953" lon="7.28821134567261">
    <ele>802.200012207031</ele>
    <time>2012-04-30T15:07:10Z</time>
   </trkpt>
   <trkpt lat="46.237865447998" lon="7.28816652297974">
    <ele>802.700012207031</ele>
    <time>2012-04-30T15:07:11Z</time>
   </trkpt>
   <trkpt lat="46.2378578186035" lon="7.28812408447266">
    <ele>803.200012207031</ele>
    <time>2012-04-30T15:07:12Z</time>
   </trkpt>
   <trkpt lat="46.2378540039062" lon="7.2880802154541">
    <ele>803.700012207031</ele>
    <time>2012-04-30T15:07:13Z</time>
   </trkpt>
   <trkpt lat="46.237850189209" lon="7.28803396224976">
    <ele>804.200012207031</ele>
    <time>2012-04-30T15:07:14Z</time>
   </trkpt>
   <trkpt lat="46.2378425598144" lon="7.28794717788696">
    <ele>804.200012207031</ele>
    <time>2012-04-30T15:07:16Z</time>
   </trkpt>
   <trkpt lat="46.2378196716309" lon="7.2878246307373">
    <ele>805.0400390625</ele>
    <time>2012-04-30T15:07:19Z</time>
   </trkpt>
   <trkpt lat="46.2378082275391" lon="7.28778791427612">
    <ele>805.320007324219</ele>
    <time>2012-04-30T15:07:20Z</time>
   </trkpt>
   <trkpt lat="46.2377967834473" lon="7.28775453567505">
    <ele>805.600036621094</ele>
    <time>2012-04-30T15:07:21Z</time>
   </trkpt>
   <trkpt lat="46.2377815246582" lon="7.28772020339966">
    <ele>805.880004882812</ele>
    <time>2012-04-30T15:07:22Z</time>
   </trkpt>
   <trkpt lat="46.2377662658691" lon="7.28768730163574">
    <ele>806.160034179688</ele>
    <time>2012-04-30T15:07:23Z</time>
   </trkpt>
   <trkpt lat="46.2377052307129" lon="7.28753995895386">
    <ele>807.280029296875</ele>
    <time>2012-04-30T15:07:27Z</time>
   </trkpt>
   <trkpt lat="46.2376861572266" lon="7.28750419616699">
    <ele>807.559997558594</ele>
    <time>2012-04-30T15:07:28Z</time>
   </trkpt>
   <trkpt lat="46.237663269043" lon="7.28746891021728">
    <ele>807.840026855469</ele>
    <time>2012-04-30T15:07:29Z</time>
   </trkpt>
   <trkpt lat="46.2376441955566" lon="7.28743600845337">
    <ele>808.119995117188</ele>
    <time>2012-04-30T15:07:30Z</time>
   </trkpt>
   <trkpt lat="46.2376289367676" lon="7.2873945236206">
    <ele>808.400024414062</ele>
    <time>2012-04-30T15:07:31Z</time>
   </trkpt>
   <trkpt lat="46.2375564575195" lon="7.28724479675293">
    <ele>808.400024414062</ele>
    <time>2012-04-30T15:07:35Z</time>
   </trkpt>
   <trkpt lat="46.2375373840332" lon="7.2872109413147">
    <ele>808.714294433594</ele>
    <time>2012-04-30T15:07:36Z</time>
   </trkpt>
   <trkpt lat="46.2375183105469" lon="7.28717613220215">
    <ele>809.028564453125</ele>
    <time>2012-04-30T15:07:37Z</time>
   </trkpt>
   <trkpt lat="46.2375030517578" lon="7.28714370727539">
    <ele>809.342895507812</ele>
    <time>2012-04-30T15:07:38Z</time>
   </trkpt>
   <trkpt lat="46.2374877929688" lon="7.28710985183716">
    <ele>809.657165527344</ele>
    <time>2012-04-30T15:07:39Z</time>
   </trkpt>
   <trkpt lat="46.2374000549316" lon="7.28691005706787">
    <ele>811.542846679688</ele>
    <time>2012-04-30T15:07:45Z</time>
   </trkpt>
   <trkpt lat="46.2373847961426" lon="7.28687572479248">
    <ele>811.857116699219</ele>
    <time>2012-04-30T15:07:46Z</time>
   </trkpt>
   <trkpt lat="46.2373695373535" lon="7.28684234619141">
    <ele>812.171447753906</ele>
    <time>2012-04-30T15:07:47Z</time>
   </trkpt>
   <trkpt lat="46.2373542785644" lon="7.28680992126465">
    <ele>812.485717773438</ele>
    <time>2012-04-30T15:07:48Z</time>
   </trkpt>
   <trkpt lat="46.2373390197754" lon="7.28677988052368">
    <ele>812.799987792969</ele>
    <time>2012-04-30T15:07:49Z</time>
   </trkpt>
   <trkpt lat="46.2372550964356" lon="7.28660774230957">
    <ele>812.799987792969</ele>
    <time>2012-04-30T15:07:54Z</time>
   </trkpt>
   <trkpt lat="46.2372398376465" lon="7.28657150268555">
    <ele>813.239990234375</ele>
    <time>2012-04-30T15:07:55Z</time>
   </trkpt>
   <trkpt lat="46.2372283935547" lon="7.28653573989868">
    <ele>813.679992675781</ele>
    <time>2012-04-30T15:07:56Z</time>
   </trkpt>
   <trkpt lat="46.2372207641602" lon="7.2864990234375">
    <ele>814.119995117188</ele>
    <time>2012-04-30T15:07:57Z</time>
   </trkpt>
   <trkpt lat="46.2372093200684" lon="7.28646183013916">
    <ele>814.559997558594</ele>
    <time>2012-04-30T15:07:58Z</time>
   </trkpt>
   <trkpt lat="46.2371978759766" lon="7.28641891479492">
    <ele>815</ele>
    <time>2012-04-30T15:07:59Z</time>
   </trkpt>
   <trkpt lat="46.2371673583984" lon="7.28629016876221">
    <ele>815</ele>
    <time>2012-04-30T15:08:02Z</time>
   </trkpt>
   <trkpt lat="46.2370948791504" lon="7.285973072052">
    <ele>815.700012207031</ele>
    <time>2012-04-30T15:08:09Z</time>
   </trkpt>
   <trkpt lat="46.237060546875" lon="7.28577423095703">
    <ele>816.099975585938</ele>
    <time>2012-04-30T15:08:13Z</time>
   </trkpt>
   <trkpt lat="46.2370262145996" lon="7.28556537628174">
    <ele>816.5</ele>
    <time>2012-04-30T15:08:17Z</time>
   </trkpt>
   <trkpt lat="46.2370223999023" lon="7.28551197052002">
    <ele>816.599975585938</ele>
    <time>2012-04-30T15:08:18Z</time>
   </trkpt>
   <trkpt lat="46.2370223999023" lon="7.28545713424683">
    <ele>816.700012207031</ele>
    <time>2012-04-30T15:08:19Z</time>
   </trkpt>
   <trkpt lat="46.2370262145996" lon="7.285400390625">
    <ele>816.799987792969</ele>
    <time>2012-04-30T15:08:20Z</time>
   </trkpt>
   <trkpt lat="46.2370338439941" lon="7.2853422164917">
    <ele>816.900024414062</ele>
    <time>2012-04-30T15:08:21Z</time>
   </trkpt>
   <trkpt lat="46.2370376586914" lon="7.28528118133545">
    <ele>817</ele>
    <time>2012-04-30T15:08:22Z</time>
   </trkpt>
   <trkpt lat="46.2370414733887" lon="7.28522491455078">
    <ele>817</ele>
    <time>2012-04-30T15:08:23Z</time>
   </trkpt>
   <trkpt lat="46.2370758056641" lon="7.28484582901001">
    <ele>817.325561523438</ele>
    <time>2012-04-30T15:08:30Z</time>
   </trkpt>
   <trkpt lat="46.2370948791504" lon="7.28446817398071">
    <ele>817.651184082031</ele>
    <time>2012-04-30T15:08:37Z</time>
   </trkpt>
   <trkpt lat="46.2370872497559" lon="7.28413677215576">
    <ele>817.930236816406</ele>
    <time>2012-04-30T15:08:43Z</time>
   </trkpt>
   <trkpt lat="46.2370910644531" lon="7.28402471542358">
    <ele>818.023254394531</ele>
    <time>2012-04-30T15:08:45Z</time>
   </trkpt>
   <trkpt lat="46.2370872497559" lon="7.28362894058228">
    <ele>818.348815917969</ele>
    <time>2012-04-30T15:08:52Z</time>
   </trkpt>
   <trkpt lat="46.2370834350586" lon="7.28357315063476">
    <ele>818.395324707031</ele>
    <time>2012-04-30T15:08:53Z</time>
   </trkpt>
   <trkpt lat="46.2370414733887" lon="7.28305149078369">
    <ele>818.81396484375</ele>
    <time>2012-04-30T15:09:02Z</time>
   </trkpt>
   <trkpt lat="46.2370376586914" lon="7.28299188613892">
    <ele>818.860473632812</ele>
    <time>2012-04-30T15:09:03Z</time>
   </trkpt>
   <trkpt lat="46.2370262145996" lon="7.28293371200562">
    <ele>818.906982421875</ele>
    <time>2012-04-30T15:09:04Z</time>
   </trkpt>
   <trkpt lat="46.2370185852051" lon="7.28287363052368">
    <ele>818.953491210938</ele>
    <time>2012-04-30T15:09:05Z</time>
   </trkpt>
   <trkpt lat="46.2370109558106" lon="7.28281497955322">
    <ele>819</ele>
    <time>2012-04-30T15:09:06Z</time>
   </trkpt>
   <trkpt lat="46.237003326416" lon="7.28270101547241">
    <ele>819</ele>
    <time>2012-04-30T15:09:08Z</time>
   </trkpt>
   <trkpt lat="46.2369918823242" lon="7.28257942199707">
    <ele>819.27099609375</ele>
    <time>2012-04-30T15:09:10Z</time>
   </trkpt>
   <trkpt lat="46.2369575500488" lon="7.28220701217651">
    <ele>820.083862304688</ele>
    <time>2012-04-30T15:09:16Z</time>
   </trkpt>
   <trkpt lat="46.2369041442871" lon="7.28197002410889">
    <ele>820.625793457031</ele>
    <time>2012-04-30T15:09:20Z</time>
   </trkpt>
   <trkpt lat="46.2368583679199" lon="7.2817964553833">
    <ele>821.032287597656</ele>
    <time>2012-04-30T15:09:23Z</time>
   </trkpt>
   <trkpt lat="46.2367973327637" lon="7.28158569335938">
    <ele>821.57421875</ele>
    <time>2012-04-30T15:09:27Z</time>
   </trkpt>
   <trkpt lat="46.2367858886719" lon="7.28153562545776">
    <ele>821.709655761719</ele>
    <time>2012-04-30T15:09:28Z</time>
   </trkpt>
   <trkpt lat="46.2367744445801" lon="7.28148698806763">
    <ele>821.845153808594</ele>
    <time>2012-04-30T15:09:29Z</time>
   </trkpt>
   <trkpt lat="46.2367668151856" lon="7.28143930435181">
    <ele>821.980651855469</ele>
    <time>2012-04-30T15:09:30Z</time>
   </trkpt>
   <trkpt lat="46.2367668151856" lon="7.28139162063599">
    <ele>822.116149902344</ele>
    <time>2012-04-30T15:09:31Z</time>
   </trkpt>
   <trkpt lat="46.2368125915527" lon="7.28123188018799">
    <ele>822.658081054688</ele>
    <time>2012-04-30T15:09:35Z</time>
   </trkpt>
   <trkpt lat="46.2368278503418" lon="7.28119468688965">
    <ele>822.793579101562</ele>
    <time>2012-04-30T15:09:36Z</time>
   </trkpt>
   <trkpt lat="46.2368507385254" lon="7.28115320205688">
    <ele>822.929016113281</ele>
    <time>2012-04-30T15:09:37Z</time>
   </trkpt>
   <trkpt lat="46.2368659973144" lon="7.28111362457275">
    <ele>823.064514160156</ele>
    <time>2012-04-30T15:09:38Z</time>
   </trkpt>
   <trkpt lat="46.2368774414062" lon="7.28107404708862">
    <ele>823.200012207031</ele>
    <time>2012-04-30T15:09:39Z</time>
   </trkpt>
   <trkpt lat="46.2369041442871" lon="7.28099870681763">
    <ele>823.200012207031</ele>
    <time>2012-04-30T15:09:41Z</time>
   </trkpt>
   <trkpt lat="46.2369384765625" lon="7.28092002868652">
    <ele>823.933349609375</ele>
    <time>2012-04-30T15:09:43Z</time>
   </trkpt>
   <trkpt lat="46.2369537353516" lon="7.28088712692261">
    <ele>824.300048828125</ele>
    <time>2012-04-30T15:09:44Z</time>
   </trkpt>
   <trkpt lat="46.2369651794434" lon="7.28084945678711">
    <ele>824.666687011719</ele>
    <time>2012-04-30T15:09:45Z</time>
   </trkpt>
   <trkpt lat="46.2369804382324" lon="7.28080701828003">
    <ele>825.033325195312</ele>
    <time>2012-04-30T15:09:46Z</time>
   </trkpt>
   <trkpt lat="46.2369995117188" lon="7.28076553344726">
    <ele>825.400024414062</ele>
    <time>2012-04-30T15:09:47Z</time>
   </trkpt>
   <trkpt lat="46.2370338439941" lon="7.28065395355225">
    <ele>825.400024414062</ele>
    <time>2012-04-30T15:09:50Z</time>
   </trkpt>
   <trkpt lat="46.2370491027832" lon="7.28061628341675">
    <ele>825.679992675781</ele>
    <time>2012-04-30T15:09:51Z</time>
   </trkpt>
   <trkpt lat="46.2370758056641" lon="7.28054046630859">
    <ele>826.239990234375</ele>
    <time>2012-04-30T15:09:53Z</time>
   </trkpt>
   <trkpt lat="46.2370910644531" lon="7.28050136566162">
    <ele>826.52001953125</ele>
    <time>2012-04-30T15:09:54Z</time>
   </trkpt>
   <trkpt lat="46.2371101379394" lon="7.2804651260376">
    <ele>826.799987792969</ele>
    <time>2012-04-30T15:09:55Z</time>
   </trkpt>
   <trkpt lat="46.2371253967285" lon="7.28042984008789">
    <ele>827.080017089844</ele>
    <time>2012-04-30T15:09:56Z</time>
   </trkpt>
   <trkpt lat="46.2371406555176" lon="7.28039646148682">
    <ele>827.359985351562</ele>
    <time>2012-04-30T15:09:57Z</time>
   </trkpt>
   <trkpt lat="46.2371826171875" lon="7.2802562713623">
    <ele>828.47998046875</ele>
    <time>2012-04-30T15:10:01Z</time>
   </trkpt>
   <trkpt lat="46.2371864318848" lon="7.28021383285522">
    <ele>828.760009765625</ele>
    <time>2012-04-30T15:10:02Z</time>
   </trkpt>
   <trkpt lat="46.237190246582" lon="7.28017520904541">
    <ele>829.039978027344</ele>
    <time>2012-04-30T15:10:03Z</time>
   </trkpt>
   <trkpt lat="46.237190246582" lon="7.28013563156128">
    <ele>829.320007324219</ele>
    <time>2012-04-30T15:10:04Z</time>
   </trkpt>
   <trkpt lat="46.2371826171875" lon="7.28009653091431">
    <ele>829.599975585938</ele>
    <time>2012-04-30T15:10:05Z</time>
   </trkpt>
   <trkpt lat="46.2371482849121" lon="7.27999687194824">
    <ele>829.599975585938</ele>
    <time>2012-04-30T15:10:08Z</time>
   </trkpt>
   <trkpt lat="46.237117767334" lon="7.27992916107178">
    <ele>830.333312988281</ele>
    <time>2012-04-30T15:10:10Z</time>
   </trkpt>
   <trkpt lat="46.2371025085449" lon="7.27989625930786">
    <ele>830.699951171875</ele>
    <time>2012-04-30T15:10:11Z</time>
   </trkpt>
   <trkpt lat="46.2370910644531" lon="7.27986431121826">
    <ele>831.066650390625</ele>
    <time>2012-04-30T15:10:12Z</time>
   </trkpt>
   <trkpt lat="46.2370758056641" lon="7.2798342704773">
    <ele>831.433349609375</ele>
    <time>2012-04-30T15:10:13Z</time>
   </trkpt>
   <trkpt lat="46.2370643615723" lon="7.27980661392212">
    <ele>831.799987792969</ele>
    <time>2012-04-30T15:10:14Z</time>
   </trkpt>
   <trkpt lat="46.2370376586914" lon="7.27974271774292">
    <ele>831.799987792969</ele>
    <time>2012-04-30T15:10:16Z</time>
   </trkpt>
   <trkpt lat="46.2370185852051" lon="7.27967214584351">
    <ele>832.466674804688</ele>
    <time>2012-04-30T15:10:18Z</time>
   </trkpt>
   <trkpt lat="46.2370109558106" lon="7.27963352203369">
    <ele>832.799987792969</ele>
    <time>2012-04-30T15:10:19Z</time>
   </trkpt>
   <trkpt lat="46.2369995117188" lon="7.27959632873535">
    <ele>833.13330078125</ele>
    <time>2012-04-30T15:10:20Z</time>
   </trkpt>
   <trkpt lat="46.2369918823242" lon="7.27955770492554">
    <ele>833.466674804688</ele>
    <time>2012-04-30T15:10:21Z</time>
   </trkpt>
   <trkpt lat="46.2369842529297" lon="7.2795205116272">
    <ele>833.799987792969</ele>
    <time>2012-04-30T15:10:22Z</time>
   </trkpt>
   <trkpt lat="46.2369766235352" lon="7.27948522567749">
    <ele>833.799987792969</ele>
    <time>2012-04-30T15:10:23Z</time>
   </trkpt>
   <trkpt lat="46.2369384765625" lon="7.27930927276611">
    <ele>835.193908691406</ele>
    <time>2012-04-30T15:10:28Z</time>
   </trkpt>
   <trkpt lat="46.236930847168" lon="7.27927303314209">
    <ele>835.472717285156</ele>
    <time>2012-04-30T15:10:29Z</time>
   </trkpt>
   <trkpt lat="46.2369232177734" lon="7.27923631668091">
    <ele>835.751525878906</ele>
    <time>2012-04-30T15:10:30Z</time>
   </trkpt>
   <trkpt lat="46.2369155883789" lon="7.27919816970825">
    <ele>836.0302734375</ele>
    <time>2012-04-30T15:10:31Z</time>
   </trkpt>
   <trkpt lat="46.236873626709" lon="7.27899599075317">
    <ele>837.703002929688</ele>
    <time>2012-04-30T15:10:37Z</time>
   </trkpt>
   <trkpt lat="46.2368659973144" lon="7.27896165847778">
    <ele>837.981811523438</ele>
    <time>2012-04-30T15:10:38Z</time>
   </trkpt>
   <trkpt lat="46.2368583679199" lon="7.27892827987671">
    <ele>838.260620117188</ele>
    <time>2012-04-30T15:10:39Z</time>
   </trkpt>
   <trkpt lat="46.2368507385254" lon="7.27889251708984">
    <ele>838.539367675781</ele>
    <time>2012-04-30T15:10:40Z</time>
   </trkpt>
   <trkpt lat="46.2368469238281" lon="7.27885675430298">
    <ele>838.818176269531</ele>
    <time>2012-04-30T15:10:41Z</time>
   </trkpt>
   <trkpt lat="46.2368087768555" lon="7.27868747711182">
    <ele>840.212097167969</ele>
    <time>2012-04-30T15:10:46Z</time>
   </trkpt>
   <trkpt lat="46.2368011474609" lon="7.2786545753479">
    <ele>840.490905761719</ele>
    <time>2012-04-30T15:10:47Z</time>
   </trkpt>
   <trkpt lat="46.2367973327637" lon="7.27862453460693">
    <ele>840.769714355469</ele>
    <time>2012-04-30T15:10:48Z</time>
   </trkpt>
   <trkpt lat="46.2367897033691" lon="7.2785906791687">
    <ele>841.048461914062</ele>
    <time>2012-04-30T15:10:49Z</time>
   </trkpt>
   <trkpt lat="46.2367820739746" lon="7.27855777740478">
    <ele>841.327270507812</ele>
    <time>2012-04-30T15:10:50Z</time>
   </trkpt>
   <trkpt lat="46.2367668151856" lon="7.27845764160156">
    <ele>842.163635253906</ele>
    <time>2012-04-30T15:10:53Z</time>
   </trkpt>
   <trkpt lat="46.2367553710938" lon="7.27842283248901">
    <ele>842.442443847656</ele>
    <time>2012-04-30T15:10:54Z</time>
   </trkpt>
   <trkpt lat="46.2367515563965" lon="7.27838516235352">
    <ele>842.72119140625</ele>
    <time>2012-04-30T15:10:55Z</time>
   </trkpt>
   <trkpt lat="46.236743927002" lon="7.27835083007812">
    <ele>843</ele>
    <time>2012-04-30T15:10:56Z</time>
   </trkpt>
   <trkpt lat="46.2367172241211" lon="7.27826023101807">
    <ele>843</ele>
    <time>2012-04-30T15:10:59Z</time>
   </trkpt>
   <trkpt lat="46.236686706543" lon="7.27816343307495">
    <ele>843.94287109375</ele>
    <time>2012-04-30T15:11:02Z</time>
   </trkpt>
   <trkpt lat="46.2366790771484" lon="7.27813339233398">
    <ele>844.257141113281</ele>
    <time>2012-04-30T15:11:03Z</time>
   </trkpt>
   <trkpt lat="46.2366676330566" lon="7.27810382843018">
    <ele>844.571411132812</ele>
    <time>2012-04-30T15:11:04Z</time>
   </trkpt>
   <trkpt lat="46.2366561889648" lon="7.27807569503784">
    <ele>844.8857421875</ele>
    <time>2012-04-30T15:11:05Z</time>
   </trkpt>
   <trkpt lat="46.2366485595703" lon="7.27804899215698">
    <ele>845.200012207031</ele>
    <time>2012-04-30T15:11:06Z</time>
   </trkpt>
   <trkpt lat="46.2366256713867" lon="7.27799272537232">
    <ele>845.200012207031</ele>
    <time>2012-04-30T15:11:08Z</time>
   </trkpt>
   <trkpt lat="46.2365646362305" lon="7.27785682678223">
    <ele>846.422241210938</ele>
    <time>2012-04-30T15:11:13Z</time>
   </trkpt>
   <trkpt lat="46.2365493774414" lon="7.27782917022705">
    <ele>846.666687011719</ele>
    <time>2012-04-30T15:11:14Z</time>
   </trkpt>
   <trkpt lat="46.2365341186523" lon="7.27780103683472">
    <ele>846.9111328125</ele>
    <time>2012-04-30T15:11:15Z</time>
   </trkpt>
   <trkpt lat="46.2365264892578" lon="7.27777481079102">
    <ele>847.155578613281</ele>
    <time>2012-04-30T15:11:16Z</time>
   </trkpt>
   <trkpt lat="46.236515045166" lon="7.27774906158447">
    <ele>847.400024414062</ele>
    <time>2012-04-30T15:11:17Z</time>
   </trkpt>
   <trkpt lat="46.2364654541016" lon="7.27764701843262">
    <ele>847.400024414062</ele>
    <time>2012-04-30T15:11:21Z</time>
   </trkpt>
   <trkpt lat="46.2364540100098" lon="7.27761936187744">
    <ele>847.75</ele>
    <time>2012-04-30T15:11:22Z</time>
   </trkpt>
   <trkpt lat="46.236442565918" lon="7.27759265899658">
    <ele>848.100036621094</ele>
    <time>2012-04-30T15:11:23Z</time>
   </trkpt>
   <trkpt lat="46.2364311218262" lon="7.27756690979004">
    <ele>848.450012207031</ele>
    <time>2012-04-30T15:11:24Z</time>
   </trkpt>
   <trkpt lat="46.2364158630371" lon="7.27754020690918">
    <ele>848.799987792969</ele>
    <time>2012-04-30T15:11:25Z</time>
   </trkpt>
   <trkpt lat="46.2364044189453" lon="7.277512550354">
    <ele>849.150024414062</ele>
    <time>2012-04-30T15:11:26Z</time>
   </trkpt>
   <trkpt lat="46.2363777160644" lon="7.27743434906006">
    <ele>850.200012207031</ele>
    <time>2012-04-30T15:11:29Z</time>
   </trkpt>
   <trkpt lat="46.2363662719727" lon="7.27741241455078">
    <ele>850.549987792969</ele>
    <time>2012-04-30T15:11:30Z</time>
   </trkpt>
   <trkpt lat="46.2363510131836" lon="7.27738904953003">
    <ele>850.899963378906</ele>
    <time>2012-04-30T15:11:31Z</time>
   </trkpt>
   <trkpt lat="46.2363433837891" lon="7.27736282348633">
    <ele>851.25</ele>
    <time>2012-04-30T15:11:32Z</time>
   </trkpt>
   <trkpt lat="46.236328125" lon="7.27733421325684">
    <ele>851.599975585938</ele>
    <time>2012-04-30T15:11:33Z</time>
   </trkpt>
   <trkpt lat="46.2363052368164" lon="7.27727794647217">
    <ele>851.599975585938</ele>
    <time>2012-04-30T15:11:35Z</time>
   </trkpt>
   <trkpt lat="46.2362747192383" lon="7.27718448638916">
    <ele>852.415344238281</ele>
    <time>2012-04-30T15:11:38Z</time>
   </trkpt>
   <trkpt lat="46.2362632751465" lon="7.27715682983398">
    <ele>852.687133789062</ele>
    <time>2012-04-30T15:11:39Z</time>
   </trkpt>
   <trkpt lat="46.2362518310547" lon="7.27713012695312">
    <ele>852.958984375</ele>
    <time>2012-04-30T15:11:40Z</time>
   </trkpt>
   <trkpt lat="46.2362442016602" lon="7.27710199356079">
    <ele>853.230773925781</ele>
    <time>2012-04-30T15:11:41Z</time>
   </trkpt>
   <trkpt lat="46.2362327575684" lon="7.27707147598267">
    <ele>853.502563476562</ele>
    <time>2012-04-30T15:11:42Z</time>
   </trkpt>
   <trkpt lat="46.2362098693848" lon="7.27696466445923">
    <ele>854.317932128906</ele>
    <time>2012-04-30T15:11:45Z</time>
   </trkpt>
   <trkpt lat="46.2362022399902" lon="7.27692699432373">
    <ele>854.589721679688</ele>
    <time>2012-04-30T15:11:46Z</time>
   </trkpt>
   <trkpt lat="46.236198425293" lon="7.27688980102539">
    <ele>854.861511230469</ele>
    <time>2012-04-30T15:11:47Z</time>
   </trkpt>
   <trkpt lat="46.2361946105957" lon="7.27685308456421">
    <ele>855.13330078125</ele>
    <time>2012-04-30T15:11:48Z</time>
   </trkpt>
   <trkpt lat="46.2361831665039" lon="7.27668571472168">
    <ele>856.492309570312</ele>
    <time>2012-04-30T15:11:53Z</time>
   </trkpt>
   <trkpt lat="46.2361793518066" lon="7.2766523361206">
    <ele>856.764099121094</ele>
    <time>2012-04-30T15:11:54Z</time>
   </trkpt>
   <trkpt lat="46.2361755371094" lon="7.27661895751953">
    <ele>857.035888671875</ele>
    <time>2012-04-30T15:11:55Z</time>
   </trkpt>
   <trkpt lat="46.2361717224121" lon="7.2765851020813">
    <ele>857.307678222656</ele>
    <time>2012-04-30T15:11:56Z</time>
   </trkpt>
   <trkpt lat="46.2361717224121" lon="7.27655506134033">
    <ele>857.579467773438</ele>
    <time>2012-04-30T15:11:57Z</time>
   </trkpt>
   <trkpt lat="46.2361679077148" lon="7.27639722824097">
    <ele>858.9384765625</ele>
    <time>2012-04-30T15:12:02Z</time>
   </trkpt>
   <trkpt lat="46.2361640930176" lon="7.27636575698852">
    <ele>859.210266113281</ele>
    <time>2012-04-30T15:12:03Z</time>
   </trkpt>
   <trkpt lat="46.2361640930176" lon="7.27633237838745">
    <ele>859.482055664062</ele>
    <time>2012-04-30T15:12:04Z</time>
   </trkpt>
   <trkpt lat="46.2361640930176" lon="7.27630043029785">
    <ele>859.753845214844</ele>
    <time>2012-04-30T15:12:05Z</time>
   </trkpt>
   <trkpt lat="46.2361640930176" lon="7.27626991271973">
    <ele>860.025634765625</ele>
    <time>2012-04-30T15:12:06Z</time>
   </trkpt>
   <trkpt lat="46.236156463623" lon="7.27614498138428">
    <ele>861.112854003906</ele>
    <time>2012-04-30T15:12:10Z</time>
   </trkpt>
   <trkpt lat="46.236156463623" lon="7.27611494064331">
    <ele>861.384643554688</ele>
    <time>2012-04-30T15:12:11Z</time>
   </trkpt>
   <trkpt lat="46.236156463623" lon="7.27608394622803">
    <ele>861.656433105469</ele>
    <time>2012-04-30T15:12:12Z</time>
   </trkpt>
   <trkpt lat="46.236156463623" lon="7.27605390548706">
    <ele>861.92822265625</ele>
    <time>2012-04-30T15:12:13Z</time>
   </trkpt>
   <trkpt lat="46.236156463623" lon="7.27602338790894">
    <ele>862.200012207031</ele>
    <time>2012-04-30T15:12:14Z</time>
   </trkpt>
   <trkpt lat="46.2361488342285" lon="7.27593183517456">
    <ele>862.200012207031</ele>
    <time>2012-04-30T15:12:17Z</time>
   </trkpt>
   <trkpt lat="46.2361335754394" lon="7.27584314346314">
    <ele>863.142883300781</ele>
    <time>2012-04-30T15:12:20Z</time>
   </trkpt>
   <trkpt lat="46.2361335754394" lon="7.27581405639648">
    <ele>863.457153320312</ele>
    <time>2012-04-30T15:12:21Z</time>
   </trkpt>
   <trkpt lat="46.2361259460449" lon="7.27578496932983">
    <ele>863.771423339844</ele>
    <time>2012-04-30T15:12:22Z</time>
   </trkpt>
   <trkpt lat="46.2361183166504" lon="7.27575302124024">
    <ele>864.085754394531</ele>
    <time>2012-04-30T15:12:23Z</time>
   </trkpt>
   <trkpt lat="46.2361145019531" lon="7.27572250366211">
    <ele>864.400024414062</ele>
    <time>2012-04-30T15:12:24Z</time>
   </trkpt>
   <trkpt lat="46.236083984375" lon="7.27563858032226">
    <ele>864.400024414062</ele>
    <time>2012-04-30T15:12:27Z</time>
   </trkpt>
   <trkpt lat="46.2360382080078" lon="7.27553558349609">
    <ele>865.657165527344</ele>
    <time>2012-04-30T15:12:31Z</time>
   </trkpt>
   <trkpt lat="46.236026763916" lon="7.27551078796387">
    <ele>865.971435546875</ele>
    <time>2012-04-30T15:12:32Z</time>
   </trkpt>
   <trkpt lat="46.2360229492188" lon="7.27548742294312">
    <ele>866.285705566406</ele>
    <time>2012-04-30T15:12:33Z</time>
   </trkpt>
   <trkpt lat="46.2360191345215" lon="7.27546215057373">
    <ele>866.599975585938</ele>
    <time>2012-04-30T15:12:34Z</time>
   </trkpt>
   <trkpt lat="46.2360153198242" lon="7.2754373550415">
    <ele>866.914306640625</ele>
    <time>2012-04-30T15:12:35Z</time>
   </trkpt>
   <trkpt lat="46.2360038757324" lon="7.27538156509399">
    <ele>867.542846679688</ele>
    <time>2012-04-30T15:12:37Z</time>
   </trkpt>
   <trkpt lat="46.2359962463379" lon="7.27535343170166">
    <ele>867.857116699219</ele>
    <time>2012-04-30T15:12:38Z</time>
   </trkpt>
   <trkpt lat="46.2359886169434" lon="7.27529001235962">
    <ele>868.485717773438</ele>
    <time>2012-04-30T15:12:40Z</time>
   </trkpt>
   <trkpt lat="46.2359924316406" lon="7.27525806427002">
    <ele>868.799987792969</ele>
    <time>2012-04-30T15:12:41Z</time>
   </trkpt>
   <trkpt lat="46.2360038757324" lon="7.2751989364624">
    <ele>868.799987792969</ele>
    <time>2012-04-30T15:12:43Z</time>
   </trkpt>
   <trkpt lat="46.2360191345215" lon="7.27508115768433">
    <ele>870.266662597656</ele>
    <time>2012-04-30T15:12:47Z</time>
   </trkpt>
   <trkpt lat="46.2360191345215" lon="7.27505254745483">
    <ele>870.63330078125</ele>
    <time>2012-04-30T15:12:48Z</time>
   </trkpt>
   <trkpt lat="46.2360343933106" lon="7.27497959136963">
    <ele>871</ele>
    <time>2012-04-30T15:12:49Z</time>
   </trkpt>
   <trkpt lat="46.2360153198242" lon="7.27484846115112">
    <ele>871</ele>
    <time>2012-04-30T15:12:54Z</time>
   </trkpt>
   <trkpt lat="46.2359886169434" lon="7.27479076385498">
    <ele>871.451049804688</ele>
    <time>2012-04-30T15:12:56Z</time>
   </trkpt>
   <trkpt lat="46.2358818054199" lon="7.2747597694397">
    <ele>872.353210449219</ele>
    <time>2012-04-30T15:13:00Z</time>
   </trkpt>
   <trkpt lat="46.2358512878418" lon="7.27476263046265">
    <ele>872.578735351562</ele>
    <time>2012-04-30T15:13:01Z</time>
   </trkpt>
   <trkpt lat="46.2357139587402" lon="7.27476406097412">
    <ele>873.706359863281</ele>
    <time>2012-04-30T15:13:06Z</time>
   </trkpt>
   <trkpt lat="46.2356834411621" lon="7.2747597694397">
    <ele>873.931884765625</ele>
    <time>2012-04-30T15:13:07Z</time>
   </trkpt>
   <trkpt lat="46.2356567382812" lon="7.27474880218506">
    <ele>874.157409667969</ele>
    <time>2012-04-30T15:13:08Z</time>
   </trkpt>
   <trkpt lat="46.2356300354004" lon="7.27473545074463">
    <ele>874.382995605469</ele>
    <time>2012-04-30T15:13:09Z</time>
   </trkpt>
   <trkpt lat="46.2355995178223" lon="7.27472496032715">
    <ele>874.608520507812</ele>
    <time>2012-04-30T15:13:10Z</time>
   </trkpt>
   <trkpt lat="46.2355728149414" lon="7.27471113204956">
    <ele>874.834045410156</ele>
    <time>2012-04-30T15:13:11Z</time>
   </trkpt>
   <trkpt lat="46.2355422973633" lon="7.27469539642334">
    <ele>875.0595703125</ele>
    <time>2012-04-30T15:13:12Z</time>
   </trkpt>
   <trkpt lat="46.2355155944824" lon="7.27467203140259">
    <ele>875.285095214844</ele>
    <time>2012-04-30T15:13:13Z</time>
   </trkpt>
   <trkpt lat="46.2354927062988" lon="7.27464580535889">
    <ele>875.510620117188</ele>
    <time>2012-04-30T15:13:14Z</time>
   </trkpt>
   <trkpt lat="46.235408782959" lon="7.27454280853272">
    <ele>876.412780761719</ele>
    <time>2012-04-30T15:13:18Z</time>
   </trkpt>
   <trkpt lat="46.2353935241699" lon="7.27451515197754">
    <ele>876.638305664062</ele>
    <time>2012-04-30T15:13:19Z</time>
   </trkpt>
   <trkpt lat="46.2353706359863" lon="7.27449226379394">
    <ele>876.863830566406</ele>
    <time>2012-04-30T15:13:20Z</time>
   </trkpt>
   <trkpt lat="46.2353477478027" lon="7.27446413040161">
    <ele>877.08935546875</ele>
    <time>2012-04-30T15:13:21Z</time>
   </trkpt>
   <trkpt lat="46.2353248596191" lon="7.27443552017212">
    <ele>877.314880371094</ele>
    <time>2012-04-30T15:13:22Z</time>
   </trkpt>
   <trkpt lat="46.2351989746094" lon="7.27426242828369">
    <ele>878.668090820312</ele>
    <time>2012-04-30T15:13:28Z</time>
   </trkpt>
   <trkpt lat="46.2351760864258" lon="7.27423715591431">
    <ele>878.893615722656</ele>
    <time>2012-04-30T15:13:29Z</time>
   </trkpt>
   <trkpt lat="46.2351608276367" lon="7.2742109298706">
    <ele>879.119140625</ele>
    <time>2012-04-30T15:13:30Z</time>
   </trkpt>
   <trkpt lat="46.2351379394531" lon="7.2741847038269">
    <ele>879.344665527344</ele>
    <time>2012-04-30T15:13:31Z</time>
   </trkpt>
   <trkpt lat="46.2351226806641" lon="7.27415227890015">
    <ele>879.570190429688</ele>
    <time>2012-04-30T15:13:32Z</time>
   </trkpt>
   <trkpt lat="46.2350463867188" lon="7.27397060394287">
    <ele>880.697875976562</ele>
    <time>2012-04-30T15:13:37Z</time>
   </trkpt>
   <trkpt lat="46.235034942627" lon="7.27392816543579">
    <ele>880.923400878906</ele>
    <time>2012-04-30T15:13:38Z</time>
   </trkpt>
   <trkpt lat="46.2350234985352" lon="7.2738766670227">
    <ele>881.14892578125</ele>
    <time>2012-04-30T15:13:39Z</time>
   </trkpt>
   <trkpt lat="46.2350120544434" lon="7.2738299369812">
    <ele>881.374450683594</ele>
    <time>2012-04-30T15:13:40Z</time>
   </trkpt>
   <trkpt lat="46.2350044250488" lon="7.27378463745117">
    <ele>881.599975585938</ele>
    <time>2012-04-30T15:13:41Z</time>
   </trkpt>
   <trkpt lat="46.2349967956543" lon="7.27373886108398">
    <ele>881.599975585938</ele>
    <time>2012-04-30T15:13:42Z</time>
   </trkpt>
   <trkpt lat="46.2349586486816" lon="7.27361488342285">
    <ele>882.430725097656</ele>
    <time>2012-04-30T15:13:45Z</time>
   </trkpt>
   <trkpt lat="46.2349433898926" lon="7.27357196807861">
    <ele>882.707702636719</ele>
    <time>2012-04-30T15:13:46Z</time>
   </trkpt>
   <trkpt lat="46.2349281311035" lon="7.27353382110596">
    <ele>882.984619140625</ele>
    <time>2012-04-30T15:13:47Z</time>
   </trkpt>
   <trkpt lat="46.2349128723144" lon="7.27349948883057">
    <ele>883.261535644531</ele>
    <time>2012-04-30T15:13:48Z</time>
   </trkpt>
   <trkpt lat="46.2348937988281" lon="7.27346849441528">
    <ele>883.538452148438</ele>
    <time>2012-04-30T15:13:49Z</time>
   </trkpt>
   <trkpt lat="46.2347946166992" lon="7.27328491210938">
    <ele>884.923095703125</ele>
    <time>2012-04-30T15:13:54Z</time>
   </trkpt>
   <trkpt lat="46.2347755432129" lon="7.27324438095093">
    <ele>885.200012207031</ele>
    <time>2012-04-30T15:13:55Z</time>
   </trkpt>
   <trkpt lat="46.2347602844238" lon="7.27320003509522">
    <ele>885.476928710938</ele>
    <time>2012-04-30T15:13:56Z</time>
   </trkpt>
   <trkpt lat="46.2347412109375" lon="7.27315950393677">
    <ele>885.753845214844</ele>
    <time>2012-04-30T15:13:57Z</time>
   </trkpt>
   <trkpt lat="46.2347259521484" lon="7.27312135696411">
    <ele>886.03076171875</ele>
    <time>2012-04-30T15:13:58Z</time>
   </trkpt>
   <trkpt lat="46.2346954345703" lon="7.27304553985596">
    <ele>886.584594726562</ele>
    <time>2012-04-30T15:14:00Z</time>
   </trkpt>
   <trkpt lat="46.2346801757812" lon="7.27300548553467">
    <ele>886.861511230469</ele>
    <time>2012-04-30T15:14:01Z</time>
   </trkpt>
   <trkpt lat="46.2346687316894" lon="7.27296924591064">
    <ele>887.138488769531</ele>
    <time>2012-04-30T15:14:02Z</time>
   </trkpt>
   <trkpt lat="46.2346534729004" lon="7.2729320526123">
    <ele>887.415405273438</ele>
    <time>2012-04-30T15:14:03Z</time>
   </trkpt>
   <trkpt lat="46.2346382141113" lon="7.27289056777954">
    <ele>887.692321777344</ele>
    <time>2012-04-30T15:14:04Z</time>
   </trkpt>
   <trkpt lat="46.2346000671387" lon="7.27276468276978">
    <ele>888.523071289062</ele>
    <time>2012-04-30T15:14:07Z</time>
   </trkpt>
   <trkpt lat="46.2345848083496" lon="7.27272748947144">
    <ele>888.799987792969</ele>
    <time>2012-04-30T15:14:08Z</time>
   </trkpt>
   <trkpt lat="46.2345695495606" lon="7.27269077301025">
    <ele>889.076904296875</ele>
    <time>2012-04-30T15:14:09Z</time>
   </trkpt>
   <trkpt lat="46.2345542907715" lon="7.27265357971191">
    <ele>889.353881835938</ele>
    <time>2012-04-30T15:14:10Z</time>
   </trkpt>
   <trkpt lat="46.2345428466797" lon="7.27261352539062">
    <ele>889.630798339844</ele>
    <time>2012-04-30T15:14:11Z</time>
   </trkpt>
   <trkpt lat="46.2344665527344" lon="7.27237224578857">
    <ele>891.292297363281</ele>
    <time>2012-04-30T15:14:17Z</time>
   </trkpt>
   <trkpt lat="46.2344627380371" lon="7.27233123779297">
    <ele>891.569274902344</ele>
    <time>2012-04-30T15:14:18Z</time>
   </trkpt>
   <trkpt lat="46.234447479248" lon="7.27229166030884">
    <ele>891.84619140625</ele>
    <time>2012-04-30T15:14:19Z</time>
   </trkpt>
   <trkpt lat="46.2344398498535" lon="7.27225065231323">
    <ele>892.123107910156</ele>
    <time>2012-04-30T15:14:20Z</time>
   </trkpt>
   <trkpt lat="46.2344398498535" lon="7.27221298217774">
    <ele>892.400024414062</ele>
    <time>2012-04-30T15:14:21Z</time>
   </trkpt>
   <trkpt lat="46.234432220459" lon="7.27213668823242">
    <ele>892.400024414062</ele>
    <time>2012-04-30T15:14:23Z</time>
   </trkpt>
   <trkpt lat="46.2344360351562" lon="7.27206039428711">
    <ele>893.066711425781</ele>
    <time>2012-04-30T15:14:25Z</time>
   </trkpt>
   <trkpt lat="46.2344398498535" lon="7.27202272415161">
    <ele>893.400024414062</ele>
    <time>2012-04-30T15:14:26Z</time>
   </trkpt>
   <trkpt lat="46.2344436645508" lon="7.27198505401611">
    <ele>893.733337402344</ele>
    <time>2012-04-30T15:14:27Z</time>
   </trkpt>
   <trkpt lat="46.234447479248" lon="7.27194213867188">
    <ele>894.066711425781</ele>
    <time>2012-04-30T15:14:28Z</time>
   </trkpt>
   <trkpt lat="46.2344551086426" lon="7.27190017700195">
    <ele>894.400024414062</ele>
    <time>2012-04-30T15:14:29Z</time>
   </trkpt>
   <trkpt lat="46.2344627380371" lon="7.2718653678894">
    <ele>894.400024414062</ele>
    <time>2012-04-30T15:14:30Z</time>
   </trkpt>
   <trkpt lat="46.2345085144043" lon="7.27170372009277">
    <ele>895.557922363281</ele>
    <time>2012-04-30T15:14:35Z</time>
   </trkpt>
   <trkpt lat="46.2345161437988" lon="7.27167129516602">
    <ele>895.789489746094</ele>
    <time>2012-04-30T15:14:36Z</time>
   </trkpt>
   <trkpt lat="46.2345275878906" lon="7.27163648605347">
    <ele>896.021057128906</ele>
    <time>2012-04-30T15:14:37Z</time>
   </trkpt>
   <trkpt lat="46.2345352172852" lon="7.27160358428955">
    <ele>896.252624511719</ele>
    <time>2012-04-30T15:14:38Z</time>
   </trkpt>
   <trkpt lat="46.2345428466797" lon="7.27157258987427">
    <ele>896.484191894531</ele>
    <time>2012-04-30T15:14:39Z</time>
   </trkpt>
   <trkpt lat="46.2345657348633" lon="7.27136898040772">
    <ele>897.873657226562</ele>
    <time>2012-04-30T15:14:45Z</time>
   </trkpt>
   <trkpt lat="46.2345657348633" lon="7.27133560180664">
    <ele>898.105285644531</ele>
    <time>2012-04-30T15:14:46Z</time>
   </trkpt>
   <trkpt lat="46.234561920166" lon="7.27129936218262">
    <ele>898.336853027344</ele>
    <time>2012-04-30T15:14:47Z</time>
   </trkpt>
   <trkpt lat="46.2345542907715" lon="7.27126502990723">
    <ele>898.568420410156</ele>
    <time>2012-04-30T15:14:48Z</time>
   </trkpt>
   <trkpt lat="46.2345504760742" lon="7.2712287902832">
    <ele>898.799987792969</ele>
    <time>2012-04-30T15:14:49Z</time>
   </trkpt>
   <trkpt lat="46.2345237731934" lon="7.27108383178711">
    <ele>898.799987792969</ele>
    <time>2012-04-30T15:14:54Z</time>
   </trkpt>
   <trkpt lat="46.234504699707" lon="7.27093839645386">
    <ele>899.688903808594</ele>
    <time>2012-04-30T15:14:58Z</time>
   </trkpt>
   <trkpt lat="46.2345085144043" lon="7.2709059715271">
    <ele>899.911071777344</ele>
    <time>2012-04-30T15:14:59Z</time>
   </trkpt>
   <trkpt lat="46.2345237731934" lon="7.27087450027466">
    <ele>900.13330078125</ele>
    <time>2012-04-30T15:15:00Z</time>
   </trkpt>
   <trkpt lat="46.2345428466797" lon="7.27086305618286">
    <ele>900.355529785156</ele>
    <time>2012-04-30T15:15:01Z</time>
   </trkpt>
   <trkpt lat="46.2345657348633" lon="7.27086400985718">
    <ele>900.577758789062</ele>
    <time>2012-04-30T15:15:02Z</time>
   </trkpt>
   <trkpt lat="46.2345886230469" lon="7.27087354660034">
    <ele>900.799987792969</ele>
    <time>2012-04-30T15:15:03Z</time>
   </trkpt>
   <trkpt lat="46.2346267700195" lon="7.27091789245606">
    <ele>900.799987792969</ele>
    <time>2012-04-30T15:15:05Z</time>
   </trkpt>
   <trkpt lat="46.2346687316894" lon="7.27104949951172">
    <ele>901.684204101562</ele>
    <time>2012-04-30T15:15:09Z</time>
   </trkpt>
   <trkpt lat="46.234676361084" lon="7.27108383178711">
    <ele>901.9052734375</ele>
    <time>2012-04-30T15:15:10Z</time>
   </trkpt>
   <trkpt lat="46.2346801757812" lon="7.27111768722534">
    <ele>902.126281738281</ele>
    <time>2012-04-30T15:15:11Z</time>
   </trkpt>
   <trkpt lat="46.2346878051758" lon="7.27115058898926">
    <ele>902.347351074219</ele>
    <time>2012-04-30T15:15:12Z</time>
   </trkpt>
   <trkpt lat="46.2346954345703" lon="7.27118253707886">
    <ele>902.568420410156</ele>
    <time>2012-04-30T15:15:13Z</time>
   </trkpt>
   <trkpt lat="46.2347564697266" lon="7.27140188217163">
    <ele>904.115783691406</ele>
    <time>2012-04-30T15:15:20Z</time>
   </trkpt>
   <trkpt lat="46.2347602844238" lon="7.27143383026123">
    <ele>904.336853027344</ele>
    <time>2012-04-30T15:15:21Z</time>
   </trkpt>
   <trkpt lat="46.2347679138184" lon="7.27146768569946">
    <ele>904.557922363281</ele>
    <time>2012-04-30T15:15:22Z</time>
   </trkpt>
   <trkpt lat="46.2347717285156" lon="7.27150011062622">
    <ele>904.778930664062</ele>
    <time>2012-04-30T15:15:23Z</time>
   </trkpt>
   <trkpt lat="46.2347793579102" lon="7.27153396606445">
    <ele>905</ele>
    <time>2012-04-30T15:15:24Z</time>
   </trkpt>
   <trkpt lat="46.2347984313965" lon="7.27162313461304">
    <ele>905</ele>
    <time>2012-04-30T15:15:27Z</time>
   </trkpt>
   <trkpt lat="46.2348403930664" lon="7.27181816101074">
    <ele>906.257141113281</ele>
    <time>2012-04-30T15:15:33Z</time>
   </trkpt>
   <trkpt lat="46.2348480224609" lon="7.27184772491455">
    <ele>906.466674804688</ele>
    <time>2012-04-30T15:15:34Z</time>
   </trkpt>
   <trkpt lat="46.2348594665527" lon="7.27187538146973">
    <ele>906.676208496094</ele>
    <time>2012-04-30T15:15:35Z</time>
   </trkpt>
   <trkpt lat="46.2348709106445" lon="7.27190351486206">
    <ele>906.8857421875</ele>
    <time>2012-04-30T15:15:36Z</time>
   </trkpt>
   <trkpt lat="46.2348861694336" lon="7.27193355560303">
    <ele>907.095275878906</ele>
    <time>2012-04-30T15:15:37Z</time>
   </trkpt>
   <trkpt lat="46.2349891662598" lon="7.27210474014282">
    <ele>908.561950683594</ele>
    <time>2012-04-30T15:15:44Z</time>
   </trkpt>
   <trkpt lat="46.2350082397461" lon="7.27212953567505">
    <ele>908.771423339844</ele>
    <time>2012-04-30T15:15:45Z</time>
   </trkpt>
   <trkpt lat="46.2350311279297" lon="7.27215003967285">
    <ele>908.98095703125</ele>
    <time>2012-04-30T15:15:46Z</time>
   </trkpt>
   <trkpt lat="46.235050201416" lon="7.27216958999634">
    <ele>909.190490722656</ele>
    <time>2012-04-30T15:15:47Z</time>
   </trkpt>
   <trkpt lat="46.2350692749023" lon="7.27219009399414">
    <ele>909.400024414062</ele>
    <time>2012-04-30T15:15:48Z</time>
   </trkpt>
   <trkpt lat="46.2351417541504" lon="7.2722806930542">
    <ele>909.400024414062</ele>
    <time>2012-04-30T15:15:52Z</time>
   </trkpt>
   <trkpt lat="46.2351913452148" lon="7.2723593711853">
    <ele>910.5</ele>
    <time>2012-04-30T15:15:55Z</time>
   </trkpt>
   <trkpt lat="46.2352027893066" lon="7.2723913192749">
    <ele>910.866638183594</ele>
    <time>2012-04-30T15:15:56Z</time>
   </trkpt>
   <trkpt lat="46.2352142333984" lon="7.27242422103882">
    <ele>911.233337402344</ele>
    <time>2012-04-30T15:15:57Z</time>
   </trkpt>
   <trkpt lat="46.2352256774902" lon="7.27245855331421">
    <ele>911.599975585938</ele>
    <time>2012-04-30T15:15:58Z</time>
   </trkpt>
   <trkpt lat="46.2352447509766" lon="7.27252388000488">
    <ele>911.599975585938</ele>
    <time>2012-04-30T15:16:00Z</time>
   </trkpt>
   <trkpt lat="46.2352523803711" lon="7.27255868911743">
    <ele>911.849975585938</ele>
    <time>2012-04-30T15:16:01Z</time>
   </trkpt>
   <trkpt lat="46.235279083252" lon="7.27266120910644">
    <ele>912.599975585938</ele>
    <time>2012-04-30T15:16:04Z</time>
   </trkpt>
   <trkpt lat="46.2352905273438" lon="7.27269506454468">
    <ele>912.849975585938</ele>
    <time>2012-04-30T15:16:05Z</time>
   </trkpt>
   <trkpt lat="46.2353019714356" lon="7.27272748947144">
    <ele>913.099975585938</ele>
    <time>2012-04-30T15:16:06Z</time>
   </trkpt>
   <trkpt lat="46.2353096008301" lon="7.27276039123535">
    <ele>913.349975585938</ele>
    <time>2012-04-30T15:16:07Z</time>
   </trkpt>
   <trkpt lat="46.2353210449219" lon="7.27279329299927">
    <ele>913.599975585938</ele>
    <time>2012-04-30T15:16:08Z</time>
   </trkpt>
   <trkpt lat="46.2353324890137" lon="7.27282810211182">
    <ele>913.599975585938</ele>
    <time>2012-04-30T15:16:09Z</time>
   </trkpt>
   <trkpt lat="46.2353782653809" lon="7.27301216125488">
    <ele>914.690856933594</ele>
    <time>2012-04-30T15:16:15Z</time>
   </trkpt>
   <trkpt lat="46.2353897094727" lon="7.27304077148438">
    <ele>914.872680664062</ele>
    <time>2012-04-30T15:16:16Z</time>
   </trkpt>
   <trkpt lat="46.2354011535644" lon="7.27306985855102">
    <ele>915.054504394531</ele>
    <time>2012-04-30T15:16:17Z</time>
   </trkpt>
   <trkpt lat="46.2354164123535" lon="7.27309608459473">
    <ele>915.236328125</ele>
    <time>2012-04-30T15:16:18Z</time>
   </trkpt>
   <trkpt lat="46.2354278564453" lon="7.2731237411499">
    <ele>915.418151855469</ele>
    <time>2012-04-30T15:16:19Z</time>
   </trkpt>
   <trkpt lat="46.2354431152344" lon="7.27314949035644">
    <ele>915.599975585938</ele>
    <time>2012-04-30T15:16:20Z</time>
   </trkpt>
   <trkpt lat="46.2354736328125" lon="7.27320432662964">
    <ele>915.599975585938</ele>
    <time>2012-04-30T15:16:22Z</time>
   </trkpt>
   <trkpt lat="46.2355499267578" lon="7.27330875396728">
    <ele>916.526306152344</ele>
    <time>2012-04-30T15:16:26Z</time>
   </trkpt>
   <trkpt lat="46.2355690002441" lon="7.2733302116394">
    <ele>916.757873535156</ele>
    <time>2012-04-30T15:16:27Z</time>
   </trkpt>
   <trkpt lat="46.2355880737305" lon="7.27334976196289">
    <ele>916.989440917969</ele>
    <time>2012-04-30T15:16:28Z</time>
   </trkpt>
   <trkpt lat="46.2356071472168" lon="7.27336931228638">
    <ele>917.221008300781</ele>
    <time>2012-04-30T15:16:29Z</time>
   </trkpt>
   <trkpt lat="46.2356262207031" lon="7.27338933944702">
    <ele>917.45263671875</ele>
    <time>2012-04-30T15:16:30Z</time>
   </trkpt>
   <trkpt lat="46.2357902526856" lon="7.27347803115845">
    <ele>919.073669433594</ele>
    <time>2012-04-30T15:16:37Z</time>
   </trkpt>
   <trkpt lat="46.2358207702637" lon="7.27348136901856">
    <ele>919.305236816406</ele>
    <time>2012-04-30T15:16:38Z</time>
   </trkpt>
   <trkpt lat="46.2358474731445" lon="7.27347803115845">
    <ele>919.536865234375</ele>
    <time>2012-04-30T15:16:39Z</time>
   </trkpt>
   <trkpt lat="46.2358741760254" lon="7.27347040176392">
    <ele>919.768432617188</ele>
    <time>2012-04-30T15:16:40Z</time>
   </trkpt>
   <trkpt lat="46.2359008789062" lon="7.27345418930054">
    <ele>920</ele>
    <time>2012-04-30T15:16:41Z</time>
   </trkpt>
   <trkpt lat="46.2359199523926" lon="7.27343225479126">
    <ele>920</ele>
    <time>2012-04-30T15:16:42Z</time>
   </trkpt>
   <trkpt lat="46.2359809875488" lon="7.27325296401978">
    <ele>920.625</ele>
    <time>2012-04-30T15:16:47Z</time>
   </trkpt>
   <trkpt lat="46.2359390258789" lon="7.27305221557617">
    <ele>921.25</ele>
    <time>2012-04-30T15:16:52Z</time>
   </trkpt>
   <trkpt lat="46.2359199523926" lon="7.27296447753906">
    <ele>921.5</ele>
    <time>2012-04-30T15:16:54Z</time>
   </trkpt>
   <trkpt lat="46.235912322998" lon="7.2729229927063">
    <ele>921.625</ele>
    <time>2012-04-30T15:16:55Z</time>
   </trkpt>
   <trkpt lat="46.2359046936035" lon="7.27287769317627">
    <ele>921.75</ele>
    <time>2012-04-30T15:16:56Z</time>
   </trkpt>
   <trkpt lat="46.235897064209" lon="7.27283096313476">
    <ele>921.875</ele>
    <time>2012-04-30T15:16:57Z</time>
   </trkpt>
   <trkpt lat="46.2358894348144" lon="7.27278327941894">
    <ele>922</ele>
    <time>2012-04-30T15:16:58Z</time>
   </trkpt>
   <trkpt lat="46.2358856201172" lon="7.2727313041687">
    <ele>922</ele>
    <time>2012-04-30T15:16:59Z</time>
   </trkpt>
   <trkpt lat="46.2358703613281" lon="7.27229404449463">
    <ele>922.727294921875</ele>
    <time>2012-04-30T15:17:07Z</time>
   </trkpt>
   <trkpt lat="46.2358627319336" lon="7.27201652526856">
    <ele>923.181823730469</ele>
    <time>2012-04-30T15:17:12Z</time>
   </trkpt>
   <trkpt lat="46.2358474731445" lon="7.27191114425659">
    <ele>923.363647460938</ele>
    <time>2012-04-30T15:17:14Z</time>
   </trkpt>
   <trkpt lat="46.2358207702637" lon="7.27175855636597">
    <ele>923.636352539062</ele>
    <time>2012-04-30T15:17:17Z</time>
   </trkpt>
   <trkpt lat="46.2358131408691" lon="7.27170896530151">
    <ele>923.727294921875</ele>
    <time>2012-04-30T15:17:18Z</time>
   </trkpt>
   <trkpt lat="46.2358016967773" lon="7.27166318893433">
    <ele>923.818176269531</ele>
    <time>2012-04-30T15:17:19Z</time>
   </trkpt>
   <trkpt lat="46.2357940673828" lon="7.27161550521851">
    <ele>923.909118652344</ele>
    <time>2012-04-30T15:17:20Z</time>
   </trkpt>
   <trkpt lat="46.2357864379883" lon="7.27156686782837">
    <ele>924</ele>
    <time>2012-04-30T15:17:21Z</time>
   </trkpt>
   <trkpt lat="46.2357788085938" lon="7.27151870727539">
    <ele>924</ele>
    <time>2012-04-30T15:17:22Z</time>
   </trkpt>
   <trkpt lat="46.2357749938965" lon="7.27123975753784">
    <ele>925.200012207031</ele>
    <time>2012-04-30T15:17:28Z</time>
   </trkpt>
   <trkpt lat="46.235782623291" lon="7.27119636535644">
    <ele>925.400024414062</ele>
    <time>2012-04-30T15:17:29Z</time>
   </trkpt>
   <trkpt lat="46.2357902526856" lon="7.27115249633789">
    <ele>925.600036621094</ele>
    <time>2012-04-30T15:17:30Z</time>
   </trkpt>
   <trkpt lat="46.2357978820801" lon="7.27110862731934">
    <ele>925.799987792969</ele>
    <time>2012-04-30T15:17:31Z</time>
   </trkpt>
   <trkpt lat="46.2358016967773" lon="7.27106189727783">
    <ele>926</ele>
    <time>2012-04-30T15:17:32Z</time>
   </trkpt>
   <trkpt lat="46.2358093261719" lon="7.2710165977478">
    <ele>926.200012207031</ele>
    <time>2012-04-30T15:17:33Z</time>
   </trkpt>
   <trkpt lat="46.23583984375" lon="7.27073860168457">
    <ele>926.200012207031</ele>
    <time>2012-04-30T15:17:39Z</time>
   </trkpt>
   <trkpt lat="46.2358627319336" lon="7.27062225341797">
    <ele>927.100036621094</ele>
    <time>2012-04-30T15:17:42Z</time>
   </trkpt>
   <trkpt lat="46.2358856201172" lon="7.27060031890869">
    <ele>927.400024414062</ele>
    <time>2012-04-30T15:17:43Z</time>
   </trkpt>
   <trkpt lat="46.235912322998" lon="7.27059555053711">
    <ele>927.700012207031</ele>
    <time>2012-04-30T15:17:44Z</time>
   </trkpt>
   <trkpt lat="46.2359390258789" lon="7.27060079574585">
    <ele>928</ele>
    <time>2012-04-30T15:17:45Z</time>
   </trkpt>
   <trkpt lat="46.2359619140625" lon="7.27061462402344">
    <ele>928.299987792969</ele>
    <time>2012-04-30T15:17:46Z</time>
   </trkpt>
   <trkpt lat="46.2359848022461" lon="7.27063894271851">
    <ele>928.599975585938</ele>
    <time>2012-04-30T15:17:47Z</time>
   </trkpt>
   <trkpt lat="46.2360076904297" lon="7.27066421508789">
    <ele>928.900024414062</ele>
    <time>2012-04-30T15:17:48Z</time>
   </trkpt>
   <trkpt lat="46.2360458374023" lon="7.27071762084961">
    <ele>929.5</ele>
    <time>2012-04-30T15:17:50Z</time>
   </trkpt>
   <trkpt lat="46.2360649108887" lon="7.27074432373047">
    <ele>929.799987792969</ele>
    <time>2012-04-30T15:17:51Z</time>
   </trkpt>
   <trkpt lat="46.2360763549805" lon="7.27076864242554">
    <ele>930.099975585938</ele>
    <time>2012-04-30T15:17:52Z</time>
   </trkpt>
   <trkpt lat="46.2360916137695" lon="7.27079677581787">
    <ele>930.400024414062</ele>
    <time>2012-04-30T15:17:53Z</time>
   </trkpt>
   <trkpt lat="46.2361068725586" lon="7.27082633972168">
    <ele>930.700012207031</ele>
    <time>2012-04-30T15:17:54Z</time>
   </trkpt>
   <trkpt lat="46.2361602783203" lon="7.2709264755249">
    <ele>931.599975585938</ele>
    <time>2012-04-30T15:17:57Z</time>
   </trkpt>
   <trkpt lat="46.2361793518066" lon="7.27096176147461">
    <ele>931.899963378906</ele>
    <time>2012-04-30T15:17:58Z</time>
   </trkpt>
   <trkpt lat="46.2361946105957" lon="7.27099800109863">
    <ele>932.200012207031</ele>
    <time>2012-04-30T15:17:59Z</time>
   </trkpt>
   <trkpt lat="46.2362098693848" lon="7.27102947235107">
    <ele>932.5</ele>
    <time>2012-04-30T15:18:00Z</time>
   </trkpt>
   <trkpt lat="46.2362289428711" lon="7.2710599899292">
    <ele>932.799987792969</ele>
    <time>2012-04-30T15:18:01Z</time>
   </trkpt>
   <trkpt lat="46.2362594604492" lon="7.27112579345703">
    <ele>933.399963378906</ele>
    <time>2012-04-30T15:18:03Z</time>
   </trkpt>
   <trkpt lat="46.2362785339356" lon="7.27115821838379">
    <ele>933.699951171875</ele>
    <time>2012-04-30T15:18:04Z</time>
   </trkpt>
   <trkpt lat="46.2362976074219" lon="7.27118444442749">
    <ele>934</ele>
    <time>2012-04-30T15:18:05Z</time>
   </trkpt>
   <trkpt lat="46.2363166809082" lon="7.27121114730835">
    <ele>934.299987792969</ele>
    <time>2012-04-30T15:18:06Z</time>
   </trkpt>
   <trkpt lat="46.2363319396973" lon="7.27123594284058">
    <ele>934.599975585938</ele>
    <time>2012-04-30T15:18:07Z</time>
   </trkpt>
   <trkpt lat="46.2363815307617" lon="7.27129173278809">
    <ele>934.599975585938</ele>
    <time>2012-04-30T15:18:10Z</time>
   </trkpt>
   <trkpt lat="46.236400604248" lon="7.27128601074219">
    <ele>934.966674804688</ele>
    <time>2012-04-30T15:18:11Z</time>
   </trkpt>
   <trkpt lat="46.2364196777344" lon="7.27127599716186">
    <ele>935.333312988281</ele>
    <time>2012-04-30T15:18:12Z</time>
   </trkpt>
   <trkpt lat="46.236442565918" lon="7.2712607383728">
    <ele>935.699951171875</ele>
    <time>2012-04-30T15:18:13Z</time>
   </trkpt>
   <trkpt lat="46.2364692687988" lon="7.27123355865478">
    <ele>936.066650390625</ele>
    <time>2012-04-30T15:18:14Z</time>
   </trkpt>
   <trkpt lat="46.2364845275879" lon="7.27119827270508">
    <ele>936.433349609375</ele>
    <time>2012-04-30T15:18:15Z</time>
   </trkpt>
   <trkpt lat="46.236499786377" lon="7.27115869522095">
    <ele>936.799987792969</ele>
    <time>2012-04-30T15:18:16Z</time>
   </trkpt>
   <trkpt lat="46.2365684509277" lon="7.27106714248657">
    <ele>936.799987792969</ele>
    <time>2012-04-30T15:18:19Z</time>
   </trkpt>
   <trkpt lat="46.2365951538086" lon="7.2710542678833">
    <ele>937.260009765625</ele>
    <time>2012-04-30T15:18:20Z</time>
   </trkpt>
   <trkpt lat="46.2366218566894" lon="7.27103662490845">
    <ele>937.719970703125</ele>
    <time>2012-04-30T15:18:21Z</time>
   </trkpt>
   <trkpt lat="46.236644744873" lon="7.27101421356201">
    <ele>938.179992675781</ele>
    <time>2012-04-30T15:18:22Z</time>
   </trkpt>
   <trkpt lat="46.2366714477539" lon="7.27099847793579">
    <ele>938.640014648438</ele>
    <time>2012-04-30T15:18:23Z</time>
   </trkpt>
   <trkpt lat="46.2366981506348" lon="7.27098369598389">
    <ele>939.099975585938</ele>
    <time>2012-04-30T15:18:24Z</time>
   </trkpt>
   <trkpt lat="46.2367210388184" lon="7.27096796035767">
    <ele>939.559997558594</ele>
    <time>2012-04-30T15:18:25Z</time>
   </trkpt>
   <trkpt lat="46.236743927002" lon="7.27095031738281">
    <ele>940.02001953125</ele>
    <time>2012-04-30T15:18:26Z</time>
   </trkpt>
   <trkpt lat="46.2367630004883" lon="7.27092981338501">
    <ele>940.480041503906</ele>
    <time>2012-04-30T15:18:27Z</time>
   </trkpt>
   <trkpt lat="46.2367820739746" lon="7.27090978622436">
    <ele>940.940002441406</ele>
    <time>2012-04-30T15:18:28Z</time>
   </trkpt>
   <trkpt lat="46.2367973327637" lon="7.27088785171509">
    <ele>941.400024414062</ele>
    <time>2012-04-30T15:18:29Z</time>
   </trkpt>
   <trkpt lat="46.2368316650391" lon="7.27080154418945">
    <ele>941.400024414062</ele>
    <time>2012-04-30T15:18:32Z</time>
   </trkpt>
   <trkpt lat="46.2368469238281" lon="7.2707691192627">
    <ele>941.840026855469</ele>
    <time>2012-04-30T15:18:33Z</time>
   </trkpt>
   <trkpt lat="46.2368545532227" lon="7.2707347869873">
    <ele>942.280029296875</ele>
    <time>2012-04-30T15:18:34Z</time>
   </trkpt>
   <trkpt lat="46.2368621826172" lon="7.27070236206055">
    <ele>942.719970703125</ele>
    <time>2012-04-30T15:18:35Z</time>
   </trkpt>
   <trkpt lat="46.2368698120117" lon="7.27067041397095">
    <ele>943.159973144531</ele>
    <time>2012-04-30T15:18:36Z</time>
   </trkpt>
   <trkpt lat="46.236873626709" lon="7.27063941955566">
    <ele>943.599975585938</ele>
    <time>2012-04-30T15:18:37Z</time>
   </trkpt>
   <trkpt lat="46.236873626709" lon="7.27060604095459">
    <ele>943.599975585938</ele>
    <time>2012-04-30T15:18:38Z</time>
   </trkpt>
   <trkpt lat="46.2368545532227" lon="7.27046823501587">
    <ele>944.822204589844</ele>
    <time>2012-04-30T15:18:43Z</time>
   </trkpt>
   <trkpt lat="46.2368469238281" lon="7.27044200897217">
    <ele>945.066650390625</ele>
    <time>2012-04-30T15:18:44Z</time>
   </trkpt>
   <trkpt lat="46.2368392944336" lon="7.27041482925415">
    <ele>945.311096191406</ele>
    <time>2012-04-30T15:18:45Z</time>
   </trkpt>
   <trkpt lat="46.2368316650391" lon="7.27038908004761">
    <ele>945.555541992188</ele>
    <time>2012-04-30T15:18:46Z</time>
   </trkpt>
   <trkpt lat="46.2368240356445" lon="7.27036380767822">
    <ele>945.799987792969</ele>
    <time>2012-04-30T15:18:47Z</time>
   </trkpt>
   <trkpt lat="46.2367858886719" lon="7.27025651931763">
    <ele>945.799987792969</ele>
    <time>2012-04-30T15:18:51Z</time>
   </trkpt>
   <trkpt lat="46.236759185791" lon="7.27017498016357">
    <ele>946.900024414062</ele>
    <time>2012-04-30T15:18:54Z</time>
   </trkpt>
   <trkpt lat="46.2367477416992" lon="7.27014493942261">
    <ele>947.266662597656</ele>
    <time>2012-04-30T15:18:55Z</time>
   </trkpt>
   <trkpt lat="46.2367324829102" lon="7.27009057998657">
    <ele>947.63330078125</ele>
    <time>2012-04-30T15:18:56Z</time>
   </trkpt>
   <trkpt lat="46.2367095947266" lon="7.27002620697022">
    <ele>949.099975585938</ele>
    <time>2012-04-30T15:19:00Z</time>
   </trkpt>
   <trkpt lat="46.236701965332" lon="7.27000570297241">
    <ele>949.466674804688</ele>
    <time>2012-04-30T15:19:01Z</time>
   </trkpt>
   <trkpt lat="46.2366905212402" lon="7.26998519897461">
    <ele>949.833374023438</ele>
    <time>2012-04-30T15:19:02Z</time>
   </trkpt>
   <trkpt lat="46.2366828918457" lon="7.26996183395386">
    <ele>950.200012207031</ele>
    <time>2012-04-30T15:19:03Z</time>
   </trkpt>
   <trkpt lat="46.2366638183594" lon="7.2699122428894">
    <ele>950.933349609375</ele>
    <time>2012-04-30T15:19:05Z</time>
   </trkpt>
   <trkpt lat="46.2366523742676" lon="7.26989126205444">
    <ele>951.300048828125</ele>
    <time>2012-04-30T15:19:06Z</time>
   </trkpt>
   <trkpt lat="46.2366409301758" lon="7.26986598968506">
    <ele>951.666687011719</ele>
    <time>2012-04-30T15:19:07Z</time>
   </trkpt>
   <trkpt lat="46.236629486084" lon="7.26984262466431">
    <ele>952.033325195312</ele>
    <time>2012-04-30T15:19:08Z</time>
   </trkpt>
   <trkpt lat="46.2366180419922" lon="7.26981973648071">
    <ele>952.400024414062</ele>
    <time>2012-04-30T15:19:09Z</time>
   </trkpt>
   <trkpt lat="46.2365989685059" lon="7.26976346969604">
    <ele>952.400024414062</ele>
    <time>2012-04-30T15:19:11Z</time>
   </trkpt>
   <trkpt lat="46.2365875244141" lon="7.26974201202393">
    <ele>952.700012207031</ele>
    <time>2012-04-30T15:19:12Z</time>
   </trkpt>
   <trkpt lat="46.236572265625" lon="7.26972484588623">
    <ele>953</ele>
    <time>2012-04-30T15:19:13Z</time>
   </trkpt>
   <trkpt lat="46.2365608215332" lon="7.26970481872559">
    <ele>953.299987792969</ele>
    <time>2012-04-30T15:19:14Z</time>
   </trkpt>
   <trkpt lat="46.2365493774414" lon="7.26968336105347">
    <ele>953.600036621094</ele>
    <time>2012-04-30T15:19:15Z</time>
   </trkpt>
   <trkpt lat="46.2365379333496" lon="7.26965999603272">
    <ele>953.900024414062</ele>
    <time>2012-04-30T15:19:16Z</time>
   </trkpt>
   <trkpt lat="46.2365226745606" lon="7.2696418762207">
    <ele>954.200012207031</ele>
    <time>2012-04-30T15:19:17Z</time>
   </trkpt>
   <trkpt lat="46.2364540100098" lon="7.2695689201355">
    <ele>955.399963378906</ele>
    <time>2012-04-30T15:19:21Z</time>
   </trkpt>
   <trkpt lat="46.2364387512207" lon="7.26955127716064">
    <ele>955.700012207031</ele>
    <time>2012-04-30T15:19:22Z</time>
   </trkpt>
   <trkpt lat="46.2364273071289" lon="7.26952981948852">
    <ele>956</ele>
    <time>2012-04-30T15:19:23Z</time>
   </trkpt>
   <trkpt lat="46.2364120483398" lon="7.26950979232788">
    <ele>956.299987792969</ele>
    <time>2012-04-30T15:19:24Z</time>
   </trkpt>
   <trkpt lat="46.2363967895508" lon="7.26949167251587">
    <ele>956.599975585938</ele>
    <time>2012-04-30T15:19:25Z</time>
   </trkpt>
   <trkpt lat="46.2363395690918" lon="7.26941394805908">
    <ele>956.599975585938</ele>
    <time>2012-04-30T15:19:29Z</time>
   </trkpt>
   <trkpt lat="46.236328125" lon="7.26939582824707">
    <ele>957.039978027344</ele>
    <time>2012-04-30T15:19:30Z</time>
   </trkpt>
   <trkpt lat="46.2363128662109" lon="7.26937770843506">
    <ele>957.47998046875</ele>
    <time>2012-04-30T15:19:31Z</time>
   </trkpt>
   <trkpt lat="46.2363014221191" lon="7.26935482025146">
    <ele>957.919982910156</ele>
    <time>2012-04-30T15:19:32Z</time>
   </trkpt>
   <trkpt lat="46.2362899780273" lon="7.26933097839356">
    <ele>958.359985351562</ele>
    <time>2012-04-30T15:19:33Z</time>
   </trkpt>
   <trkpt lat="46.2362785339356" lon="7.26930952072144">
    <ele>958.799987792969</ele>
    <time>2012-04-30T15:19:34Z</time>
   </trkpt>
   <trkpt lat="46.2362632751465" lon="7.26928806304932">
    <ele>958.799987792969</ele>
    <time>2012-04-30T15:19:35Z</time>
   </trkpt>
   <trkpt lat="46.2362480163574" lon="7.26926612854004">
    <ele>959.080017089844</ele>
    <time>2012-04-30T15:19:36Z</time>
   </trkpt>
   <trkpt lat="46.2362098693848" lon="7.26919603347778">
    <ele>959.919982910156</ele>
    <time>2012-04-30T15:19:39Z</time>
   </trkpt>
   <trkpt lat="46.236198425293" lon="7.26916885375976">
    <ele>960.200012207031</ele>
    <time>2012-04-30T15:19:40Z</time>
   </trkpt>
   <trkpt lat="46.2361869812012" lon="7.26914501190186">
    <ele>960.47998046875</ele>
    <time>2012-04-30T15:19:41Z</time>
   </trkpt>
   <trkpt lat="46.2361679077148" lon="7.26912117004394">
    <ele>960.760009765625</ele>
    <time>2012-04-30T15:19:42Z</time>
   </trkpt>
   <trkpt lat="46.2361602783203" lon="7.26909828186035">
    <ele>961.039978027344</ele>
    <time>2012-04-30T15:19:43Z</time>
   </trkpt>
   <trkpt lat="46.2361183166504" lon="7.2690224647522">
    <ele>961.880004882812</ele>
    <time>2012-04-30T15:19:46Z</time>
   </trkpt>
   <trkpt lat="46.2361068725586" lon="7.26900148391724">
    <ele>962.159973144531</ele>
    <time>2012-04-30T15:19:47Z</time>
   </trkpt>
   <trkpt lat="46.2360916137695" lon="7.26897954940796">
    <ele>962.440002441406</ele>
    <time>2012-04-30T15:19:48Z</time>
   </trkpt>
   <trkpt lat="46.2360763549805" lon="7.26895904541016">
    <ele>962.719970703125</ele>
    <time>2012-04-30T15:19:49Z</time>
   </trkpt>
   <trkpt lat="46.2360610961914" lon="7.26893758773804">
    <ele>963</ele>
    <time>2012-04-30T15:19:50Z</time>
   </trkpt>
   <trkpt lat="46.236011505127" lon="7.26885175704956">
    <ele>963</ele>
    <time>2012-04-30T15:19:54Z</time>
   </trkpt>
   <trkpt lat="46.2359924316406" lon="7.26883125305176">
    <ele>963.47998046875</ele>
    <time>2012-04-30T15:19:55Z</time>
   </trkpt>
   <trkpt lat="46.2359771728516" lon="7.26880693435669">
    <ele>963.960021972656</ele>
    <time>2012-04-30T15:19:56Z</time>
   </trkpt>
   <trkpt lat="46.2359619140625" lon="7.26878499984741">
    <ele>964.440002441406</ele>
    <time>2012-04-30T15:19:57Z</time>
   </trkpt>
   <trkpt lat="46.2359504699707" lon="7.26876449584961">
    <ele>964.920043945312</ele>
    <time>2012-04-30T15:19:58Z</time>
   </trkpt>
   <trkpt lat="46.2359390258789" lon="7.26874685287476">
    <ele>965.400024414062</ele>
    <time>2012-04-30T15:19:59Z</time>
   </trkpt>
   <trkpt lat="46.2359275817871" lon="7.26872301101685">
    <ele>965.400024414062</ele>
    <time>2012-04-30T15:20:00Z</time>
   </trkpt>
   <trkpt lat="46.2359161376953" lon="7.26870346069336">
    <ele>965.800048828125</ele>
    <time>2012-04-30T15:20:01Z</time>
   </trkpt>
   <trkpt lat="46.2359085083008" lon="7.26868009567261">
    <ele>966.200012207031</ele>
    <time>2012-04-30T15:20:02Z</time>
   </trkpt>
   <trkpt lat="46.2358932495117" lon="7.26865673065186">
    <ele>966.600036621094</ele>
    <time>2012-04-30T15:20:03Z</time>
   </trkpt>
   <trkpt lat="46.2358818054199" lon="7.26862716674805">
    <ele>967</ele>
    <time>2012-04-30T15:20:04Z</time>
   </trkpt>
   <trkpt lat="46.2358703613281" lon="7.26860237121582">
    <ele>967.400024414062</ele>
    <time>2012-04-30T15:20:05Z</time>
   </trkpt>
   <trkpt lat="46.2358589172363" lon="7.26857757568359">
    <ele>967.400024414062</ele>
    <time>2012-04-30T15:20:06Z</time>
   </trkpt>
   <trkpt lat="46.2358169555664" lon="7.26850366592407">
    <ele>968.257141113281</ele>
    <time>2012-04-30T15:20:09Z</time>
   </trkpt>
   <trkpt lat="46.2358093261719" lon="7.268479347229">
    <ele>968.542907714844</ele>
    <time>2012-04-30T15:20:10Z</time>
   </trkpt>
   <trkpt lat="46.2357978820801" lon="7.26845598220825">
    <ele>968.82861328125</ele>
    <time>2012-04-30T15:20:11Z</time>
   </trkpt>
   <trkpt lat="46.2357902526856" lon="7.26842880249024">
    <ele>969.114318847656</ele>
    <time>2012-04-30T15:20:12Z</time>
   </trkpt>
   <trkpt lat="46.2357788085938" lon="7.26840686798096">
    <ele>969.400024414062</ele>
    <time>2012-04-30T15:20:13Z</time>
   </trkpt>
   <trkpt lat="46.235767364502" lon="7.26838302612305">
    <ele>969.400024414062</ele>
    <time>2012-04-30T15:20:14Z</time>
   </trkpt>
   <trkpt lat="46.2357406616211" lon="7.26832246780396">
    <ele>969.968444824219</ele>
    <time>2012-04-30T15:20:16Z</time>
   </trkpt>
   <trkpt lat="46.235725402832" lon="7.26829624176025">
    <ele>970.252685546875</ele>
    <time>2012-04-30T15:20:17Z</time>
   </trkpt>
   <trkpt lat="46.2357139587402" lon="7.26826906204224">
    <ele>970.536865234375</ele>
    <time>2012-04-30T15:20:18Z</time>
   </trkpt>
   <trkpt lat="46.2357025146484" lon="7.26824378967285">
    <ele>970.821044921875</ele>
    <time>2012-04-30T15:20:19Z</time>
   </trkpt>
   <trkpt lat="46.2356910705566" lon="7.26821804046631">
    <ele>971.105285644531</ele>
    <time>2012-04-30T15:20:20Z</time>
   </trkpt>
   <trkpt lat="46.235652923584" lon="7.26812267303467">
    <ele>972.242126464844</ele>
    <time>2012-04-30T15:20:24Z</time>
   </trkpt>
   <trkpt lat="46.2356414794922" lon="7.26809883117676">
    <ele>972.5263671875</ele>
    <time>2012-04-30T15:20:25Z</time>
   </trkpt>
   <trkpt lat="46.2356338500977" lon="7.26807117462158">
    <ele>972.810546875</ele>
    <time>2012-04-30T15:20:26Z</time>
   </trkpt>
   <trkpt lat="46.2356262207031" lon="7.26804304122925">
    <ele>973.0947265625</ele>
    <time>2012-04-30T15:20:27Z</time>
   </trkpt>
   <trkpt lat="46.2356185913086" lon="7.26801443099976">
    <ele>973.378967285156</ele>
    <time>2012-04-30T15:20:28Z</time>
   </trkpt>
   <trkpt lat="46.2355880737305" lon="7.267906665802">
    <ele>974.515808105469</ele>
    <time>2012-04-30T15:20:32Z</time>
   </trkpt>
   <trkpt lat="46.2355804443359" lon="7.26788520812988">
    <ele>974.800048828125</ele>
    <time>2012-04-30T15:20:33Z</time>
   </trkpt>
   <trkpt lat="46.2355728149414" lon="7.26786136627197">
    <ele>975.084228515625</ele>
    <time>2012-04-30T15:20:34Z</time>
   </trkpt>
   <trkpt lat="46.2355613708496" lon="7.26783561706543">
    <ele>975.368408203125</ele>
    <time>2012-04-30T15:20:35Z</time>
   </trkpt>
   <trkpt lat="46.2355499267578" lon="7.26780986785889">
    <ele>975.652648925781</ele>
    <time>2012-04-30T15:20:36Z</time>
   </trkpt>
   <trkpt lat="46.2355079650879" lon="7.26770162582398">
    <ele>976.789489746094</ele>
    <time>2012-04-30T15:20:40Z</time>
   </trkpt>
   <trkpt lat="46.2354965209961" lon="7.26767587661743">
    <ele>977.07373046875</ele>
    <time>2012-04-30T15:20:41Z</time>
   </trkpt>
   <trkpt lat="46.2354850769043" lon="7.26764678955078">
    <ele>977.35791015625</ele>
    <time>2012-04-30T15:20:42Z</time>
   </trkpt>
   <trkpt lat="46.2354736328125" lon="7.2676191329956">
    <ele>977.64208984375</ele>
    <time>2012-04-30T15:20:43Z</time>
   </trkpt>
   <trkpt lat="46.235466003418" lon="7.26759433746338">
    <ele>977.926330566406</ele>
    <time>2012-04-30T15:20:44Z</time>
   </trkpt>
   <trkpt lat="46.235424041748" lon="7.26750564575195">
    <ele>979.063171386719</ele>
    <time>2012-04-30T15:20:48Z</time>
   </trkpt>
   <trkpt lat="46.235408782959" lon="7.26748180389404">
    <ele>979.347412109375</ele>
    <time>2012-04-30T15:20:49Z</time>
   </trkpt>
   <trkpt lat="46.2354049682617" lon="7.26746225357056">
    <ele>979.631591796875</ele>
    <time>2012-04-30T15:20:50Z</time>
   </trkpt>
   <trkpt lat="46.2353935241699" lon="7.26743268966675">
    <ele>979.915771484375</ele>
    <time>2012-04-30T15:20:51Z</time>
   </trkpt>
   <trkpt lat="46.2353820800781" lon="7.26740407943726">
    <ele>980.200012207031</ele>
    <time>2012-04-30T15:20:52Z</time>
   </trkpt>
   <trkpt lat="46.2353515625" lon="7.26733732223511">
    <ele>980.200012207031</ele>
    <time>2012-04-30T15:20:55Z</time>
   </trkpt>
   <trkpt lat="46.2353401184082" lon="7.26731395721436">
    <ele>980.799987792969</ele>
    <time>2012-04-30T15:20:56Z</time>
   </trkpt>
   <trkpt lat="46.2353286743164" lon="7.26729249954224">
    <ele>981.400024414062</ele>
    <time>2012-04-30T15:20:57Z</time>
   </trkpt>
   <trkpt lat="46.2353210449219" lon="7.26726579666138">
    <ele>982</ele>
    <time>2012-04-30T15:20:58Z</time>
   </trkpt>
   <trkpt lat="46.2353057861328" lon="7.26721429824829">
    <ele>982.599975585938</ele>
    <time>2012-04-30T15:20:59Z</time>
   </trkpt>
   <trkpt lat="46.235294342041" lon="7.26717901229858">
    <ele>982.599975585938</ele>
    <time>2012-04-30T15:21:01Z</time>
   </trkpt>
   <trkpt lat="46.2352752685547" lon="7.2671332359314">
    <ele>983.181823730469</ele>
    <time>2012-04-30T15:21:03Z</time>
   </trkpt>
   <trkpt lat="46.2352600097656" lon="7.26710557937622">
    <ele>983.472717285156</ele>
    <time>2012-04-30T15:21:04Z</time>
   </trkpt>
   <trkpt lat="46.2352447509766" lon="7.26708889007568">
    <ele>983.763610839844</ele>
    <time>2012-04-30T15:21:05Z</time>
   </trkpt>
   <trkpt lat="46.2352294921875" lon="7.26707029342651">
    <ele>984.054504394531</ele>
    <time>2012-04-30T15:21:06Z</time>
   </trkpt>
   <trkpt lat="46.2351570129394" lon="7.26693677902222">
    <ele>985.509094238281</ele>
    <time>2012-04-30T15:21:11Z</time>
   </trkpt>
   <trkpt lat="46.2351417541504" lon="7.26691436767578">
    <ele>985.799987792969</ele>
    <time>2012-04-30T15:21:12Z</time>
   </trkpt>
   <trkpt lat="46.2351303100586" lon="7.26688718795776">
    <ele>986.090881347656</ele>
    <time>2012-04-30T15:21:13Z</time>
   </trkpt>
   <trkpt lat="46.2351226806641" lon="7.26686096191406">
    <ele>986.3818359375</ele>
    <time>2012-04-30T15:21:14Z</time>
   </trkpt>
   <trkpt lat="46.2351112365723" lon="7.26683330535889">
    <ele>986.672729492188</ele>
    <time>2012-04-30T15:21:15Z</time>
   </trkpt>
   <trkpt lat="46.2350616455078" lon="7.2667407989502">
    <ele>987.836364746094</ele>
    <time>2012-04-30T15:21:19Z</time>
   </trkpt>
   <trkpt lat="46.2350425720215" lon="7.26672267913818">
    <ele>988.127258300781</ele>
    <time>2012-04-30T15:21:20Z</time>
   </trkpt>
   <trkpt lat="46.2350273132324" lon="7.26670217514038">
    <ele>988.418151855469</ele>
    <time>2012-04-30T15:21:21Z</time>
   </trkpt>
   <trkpt lat="46.2350120544434" lon="7.26668357849121">
    <ele>988.709106445312</ele>
    <time>2012-04-30T15:21:22Z</time>
   </trkpt>
   <trkpt lat="46.2349967956543" lon="7.26666259765625">
    <ele>989</ele>
    <time>2012-04-30T15:21:23Z</time>
   </trkpt>
   <trkpt lat="46.2349815368652" lon="7.2666392326355">
    <ele>989</ele>
    <time>2012-04-30T15:21:24Z</time>
   </trkpt>
   <trkpt lat="46.2349281311035" lon="7.26655292510986">
    <ele>990.099975585938</ele>
    <time>2012-04-30T15:21:28Z</time>
   </trkpt>
   <trkpt lat="46.2349128723144" lon="7.26653003692627">
    <ele>990.375</ele>
    <time>2012-04-30T15:21:29Z</time>
   </trkpt>
   <trkpt lat="46.2348976135254" lon="7.26650762557983">
    <ele>990.650024414062</ele>
    <time>2012-04-30T15:21:30Z</time>
   </trkpt>
   <trkpt lat="46.2348823547363" lon="7.26648759841919">
    <ele>990.924987792969</ele>
    <time>2012-04-30T15:21:31Z</time>
   </trkpt>
   <trkpt lat="46.2348098754883" lon="7.26638841629028">
    <ele>992.300048828125</ele>
    <time>2012-04-30T15:21:36Z</time>
   </trkpt>
   <trkpt lat="46.2348022460938" lon="7.26636266708374">
    <ele>992.575012207031</ele>
    <time>2012-04-30T15:21:37Z</time>
   </trkpt>
   <trkpt lat="46.2347946166992" lon="7.26633501052856">
    <ele>992.850036621094</ele>
    <time>2012-04-30T15:21:38Z</time>
   </trkpt>
   <trkpt lat="46.2347755432129" lon="7.2663164138794">
    <ele>993.125</ele>
    <time>2012-04-30T15:21:39Z</time>
   </trkpt>
   <trkpt lat="46.2347640991211" lon="7.26629400253296">
    <ele>993.400024414062</ele>
    <time>2012-04-30T15:21:40Z</time>
   </trkpt>
   <trkpt lat="46.2347221374512" lon="7.26623249053955">
    <ele>993.400024414062</ele>
    <time>2012-04-30T15:21:43Z</time>
   </trkpt>
   <trkpt lat="46.2347068786621" lon="7.26621389389038">
    <ele>993.726318359375</ele>
    <time>2012-04-30T15:21:44Z</time>
   </trkpt>
   <trkpt lat="46.234691619873" lon="7.26619529724121">
    <ele>994.052673339844</ele>
    <time>2012-04-30T15:21:45Z</time>
   </trkpt>
   <trkpt lat="46.234676361084" lon="7.26617574691772">
    <ele>994.378967285156</ele>
    <time>2012-04-30T15:21:46Z</time>
   </trkpt>
   <trkpt lat="46.2346687316894" lon="7.26615333557129">
    <ele>994.705261230469</ele>
    <time>2012-04-30T15:21:47Z</time>
   </trkpt>
   <trkpt lat="46.2346572875977" lon="7.26613187789917">
    <ele>995.031616210938</ele>
    <time>2012-04-30T15:21:48Z</time>
   </trkpt>
   <trkpt lat="46.2346076965332" lon="7.26603031158447">
    <ele>996.336853027344</ele>
    <time>2012-04-30T15:21:52Z</time>
   </trkpt>
   <trkpt lat="46.2346000671387" lon="7.26600456237793">
    <ele>996.663146972656</ele>
    <time>2012-04-30T15:21:53Z</time>
   </trkpt>
   <trkpt lat="46.2345924377441" lon="7.26597690582275">
    <ele>996.989440917969</ele>
    <time>2012-04-30T15:21:54Z</time>
   </trkpt>
   <trkpt lat="46.2345809936523" lon="7.26595592498779">
    <ele>997.315795898438</ele>
    <time>2012-04-30T15:21:55Z</time>
   </trkpt>
   <trkpt lat="46.2345504760742" lon="7.26587963104248">
    <ele>998.294738769531</ele>
    <time>2012-04-30T15:21:58Z</time>
   </trkpt>
   <trkpt lat="46.2345428466797" lon="7.26585531234741">
    <ele>998.621032714844</ele>
    <time>2012-04-30T15:21:59Z</time>
   </trkpt>
   <trkpt lat="46.2345352172852" lon="7.26583242416382">
    <ele>998.947326660156</ele>
    <time>2012-04-30T15:22:00Z</time>
   </trkpt>
   <trkpt lat="46.2345237731934" lon="7.26581001281738">
    <ele>999.273681640625</ele>
    <time>2012-04-30T15:22:01Z</time>
   </trkpt>
   <trkpt lat="46.2345161437988" lon="7.26578378677368">
    <ele>999.599975585938</ele>
    <time>2012-04-30T15:22:02Z</time>
   </trkpt>
   <trkpt lat="46.234489440918" lon="7.2657060623169">
    <ele>999.599975585938</ele>
    <time>2012-04-30T15:22:05Z</time>
   </trkpt>
   <trkpt lat="46.2344703674316" lon="7.26565504074097">
    <ele>1000.33331298828</ele>
    <time>2012-04-30T15:22:07Z</time>
   </trkpt>
   <trkpt lat="46.2344589233398" lon="7.26563024520874">
    <ele>1000.69995117188</ele>
    <time>2012-04-30T15:22:08Z</time>
   </trkpt>
   <trkpt lat="46.2344512939453" lon="7.26560306549072">
    <ele>1001.06665039062</ele>
    <time>2012-04-30T15:22:09Z</time>
   </trkpt>
   <trkpt lat="46.2344436645508" lon="7.26557636260986">
    <ele>1001.43334960938</ele>
    <time>2012-04-30T15:22:10Z</time>
   </trkpt>
   <trkpt lat="46.2344360351562" lon="7.26555299758911">
    <ele>1001.79998779297</ele>
    <time>2012-04-30T15:22:11Z</time>
   </trkpt>
   <trkpt lat="46.2344169616699" lon="7.26550197601318">
    <ele>1001.79998779297</ele>
    <time>2012-04-30T15:22:13Z</time>
   </trkpt>
   <trkpt lat="46.2344017028809" lon="7.26544284820557">
    <ele>1002.67999267578</ele>
    <time>2012-04-30T15:22:15Z</time>
   </trkpt>
   <trkpt lat="46.2343940734863" lon="7.26541566848755">
    <ele>1003.11999511719</ele>
    <time>2012-04-30T15:22:16Z</time>
   </trkpt>
   <trkpt lat="46.2343864440918" lon="7.26538705825806">
    <ele>1003.55999755859</ele>
    <time>2012-04-30T15:22:17Z</time>
   </trkpt>
   <trkpt lat="46.234375" lon="7.26535987854004">
    <ele>1004</ele>
    <time>2012-04-30T15:22:18Z</time>
   </trkpt>
   <trkpt lat="46.2343406677246" lon="7.26525115966797">
    <ele>1004</ele>
    <time>2012-04-30T15:22:22Z</time>
   </trkpt>
   <trkpt lat="46.2343254089356" lon="7.26519966125488">
    <ele>1004.79998779297</ele>
    <time>2012-04-30T15:22:24Z</time>
   </trkpt>
   <trkpt lat="46.2343139648438" lon="7.26517581939697">
    <ele>1005.20001220703</ele>
    <time>2012-04-30T15:22:25Z</time>
   </trkpt>
   <trkpt lat="46.2343063354492" lon="7.2651481628418">
    <ele>1005.60003662109</ele>
    <time>2012-04-30T15:22:26Z</time>
   </trkpt>
   <trkpt lat="46.234302520752" lon="7.26512050628662">
    <ele>1006</ele>
    <time>2012-04-30T15:22:27Z</time>
   </trkpt>
   <trkpt lat="46.2342910766602" lon="7.26509761810303">
    <ele>1006.40002441406</ele>
    <time>2012-04-30T15:22:28Z</time>
   </trkpt>
   <trkpt lat="46.2342758178711" lon="7.26507806777954">
    <ele>1006.40002441406</ele>
    <time>2012-04-30T15:22:29Z</time>
   </trkpt>
   <trkpt lat="46.2342338562012" lon="7.26498126983643">
    <ele>1007.47637939453</ele>
    <time>2012-04-30T15:22:33Z</time>
   </trkpt>
   <trkpt lat="46.2342185974121" lon="7.26496315002441">
    <ele>1007.74548339844</ele>
    <time>2012-04-30T15:22:34Z</time>
   </trkpt>
   <trkpt lat="46.2342071533203" lon="7.26493644714356">
    <ele>1008.01458740234</ele>
    <time>2012-04-30T15:22:35Z</time>
   </trkpt>
   <trkpt lat="46.2341995239258" lon="7.2649097442627">
    <ele>1008.28363037109</ele>
    <time>2012-04-30T15:22:36Z</time>
   </trkpt>
   <trkpt lat="46.234188079834" lon="7.26488733291626">
    <ele>1008.552734375</ele>
    <time>2012-04-30T15:22:37Z</time>
   </trkpt>
   <trkpt lat="46.2341156005859" lon="7.26475286483765">
    <ele>1010.16729736328</ele>
    <time>2012-04-30T15:22:43Z</time>
   </trkpt>
   <trkpt lat="46.2341003417969" lon="7.26473379135132">
    <ele>1010.43640136719</ele>
    <time>2012-04-30T15:22:44Z</time>
   </trkpt>
   <trkpt lat="46.2340888977051" lon="7.26471090316772">
    <ele>1010.70550537109</ele>
    <time>2012-04-30T15:22:45Z</time>
   </trkpt>
   <trkpt lat="46.234073638916" lon="7.26469087600708">
    <ele>1010.97454833984</ele>
    <time>2012-04-30T15:22:46Z</time>
   </trkpt>
   <trkpt lat="46.2340393066406" lon="7.26464891433716">
    <ele>1011.51275634766</ele>
    <time>2012-04-30T15:22:48Z</time>
   </trkpt>
   <trkpt lat="46.2340240478516" lon="7.26462888717651">
    <ele>1011.78186035156</ele>
    <time>2012-04-30T15:22:49Z</time>
   </trkpt>
   <trkpt lat="46.2340087890625" lon="7.26460838317871">
    <ele>1012.05090332031</ele>
    <time>2012-04-30T15:22:50Z</time>
   </trkpt>
   <trkpt lat="46.2339935302734" lon="7.26458787918091">
    <ele>1012.32000732422</ele>
    <time>2012-04-30T15:22:51Z</time>
   </trkpt>
   <trkpt lat="46.2339820861816" lon="7.2645697593689">
    <ele>1012.58911132812</ele>
    <time>2012-04-30T15:22:52Z</time>
   </trkpt>
   <trkpt lat="46.233959197998" lon="7.26452589035034">
    <ele>1013.12731933594</ele>
    <time>2012-04-30T15:22:54Z</time>
   </trkpt>
   <trkpt lat="46.233943939209" lon="7.26450347900391">
    <ele>1013.39636230469</ele>
    <time>2012-04-30T15:22:55Z</time>
   </trkpt>
   <trkpt lat="46.2339324951172" lon="7.26447677612305">
    <ele>1013.66546630859</ele>
    <time>2012-04-30T15:22:56Z</time>
   </trkpt>
   <trkpt lat="46.2339172363281" lon="7.26445531845093">
    <ele>1013.9345703125</ele>
    <time>2012-04-30T15:22:57Z</time>
   </trkpt>
   <trkpt lat="46.2339019775391" lon="7.26443147659302">
    <ele>1014.20367431641</ele>
    <time>2012-04-30T15:22:58Z</time>
   </trkpt>
   <trkpt lat="46.2338218688965" lon="7.26431369781494">
    <ele>1015.54913330078</ele>
    <time>2012-04-30T15:23:03Z</time>
   </trkpt>
   <trkpt lat="46.2338104248047" lon="7.26429319381714">
    <ele>1015.81817626953</ele>
    <time>2012-04-30T15:23:04Z</time>
   </trkpt>
   <trkpt lat="46.2337951660156" lon="7.26427459716797">
    <ele>1016.08728027344</ele>
    <time>2012-04-30T15:23:05Z</time>
   </trkpt>
   <trkpt lat="46.2337799072266" lon="7.26425075531006">
    <ele>1016.35638427734</ele>
    <time>2012-04-30T15:23:06Z</time>
   </trkpt>
   <trkpt lat="46.2337646484375" lon="7.26422834396362">
    <ele>1016.62548828125</ele>
    <time>2012-04-30T15:23:07Z</time>
   </trkpt>
   <trkpt lat="46.2336845397949" lon="7.26411867141724">
    <ele>1017.97094726562</ele>
    <time>2012-04-30T15:23:12Z</time>
   </trkpt>
   <trkpt lat="46.2336692810059" lon="7.26409721374512">
    <ele>1018.23999023438</ele>
    <time>2012-04-30T15:23:13Z</time>
   </trkpt>
   <trkpt lat="46.2336578369141" lon="7.26407527923584">
    <ele>1018.50909423828</ele>
    <time>2012-04-30T15:23:14Z</time>
   </trkpt>
   <trkpt lat="46.233642578125" lon="7.26405811309814">
    <ele>1018.77819824219</ele>
    <time>2012-04-30T15:23:15Z</time>
   </trkpt>
   <trkpt lat="46.2336235046387" lon="7.26404237747192">
    <ele>1019.04730224609</ele>
    <time>2012-04-30T15:23:16Z</time>
   </trkpt>
   <trkpt lat="46.2335510253906" lon="7.26397705078125">
    <ele>1020.12365722656</ele>
    <time>2012-04-30T15:23:20Z</time>
   </trkpt>
   <trkpt lat="46.2335319519043" lon="7.26396131515503">
    <ele>1020.39276123047</ele>
    <time>2012-04-30T15:23:21Z</time>
   </trkpt>
   <trkpt lat="46.2335166931152" lon="7.26394510269165">
    <ele>1020.66180419922</ele>
    <time>2012-04-30T15:23:22Z</time>
   </trkpt>
   <trkpt lat="46.2335014343262" lon="7.26392698287964">
    <ele>1020.93090820312</ele>
    <time>2012-04-30T15:23:23Z</time>
   </trkpt>
   <trkpt lat="46.2334823608398" lon="7.26391124725342">
    <ele>1021.20001220703</ele>
    <time>2012-04-30T15:23:24Z</time>
   </trkpt>
   <trkpt lat="46.2334327697754" lon="7.26387453079224">
    <ele>1021.20001220703</ele>
    <time>2012-04-30T15:23:27Z</time>
   </trkpt>
   <trkpt lat="46.2333946228027" lon="7.26384544372559">
    <ele>1021.93334960938</ele>
    <time>2012-04-30T15:23:29Z</time>
   </trkpt>
   <trkpt lat="46.2333755493164" lon="7.26382780075073">
    <ele>1022.30004882812</ele>
    <time>2012-04-30T15:23:30Z</time>
   </trkpt>
   <trkpt lat="46.2333564758301" lon="7.2638111114502">
    <ele>1022.66668701172</ele>
    <time>2012-04-30T15:23:31Z</time>
   </trkpt>
   <trkpt lat="46.233341217041" lon="7.26379632949829">
    <ele>1023.03332519531</ele>
    <time>2012-04-30T15:23:32Z</time>
   </trkpt>
   <trkpt lat="46.233325958252" lon="7.26378107070923">
    <ele>1023.40002441406</ele>
    <time>2012-04-30T15:23:33Z</time>
   </trkpt>
   <trkpt lat="46.2333068847656" lon="7.26376485824585">
    <ele>1023.40002441406</ele>
    <time>2012-04-30T15:23:34Z</time>
   </trkpt>
   <trkpt lat="46.2332572937012" lon="7.26372003555298">
    <ele>1024.27270507812</ele>
    <time>2012-04-30T15:23:37Z</time>
   </trkpt>
   <trkpt lat="46.2332382202148" lon="7.26370811462402">
    <ele>1024.56372070312</ele>
    <time>2012-04-30T15:23:38Z</time>
   </trkpt>
   <trkpt lat="46.2332191467285" lon="7.26369619369507">
    <ele>1024.85461425781</ele>
    <time>2012-04-30T15:23:39Z</time>
   </trkpt>
   <trkpt lat="46.2332000732422" lon="7.26368188858032">
    <ele>1025.1455078125</ele>
    <time>2012-04-30T15:23:40Z</time>
   </trkpt>
   <trkpt lat="46.2331848144531" lon="7.2636661529541">
    <ele>1025.43640136719</ele>
    <time>2012-04-30T15:23:41Z</time>
   </trkpt>
   <trkpt lat="46.2331275939941" lon="7.26362228393555">
    <ele>1026.30908203125</ele>
    <time>2012-04-30T15:23:44Z</time>
   </trkpt>
   <trkpt lat="46.2331123352051" lon="7.26360321044922">
    <ele>1026.60009765625</ele>
    <time>2012-04-30T15:23:45Z</time>
   </trkpt>
   <trkpt lat="46.2330932617188" lon="7.26358127593994">
    <ele>1026.89099121094</ele>
    <time>2012-04-30T15:23:46Z</time>
   </trkpt>
   <trkpt lat="46.2330741882324" lon="7.26356506347656">
    <ele>1027.18188476562</ele>
    <time>2012-04-30T15:23:47Z</time>
   </trkpt>
   <trkpt lat="46.2330589294434" lon="7.26355266571045">
    <ele>1027.47277832031</ele>
    <time>2012-04-30T15:23:48Z</time>
   </trkpt>
   <trkpt lat="46.2329940795898" lon="7.2634654045105">
    <ele>1028.63635253906</ele>
    <time>2012-04-30T15:23:52Z</time>
   </trkpt>
   <trkpt lat="46.2329711914062" lon="7.26344060897827">
    <ele>1028.92736816406</ele>
    <time>2012-04-30T15:23:53Z</time>
   </trkpt>
   <trkpt lat="46.2329521179199" lon="7.26341676712036">
    <ele>1029.21826171875</ele>
    <time>2012-04-30T15:23:54Z</time>
   </trkpt>
   <trkpt lat="46.2329406738281" lon="7.26339149475098">
    <ele>1029.50915527344</ele>
    <time>2012-04-30T15:23:55Z</time>
   </trkpt>
   <trkpt lat="46.2329292297363" lon="7.26336860656738">
    <ele>1029.80004882812</ele>
    <time>2012-04-30T15:23:56Z</time>
   </trkpt>
   <trkpt lat="46.2328948974609" lon="7.26332902908325">
    <ele>1029.80004882812</ele>
    <time>2012-04-30T15:23:58Z</time>
   </trkpt>
   <trkpt lat="46.2328681945801" lon="7.26328659057617">
    <ele>1030.46667480469</ele>
    <time>2012-04-30T15:24:00Z</time>
   </trkpt>
   <trkpt lat="46.2328567504883" lon="7.26326036453247">
    <ele>1030.80004882812</ele>
    <time>2012-04-30T15:24:01Z</time>
   </trkpt>
   <trkpt lat="46.2328414916992" lon="7.2632360458374">
    <ele>1031.13342285156</ele>
    <time>2012-04-30T15:24:02Z</time>
   </trkpt>
   <trkpt lat="46.2328338623047" lon="7.2632098197937">
    <ele>1031.46667480469</ele>
    <time>2012-04-30T15:24:03Z</time>
   </trkpt>
   <trkpt lat="46.2328224182129" lon="7.26318836212158">
    <ele>1031.80004882812</ele>
    <time>2012-04-30T15:24:04Z</time>
   </trkpt>
   <trkpt lat="46.2328071594238" lon="7.26316261291504">
    <ele>1031.80004882812</ele>
    <time>2012-04-30T15:24:05Z</time>
   </trkpt>
   <trkpt lat="46.232780456543" lon="7.26311349868774">
    <ele>1032.5</ele>
    <time>2012-04-30T15:24:07Z</time>
   </trkpt>
   <trkpt lat="46.2327651977539" lon="7.26308965682983">
    <ele>1032.85009765625</ele>
    <time>2012-04-30T15:24:08Z</time>
   </trkpt>
   <trkpt lat="46.2327499389648" lon="7.26306867599487">
    <ele>1033.20007324219</ele>
    <time>2012-04-30T15:24:09Z</time>
   </trkpt>
   <trkpt lat="46.2327346801758" lon="7.26304721832275">
    <ele>1033.55004882812</ele>
    <time>2012-04-30T15:24:10Z</time>
   </trkpt>
   <trkpt lat="46.2326965332031" lon="7.26297616958618">
    <ele>1034.59997558594</ele>
    <time>2012-04-30T15:24:13Z</time>
   </trkpt>
   <trkpt lat="46.2326812744141" lon="7.26295375823975">
    <ele>1034.94995117188</ele>
    <time>2012-04-30T15:24:14Z</time>
   </trkpt>
   <trkpt lat="46.2326698303223" lon="7.26293039321899">
    <ele>1035.30004882812</ele>
    <time>2012-04-30T15:24:15Z</time>
   </trkpt>
   <trkpt lat="46.2326545715332" lon="7.26290702819824">
    <ele>1035.65002441406</ele>
    <time>2012-04-30T15:24:16Z</time>
   </trkpt>
   <trkpt lat="46.2326431274414" lon="7.26288270950317">
    <ele>1036</ele>
    <time>2012-04-30T15:24:17Z</time>
   </trkpt>
   <trkpt lat="46.232608795166" lon="7.26281356811524">
    <ele>1036</ele>
    <time>2012-04-30T15:24:20Z</time>
   </trkpt>
   <trkpt lat="46.2325859069824" lon="7.26276683807373">
    <ele>1036.73327636719</ele>
    <time>2012-04-30T15:24:22Z</time>
   </trkpt>
   <trkpt lat="46.2325706481934" lon="7.26274347305298">
    <ele>1037.09997558594</ele>
    <time>2012-04-30T15:24:23Z</time>
   </trkpt>
   <trkpt lat="46.2325553894043" lon="7.2627215385437">
    <ele>1037.46667480469</ele>
    <time>2012-04-30T15:24:24Z</time>
   </trkpt>
   <trkpt lat="46.2325401306152" lon="7.26270198822022">
    <ele>1037.83325195312</ele>
    <time>2012-04-30T15:24:25Z</time>
   </trkpt>
   <trkpt lat="46.2325286865234" lon="7.26268100738525">
    <ele>1038.19995117188</ele>
    <time>2012-04-30T15:24:26Z</time>
   </trkpt>
   <trkpt lat="46.232494354248" lon="7.26264572143555">
    <ele>1038.19995117188</ele>
    <time>2012-04-30T15:24:28Z</time>
   </trkpt>
   <trkpt lat="46.2324447631836" lon="7.26258134841919">
    <ele>1039.14282226562</ele>
    <time>2012-04-30T15:24:31Z</time>
   </trkpt>
   <trkpt lat="46.2324295043945" lon="7.26256036758423">
    <ele>1039.45715332031</ele>
    <time>2012-04-30T15:24:32Z</time>
   </trkpt>
   <trkpt lat="46.2324142456055" lon="7.26253747940064">
    <ele>1039.77136230469</ele>
    <time>2012-04-30T15:24:33Z</time>
   </trkpt>
   <trkpt lat="46.2323989868164" lon="7.26251554489136">
    <ele>1040.08569335938</ele>
    <time>2012-04-30T15:24:34Z</time>
   </trkpt>
   <trkpt lat="46.2323303222656" lon="7.26244068145752">
    <ele>1041.34289550781</ele>
    <time>2012-04-30T15:24:38Z</time>
   </trkpt>
   <trkpt lat="46.2323112487793" lon="7.26242160797119">
    <ele>1041.65710449219</ele>
    <time>2012-04-30T15:24:39Z</time>
   </trkpt>
   <trkpt lat="46.2322959899902" lon="7.26240348815918">
    <ele>1041.97143554688</ele>
    <time>2012-04-30T15:24:40Z</time>
   </trkpt>
   <trkpt lat="46.2322807312012" lon="7.26238584518433">
    <ele>1042.28576660156</ele>
    <time>2012-04-30T15:24:41Z</time>
   </trkpt>
   <trkpt lat="46.2322654724121" lon="7.26236820220947">
    <ele>1042.59997558594</ele>
    <time>2012-04-30T15:24:42Z</time>
   </trkpt>
   <trkpt lat="46.2322158813477" lon="7.26231050491333">
    <ele>1043.54284667969</ele>
    <time>2012-04-30T15:24:45Z</time>
   </trkpt>
   <trkpt lat="46.2322006225586" lon="7.26228761672974">
    <ele>1043.85717773438</ele>
    <time>2012-04-30T15:24:46Z</time>
   </trkpt>
   <trkpt lat="46.2321815490723" lon="7.26226663589478">
    <ele>1044.17150878906</ele>
    <time>2012-04-30T15:24:47Z</time>
   </trkpt>
   <trkpt lat="46.2321624755859" lon="7.2622504234314">
    <ele>1044.48571777344</ele>
    <time>2012-04-30T15:24:48Z</time>
   </trkpt>
   <trkpt lat="46.2321510314941" lon="7.26223468780518">
    <ele>1044.80004882812</ele>
    <time>2012-04-30T15:24:49Z</time>
   </trkpt>
   <trkpt lat="46.2320938110352" lon="7.26215553283691">
    <ele>1044.80004882812</ele>
    <time>2012-04-30T15:24:53Z</time>
   </trkpt>
   <trkpt lat="46.2320823669434" lon="7.26213121414185">
    <ele>1045.18005371094</ele>
    <time>2012-04-30T15:24:54Z</time>
   </trkpt>
   <trkpt lat="46.2320671081543" lon="7.26210832595825">
    <ele>1045.56005859375</ele>
    <time>2012-04-30T15:24:55Z</time>
   </trkpt>
   <trkpt lat="46.2320556640625" lon="7.26208353042602">
    <ele>1045.94006347656</ele>
    <time>2012-04-30T15:24:56Z</time>
   </trkpt>
   <trkpt lat="46.2320404052734" lon="7.26206350326538">
    <ele>1046.32006835938</ele>
    <time>2012-04-30T15:24:57Z</time>
   </trkpt>
   <trkpt lat="46.2320251464844" lon="7.26204586029053">
    <ele>1046.69995117188</ele>
    <time>2012-04-30T15:24:58Z</time>
   </trkpt>
   <trkpt lat="46.2319755554199" lon="7.26195764541626">
    <ele>1048.21997070312</ele>
    <time>2012-04-30T15:25:02Z</time>
   </trkpt>
   <trkpt lat="46.2319488525391" lon="7.26190805435181">
    <ele>1048.59997558594</ele>
    <time>2012-04-30T15:25:03Z</time>
   </trkpt>
   <trkpt lat="46.2319488525391" lon="7.26190805435181">
    <ele>1048.59997558594</ele>
    <time>2012-04-30T15:25:05Z</time>
   </trkpt>
   <trkpt lat="46.2319221496582" lon="7.26184844970703">
    <ele>1049.13330078125</ele>
    <time>2012-04-30T15:25:07Z</time>
   </trkpt>
   <trkpt lat="46.231876373291" lon="7.26175546646118">
    <ele>1050.19995117188</ele>
    <time>2012-04-30T15:25:11Z</time>
   </trkpt>
   <trkpt lat="46.231861114502" lon="7.26173067092896">
    <ele>1050.46667480469</ele>
    <time>2012-04-30T15:25:12Z</time>
   </trkpt>
   <trkpt lat="46.2318496704102" lon="7.2617073059082">
    <ele>1050.73327636719</ele>
    <time>2012-04-30T15:25:13Z</time>
   </trkpt>
   <trkpt lat="46.2318382263184" lon="7.26168584823608">
    <ele>1051</ele>
    <time>2012-04-30T15:25:14Z</time>
   </trkpt>
   <trkpt lat="46.2318267822266" lon="7.26166105270386">
    <ele>1051.2666015625</ele>
    <time>2012-04-30T15:25:15Z</time>
   </trkpt>
   <trkpt lat="46.2317848205566" lon="7.26159381866455">
    <ele>1052.06665039062</ele>
    <time>2012-04-30T15:25:18Z</time>
   </trkpt>
   <trkpt lat="46.2317733764648" lon="7.26156902313232">
    <ele>1052.33337402344</ele>
    <time>2012-04-30T15:25:19Z</time>
   </trkpt>
   <trkpt lat="46.231761932373" lon="7.26154136657715">
    <ele>1052.59997558594</ele>
    <time>2012-04-30T15:25:20Z</time>
   </trkpt>
   <trkpt lat="46.2317504882812" lon="7.26151371002197">
    <ele>1052.86669921875</ele>
    <time>2012-04-30T15:25:21Z</time>
   </trkpt>
   <trkpt lat="46.2317390441894" lon="7.26149034500122">
    <ele>1053.13330078125</ele>
    <time>2012-04-30T15:25:22Z</time>
   </trkpt>
   <trkpt lat="46.2316856384277" lon="7.26139736175537">
    <ele>1054.19995117188</ele>
    <time>2012-04-30T15:25:26Z</time>
   </trkpt>
   <trkpt lat="46.2316741943359" lon="7.26137638092041">
    <ele>1054.46667480469</ele>
    <time>2012-04-30T15:25:27Z</time>
   </trkpt>
   <trkpt lat="46.2316627502441" lon="7.26135540008545">
    <ele>1054.7333984375</ele>
    <time>2012-04-30T15:25:28Z</time>
   </trkpt>
   <trkpt lat="46.2316513061523" lon="7.26133155822754">
    <ele>1055</ele>
    <time>2012-04-30T15:25:29Z</time>
   </trkpt>
   <trkpt lat="46.2316360473633" lon="7.26130723953247">
    <ele>1055.26672363281</ele>
    <time>2012-04-30T15:25:30Z</time>
   </trkpt>
   <trkpt lat="46.2315826416016" lon="7.26122045516968">
    <ele>1056.33337402344</ele>
    <time>2012-04-30T15:25:34Z</time>
   </trkpt>
   <trkpt lat="46.231575012207" lon="7.26120519638062">
    <ele>1056.59997558594</ele>
    <time>2012-04-30T15:25:35Z</time>
   </trkpt>
   <trkpt lat="46.2315673828125" lon="7.2611813545227">
    <ele>1056.86669921875</ele>
    <time>2012-04-30T15:25:36Z</time>
   </trkpt>
   <trkpt lat="46.2315559387207" lon="7.26115655899048">
    <ele>1057.13330078125</ele>
    <time>2012-04-30T15:25:37Z</time>
   </trkpt>
   <trkpt lat="46.2315406799316" lon="7.26113653182983">
    <ele>1057.40002441406</ele>
    <time>2012-04-30T15:25:38Z</time>
   </trkpt>
   <trkpt lat="46.231517791748" lon="7.26109313964844">
    <ele>1057.40002441406</ele>
    <time>2012-04-30T15:25:40Z</time>
   </trkpt>
   <trkpt lat="46.231502532959" lon="7.26107454299927">
    <ele>1057.83996582031</ele>
    <time>2012-04-30T15:25:41Z</time>
   </trkpt>
   <trkpt lat="46.2314872741699" lon="7.26105403900146">
    <ele>1058.28002929688</ele>
    <time>2012-04-30T15:25:42Z</time>
   </trkpt>
   <trkpt lat="46.2314720153809" lon="7.26103258132935">
    <ele>1058.71997070312</ele>
    <time>2012-04-30T15:25:43Z</time>
   </trkpt>
   <trkpt lat="46.2314529418945" lon="7.26100873947144">
    <ele>1059.16003417969</ele>
    <time>2012-04-30T15:25:44Z</time>
   </trkpt>
   <trkpt lat="46.2314414978027" lon="7.26098299026489">
    <ele>1059.59997558594</ele>
    <time>2012-04-30T15:25:45Z</time>
   </trkpt>
   <trkpt lat="46.2314224243164" lon="7.26095676422119">
    <ele>1059.59997558594</ele>
    <time>2012-04-30T15:25:46Z</time>
   </trkpt>
   <trkpt lat="46.2313957214356" lon="7.26091003417969">
    <ele>1060.33337402344</ele>
    <time>2012-04-30T15:25:48Z</time>
   </trkpt>
   <trkpt lat="46.231388092041" lon="7.26088333129883">
    <ele>1060.69995117188</ele>
    <time>2012-04-30T15:25:49Z</time>
   </trkpt>
   <trkpt lat="46.231372833252" lon="7.26085710525513">
    <ele>1061.06665039062</ele>
    <time>2012-04-30T15:25:50Z</time>
   </trkpt>
   <trkpt lat="46.2313613891602" lon="7.26082944869995">
    <ele>1061.43334960938</ele>
    <time>2012-04-30T15:25:51Z</time>
   </trkpt>
   <trkpt lat="46.2313461303711" lon="7.26080417633057">
    <ele>1061.80004882812</ele>
    <time>2012-04-30T15:25:52Z</time>
   </trkpt>
   <trkpt lat="46.2313385009766" lon="7.26077938079834">
    <ele>1061.80004882812</ele>
    <time>2012-04-30T15:25:53Z</time>
   </trkpt>
   <trkpt lat="46.2312850952148" lon="7.26067495346069">
    <ele>1062.90002441406</ele>
    <time>2012-04-30T15:25:57Z</time>
   </trkpt>
   <trkpt lat="46.2312774658203" lon="7.26064825057983">
    <ele>1063.17504882812</ele>
    <time>2012-04-30T15:25:58Z</time>
   </trkpt>
   <trkpt lat="46.2312660217285" lon="7.26061820983887">
    <ele>1063.44995117188</ele>
    <time>2012-04-30T15:25:59Z</time>
   </trkpt>
   <trkpt lat="46.2312545776367" lon="7.26059150695801">
    <ele>1063.72497558594</ele>
    <time>2012-04-30T15:26:00Z</time>
   </trkpt>
   <trkpt lat="46.2312469482422" lon="7.26056480407715">
    <ele>1064</ele>
    <time>2012-04-30T15:26:01Z</time>
   </trkpt>
   <trkpt lat="46.2312355041504" lon="7.26053714752197">
    <ele>1064</ele>
    <time>2012-04-30T15:26:02Z</time>
   </trkpt>
   <trkpt lat="46.2312164306641" lon="7.26047897338867">
    <ele>1064.88000488281</ele>
    <time>2012-04-30T15:26:04Z</time>
   </trkpt>
   <trkpt lat="46.231201171875" lon="7.26045179367065">
    <ele>1065.31994628906</ele>
    <time>2012-04-30T15:26:05Z</time>
   </trkpt>
   <trkpt lat="46.2311897277832" lon="7.26042652130127">
    <ele>1065.76000976562</ele>
    <time>2012-04-30T15:26:06Z</time>
   </trkpt>
   <trkpt lat="46.2311744689941" lon="7.26040172576904">
    <ele>1066.19995117188</ele>
    <time>2012-04-30T15:26:07Z</time>
   </trkpt>
   <trkpt lat="46.2311668395996" lon="7.2603759765625">
    <ele>1066.19995117188</ele>
    <time>2012-04-30T15:26:08Z</time>
   </trkpt>
   <trkpt lat="46.2311477661133" lon="7.26032400131226">
    <ele>1066.96667480469</ele>
    <time>2012-04-30T15:26:10Z</time>
   </trkpt>
   <trkpt lat="46.2311363220215" lon="7.26029443740845">
    <ele>1067.34997558594</ele>
    <time>2012-04-30T15:26:11Z</time>
   </trkpt>
   <trkpt lat="46.2311248779297" lon="7.26026439666748">
    <ele>1067.73327636719</ele>
    <time>2012-04-30T15:26:12Z</time>
   </trkpt>
   <trkpt lat="46.2311134338379" lon="7.26023435592651">
    <ele>1068.11669921875</ele>
    <time>2012-04-30T15:26:13Z</time>
   </trkpt>
   <trkpt lat="46.2311058044434" lon="7.26020240783691">
    <ele>1068.5</ele>
    <time>2012-04-30T15:26:14Z</time>
   </trkpt>
   <trkpt lat="46.2310829162598" lon="7.26014089584351">
    <ele>1069.26672363281</ele>
    <time>2012-04-30T15:26:16Z</time>
   </trkpt>
   <trkpt lat="46.2310752868652" lon="7.26011180877686">
    <ele>1069.65002441406</ele>
    <time>2012-04-30T15:26:17Z</time>
   </trkpt>
   <trkpt lat="46.2310676574707" lon="7.26008033752441">
    <ele>1070.03332519531</ele>
    <time>2012-04-30T15:26:18Z</time>
   </trkpt>
   <trkpt lat="46.2310600280762" lon="7.26005172729492">
    <ele>1070.41674804688</ele>
    <time>2012-04-30T15:26:19Z</time>
   </trkpt>
   <trkpt lat="46.2310523986816" lon="7.26002216339111">
    <ele>1070.80004882812</ele>
    <time>2012-04-30T15:26:20Z</time>
   </trkpt>
   <trkpt lat="46.2310371398926" lon="7.25992822647095">
    <ele>1070.80004882812</ele>
    <time>2012-04-30T15:26:23Z</time>
   </trkpt>
   <trkpt lat="46.2310180664062" lon="7.25980472564697">
    <ele>1071.90002441406</ele>
    <time>2012-04-30T15:26:27Z</time>
   </trkpt>
   <trkpt lat="46.2310066223144" lon="7.25977611541748">
    <ele>1072.17504882812</ele>
    <time>2012-04-30T15:26:28Z</time>
   </trkpt>
   <trkpt lat="46.2309989929199" lon="7.25974702835083">
    <ele>1072.44995117188</ele>
    <time>2012-04-30T15:26:29Z</time>
   </trkpt>
   <trkpt lat="46.2309951782227" lon="7.25971746444702">
    <ele>1072.72497558594</ele>
    <time>2012-04-30T15:26:30Z</time>
   </trkpt>
   <trkpt lat="46.2309761047363" lon="7.25956678390503">
    <ele>1074.09997558594</ele>
    <time>2012-04-30T15:26:35Z</time>
   </trkpt>
   <trkpt lat="46.2309684753418" lon="7.25953722000122">
    <ele>1074.375</ele>
    <time>2012-04-30T15:26:36Z</time>
   </trkpt>
   <trkpt lat="46.2309646606445" lon="7.25950622558594">
    <ele>1074.64990234375</ele>
    <time>2012-04-30T15:26:37Z</time>
   </trkpt>
   <trkpt lat="46.23095703125" lon="7.25947523117065">
    <ele>1074.92492675781</ele>
    <time>2012-04-30T15:26:38Z</time>
   </trkpt>
   <trkpt lat="46.2309494018555" lon="7.25944423675537">
    <ele>1075.19995117188</ele>
    <time>2012-04-30T15:26:39Z</time>
   </trkpt>
   <trkpt lat="46.2309379577637" lon="7.25933694839478">
    <ele>1075.19995117188</ele>
    <time>2012-04-30T15:26:43Z</time>
   </trkpt>
   <trkpt lat="46.2309379577637" lon="7.25927591323852">
    <ele>1075.93334960938</ele>
    <time>2012-04-30T15:26:45Z</time>
   </trkpt>
   <trkpt lat="46.2309379577637" lon="7.2592453956604">
    <ele>1076.30004882812</ele>
    <time>2012-04-30T15:26:46Z</time>
   </trkpt>
   <trkpt lat="46.2309417724609" lon="7.25921440124512">
    <ele>1076.66662597656</ele>
    <time>2012-04-30T15:26:47Z</time>
   </trkpt>
   <trkpt lat="46.2309417724609" lon="7.25918388366699">
    <ele>1077.03332519531</ele>
    <time>2012-04-30T15:26:48Z</time>
   </trkpt>
   <trkpt lat="46.2309455871582" lon="7.25915431976318">
    <ele>1077.40002441406</ele>
    <time>2012-04-30T15:26:49Z</time>
   </trkpt>
   <trkpt lat="46.2309608459473" lon="7.25913095474243">
    <ele>1077.40002441406</ele>
    <time>2012-04-30T15:26:50Z</time>
   </trkpt>
   <trkpt lat="46.2309913635254" lon="7.25909948348999">
    <ele>1078.28002929688</ele>
    <time>2012-04-30T15:26:52Z</time>
   </trkpt>
   <trkpt lat="46.2310104370117" lon="7.25909185409546">
    <ele>1078.71997070312</ele>
    <time>2012-04-30T15:26:53Z</time>
   </trkpt>
   <trkpt lat="46.2310333251953" lon="7.25908708572388">
    <ele>1079.16003417969</ele>
    <time>2012-04-30T15:26:54Z</time>
   </trkpt>
   <trkpt lat="46.2310562133789" lon="7.25908422470093">
    <ele>1079.59997558594</ele>
    <time>2012-04-30T15:26:55Z</time>
   </trkpt>
   <trkpt lat="46.2311172485352" lon="7.25907564163208">
    <ele>1079.59997558594</ele>
    <time>2012-04-30T15:26:58Z</time>
   </trkpt>
   <trkpt lat="46.2311668395996" lon="7.25909090042114">
    <ele>1080.19995117188</ele>
    <time>2012-04-30T15:27:00Z</time>
   </trkpt>
   <trkpt lat="46.2311897277832" lon="7.25908422470093">
    <ele>1080.5</ele>
    <time>2012-04-30T15:27:01Z</time>
   </trkpt>
   <trkpt lat="46.2312088012695" lon="7.25908422470093">
    <ele>1080.80004882812</ele>
    <time>2012-04-30T15:27:02Z</time>
   </trkpt>
   <trkpt lat="46.2312316894531" lon="7.25908184051514">
    <ele>1081.09997558594</ele>
    <time>2012-04-30T15:27:03Z</time>
   </trkpt>
   <trkpt lat="46.2312545776367" lon="7.25908803939819">
    <ele>1081.40002441406</ele>
    <time>2012-04-30T15:27:04Z</time>
   </trkpt>
   <trkpt lat="46.2313423156738" lon="7.25907850265503">
    <ele>1082.59997558594</ele>
    <time>2012-04-30T15:27:08Z</time>
   </trkpt>
   <trkpt lat="46.2313652038574" lon="7.2590742111206">
    <ele>1082.90002441406</ele>
    <time>2012-04-30T15:27:09Z</time>
   </trkpt>
   <trkpt lat="46.2313842773438" lon="7.25907516479492">
    <ele>1083.20007324219</ele>
    <time>2012-04-30T15:27:10Z</time>
   </trkpt>
   <trkpt lat="46.2314033508301" lon="7.25908041000366">
    <ele>1083.5</ele>
    <time>2012-04-30T15:27:11Z</time>
   </trkpt>
   <trkpt lat="46.2314186096191" lon="7.25908708572388">
    <ele>1083.80004882812</ele>
    <time>2012-04-30T15:27:12Z</time>
   </trkpt>
   <trkpt lat="46.2314834594727" lon="7.25908899307251">
    <ele>1083.80004882812</ele>
    <time>2012-04-30T15:27:15Z</time>
   </trkpt>
   <trkpt lat="46.2315444946289" lon="7.2590651512146">
    <ele>1084.90002441406</ele>
    <time>2012-04-30T15:27:18Z</time>
   </trkpt>
   <trkpt lat="46.2315673828125" lon="7.25906181335449">
    <ele>1085.26672363281</ele>
    <time>2012-04-30T15:27:19Z</time>
   </trkpt>
   <trkpt lat="46.2315864562988" lon="7.2590537071228">
    <ele>1085.63330078125</ele>
    <time>2012-04-30T15:27:20Z</time>
   </trkpt>
   <trkpt lat="46.2316055297852" lon="7.2590389251709">
    <ele>1086</ele>
    <time>2012-04-30T15:27:21Z</time>
   </trkpt>
   <trkpt lat="46.2316856384277" lon="7.25900650024414">
    <ele>1086</ele>
    <time>2012-04-30T15:27:25Z</time>
   </trkpt>
   <trkpt lat="46.2317276000977" lon="7.2589955329895">
    <ele>1086.66149902344</ele>
    <time>2012-04-30T15:27:27Z</time>
   </trkpt>
   <trkpt lat="46.2317504882812" lon="7.25900220870972">
    <ele>1086.99230957031</ele>
    <time>2012-04-30T15:27:28Z</time>
   </trkpt>
   <trkpt lat="46.2317733764648" lon="7.25901126861572">
    <ele>1087.32312011719</ele>
    <time>2012-04-30T15:27:29Z</time>
   </trkpt>
   <trkpt lat="46.2317924499512" lon="7.25901460647583">
    <ele>1087.65380859375</ele>
    <time>2012-04-30T15:27:30Z</time>
   </trkpt>
   <trkpt lat="46.2318153381348" lon="7.25901937484741">
    <ele>1087.98461914062</ele>
    <time>2012-04-30T15:27:31Z</time>
   </trkpt>
   <trkpt lat="46.2318840026856" lon="7.25902795791626">
    <ele>1088.97692871094</ele>
    <time>2012-04-30T15:27:34Z</time>
   </trkpt>
   <trkpt lat="46.2319068908691" lon="7.25903081893921">
    <ele>1089.30773925781</ele>
    <time>2012-04-30T15:27:35Z</time>
   </trkpt>
   <trkpt lat="46.2319297790527" lon="7.259033203125">
    <ele>1089.63842773438</ele>
    <time>2012-04-30T15:27:36Z</time>
   </trkpt>
   <trkpt lat="46.2319488525391" lon="7.25903224945068">
    <ele>1089.96923828125</ele>
    <time>2012-04-30T15:27:37Z</time>
   </trkpt>
   <trkpt lat="46.2319679260254" lon="7.25903463363648">
    <ele>1090.30004882812</ele>
    <time>2012-04-30T15:27:38Z</time>
   </trkpt>
   <trkpt lat="46.2320289611816" lon="7.25905513763428">
    <ele>1091.29223632812</ele>
    <time>2012-04-30T15:27:41Z</time>
   </trkpt>
   <trkpt lat="46.2320518493652" lon="7.25905752182007">
    <ele>1091.623046875</ele>
    <time>2012-04-30T15:27:42Z</time>
   </trkpt>
   <trkpt lat="46.2320709228516" lon="7.25906085968018">
    <ele>1091.95385742188</ele>
    <time>2012-04-30T15:27:43Z</time>
   </trkpt>
   <trkpt lat="46.2320938110352" lon="7.25906133651733">
    <ele>1092.28454589844</ele>
    <time>2012-04-30T15:27:44Z</time>
   </trkpt>
   <trkpt lat="46.2321624755859" lon="7.25904655456543">
    <ele>1093.27685546875</ele>
    <time>2012-04-30T15:27:47Z</time>
   </trkpt>
   <trkpt lat="46.2321815490723" lon="7.25904130935669">
    <ele>1093.60766601562</ele>
    <time>2012-04-30T15:27:48Z</time>
   </trkpt>
   <trkpt lat="46.2322006225586" lon="7.25904512405396">
    <ele>1093.9384765625</ele>
    <time>2012-04-30T15:27:49Z</time>
   </trkpt>
   <trkpt lat="46.2322158813477" lon="7.25905084609985">
    <ele>1094.26916503906</ele>
    <time>2012-04-30T15:27:50Z</time>
   </trkpt>
   <trkpt lat="46.2322387695312" lon="7.259033203125">
    <ele>1094.59997558594</ele>
    <time>2012-04-30T15:27:51Z</time>
   </trkpt>
   <trkpt lat="46.2322998046875" lon="7.25897979736328">
    <ele>1094.59997558594</ele>
    <time>2012-04-30T15:27:54Z</time>
   </trkpt>
   <trkpt lat="46.2323150634766" lon="7.25896406173706">
    <ele>1095.0400390625</ele>
    <time>2012-04-30T15:27:55Z</time>
   </trkpt>
   <trkpt lat="46.2323341369629" lon="7.25894355773926">
    <ele>1095.47998046875</ele>
    <time>2012-04-30T15:27:56Z</time>
   </trkpt>
   <trkpt lat="46.2323455810547" lon="7.25892019271851">
    <ele>1095.92004394531</ele>
    <time>2012-04-30T15:27:57Z</time>
   </trkpt>
   <trkpt lat="46.2323608398438" lon="7.2588939666748">
    <ele>1096.35998535156</ele>
    <time>2012-04-30T15:27:58Z</time>
   </trkpt>
   <trkpt lat="46.2323722839356" lon="7.25886297225952">
    <ele>1096.80004882812</ele>
    <time>2012-04-30T15:27:59Z</time>
   </trkpt>
   <trkpt lat="46.2324409484863" lon="7.25866174697876">
    <ele>1096.80004882812</ele>
    <time>2012-04-30T15:28:05Z</time>
   </trkpt>
   <trkpt lat="46.2325172424316" lon="7.25856924057007">
    <ele>1097.78833007812</ele>
    <time>2012-04-30T15:28:09Z</time>
   </trkpt>
   <trkpt lat="46.232536315918" lon="7.25855827331543">
    <ele>1098.03527832031</ele>
    <time>2012-04-30T15:28:10Z</time>
   </trkpt>
   <trkpt lat="46.2325592041016" lon="7.25854682922363">
    <ele>1098.28234863281</ele>
    <time>2012-04-30T15:28:11Z</time>
   </trkpt>
   <trkpt lat="46.2325820922852" lon="7.25853729248047">
    <ele>1098.52941894531</ele>
    <time>2012-04-30T15:28:12Z</time>
   </trkpt>
   <trkpt lat="46.2327308654785" lon="7.25849342346191">
    <ele>1100.01171875</ele>
    <time>2012-04-30T15:28:18Z</time>
   </trkpt>
   <trkpt lat="46.2327537536621" lon="7.2584810256958">
    <ele>1100.2587890625</ele>
    <time>2012-04-30T15:28:19Z</time>
   </trkpt>
   <trkpt lat="46.232780456543" lon="7.25847387313843">
    <ele>1100.505859375</ele>
    <time>2012-04-30T15:28:20Z</time>
   </trkpt>
   <trkpt lat="46.2327995300293" lon="7.25846862792969">
    <ele>1100.7529296875</ele>
    <time>2012-04-30T15:28:21Z</time>
   </trkpt>
   <trkpt lat="46.2328186035156" lon="7.25845623016357">
    <ele>1101</ele>
    <time>2012-04-30T15:28:22Z</time>
   </trkpt>
   <trkpt lat="46.2328872680664" lon="7.25842666625976">
    <ele>1101</ele>
    <time>2012-04-30T15:28:25Z</time>
   </trkpt>
   <trkpt lat="46.2329635620117" lon="7.25840997695923">
    <ele>1101.66003417969</ele>
    <time>2012-04-30T15:28:28Z</time>
   </trkpt>
   <trkpt lat="46.2330284118652" lon="7.25839376449585">
    <ele>1102.09997558594</ele>
    <time>2012-04-30T15:28:30Z</time>
   </trkpt>
   <trkpt lat="46.233097076416" lon="7.25836992263794">
    <ele>1102.53991699219</ele>
    <time>2012-04-30T15:28:32Z</time>
   </trkpt>
   <trkpt lat="46.2331314086914" lon="7.25835800170898">
    <ele>1102.76000976562</ele>
    <time>2012-04-30T15:28:33Z</time>
   </trkpt>
   <trkpt lat="46.2331619262695" lon="7.2583441734314">
    <ele>1102.97998046875</ele>
    <time>2012-04-30T15:28:34Z</time>
   </trkpt>
   <trkpt lat="46.2331886291504" lon="7.25833415985107">
    <ele>1103.19995117188</ele>
    <time>2012-04-30T15:28:35Z</time>
   </trkpt>
   <trkpt lat="46.2332649230957" lon="7.25831365585327">
    <ele>1103.19995117188</ele>
    <time>2012-04-30T15:28:37Z</time>
   </trkpt>
   <trkpt lat="46.2334976196289" lon="7.25831699371338">
    <ele>1103.94995117188</ele>
    <time>2012-04-30T15:28:43Z</time>
   </trkpt>
   <trkpt lat="46.2336235046387" lon="7.25834512710571">
    <ele>1104.44995117188</ele>
    <time>2012-04-30T15:28:47Z</time>
   </trkpt>
   <trkpt lat="46.2336921691894" lon="7.25835847854614">
    <ele>1104.69995117188</ele>
    <time>2012-04-30T15:28:49Z</time>
   </trkpt>
   <trkpt lat="46.2337226867676" lon="7.25837564468384">
    <ele>1104.82495117188</ele>
    <time>2012-04-30T15:28:50Z</time>
   </trkpt>
   <trkpt lat="46.2337493896484" lon="7.25837898254394">
    <ele>1104.94995117188</ele>
    <time>2012-04-30T15:28:51Z</time>
   </trkpt>
   <trkpt lat="46.2337799072266" lon="7.25838375091553">
    <ele>1105.07495117188</ele>
    <time>2012-04-30T15:28:52Z</time>
   </trkpt>
   <trkpt lat="46.2338104248047" lon="7.25839376449585">
    <ele>1105.19995117188</ele>
    <time>2012-04-30T15:28:53Z</time>
   </trkpt>
   <trkpt lat="46.2339210510254" lon="7.25840091705322">
    <ele>1105.19995117188</ele>
    <time>2012-04-30T15:28:57Z</time>
   </trkpt>
   <trkpt lat="46.2340393066406" lon="7.2584981918335">
    <ele>1106.31103515625</ele>
    <time>2012-04-30T15:29:02Z</time>
   </trkpt>
   <trkpt lat="46.234058380127" lon="7.25853586196899">
    <ele>1106.53332519531</ele>
    <time>2012-04-30T15:29:03Z</time>
   </trkpt>
   <trkpt lat="46.2340812683106" lon="7.25857019424438">
    <ele>1106.75549316406</ele>
    <time>2012-04-30T15:29:04Z</time>
   </trkpt>
   <trkpt lat="46.2341003417969" lon="7.25861072540283">
    <ele>1106.97778320312</ele>
    <time>2012-04-30T15:29:05Z</time>
   </trkpt>
   <trkpt lat="46.2341156005859" lon="7.25865125656128">
    <ele>1107.19995117188</ele>
    <time>2012-04-30T15:29:06Z</time>
   </trkpt>
   <trkpt lat="46.2341728210449" lon="7.25875997543335">
    <ele>1107.19995117188</ele>
    <time>2012-04-30T15:29:08Z</time>
   </trkpt>
   <trkpt lat="46.2342224121094" lon="7.25882005691528">
    <ele>1108.14282226562</ele>
    <time>2012-04-30T15:29:11Z</time>
   </trkpt>
   <trkpt lat="46.2342529296875" lon="7.25884437561035">
    <ele>1108.45715332031</ele>
    <time>2012-04-30T15:29:12Z</time>
   </trkpt>
   <trkpt lat="46.2342910766602" lon="7.25887441635132">
    <ele>1108.771484375</ele>
    <time>2012-04-30T15:29:13Z</time>
   </trkpt>
   <trkpt lat="46.2343254089356" lon="7.25889492034912">
    <ele>1109.08569335938</ele>
    <time>2012-04-30T15:29:14Z</time>
   </trkpt>
   <trkpt lat="46.2343597412109" lon="7.25890779495239">
    <ele>1109.40002441406</ele>
    <time>2012-04-30T15:29:15Z</time>
   </trkpt>
   <trkpt lat="46.2344741821289" lon="7.25894594192505">
    <ele>1109.40002441406</ele>
    <time>2012-04-30T15:29:19Z</time>
   </trkpt>
   <trkpt lat="46.2345695495606" lon="7.2589864730835">
    <ele>1110.40002441406</ele>
    <time>2012-04-30T15:29:22Z</time>
   </trkpt>
   <trkpt lat="46.2346000671387" lon="7.25900173187256">
    <ele>1110.7333984375</ele>
    <time>2012-04-30T15:29:23Z</time>
   </trkpt>
   <trkpt lat="46.2346305847168" lon="7.25901460647583">
    <ele>1111.06665039062</ele>
    <time>2012-04-30T15:29:24Z</time>
   </trkpt>
   <trkpt lat="46.2346611022949" lon="7.25902318954468">
    <ele>1111.40002441406</ele>
    <time>2012-04-30T15:29:25Z</time>
   </trkpt>
   <trkpt lat="46.2347717285156" lon="7.25904750823975">
    <ele>1111.40002441406</ele>
    <time>2012-04-30T15:29:29Z</time>
   </trkpt>
   <trkpt lat="46.2348289489746" lon="7.25903558731079">
    <ele>1112.06665039062</ele>
    <time>2012-04-30T15:29:31Z</time>
   </trkpt>
   <trkpt lat="46.2348556518555" lon="7.25902557373047">
    <ele>1112.40002441406</ele>
    <time>2012-04-30T15:29:32Z</time>
   </trkpt>
   <trkpt lat="46.2348785400391" lon="7.25901746749878">
    <ele>1112.7333984375</ele>
    <time>2012-04-30T15:29:33Z</time>
   </trkpt>
   <trkpt lat="46.2349090576172" lon="7.25899982452393">
    <ele>1113.06665039062</ele>
    <time>2012-04-30T15:29:34Z</time>
   </trkpt>
   <trkpt lat="46.2349433898926" lon="7.25898170471191">
    <ele>1113.40002441406</ele>
    <time>2012-04-30T15:29:35Z</time>
   </trkpt>
   <trkpt lat="46.2350006103516" lon="7.25893974304199">
    <ele>1113.40002441406</ele>
    <time>2012-04-30T15:29:37Z</time>
   </trkpt>
   <trkpt lat="46.2350807189941" lon="7.25887393951416">
    <ele>1114.25720214844</ele>
    <time>2012-04-30T15:29:40Z</time>
   </trkpt>
   <trkpt lat="46.2351112365723" lon="7.25885677337646">
    <ele>1114.54284667969</ele>
    <time>2012-04-30T15:29:41Z</time>
   </trkpt>
   <trkpt lat="46.2351455688477" lon="7.25884056091309">
    <ele>1114.82861328125</ele>
    <time>2012-04-30T15:29:42Z</time>
   </trkpt>
   <trkpt lat="46.2351722717285" lon="7.25883102416992">
    <ele>1115.1142578125</ele>
    <time>2012-04-30T15:29:43Z</time>
   </trkpt>
   <trkpt lat="46.2352066040039" lon="7.2588300704956">
    <ele>1115.40002441406</ele>
    <time>2012-04-30T15:29:44Z</time>
   </trkpt>
   <trkpt lat="46.2354736328125" lon="7.25887155532837">
    <ele>1115.40002441406</ele>
    <time>2012-04-30T15:29:51Z</time>
   </trkpt>
   <trkpt lat="46.2356834411621" lon="7.25901651382446">
    <ele>1116.02856445312</ele>
    <time>2012-04-30T15:29:57Z</time>
   </trkpt>
   <trkpt lat="46.23583984375" lon="7.25908279418945">
    <ele>1116.44763183594</ele>
    <time>2012-04-30T15:30:01Z</time>
   </trkpt>
   <trkpt lat="46.2359046936035" lon="7.2590651512146">
    <ele>1116.65710449219</ele>
    <time>2012-04-30T15:30:03Z</time>
   </trkpt>
   <trkpt lat="46.2360496520996" lon="7.25911283493042">
    <ele>1117.076171875</ele>
    <time>2012-04-30T15:30:07Z</time>
   </trkpt>
   <trkpt lat="46.2360877990723" lon="7.25913572311401">
    <ele>1117.18090820312</ele>
    <time>2012-04-30T15:30:08Z</time>
   </trkpt>
   <trkpt lat="46.2361221313477" lon="7.25915002822876">
    <ele>1117.28564453125</ele>
    <time>2012-04-30T15:30:09Z</time>
   </trkpt>
   <trkpt lat="46.2361640930176" lon="7.25915670394898">
    <ele>1117.39050292969</ele>
    <time>2012-04-30T15:30:10Z</time>
   </trkpt>
   <trkpt lat="46.2362060546875" lon="7.25914764404297">
    <ele>1117.49523925781</ele>
    <time>2012-04-30T15:30:11Z</time>
   </trkpt>
   <trkpt lat="46.2362442016602" lon="7.25911903381348">
    <ele>1117.59997558594</ele>
    <time>2012-04-30T15:30:12Z</time>
   </trkpt>
   <trkpt lat="46.236400604248" lon="7.25902509689331">
    <ele>1117.59997558594</ele>
    <time>2012-04-30T15:30:16Z</time>
   </trkpt>
   <trkpt lat="46.2366065979004" lon="7.25906276702881">
    <ele>1117.37084960938</ele>
    <time>2012-04-30T15:30:21Z</time>
   </trkpt>
   <trkpt lat="46.2366523742676" lon="7.2590742111206">
    <ele>1117.32495117188</ele>
    <time>2012-04-30T15:30:22Z</time>
   </trkpt>
   <trkpt lat="46.2367286682129" lon="7.25909471511841">
    <ele>1117.23327636719</ele>
    <time>2012-04-30T15:30:24Z</time>
   </trkpt>
   <trkpt lat="46.2368431091309" lon="7.25912284851074">
    <ele>1117.09582519531</ele>
    <time>2012-04-30T15:30:27Z</time>
   </trkpt>
   <trkpt lat="46.2371063232422" lon="7.2591814994812">
    <ele>1116.77502441406</ele>
    <time>2012-04-30T15:30:34Z</time>
   </trkpt>
   <trkpt lat="46.2372817993164" lon="7.25922632217407">
    <ele>1116.54577636719</ele>
    <time>2012-04-30T15:30:39Z</time>
   </trkpt>
   <trkpt lat="46.2374801635742" lon="7.25927543640137">
    <ele>1116.31665039062</ele>
    <time>2012-04-30T15:30:44Z</time>
   </trkpt>
   <trkpt lat="46.2375564575195" lon="7.25929546356201">
    <ele>1116.22497558594</ele>
    <time>2012-04-30T15:30:46Z</time>
   </trkpt>
   <trkpt lat="46.2376823425293" lon="7.25927352905274">
    <ele>1116.08752441406</ele>
    <time>2012-04-30T15:30:49Z</time>
   </trkpt>
   <trkpt lat="46.237720489502" lon="7.2592568397522">
    <ele>1116.04162597656</ele>
    <time>2012-04-30T15:30:50Z</time>
   </trkpt>
   <trkpt lat="46.2378997802734" lon="7.25921583175659">
    <ele>1115.8583984375</ele>
    <time>2012-04-30T15:30:54Z</time>
   </trkpt>
   <trkpt lat="46.2379989624023" lon="7.25920677185059">
    <ele>1115.76672363281</ele>
    <time>2012-04-30T15:30:56Z</time>
   </trkpt>
   <trkpt lat="46.2380447387695" lon="7.25921583175659">
    <ele>1115.72082519531</ele>
    <time>2012-04-30T15:30:57Z</time>
   </trkpt>
   <trkpt lat="46.2382392883301" lon="7.25929355621338">
    <ele>1115.53747558594</ele>
    <time>2012-04-30T15:31:01Z</time>
   </trkpt>
   <trkpt lat="46.2382888793945" lon="7.25931930541992">
    <ele>1115.49169921875</ele>
    <time>2012-04-30T15:31:02Z</time>
   </trkpt>
   <trkpt lat="46.2383422851562" lon="7.25934410095215">
    <ele>1115.44580078125</ele>
    <time>2012-04-30T15:31:03Z</time>
   </trkpt>
   <trkpt lat="46.2383918762207" lon="7.25937128067017">
    <ele>1115.40002441406</ele>
    <time>2012-04-30T15:31:04Z</time>
   </trkpt>
   <trkpt lat="46.2385940551758" lon="7.25945234298706">
    <ele>1115.40002441406</ele>
    <time>2012-04-30T15:31:08Z</time>
   </trkpt>
   <trkpt lat="46.2389488220215" lon="7.25954866409302">
    <ele>1115.71826171875</ele>
    <time>2012-04-30T15:31:15Z</time>
   </trkpt>
   <trkpt lat="46.239185333252" lon="7.25961256027222">
    <ele>1115.94543457031</ele>
    <time>2012-04-30T15:31:20Z</time>
   </trkpt>
   <trkpt lat="46.2395286560059" lon="7.25966691970825">
    <ele>1116.263671875</ele>
    <time>2012-04-30T15:31:27Z</time>
   </trkpt>
   <trkpt lat="46.2398452758789" lon="7.25965929031372">
    <ele>1116.58178710938</ele>
    <time>2012-04-30T15:31:34Z</time>
   </trkpt>
   <trkpt lat="46.2401161193848" lon="7.25956678390503">
    <ele>1116.85461425781</ele>
    <time>2012-04-30T15:31:40Z</time>
   </trkpt>
   <trkpt lat="46.2401580810547" lon="7.25953912734985">
    <ele>1116.90002441406</ele>
    <time>2012-04-30T15:31:41Z</time>
   </trkpt>
   <trkpt lat="46.240306854248" lon="7.2593936920166">
    <ele>1117.08178710938</ele>
    <time>2012-04-30T15:31:45Z</time>
   </trkpt>
   <trkpt lat="46.2404136657715" lon="7.25933980941772">
    <ele>1117.21826171875</ele>
    <time>2012-04-30T15:31:48Z</time>
   </trkpt>
   <trkpt lat="46.2404556274414" lon="7.25932502746582">
    <ele>1117.263671875</ele>
    <time>2012-04-30T15:31:49Z</time>
   </trkpt>
   <trkpt lat="46.2404861450195" lon="7.2593355178833">
    <ele>1117.30908203125</ele>
    <time>2012-04-30T15:31:50Z</time>
   </trkpt>
   <trkpt lat="46.2405204772949" lon="7.2593502998352">
    <ele>1117.35461425781</ele>
    <time>2012-04-30T15:31:51Z</time>
   </trkpt>
   <trkpt lat="46.2405548095703" lon="7.25935792922974">
    <ele>1117.40002441406</ele>
    <time>2012-04-30T15:31:52Z</time>
   </trkpt>
   <trkpt lat="46.2406730651856" lon="7.25933980941772">
    <ele>1117.40002441406</ele>
    <time>2012-04-30T15:31:56Z</time>
   </trkpt>
   <trkpt lat="46.2407035827637" lon="7.2593207359314">
    <ele>1117.73852539062</ele>
    <time>2012-04-30T15:31:57Z</time>
   </trkpt>
   <trkpt lat="46.2407264709473" lon="7.25928926467896">
    <ele>1118.07690429688</ele>
    <time>2012-04-30T15:31:58Z</time>
   </trkpt>
   <trkpt lat="46.2407531738281" lon="7.25926876068115">
    <ele>1118.41540527344</ele>
    <time>2012-04-30T15:31:59Z</time>
   </trkpt>
   <trkpt lat="46.240779876709" lon="7.25922966003418">
    <ele>1118.75390625</ele>
    <time>2012-04-30T15:32:00Z</time>
   </trkpt>
   <trkpt lat="46.2408065795898" lon="7.25919675827026">
    <ele>1119.09228515625</ele>
    <time>2012-04-30T15:32:01Z</time>
   </trkpt>
   <trkpt lat="46.240909576416" lon="7.25908279418945">
    <ele>1120.44616699219</ele>
    <time>2012-04-30T15:32:05Z</time>
   </trkpt>
   <trkpt lat="46.2409400939941" lon="7.2590503692627">
    <ele>1120.78466796875</ele>
    <time>2012-04-30T15:32:06Z</time>
   </trkpt>
   <trkpt lat="46.2409629821777" lon="7.25901651382446">
    <ele>1121.12316894531</ele>
    <time>2012-04-30T15:32:07Z</time>
   </trkpt>
   <trkpt lat="46.2409896850586" lon="7.25898694992065">
    <ele>1121.46154785156</ele>
    <time>2012-04-30T15:32:08Z</time>
   </trkpt>
   <trkpt lat="46.2410163879394" lon="7.25896310806274">
    <ele>1121.80004882812</ele>
    <time>2012-04-30T15:32:09Z</time>
   </trkpt>
   <trkpt lat="46.2411346435547" lon="7.25888872146606">
    <ele>1121.80004882812</ele>
    <time>2012-04-30T15:32:13Z</time>
   </trkpt>
   <trkpt lat="46.2411956787109" lon="7.25885725021362">
    <ele>1122.68005371094</ele>
    <time>2012-04-30T15:32:15Z</time>
   </trkpt>
   <trkpt lat="46.2412261962891" lon="7.25884342193604">
    <ele>1123.11999511719</ele>
    <time>2012-04-30T15:32:16Z</time>
   </trkpt>
   <trkpt lat="46.2412567138672" lon="7.25883722305298">
    <ele>1123.56005859375</ele>
    <time>2012-04-30T15:32:17Z</time>
   </trkpt>
   <trkpt lat="46.241283416748" lon="7.25882482528686">
    <ele>1124</ele>
    <time>2012-04-30T15:32:18Z</time>
   </trkpt>
   <trkpt lat="46.2413635253906" lon="7.25883436203003">
    <ele>1124</ele>
    <time>2012-04-30T15:32:20Z</time>
   </trkpt>
   <trkpt lat="46.2414245605469" lon="7.25881099700928">
    <ele>1124.14660644531</ele>
    <time>2012-04-30T15:32:22Z</time>
   </trkpt>
   <trkpt lat="46.2415008544922" lon="7.25876712799072">
    <ele>1124.29333496094</ele>
    <time>2012-04-30T15:32:24Z</time>
   </trkpt>
   <trkpt lat="46.2416076660156" lon="7.25868463516235">
    <ele>1124.51330566406</ele>
    <time>2012-04-30T15:32:27Z</time>
   </trkpt>
   <trkpt lat="46.2416648864746" lon="7.25860929489136">
    <ele>1124.66003417969</ele>
    <time>2012-04-30T15:32:29Z</time>
   </trkpt>
   <trkpt lat="46.2417449951172" lon="7.25849533081055">
    <ele>1124.88000488281</ele>
    <time>2012-04-30T15:32:32Z</time>
   </trkpt>
   <trkpt lat="46.2418365478516" lon="7.25833988189697">
    <ele>1125.09997558594</ele>
    <time>2012-04-30T15:32:35Z</time>
   </trkpt>
   <trkpt lat="46.2418937683106" lon="7.25824689865112">
    <ele>1125.24658203125</ele>
    <time>2012-04-30T15:32:37Z</time>
   </trkpt>
   <trkpt lat="46.2419624328613" lon="7.2581672668457">
    <ele>1125.39331054688</ele>
    <time>2012-04-30T15:32:39Z</time>
   </trkpt>
   <trkpt lat="46.2420501708984" lon="7.25814151763916">
    <ele>1125.53991699219</ele>
    <time>2012-04-30T15:32:41Z</time>
   </trkpt>
   <trkpt lat="46.242130279541" lon="7.25815677642822">
    <ele>1125.68664550781</ele>
    <time>2012-04-30T15:32:43Z</time>
   </trkpt>
   <trkpt lat="46.2422027587891" lon="7.25815153121948">
    <ele>1125.83325195312</ele>
    <time>2012-04-30T15:32:45Z</time>
   </trkpt>
   <trkpt lat="46.2422370910644" lon="7.25814580917358">
    <ele>1125.90661621094</ele>
    <time>2012-04-30T15:32:46Z</time>
   </trkpt>
   <trkpt lat="46.2422714233398" lon="7.25814914703369">
    <ele>1125.97998046875</ele>
    <time>2012-04-30T15:32:47Z</time>
   </trkpt>
   <trkpt lat="46.2422981262207" lon="7.25815486907959">
    <ele>1126.05334472656</ele>
    <time>2012-04-30T15:32:48Z</time>
   </trkpt>
   <trkpt lat="46.2423286437988" lon="7.25815773010254">
    <ele>1126.12658691406</ele>
    <time>2012-04-30T15:32:49Z</time>
   </trkpt>
   <trkpt lat="46.2423553466797" lon="7.25817108154297">
    <ele>1126.19995117188</ele>
    <time>2012-04-30T15:32:50Z</time>
   </trkpt>
   <trkpt lat="46.2423820495606" lon="7.25818824768066">
    <ele>1126.19995117188</ele>
    <time>2012-04-30T15:32:51Z</time>
   </trkpt>
   <trkpt lat="46.2424774169922" lon="7.25823259353638">
    <ele>1127.30004882812</ele>
    <time>2012-04-30T15:32:55Z</time>
   </trkpt>
   <trkpt lat="46.2424964904785" lon="7.25823926925659">
    <ele>1127.57495117188</ele>
    <time>2012-04-30T15:32:56Z</time>
   </trkpt>
   <trkpt lat="46.2425193786621" lon="7.25823974609375">
    <ele>1127.84997558594</ele>
    <time>2012-04-30T15:32:57Z</time>
   </trkpt>
   <trkpt lat="46.2425422668457" lon="7.25825786590576">
    <ele>1128.125</ele>
    <time>2012-04-30T15:32:58Z</time>
   </trkpt>
   <trkpt lat="46.2425575256348" lon="7.25827121734619">
    <ele>1128.40002441406</ele>
    <time>2012-04-30T15:32:59Z</time>
   </trkpt>
   <trkpt lat="46.2425765991211" lon="7.25826930999756">
    <ele>1128.40002441406</ele>
    <time>2012-04-30T15:33:00Z</time>
   </trkpt>
   <trkpt lat="46.2426338195801" lon="7.25828218460083">
    <ele>1129.40002441406</ele>
    <time>2012-04-30T15:33:03Z</time>
   </trkpt>
   <trkpt lat="46.2426528930664" lon="7.25828170776367">
    <ele>1129.7333984375</ele>
    <time>2012-04-30T15:33:04Z</time>
   </trkpt>
   <trkpt lat="46.24267578125" lon="7.25827598571777">
    <ele>1130.06665039062</ele>
    <time>2012-04-30T15:33:05Z</time>
   </trkpt>
   <trkpt lat="46.2426986694336" lon="7.25827360153198">
    <ele>1130.40002441406</ele>
    <time>2012-04-30T15:33:06Z</time>
   </trkpt>
   <trkpt lat="46.242748260498" lon="7.2582859992981">
    <ele>1130.40002441406</ele>
    <time>2012-04-30T15:33:09Z</time>
   </trkpt>
   <trkpt lat="46.2427635192871" lon="7.25828218460083">
    <ele>1130.70910644531</ele>
    <time>2012-04-30T15:33:10Z</time>
   </trkpt>
   <trkpt lat="46.2427787780762" lon="7.2582859992981">
    <ele>1131.01818847656</ele>
    <time>2012-04-30T15:33:11Z</time>
   </trkpt>
   <trkpt lat="46.2427978515625" lon="7.25827932357788">
    <ele>1131.32727050781</ele>
    <time>2012-04-30T15:33:12Z</time>
   </trkpt>
   <trkpt lat="46.2428283691406" lon="7.25827074050903">
    <ele>1131.63635253906</ele>
    <time>2012-04-30T15:33:13Z</time>
   </trkpt>
   <trkpt lat="46.2428703308106" lon="7.25827264785767">
    <ele>1132.25451660156</ele>
    <time>2012-04-30T15:33:15Z</time>
   </trkpt>
   <trkpt lat="46.2430076599121" lon="7.25822925567627">
    <ele>1133.80004882812</ele>
    <time>2012-04-30T15:33:20Z</time>
   </trkpt>
   <trkpt lat="46.2430305480957" lon="7.25822639465332">
    <ele>1134.10913085938</ele>
    <time>2012-04-30T15:33:21Z</time>
   </trkpt>
   <trkpt lat="46.2430534362793" lon="7.25822353363037">
    <ele>1134.41821289062</ele>
    <time>2012-04-30T15:33:22Z</time>
   </trkpt>
   <trkpt lat="46.2430763244629" lon="7.25822496414185">
    <ele>1134.72729492188</ele>
    <time>2012-04-30T15:33:23Z</time>
   </trkpt>
   <trkpt lat="46.2431831359863" lon="7.25829029083252">
    <ele>1135.96362304688</ele>
    <time>2012-04-30T15:33:27Z</time>
   </trkpt>
   <trkpt lat="46.2432136535644" lon="7.25831842422485">
    <ele>1136.27270507812</ele>
    <time>2012-04-30T15:33:28Z</time>
   </trkpt>
   <trkpt lat="46.2432403564453" lon="7.2583475112915">
    <ele>1136.58178710938</ele>
    <time>2012-04-30T15:33:29Z</time>
   </trkpt>
   <trkpt lat="46.2432670593262" lon="7.25837993621826">
    <ele>1136.89086914062</ele>
    <time>2012-04-30T15:33:30Z</time>
   </trkpt>
   <trkpt lat="46.243293762207" lon="7.25841045379639">
    <ele>1137.19995117188</ele>
    <time>2012-04-30T15:33:31Z</time>
   </trkpt>
   <trkpt lat="46.2433166503906" lon="7.25844097137451">
    <ele>1137.19995117188</ele>
    <time>2012-04-30T15:33:32Z</time>
   </trkpt>
   <trkpt lat="46.2433891296387" lon="7.2585186958313">
    <ele>1138</ele>
    <time>2012-04-30T15:33:35Z</time>
   </trkpt>
   <trkpt lat="46.2434158325195" lon="7.25853824615478">
    <ele>1138.2666015625</ele>
    <time>2012-04-30T15:33:36Z</time>
   </trkpt>
   <trkpt lat="46.2434387207031" lon="7.25855350494385">
    <ele>1138.53332519531</ele>
    <time>2012-04-30T15:33:37Z</time>
   </trkpt>
   <trkpt lat="46.2434616088867" lon="7.25857067108154">
    <ele>1138.79992675781</ele>
    <time>2012-04-30T15:33:38Z</time>
   </trkpt>
   <trkpt lat="46.243480682373" lon="7.25858974456787">
    <ele>1139.06665039062</ele>
    <time>2012-04-30T15:33:39Z</time>
   </trkpt>
   <trkpt lat="46.243579864502" lon="7.25864171981812">
    <ele>1140.13330078125</ele>
    <time>2012-04-30T15:33:43Z</time>
   </trkpt>
   <trkpt lat="46.2436027526856" lon="7.25864696502686">
    <ele>1140.39990234375</ele>
    <time>2012-04-30T15:33:44Z</time>
   </trkpt>
   <trkpt lat="46.2436256408691" lon="7.25864696502686">
    <ele>1140.66662597656</ele>
    <time>2012-04-30T15:33:45Z</time>
   </trkpt>
   <trkpt lat="46.2436447143555" lon="7.25863981246948">
    <ele>1140.93322753906</ele>
    <time>2012-04-30T15:33:46Z</time>
   </trkpt>
   <trkpt lat="46.2436676025391" lon="7.25863170623779">
    <ele>1141.19995117188</ele>
    <time>2012-04-30T15:33:47Z</time>
   </trkpt>
   <trkpt lat="46.2437133789062" lon="7.25860595703125">
    <ele>1141.19995117188</ele>
    <time>2012-04-30T15:33:49Z</time>
   </trkpt>
   <trkpt lat="46.2437362670898" lon="7.25858211517334">
    <ele>1141.51428222656</ele>
    <time>2012-04-30T15:33:50Z</time>
   </trkpt>
   <trkpt lat="46.2437744140625" lon="7.25853776931763">
    <ele>1142.14282226562</ele>
    <time>2012-04-30T15:33:52Z</time>
   </trkpt>
   <trkpt lat="46.2437934875488" lon="7.25851678848267">
    <ele>1142.45715332031</ele>
    <time>2012-04-30T15:33:53Z</time>
   </trkpt>
   <trkpt lat="46.2438049316406" lon="7.25849342346191">
    <ele>1142.771484375</ele>
    <time>2012-04-30T15:33:54Z</time>
   </trkpt>
   <trkpt lat="46.2438163757324" lon="7.25846815109253">
    <ele>1143.08569335938</ele>
    <time>2012-04-30T15:33:55Z</time>
   </trkpt>
   <trkpt lat="46.2438316345215" lon="7.25844383239746">
    <ele>1143.40002441406</ele>
    <time>2012-04-30T15:33:56Z</time>
   </trkpt>
   <trkpt lat="46.2439155578613" lon="7.25832509994507">
    <ele>1143.40002441406</ele>
    <time>2012-04-30T15:34:01Z</time>
   </trkpt>
   <trkpt lat="46.2439918518066" lon="7.25804758071899">
    <ele>1144.34289550781</ele>
    <time>2012-04-30T15:34:07Z</time>
   </trkpt>
   <trkpt lat="46.2440032958984" lon="7.25772476196289">
    <ele>1145.12854003906</ele>
    <time>2012-04-30T15:34:12Z</time>
   </trkpt>
   <trkpt lat="46.2440032958984" lon="7.2576732635498">
    <ele>1145.28564453125</ele>
    <time>2012-04-30T15:34:13Z</time>
   </trkpt>
   <trkpt lat="46.2440071105957" lon="7.2576174736023">
    <ele>1145.44287109375</ele>
    <time>2012-04-30T15:34:14Z</time>
   </trkpt>
   <trkpt lat="46.2440071105957" lon="7.25756168365478">
    <ele>1145.59997558594</ele>
    <time>2012-04-30T15:34:15Z</time>
   </trkpt>
   <trkpt lat="46.2440414428711" lon="7.25731897354126">
    <ele>1145.59997558594</ele>
    <time>2012-04-30T15:34:20Z</time>
   </trkpt>
   <trkpt lat="46.244068145752" lon="7.25723075866699">
    <ele>1145.919921875</ele>
    <time>2012-04-30T15:34:22Z</time>
   </trkpt>
   <trkpt lat="46.2441482543945" lon="7.25709056854248">
    <ele>1146.55993652344</ele>
    <time>2012-04-30T15:34:26Z</time>
   </trkpt>
   <trkpt lat="46.2441825866699" lon="7.25702524185181">
    <ele>1146.88000488281</ele>
    <time>2012-04-30T15:34:28Z</time>
   </trkpt>
   <trkpt lat="46.2442779541016" lon="7.25686550140381">
    <ele>1147.67993164062</ele>
    <time>2012-04-30T15:34:33Z</time>
   </trkpt>
   <trkpt lat="46.2442970275879" lon="7.2568302154541">
    <ele>1147.83996582031</ele>
    <time>2012-04-30T15:34:34Z</time>
   </trkpt>
   <trkpt lat="46.2443199157715" lon="7.25679159164429">
    <ele>1148</ele>
    <time>2012-04-30T15:34:35Z</time>
   </trkpt>
   <trkpt lat="46.2443428039551" lon="7.25676012039185">
    <ele>1148.16003417969</ele>
    <time>2012-04-30T15:34:36Z</time>
   </trkpt>
   <trkpt lat="46.2443618774414" lon="7.25672674179077">
    <ele>1148.31994628906</ele>
    <time>2012-04-30T15:34:37Z</time>
   </trkpt>
   <trkpt lat="46.2444343566894" lon="7.25660562515259">
    <ele>1148.9599609375</ele>
    <time>2012-04-30T15:34:41Z</time>
   </trkpt>
   <trkpt lat="46.2444534301758" lon="7.25658130645752">
    <ele>1149.11999511719</ele>
    <time>2012-04-30T15:34:42Z</time>
   </trkpt>
   <trkpt lat="46.2444725036621" lon="7.25655794143677">
    <ele>1149.28002929688</ele>
    <time>2012-04-30T15:34:43Z</time>
   </trkpt>
   <trkpt lat="46.244499206543" lon="7.2565279006958">
    <ele>1149.43994140625</ele>
    <time>2012-04-30T15:34:44Z</time>
   </trkpt>
   <trkpt lat="46.2445220947266" lon="7.25649690628052">
    <ele>1149.59997558594</ele>
    <time>2012-04-30T15:34:45Z</time>
   </trkpt>
   <trkpt lat="46.2445602416992" lon="7.25643110275268">
    <ele>1149.59997558594</ele>
    <time>2012-04-30T15:34:47Z</time>
   </trkpt>
   <trkpt lat="46.2446060180664" lon="7.25634956359863">
    <ele>1150.54284667969</ele>
    <time>2012-04-30T15:34:50Z</time>
   </trkpt>
   <trkpt lat="46.2446212768555" lon="7.25632953643799">
    <ele>1150.85717773438</ele>
    <time>2012-04-30T15:34:51Z</time>
   </trkpt>
   <trkpt lat="46.2446365356445" lon="7.25630617141724">
    <ele>1151.17150878906</ele>
    <time>2012-04-30T15:34:52Z</time>
   </trkpt>
   <trkpt lat="46.2446517944336" lon="7.25628232955933">
    <ele>1151.48571777344</ele>
    <time>2012-04-30T15:34:53Z</time>
   </trkpt>
   <trkpt lat="46.2446708679199" lon="7.25624847412109">
    <ele>1151.80004882812</ele>
    <time>2012-04-30T15:34:54Z</time>
   </trkpt>
   <trkpt lat="46.2447280883789" lon="7.25612211227417">
    <ele>1151.80004882812</ele>
    <time>2012-04-30T15:34:58Z</time>
   </trkpt>
   <trkpt lat="46.2447357177734" lon="7.25603485107422">
    <ele>1152.74291992188</ele>
    <time>2012-04-30T15:35:01Z</time>
   </trkpt>
   <trkpt lat="46.2447395324707" lon="7.25600433349609">
    <ele>1153.05712890625</ele>
    <time>2012-04-30T15:35:02Z</time>
   </trkpt>
   <trkpt lat="46.2447471618652" lon="7.2559666633606">
    <ele>1153.37145996094</ele>
    <time>2012-04-30T15:35:03Z</time>
   </trkpt>
   <trkpt lat="46.244758605957" lon="7.25592422485352">
    <ele>1153.68566894531</ele>
    <time>2012-04-30T15:35:04Z</time>
   </trkpt>
   <trkpt lat="46.2447738647461" lon="7.25588178634644">
    <ele>1154</ele>
    <time>2012-04-30T15:35:05Z</time>
   </trkpt>
   <trkpt lat="46.2447814941406" lon="7.25585031509399">
    <ele>1154</ele>
    <time>2012-04-30T15:35:06Z</time>
   </trkpt>
   <trkpt lat="46.2448539733887" lon="7.25568389892578">
    <ele>1155.33337402344</ele>
    <time>2012-04-30T15:35:11Z</time>
   </trkpt>
   <trkpt lat="46.2448692321777" lon="7.25564527511597">
    <ele>1155.59997558594</ele>
    <time>2012-04-30T15:35:12Z</time>
   </trkpt>
   <trkpt lat="46.2448806762695" lon="7.25559759140015">
    <ele>1155.86669921875</ele>
    <time>2012-04-30T15:35:13Z</time>
   </trkpt>
   <trkpt lat="46.2448959350586" lon="7.25555944442749">
    <ele>1156.13330078125</ele>
    <time>2012-04-30T15:35:14Z</time>
   </trkpt>
   <trkpt lat="46.244930267334" lon="7.2554874420166">
    <ele>1156.40002441406</ele>
    <time>2012-04-30T15:35:15Z</time>
   </trkpt>
   <trkpt lat="46.2450141906738" lon="7.2553391456604">
    <ele>1156.40002441406</ele>
    <time>2012-04-30T15:35:21Z</time>
   </trkpt>
   <trkpt lat="46.2450485229492" lon="7.25528049468994">
    <ele>1157.20007324219</ele>
    <time>2012-04-30T15:35:23Z</time>
   </trkpt>
   <trkpt lat="46.2450637817383" lon="7.25524997711182">
    <ele>1157.59997558594</ele>
    <time>2012-04-30T15:35:24Z</time>
   </trkpt>
   <trkpt lat="46.2450752258301" lon="7.25522184371948">
    <ele>1158</ele>
    <time>2012-04-30T15:35:25Z</time>
   </trkpt>
   <trkpt lat="46.2450904846191" lon="7.2551965713501">
    <ele>1158.40002441406</ele>
    <time>2012-04-30T15:35:26Z</time>
   </trkpt>
   <trkpt lat="46.2451553344727" lon="7.25511932373047">
    <ele>1158.40002441406</ele>
    <time>2012-04-30T15:35:29Z</time>
   </trkpt>
   <trkpt lat="46.2452354431152" lon="7.25504684448242">
    <ele>1159.34289550781</ele>
    <time>2012-04-30T15:35:32Z</time>
   </trkpt>
   <trkpt lat="46.2452545166016" lon="7.25502920150757">
    <ele>1159.65710449219</ele>
    <time>2012-04-30T15:35:33Z</time>
   </trkpt>
   <trkpt lat="46.2452812194824" lon="7.25500726699829">
    <ele>1159.97143554688</ele>
    <time>2012-04-30T15:35:34Z</time>
   </trkpt>
   <trkpt lat="46.2453117370606" lon="7.25498533248901">
    <ele>1160.28564453125</ele>
    <time>2012-04-30T15:35:35Z</time>
   </trkpt>
   <trkpt lat="46.2453384399414" lon="7.25496244430542">
    <ele>1160.59997558594</ele>
    <time>2012-04-30T15:35:36Z</time>
   </trkpt>
   <trkpt lat="46.2453689575195" lon="7.25494432449341">
    <ele>1160.59997558594</ele>
    <time>2012-04-30T15:35:37Z</time>
   </trkpt>
   <trkpt lat="46.245491027832" lon="7.25489807128906">
    <ele>1161.69995117188</ele>
    <time>2012-04-30T15:35:41Z</time>
   </trkpt>
   <trkpt lat="46.2455177307129" lon="7.25489044189453">
    <ele>1161.97497558594</ele>
    <time>2012-04-30T15:35:42Z</time>
   </trkpt>
   <trkpt lat="46.2455406188965" lon="7.25488424301148">
    <ele>1162.25</ele>
    <time>2012-04-30T15:35:43Z</time>
   </trkpt>
   <trkpt lat="46.2455635070801" lon="7.25487804412842">
    <ele>1162.52502441406</ele>
    <time>2012-04-30T15:35:44Z</time>
   </trkpt>
   <trkpt lat="46.2455825805664" lon="7.2548656463623">
    <ele>1162.80004882812</ele>
    <time>2012-04-30T15:35:45Z</time>
   </trkpt>
   <trkpt lat="46.2456398010254" lon="7.25482654571533">
    <ele>1162.80004882812</ele>
    <time>2012-04-30T15:35:48Z</time>
   </trkpt>
   <trkpt lat="46.2457885742188" lon="7.25480794906616">
    <ele>1163.0380859375</ele>
    <time>2012-04-30T15:35:53Z</time>
   </trkpt>
   <trkpt lat="46.2459754943848" lon="7.25481986999512">
    <ele>1163.32385253906</ele>
    <time>2012-04-30T15:35:59Z</time>
   </trkpt>
   <trkpt lat="46.2461280822754" lon="7.25488138198852">
    <ele>1163.56201171875</ele>
    <time>2012-04-30T15:36:04Z</time>
   </trkpt>
   <trkpt lat="46.2462768554688" lon="7.25502729415894">
    <ele>1163.80004882812</ele>
    <time>2012-04-30T15:36:09Z</time>
   </trkpt>
   <trkpt lat="46.2463684082031" lon="7.25518608093262">
    <ele>1163.99047851562</ele>
    <time>2012-04-30T15:36:13Z</time>
   </trkpt>
   <trkpt lat="46.2464179992676" lon="7.25531530380249">
    <ele>1164.13342285156</ele>
    <time>2012-04-30T15:36:16Z</time>
   </trkpt>
   <trkpt lat="46.246524810791" lon="7.25549459457398">
    <ele>1164.37145996094</ele>
    <time>2012-04-30T15:36:21Z</time>
   </trkpt>
   <trkpt lat="46.2466773986816" lon="7.25558996200562">
    <ele>1164.56201171875</ele>
    <time>2012-04-30T15:36:25Z</time>
   </trkpt>
   <trkpt lat="46.2467193603516" lon="7.25558662414551">
    <ele>1164.60961914062</ele>
    <time>2012-04-30T15:36:26Z</time>
   </trkpt>
   <trkpt lat="46.2467613220215" lon="7.25556230545044">
    <ele>1164.6572265625</ele>
    <time>2012-04-30T15:36:27Z</time>
   </trkpt>
   <trkpt lat="46.2467956542969" lon="7.25552749633789">
    <ele>1164.70483398438</ele>
    <time>2012-04-30T15:36:28Z</time>
   </trkpt>
   <trkpt lat="46.2468185424805" lon="7.25547647476196">
    <ele>1164.75244140625</ele>
    <time>2012-04-30T15:36:29Z</time>
   </trkpt>
   <trkpt lat="46.2468376159668" lon="7.25542497634888">
    <ele>1164.80004882812</ele>
    <time>2012-04-30T15:36:30Z</time>
   </trkpt>
   <trkpt lat="46.2468605041504" lon="7.25524663925171">
    <ele>1164.80004882812</ele>
    <time>2012-04-30T15:36:33Z</time>
   </trkpt>
   <trkpt lat="46.2468681335449" lon="7.25518703460693">
    <ele>1164.84167480469</ele>
    <time>2012-04-30T15:36:34Z</time>
   </trkpt>
   <trkpt lat="46.2469291687012" lon="7.25496339797974">
    <ele>1165.00842285156</ele>
    <time>2012-04-30T15:36:38Z</time>
   </trkpt>
   <trkpt lat="46.2469482421875" lon="7.25491142272949">
    <ele>1165.05004882812</ele>
    <time>2012-04-30T15:36:39Z</time>
   </trkpt>
   <trkpt lat="46.2470283508301" lon="7.25477075576782">
    <ele>1165.17504882812</ele>
    <time>2012-04-30T15:36:42Z</time>
   </trkpt>
   <trkpt lat="46.2471313476562" lon="7.25460815429688">
    <ele>1165.34167480469</ele>
    <time>2012-04-30T15:36:46Z</time>
   </trkpt>
   <trkpt lat="46.2472915649414" lon="7.25432395935059">
    <ele>1165.59167480469</ele>
    <time>2012-04-30T15:36:52Z</time>
   </trkpt>
   <trkpt lat="46.2473602294922" lon="7.2542142868042">
    <ele>1165.67504882812</ele>
    <time>2012-04-30T15:36:54Z</time>
   </trkpt>
   <trkpt lat="46.2474327087402" lon="7.25412607192993">
    <ele>1165.75842285156</ele>
    <time>2012-04-30T15:36:56Z</time>
   </trkpt>
   <trkpt lat="46.2475395202637" lon="7.25400161743164">
    <ele>1165.88342285156</ele>
    <time>2012-04-30T15:36:59Z</time>
   </trkpt>
   <trkpt lat="46.2475814819336" lon="7.2539644241333">
    <ele>1165.92504882812</ele>
    <time>2012-04-30T15:37:00Z</time>
   </trkpt>
   <trkpt lat="46.2477684020996" lon="7.25389957427978">
    <ele>1166.09167480469</ele>
    <time>2012-04-30T15:37:04Z</time>
   </trkpt>
   <trkpt lat="46.2478523254394" lon="7.25390672683716">
    <ele>1166.17504882812</ele>
    <time>2012-04-30T15:37:06Z</time>
   </trkpt>
   <trkpt lat="46.2478942871094" lon="7.25391817092896">
    <ele>1166.21667480469</ele>
    <time>2012-04-30T15:37:07Z</time>
   </trkpt>
   <trkpt lat="46.247989654541" lon="7.25393772125244">
    <ele>1166.30004882812</ele>
    <time>2012-04-30T15:37:09Z</time>
   </trkpt>
   <trkpt lat="46.248233795166" lon="7.25392866134644">
    <ele>1166.50842285156</ele>
    <time>2012-04-30T15:37:14Z</time>
   </trkpt>
   <trkpt lat="46.2483177185059" lon="7.25378227233887">
    <ele>1166.63342285156</ele>
    <time>2012-04-30T15:37:17Z</time>
   </trkpt>
   <trkpt lat="46.2483444213867" lon="7.25372648239136">
    <ele>1166.67504882812</ele>
    <time>2012-04-30T15:37:18Z</time>
   </trkpt>
   <trkpt lat="46.2483673095703" lon="7.25367307662964">
    <ele>1166.71667480469</ele>
    <time>2012-04-30T15:37:19Z</time>
   </trkpt>
   <trkpt lat="46.2483940124512" lon="7.25361442565918">
    <ele>1166.75842285156</ele>
    <time>2012-04-30T15:37:20Z</time>
   </trkpt>
   <trkpt lat="46.2484245300293" lon="7.2535572052002">
    <ele>1166.80004882812</ele>
    <time>2012-04-30T15:37:21Z</time>
   </trkpt>
   <trkpt lat="46.2484588623047" lon="7.25350427627564">
    <ele>1166.80004882812</ele>
    <time>2012-04-30T15:37:22Z</time>
   </trkpt>
   <trkpt lat="46.2486190795898" lon="7.2533597946167">
    <ele>1166.84497070312</ele>
    <time>2012-04-30T15:37:26Z</time>
   </trkpt>
   <trkpt lat="46.2486610412598" lon="7.25331687927246">
    <ele>1166.85620117188</ele>
    <time>2012-04-30T15:37:27Z</time>
   </trkpt>
   <trkpt lat="46.2486953735352" lon="7.25327301025391">
    <ele>1166.86743164062</ele>
    <time>2012-04-30T15:37:28Z</time>
   </trkpt>
   <trkpt lat="46.2487640380859" lon="7.25319290161133">
    <ele>1166.88989257812</ele>
    <time>2012-04-30T15:37:30Z</time>
   </trkpt>
   <trkpt lat="46.2488555908203" lon="7.25305080413818">
    <ele>1166.92358398438</ele>
    <time>2012-04-30T15:37:33Z</time>
   </trkpt>
   <trkpt lat="46.248908996582" lon="7.25294780731201">
    <ele>1166.94616699219</ele>
    <time>2012-04-30T15:37:35Z</time>
   </trkpt>
   <trkpt lat="46.2489738464356" lon="7.2527928352356">
    <ele>1166.97985839844</ele>
    <time>2012-04-30T15:37:38Z</time>
   </trkpt>
   <trkpt lat="46.2490196228027" lon="7.2526912689209">
    <ele>1167.00231933594</ele>
    <time>2012-04-30T15:37:40Z</time>
   </trkpt>
   <trkpt lat="46.2490425109863" lon="7.25263118743896">
    <ele>1167.01354980469</ele>
    <time>2012-04-30T15:37:41Z</time>
   </trkpt>
   <trkpt lat="46.2490921020508" lon="7.25239706039429">
    <ele>1167.05847167969</ele>
    <time>2012-04-30T15:37:45Z</time>
   </trkpt>
   <trkpt lat="46.2491226196289" lon="7.25220727920532">
    <ele>1167.09216308594</ele>
    <time>2012-04-30T15:37:48Z</time>
   </trkpt>
   <trkpt lat="46.2491226196289" lon="7.25207233428955">
    <ele>1167.11462402344</ele>
    <time>2012-04-30T15:37:50Z</time>
   </trkpt>
   <trkpt lat="46.2491035461426" lon="7.2519326210022">
    <ele>1167.13708496094</ele>
    <time>2012-04-30T15:37:52Z</time>
   </trkpt>
   <trkpt lat="46.2490882873535" lon="7.25186109542847">
    <ele>1167.14831542969</ele>
    <time>2012-04-30T15:37:53Z</time>
   </trkpt>
   <trkpt lat="46.2490501403809" lon="7.25173377990723">
    <ele>1167.17077636719</ele>
    <time>2012-04-30T15:37:55Z</time>
   </trkpt>
   <trkpt lat="46.2489395141602" lon="7.25148010253906">
    <ele>1167.2158203125</ele>
    <time>2012-04-30T15:37:59Z</time>
   </trkpt>
   <trkpt lat="46.2489204406738" lon="7.25141525268555">
    <ele>1167.22705078125</ele>
    <time>2012-04-30T15:38:00Z</time>
   </trkpt>
   <trkpt lat="46.2489624023438" lon="7.25124263763428">
    <ele>1167.2607421875</ele>
    <time>2012-04-30T15:38:03Z</time>
   </trkpt>
   <trkpt lat="46.2490386962891" lon="7.25116348266602">
    <ele>1167.283203125</ele>
    <time>2012-04-30T15:38:05Z</time>
   </trkpt>
   <trkpt lat="46.2492027282715" lon="7.25100421905518">
    <ele>1167.328125</ele>
    <time>2012-04-30T15:38:09Z</time>
   </trkpt>
   <trkpt lat="46.2492408752441" lon="7.25097036361694">
    <ele>1167.33935546875</ele>
    <time>2012-04-30T15:38:10Z</time>
   </trkpt>
   <trkpt lat="46.2493515014648" lon="7.25086975097656">
    <ele>1167.373046875</ele>
    <time>2012-04-30T15:38:13Z</time>
   </trkpt>
   <trkpt lat="46.2493934631348" lon="7.25082063674927">
    <ele>1167.38427734375</ele>
    <time>2012-04-30T15:38:14Z</time>
   </trkpt>
   <trkpt lat="46.2494812011719" lon="7.25072383880615">
    <ele>1167.40673828125</ele>
    <time>2012-04-30T15:38:16Z</time>
   </trkpt>
   <trkpt lat="46.249626159668" lon="7.25062561035156">
    <ele>1167.44055175781</ele>
    <time>2012-04-30T15:38:19Z</time>
   </trkpt>
   <trkpt lat="46.2506980895996" lon="7.24991750717163">
    <ele>1167.71020507812</ele>
    <time>2012-04-30T15:38:43Z</time>
   </trkpt>
   <trkpt lat="46.2508087158203" lon="7.24987888336182">
    <ele>1167.73266601562</ele>
    <time>2012-04-30T15:38:45Z</time>
   </trkpt>
   <trkpt lat="46.2543449401856" lon="7.24765014648438">
    <ele>1168.68774414062</ele>
    <time>2012-04-30T15:40:10Z</time>
   </trkpt>
   <trkpt lat="46.2544708251953" lon="7.2476658821106">
    <ele>1168.72143554688</ele>
    <time>2012-04-30T15:40:13Z</time>
   </trkpt>
   <trkpt lat="46.2545204162598" lon="7.24766778945923">
    <ele>1168.73266601562</ele>
    <time>2012-04-30T15:40:14Z</time>
   </trkpt>
   <trkpt lat="46.2546157836914" lon="7.24762535095215">
    <ele>1168.75512695312</ele>
    <time>2012-04-30T15:40:16Z</time>
   </trkpt>
   <trkpt lat="46.2546615600586" lon="7.24758958816528">
    <ele>1168.76635742188</ele>
    <time>2012-04-30T15:40:17Z</time>
   </trkpt>
   <trkpt lat="46.254711151123" lon="7.24755430221558">
    <ele>1168.77758789062</ele>
    <time>2012-04-30T15:40:18Z</time>
   </trkpt>
   <trkpt lat="46.2547607421875" lon="7.24753856658936">
    <ele>1168.78881835938</ele>
    <time>2012-04-30T15:40:19Z</time>
   </trkpt>
   <trkpt lat="46.2548179626465" lon="7.24753618240356">
    <ele>1168.80004882812</ele>
    <time>2012-04-30T15:40:20Z</time>
   </trkpt>
   <trkpt lat="46.2550163269043" lon="7.24762773513794">
    <ele>1168.80004882812</ele>
    <time>2012-04-30T15:40:24Z</time>
   </trkpt>
   <trkpt lat="46.2550582885742" lon="7.24765348434448">
    <ele>1168.82568359375</ele>
    <time>2012-04-30T15:40:25Z</time>
   </trkpt>
   <trkpt lat="46.2551498413086" lon="7.24764823913574">
    <ele>1168.87683105469</ele>
    <time>2012-04-30T15:40:27Z</time>
   </trkpt>
   <trkpt lat="46.2552795410156" lon="7.24756479263306">
    <ele>1168.95349121094</ele>
    <time>2012-04-30T15:40:30Z</time>
   </trkpt>
   <trkpt lat="46.2553291320801" lon="7.24752950668335">
    <ele>1168.97912597656</ele>
    <time>2012-04-30T15:40:31Z</time>
   </trkpt>
   <trkpt lat="46.2553634643555" lon="7.24748420715332">
    <ele>1169.00463867188</ele>
    <time>2012-04-30T15:40:32Z</time>
   </trkpt>
   <trkpt lat="46.2555084228516" lon="7.2472972869873">
    <ele>1169.10705566406</ele>
    <time>2012-04-30T15:40:36Z</time>
   </trkpt>
   <trkpt lat="46.255615234375" lon="7.24717092514038">
    <ele>1169.18371582031</ele>
    <time>2012-04-30T15:40:39Z</time>
   </trkpt>
   <trkpt lat="46.2557106018066" lon="7.24713516235352">
    <ele>1169.23486328125</ele>
    <time>2012-04-30T15:40:41Z</time>
   </trkpt>
   <trkpt lat="46.2559242248535" lon="7.24721479415894">
    <ele>1169.33728027344</ele>
    <time>2012-04-30T15:40:45Z</time>
   </trkpt>
   <trkpt lat="46.2559700012207" lon="7.24723768234253">
    <ele>1169.36279296875</ele>
    <time>2012-04-30T15:40:46Z</time>
   </trkpt>
   <trkpt lat="46.2560577392578" lon="7.2472243309021">
    <ele>1169.41394042969</ele>
    <time>2012-04-30T15:40:48Z</time>
   </trkpt>
   <trkpt lat="46.256233215332" lon="7.24709367752075">
    <ele>1169.54187011719</ele>
    <time>2012-04-30T15:40:53Z</time>
   </trkpt>
   <trkpt lat="46.2562789916992" lon="7.24706172943115">
    <ele>1169.56750488281</ele>
    <time>2012-04-30T15:40:54Z</time>
   </trkpt>
   <trkpt lat="46.256420135498" lon="7.24696016311646">
    <ele>1169.64416503906</ele>
    <time>2012-04-30T15:40:57Z</time>
   </trkpt>
   <trkpt lat="46.2566070556641" lon="7.24688959121704">
    <ele>1169.74658203125</ele>
    <time>2012-04-30T15:41:01Z</time>
   </trkpt>
   <trkpt lat="46.256763458252" lon="7.24693727493286">
    <ele>1169.8232421875</ele>
    <time>2012-04-30T15:41:04Z</time>
   </trkpt>
   <trkpt lat="46.2568130493164" lon="7.24695539474487">
    <ele>1169.84887695312</ele>
    <time>2012-04-30T15:41:05Z</time>
   </trkpt>
   <trkpt lat="46.2570610046387" lon="7.2470531463623">
    <ele>1169.97680664062</ele>
    <time>2012-04-30T15:41:10Z</time>
   </trkpt>
   <trkpt lat="46.2571487426758" lon="7.24703311920166">
    <ele>1170.02795410156</ele>
    <time>2012-04-30T15:41:12Z</time>
   </trkpt>
   <trkpt lat="46.2572326660156" lon="7.24698781967163">
    <ele>1170.0791015625</ele>
    <time>2012-04-30T15:41:14Z</time>
   </trkpt>
   <trkpt lat="46.2573547363281" lon="7.24688959121704">
    <ele>1170.15588378906</ele>
    <time>2012-04-30T15:41:17Z</time>
   </trkpt>
   <trkpt lat="46.257396697998" lon="7.24684524536133">
    <ele>1170.18139648438</ele>
    <time>2012-04-30T15:41:18Z</time>
   </trkpt>
   <trkpt lat="46.2575531005859" lon="7.24661779403686">
    <ele>1170.28369140625</ele>
    <time>2012-04-30T15:41:22Z</time>
   </trkpt>
   <trkpt lat="46.2577133178711" lon="7.24642324447632">
    <ele>1170.38610839844</ele>
    <time>2012-04-30T15:41:26Z</time>
   </trkpt>
   <trkpt lat="46.2577972412109" lon="7.24632453918457">
    <ele>1170.43725585938</ele>
    <time>2012-04-30T15:41:28Z</time>
   </trkpt>
   <trkpt lat="46.2579727172852" lon="7.24624490737915">
    <ele>1170.53955078125</ele>
    <time>2012-04-30T15:41:32Z</time>
   </trkpt>
   <trkpt lat="46.2580223083496" lon="7.24624300003052">
    <ele>1170.56518554688</ele>
    <time>2012-04-30T15:41:33Z</time>
   </trkpt>
   <trkpt lat="46.2580680847168" lon="7.24622774124146">
    <ele>1170.59069824219</ele>
    <time>2012-04-30T15:41:34Z</time>
   </trkpt>
   <trkpt lat="46.2581367492676" lon="7.24619150161743">
    <ele>1170.64184570312</ele>
    <time>2012-04-30T15:41:36Z</time>
   </trkpt>
   <trkpt lat="46.2582321166992" lon="7.24607229232788">
    <ele>1170.71862792969</ele>
    <time>2012-04-30T15:41:39Z</time>
   </trkpt>
   <trkpt lat="46.2582778930664" lon="7.24601125717163">
    <ele>1170.76977539062</ele>
    <time>2012-04-30T15:41:41Z</time>
   </trkpt>
   <trkpt lat="46.25830078125" lon="7.2459716796875">
    <ele>1170.82092285156</ele>
    <time>2012-04-30T15:41:43Z</time>
   </trkpt>
   <trkpt lat="46.2583160400391" lon="7.24593830108643">
    <ele>1170.84655761719</ele>
    <time>2012-04-30T15:41:44Z</time>
   </trkpt>
   <trkpt lat="46.2584075927734" lon="7.24574756622314">
    <ele>1170.89770507812</ele>
    <time>2012-04-30T15:41:46Z</time>
   </trkpt>
   <trkpt lat="46.2584037780762" lon="7.24566411972046">
    <ele>1170.92321777344</ele>
    <time>2012-04-30T15:41:47Z</time>
   </trkpt>
   <trkpt lat="46.2583885192871" lon="7.24559593200684">
    <ele>1170.94885253906</ele>
    <time>2012-04-30T15:41:48Z</time>
   </trkpt>
   <trkpt lat="46.2583770751953" lon="7.24552917480469">
    <ele>1170.97436523438</ele>
    <time>2012-04-30T15:41:49Z</time>
   </trkpt>
   <trkpt lat="46.2583503723144" lon="7.24546957015991">
    <ele>1171</ele>
    <time>2012-04-30T15:41:50Z</time>
   </trkpt>
   <trkpt lat="46.2583274841309" lon="7.24541282653809">
    <ele>1171</ele>
    <time>2012-04-30T15:41:51Z</time>
   </trkpt>
   <trkpt lat="46.2582473754883" lon="7.24499416351318">
    <ele>1171.17395019531</ele>
    <time>2012-04-30T15:41:57Z</time>
   </trkpt>
   <trkpt lat="46.2583198547363" lon="7.24480056762695">
    <ele>1171.26086425781</ele>
    <time>2012-04-30T15:42:00Z</time>
   </trkpt>
   <trkpt lat="46.2583847045898" lon="7.24469089508057">
    <ele>1171.31884765625</ele>
    <time>2012-04-30T15:42:02Z</time>
   </trkpt>
   <trkpt lat="46.2584228515625" lon="7.24464225769043">
    <ele>1171.34777832031</ele>
    <time>2012-04-30T15:42:03Z</time>
   </trkpt>
   <trkpt lat="46.2585105895996" lon="7.24455738067627">
    <ele>1171.40576171875</ele>
    <time>2012-04-30T15:42:05Z</time>
   </trkpt>
   <trkpt lat="46.2586364746094" lon="7.24445819854736">
    <ele>1171.49279785156</ele>
    <time>2012-04-30T15:42:08Z</time>
   </trkpt>
   <trkpt lat="46.2587203979492" lon="7.24440336227417">
    <ele>1171.55078125</ele>
    <time>2012-04-30T15:42:10Z</time>
   </trkpt>
   <trkpt lat="46.2599983215332" lon="7.24435567855835">
    <ele>1172.275390625</ele>
    <time>2012-04-30T15:42:35Z</time>
   </trkpt>
   <trkpt lat="46.2600479125977" lon="7.24440908432007">
    <ele>1172.30432128906</ele>
    <time>2012-04-30T15:42:36Z</time>
   </trkpt>
   <trkpt lat="46.2601776123047" lon="7.24453830718994">
    <ele>1172.39135742188</ele>
    <time>2012-04-30T15:42:39Z</time>
   </trkpt>
   <trkpt lat="46.2602233886719" lon="7.24454975128174">
    <ele>1172.42028808594</ele>
    <time>2012-04-30T15:42:40Z</time>
   </trkpt>
   <trkpt lat="46.260425567627" lon="7.24444484710693">
    <ele>1172.53625488281</ele>
    <time>2012-04-30T15:42:44Z</time>
   </trkpt>
   <trkpt lat="46.2605285644531" lon="7.24437713623047">
    <ele>1172.59423828125</ele>
    <time>2012-04-30T15:42:46Z</time>
   </trkpt>
   <trkpt lat="46.2606620788574" lon="7.24431085586548">
    <ele>1172.68115234375</ele>
    <time>2012-04-30T15:42:49Z</time>
   </trkpt>
   <trkpt lat="46.2609062194824" lon="7.24430274963379">
    <ele>1172.82604980469</ele>
    <time>2012-04-30T15:42:54Z</time>
   </trkpt>
   <trkpt lat="46.2610321044922" lon="7.24434280395508">
    <ele>1172.88403320312</ele>
    <time>2012-04-30T15:42:56Z</time>
   </trkpt>
   <trkpt lat="46.2610893249512" lon="7.24437808990478">
    <ele>1172.9130859375</ele>
    <time>2012-04-30T15:42:57Z</time>
   </trkpt>
   <trkpt lat="46.2611389160156" lon="7.2444224357605">
    <ele>1172.94201660156</ele>
    <time>2012-04-30T15:42:58Z</time>
   </trkpt>
   <trkpt lat="46.2611885070801" lon="7.24447345733643">
    <ele>1172.97106933594</ele>
    <time>2012-04-30T15:42:59Z</time>
   </trkpt>
   <trkpt lat="46.2612380981445" lon="7.24452781677246">
    <ele>1173</ele>
    <time>2012-04-30T15:43:00Z</time>
   </trkpt>
   <trkpt lat="46.2615089416504" lon="7.2448468208313">
    <ele>1173</ele>
    <time>2012-04-30T15:43:06Z</time>
   </trkpt>
   <trkpt lat="46.2617645263672" lon="7.24517393112183">
    <ele>1172.26672363281</ele>
    <time>2012-04-30T15:43:12Z</time>
   </trkpt>
   <trkpt lat="46.2619667053223" lon="7.24528789520264">
    <ele>1171.77783203125</ele>
    <time>2012-04-30T15:43:16Z</time>
   </trkpt>
   <trkpt lat="46.2620162963867" lon="7.24530982971191">
    <ele>1171.65563964844</ele>
    <time>2012-04-30T15:43:17Z</time>
   </trkpt>
   <trkpt lat="46.2621536254883" lon="7.24542331695557">
    <ele>1171.28894042969</ele>
    <time>2012-04-30T15:43:20Z</time>
   </trkpt>
   <trkpt lat="46.2621994018555" lon="7.24545240402222">
    <ele>1171.16674804688</ele>
    <time>2012-04-30T15:43:21Z</time>
   </trkpt>
   <trkpt lat="46.2622566223144" lon="7.24546241760254">
    <ele>1171.04443359375</ele>
    <time>2012-04-30T15:43:22Z</time>
   </trkpt>
   <trkpt lat="46.2623138427734" lon="7.24547004699707">
    <ele>1170.92224121094</ele>
    <time>2012-04-30T15:43:23Z</time>
   </trkpt>
   <trkpt lat="46.2624282836914" lon="7.2454776763916">
    <ele>1170.80004882812</ele>
    <time>2012-04-30T15:43:24Z</time>
   </trkpt>
   <trkpt lat="46.2625427246094" lon="7.24547147750854">
    <ele>1170.80004882812</ele>
    <time>2012-04-30T15:43:27Z</time>
   </trkpt>
   <trkpt lat="46.2628135681152" lon="7.24546909332275">
    <ele>1171.23999023438</ele>
    <time>2012-04-30T15:43:32Z</time>
   </trkpt>
   <trkpt lat="46.262866973877" lon="7.24547719955444">
    <ele>1171.32800292969</ele>
    <time>2012-04-30T15:43:33Z</time>
   </trkpt>
   <trkpt lat="46.2630767822266" lon="7.24553108215332">
    <ele>1171.68005371094</ele>
    <time>2012-04-30T15:43:37Z</time>
   </trkpt>
   <trkpt lat="46.2631721496582" lon="7.24555921554565">
    <ele>1171.85607910156</ele>
    <time>2012-04-30T15:43:39Z</time>
   </trkpt>
   <trkpt lat="46.2634162902832" lon="7.24560356140137">
    <ele>1172.29602050781</ele>
    <time>2012-04-30T15:43:44Z</time>
   </trkpt>
   <trkpt lat="46.2635612487793" lon="7.24559688568115">
    <ele>1172.56005859375</ele>
    <time>2012-04-30T15:43:47Z</time>
   </trkpt>
   <trkpt lat="46.2636108398438" lon="7.24558782577515">
    <ele>1172.64794921875</ele>
    <time>2012-04-30T15:43:48Z</time>
   </trkpt>
   <trkpt lat="46.2636604309082" lon="7.24557065963745">
    <ele>1172.73596191406</ele>
    <time>2012-04-30T15:43:49Z</time>
   </trkpt>
   <trkpt lat="46.2637100219727" lon="7.24554920196533">
    <ele>1172.82397460938</ele>
    <time>2012-04-30T15:43:50Z</time>
   </trkpt>
   <trkpt lat="46.2637596130371" lon="7.24552392959595">
    <ele>1172.91198730469</ele>
    <time>2012-04-30T15:43:51Z</time>
   </trkpt>
   <trkpt lat="46.2638053894043" lon="7.24549674987793">
    <ele>1173</ele>
    <time>2012-04-30T15:43:52Z</time>
   </trkpt>
   <trkpt lat="46.2638511657715" lon="7.2454719543457">
    <ele>1173</ele>
    <time>2012-04-30T15:43:53Z</time>
   </trkpt>
   <trkpt lat="46.2641944885254" lon="7.2453293800354">
    <ele>1173.16088867188</ele>
    <time>2012-04-30T15:44:00Z</time>
   </trkpt>
   <trkpt lat="46.2642478942871" lon="7.24532413482666">
    <ele>1173.18395996094</ele>
    <time>2012-04-30T15:44:01Z</time>
   </trkpt>
   <trkpt lat="46.264347076416" lon="7.24532318115234">
    <ele>1173.22985839844</ele>
    <time>2012-04-30T15:44:03Z</time>
   </trkpt>
   <trkpt lat="46.2644538879394" lon="7.24534320831299">
    <ele>1173.27587890625</ele>
    <time>2012-04-30T15:44:05Z</time>
   </trkpt>
   <trkpt lat="46.2645568847656" lon="7.24536323547363">
    <ele>1173.32189941406</ele>
    <time>2012-04-30T15:44:07Z</time>
   </trkpt>
   <trkpt lat="46.2646675109863" lon="7.24537372589111">
    <ele>1173.36779785156</ele>
    <time>2012-04-30T15:44:09Z</time>
   </trkpt>
   <trkpt lat="46.2649230957031" lon="7.24535369873047">
    <ele>1173.48278808594</ele>
    <time>2012-04-30T15:44:14Z</time>
   </trkpt>
   <trkpt lat="46.2649688720703" lon="7.24534893035889">
    <ele>1173.50573730469</ele>
    <time>2012-04-30T15:44:15Z</time>
   </trkpt>
   <trkpt lat="46.2650184631348" lon="7.24535608291626">
    <ele>1173.52868652344</ele>
    <time>2012-04-30T15:44:16Z</time>
   </trkpt>
   <trkpt lat="46.2651634216309" lon="7.24544382095337">
    <ele>1173.59765625</ele>
    <time>2012-04-30T15:44:19Z</time>
   </trkpt>
   <trkpt lat="46.2652816772461" lon="7.24558591842651">
    <ele>1173.66662597656</ele>
    <time>2012-04-30T15:44:22Z</time>
   </trkpt>
   <trkpt lat="46.2653198242188" lon="7.24563694000244">
    <ele>1173.68969726562</ele>
    <time>2012-04-30T15:44:23Z</time>
   </trkpt>
   <trkpt lat="46.2654647827148" lon="7.24582052230835">
    <ele>1173.78161621094</ele>
    <time>2012-04-30T15:44:27Z</time>
   </trkpt>
   <trkpt lat="46.265510559082" lon="7.24584484100342">
    <ele>1173.80456542969</ele>
    <time>2012-04-30T15:44:28Z</time>
   </trkpt>
   <trkpt lat="46.2657012939453" lon="7.24582529067993">
    <ele>1173.89660644531</ele>
    <time>2012-04-30T15:44:32Z</time>
   </trkpt>
   <trkpt lat="46.2657890319824" lon="7.24573993682861">
    <ele>1173.94250488281</ele>
    <time>2012-04-30T15:44:34Z</time>
   </trkpt>
   <trkpt lat="46.2659034729004" lon="7.24559783935547">
    <ele>1174.01147460938</ele>
    <time>2012-04-30T15:44:37Z</time>
   </trkpt>
   <trkpt lat="46.2659759521484" lon="7.24549913406372">
    <ele>1174.05749511719</ele>
    <time>2012-04-30T15:44:39Z</time>
   </trkpt>
   <trkpt lat="46.2661361694336" lon="7.24539184570312">
    <ele>1174.12646484375</ele>
    <time>2012-04-30T15:44:42Z</time>
   </trkpt>
   <trkpt lat="46.2661895751953" lon="7.24536895751953">
    <ele>1174.1494140625</ele>
    <time>2012-04-30T15:44:43Z</time>
   </trkpt>
   <trkpt lat="46.2663955688477" lon="7.24526357650757">
    <ele>1174.24133300781</ele>
    <time>2012-04-30T15:44:47Z</time>
   </trkpt>
   <trkpt lat="46.2664451599121" lon="7.24524402618408">
    <ele>1174.26440429688</ele>
    <time>2012-04-30T15:44:48Z</time>
   </trkpt>
   <trkpt lat="46.2665481567383" lon="7.24520492553711">
    <ele>1174.31030273438</ele>
    <time>2012-04-30T15:44:50Z</time>
   </trkpt>
   <trkpt lat="46.2666473388672" lon="7.2451663017273">
    <ele>1174.35632324219</ele>
    <time>2012-04-30T15:44:52Z</time>
   </trkpt>
   <trkpt lat="46.2667961120606" lon="7.24510860443115">
    <ele>1174.4482421875</ele>
    <time>2012-04-30T15:44:56Z</time>
   </trkpt>
   <trkpt lat="46.2668304443359" lon="7.24509429931641">
    <ele>1174.47131347656</ele>
    <time>2012-04-30T15:44:57Z</time>
   </trkpt>
   <trkpt lat="46.2670478820801" lon="7.24504041671753">
    <ele>1174.58618164062</ele>
    <time>2012-04-30T15:45:02Z</time>
   </trkpt>
   <trkpt lat="46.2670974731445" lon="7.24501943588257">
    <ele>1174.60925292969</ele>
    <time>2012-04-30T15:45:03Z</time>
   </trkpt>
   <trkpt lat="46.2672348022461" lon="7.24490213394165">
    <ele>1174.67810058594</ele>
    <time>2012-04-30T15:45:06Z</time>
   </trkpt>
   <trkpt lat="46.2673492431641" lon="7.24473428726196">
    <ele>1174.7470703125</ele>
    <time>2012-04-30T15:45:09Z</time>
   </trkpt>
   <trkpt lat="46.2673835754394" lon="7.24468564987183">
    <ele>1174.77014160156</ele>
    <time>2012-04-30T15:45:10Z</time>
   </trkpt>
   <trkpt lat="46.267505645752" lon="7.24446296691894">
    <ele>1174.86206054688</ele>
    <time>2012-04-30T15:45:14Z</time>
   </trkpt>
   <trkpt lat="46.2675552368164" lon="7.24423217773438">
    <ele>1174.93103027344</ele>
    <time>2012-04-30T15:45:17Z</time>
   </trkpt>
   <trkpt lat="46.2675743103027" lon="7.24415826797485">
    <ele>1174.95397949219</ele>
    <time>2012-04-30T15:45:18Z</time>
   </trkpt>
   <trkpt lat="46.2676124572754" lon="7.24409675598144">
    <ele>1174.97705078125</ele>
    <time>2012-04-30T15:45:19Z</time>
   </trkpt>
   <trkpt lat="46.2676582336426" lon="7.24406623840332">
    <ele>1175</ele>
    <time>2012-04-30T15:45:20Z</time>
   </trkpt>
   <trkpt lat="46.267707824707" lon="7.244056224823">
    <ele>1175</ele>
    <time>2012-04-30T15:45:21Z</time>
   </trkpt>
   <trkpt lat="46.2678985595703" lon="7.24412393569946">
    <ele>1175.43994140625</ele>
    <time>2012-04-30T15:45:25Z</time>
   </trkpt>
   <trkpt lat="46.2679443359375" lon="7.24415588378906">
    <ele>1175.55004882812</ele>
    <time>2012-04-30T15:45:26Z</time>
   </trkpt>
   <trkpt lat="46.2679901123047" lon="7.2441782951355">
    <ele>1175.66003417969</ele>
    <time>2012-04-30T15:45:27Z</time>
   </trkpt>
   <trkpt lat="46.2681427001953" lon="7.24421739578247">
    <ele>1175.98999023438</ele>
    <time>2012-04-30T15:45:30Z</time>
   </trkpt>
   <trkpt lat="46.2681922912598" lon="7.2442193031311">
    <ele>1176.09997558594</ele>
    <time>2012-04-30T15:45:31Z</time>
   </trkpt>
   <trkpt lat="46.2683334350586" lon="7.24416494369507">
    <ele>1176.42993164062</ele>
    <time>2012-04-30T15:45:34Z</time>
   </trkpt>
   <trkpt lat="46.2683792114258" lon="7.2441349029541">
    <ele>1176.53991699219</ele>
    <time>2012-04-30T15:45:35Z</time>
   </trkpt>
   <trkpt lat="46.2684173583984" lon="7.24409627914429">
    <ele>1176.64990234375</ele>
    <time>2012-04-30T15:45:36Z</time>
   </trkpt>
   <trkpt lat="46.2684516906738" lon="7.2440505027771">
    <ele>1176.76000976562</ele>
    <time>2012-04-30T15:45:37Z</time>
   </trkpt>
   <trkpt lat="46.2684898376465" lon="7.24400663375854">
    <ele>1176.86999511719</ele>
    <time>2012-04-30T15:45:38Z</time>
   </trkpt>
   <trkpt lat="46.2685241699219" lon="7.2439603805542">
    <ele>1176.97998046875</ele>
    <time>2012-04-30T15:45:39Z</time>
   </trkpt>
   <trkpt lat="46.2685508728027" lon="7.24391937255859">
    <ele>1177.08996582031</ele>
    <time>2012-04-30T15:45:40Z</time>
   </trkpt>
   <trkpt lat="46.2685813903809" lon="7.24387550354004">
    <ele>1177.19995117188</ele>
    <time>2012-04-30T15:45:41Z</time>
   </trkpt>
   <trkpt lat="46.2686767578125" lon="7.24374151229858">
    <ele>1177.19995117188</ele>
    <time>2012-04-30T15:45:44Z</time>
   </trkpt>
   <trkpt lat="46.268741607666" lon="7.24365520477295">
    <ele>1177.43530273438</ele>
    <time>2012-04-30T15:45:46Z</time>
   </trkpt>
   <trkpt lat="46.2688674926758" lon="7.24346208572388">
    <ele>1177.90588378906</ele>
    <time>2012-04-30T15:45:50Z</time>
   </trkpt>
   <trkpt lat="46.2689590454102" lon="7.24331378936768">
    <ele>1178.2587890625</ele>
    <time>2012-04-30T15:45:53Z</time>
   </trkpt>
   <trkpt lat="46.2690162658691" lon="7.24320983886719">
    <ele>1178.49401855469</ele>
    <time>2012-04-30T15:45:55Z</time>
   </trkpt>
   <trkpt lat="46.2690773010254" lon="7.24310779571533">
    <ele>1178.72937011719</ele>
    <time>2012-04-30T15:45:57Z</time>
   </trkpt>
   <trkpt lat="46.2691040039062" lon="7.24305725097656">
    <ele>1178.84704589844</ele>
    <time>2012-04-30T15:45:58Z</time>
   </trkpt>
   <trkpt lat="46.2691268920898" lon="7.24300909042358">
    <ele>1178.96459960938</ele>
    <time>2012-04-30T15:45:59Z</time>
   </trkpt>
   <trkpt lat="46.2691497802734" lon="7.24296236038208">
    <ele>1179.08227539062</ele>
    <time>2012-04-30T15:46:00Z</time>
   </trkpt>
   <trkpt lat="46.269172668457" lon="7.24291658401489">
    <ele>1179.19995117188</ele>
    <time>2012-04-30T15:46:01Z</time>
   </trkpt>
   <trkpt lat="46.2692604064941" lon="7.24280595779419">
    <ele>1179.19995117188</ele>
    <time>2012-04-30T15:46:03Z</time>
   </trkpt>
   <trkpt lat="46.2693481445312" lon="7.24269199371338">
    <ele>1180.30004882812</ele>
    <time>2012-04-30T15:46:06Z</time>
   </trkpt>
   <trkpt lat="46.2693824768066" lon="7.24267387390137">
    <ele>1180.66662597656</ele>
    <time>2012-04-30T15:46:07Z</time>
   </trkpt>
   <trkpt lat="46.2694206237793" lon="7.24265432357788">
    <ele>1181.03332519531</ele>
    <time>2012-04-30T15:46:08Z</time>
   </trkpt>
   <trkpt lat="46.269458770752" lon="7.24263620376587">
    <ele>1181.40002441406</ele>
    <time>2012-04-30T15:46:09Z</time>
   </trkpt>
   <trkpt lat="46.269645690918" lon="7.2425103187561">
    <ele>1181.40002441406</ele>
    <time>2012-04-30T15:46:14Z</time>
   </trkpt>
   <trkpt lat="46.2698631286621" lon="7.24232721328735">
    <ele>1182.21057128906</ele>
    <time>2012-04-30T15:46:21Z</time>
   </trkpt>
   <trkpt lat="46.2699508666992" lon="7.24207401275635">
    <ele>1182.78942871094</ele>
    <time>2012-04-30T15:46:26Z</time>
   </trkpt>
   <trkpt lat="46.2699546813965" lon="7.24201726913452">
    <ele>1182.9052734375</ele>
    <time>2012-04-30T15:46:27Z</time>
   </trkpt>
   <trkpt lat="46.2699775695801" lon="7.24190759658814">
    <ele>1183.13684082031</ele>
    <time>2012-04-30T15:46:29Z</time>
   </trkpt>
   <trkpt lat="46.2699966430664" lon="7.24185657501221">
    <ele>1183.25256347656</ele>
    <time>2012-04-30T15:46:30Z</time>
   </trkpt>
   <trkpt lat="46.2700157165527" lon="7.24180793762207">
    <ele>1183.36840820312</ele>
    <time>2012-04-30T15:46:31Z</time>
   </trkpt>
   <trkpt lat="46.2700347900391" lon="7.24176454544067">
    <ele>1183.48413085938</ele>
    <time>2012-04-30T15:46:32Z</time>
   </trkpt>
   <trkpt lat="46.2700653076172" lon="7.24172210693359">
    <ele>1183.59997558594</ele>
    <time>2012-04-30T15:46:33Z</time>
   </trkpt>
   <trkpt lat="46.2701301574707" lon="7.24162292480469">
    <ele>1183.59997558594</ele>
    <time>2012-04-30T15:46:35Z</time>
   </trkpt>
   <trkpt lat="46.2701835632324" lon="7.24152755737305">
    <ele>1184</ele>
    <time>2012-04-30T15:46:37Z</time>
   </trkpt>
   <trkpt lat="46.2702522277832" lon="7.24139642715454">
    <ele>1184.59997558594</ele>
    <time>2012-04-30T15:46:40Z</time>
   </trkpt>
   <trkpt lat="46.2702827453613" lon="7.2413592338562">
    <ele>1184.79992675781</ele>
    <time>2012-04-30T15:46:41Z</time>
   </trkpt>
   <trkpt lat="46.270320892334" lon="7.24132299423218">
    <ele>1185</ele>
    <time>2012-04-30T15:46:42Z</time>
   </trkpt>
   <trkpt lat="46.2703552246094" lon="7.24128103256226">
    <ele>1185.19995117188</ele>
    <time>2012-04-30T15:46:43Z</time>
   </trkpt>
   <trkpt lat="46.2703895568848" lon="7.24123811721802">
    <ele>1185.40002441406</ele>
    <time>2012-04-30T15:46:44Z</time>
   </trkpt>
   <trkpt lat="46.2704277038574" lon="7.24120140075684">
    <ele>1185.59997558594</ele>
    <time>2012-04-30T15:46:45Z</time>
   </trkpt>
   <trkpt lat="46.2705345153809" lon="7.24107789993286">
    <ele>1185.59997558594</ele>
    <time>2012-04-30T15:46:48Z</time>
   </trkpt>
   <trkpt lat="46.2705726623535" lon="7.24103784561157">
    <ele>1185.75170898438</ele>
    <time>2012-04-30T15:46:49Z</time>
   </trkpt>
   <trkpt lat="46.2706108093262" lon="7.2410044670105">
    <ele>1185.90344238281</ele>
    <time>2012-04-30T15:46:50Z</time>
   </trkpt>
   <trkpt lat="46.2706909179688" lon="7.24093818664551">
    <ele>1186.20690917969</ele>
    <time>2012-04-30T15:46:52Z</time>
   </trkpt>
   <trkpt lat="46.2707786560059" lon="7.24087333679199">
    <ele>1186.51037597656</ele>
    <time>2012-04-30T15:46:54Z</time>
   </trkpt>
   <trkpt lat="46.270866394043" lon="7.24081134796143">
    <ele>1186.81372070312</ele>
    <time>2012-04-30T15:46:56Z</time>
   </trkpt>
   <trkpt lat="46.2709541320801" lon="7.24075222015381">
    <ele>1187.1171875</ele>
    <time>2012-04-30T15:46:58Z</time>
   </trkpt>
   <trkpt lat="46.2710304260254" lon="7.2406816482544">
    <ele>1187.42065429688</ele>
    <time>2012-04-30T15:47:00Z</time>
   </trkpt>
   <trkpt lat="46.2710647583008" lon="7.24064016342163">
    <ele>1187.57238769531</ele>
    <time>2012-04-30T15:47:01Z</time>
   </trkpt>
   <trkpt lat="46.2711296081543" lon="7.24047660827637">
    <ele>1188.02758789062</ele>
    <time>2012-04-30T15:47:04Z</time>
   </trkpt>
   <trkpt lat="46.2711410522461" lon="7.2403564453125">
    <ele>1188.3310546875</ele>
    <time>2012-04-30T15:47:06Z</time>
   </trkpt>
   <trkpt lat="46.2711410522461" lon="7.24030828475952">
    <ele>1188.48278808594</ele>
    <time>2012-04-30T15:47:07Z</time>
   </trkpt>
   <trkpt lat="46.2711334228516" lon="7.24026155471802">
    <ele>1188.63452148438</ele>
    <time>2012-04-30T15:47:08Z</time>
   </trkpt>
   <trkpt lat="46.2711296081543" lon="7.24021863937378">
    <ele>1188.78625488281</ele>
    <time>2012-04-30T15:47:09Z</time>
   </trkpt>
   <trkpt lat="46.271125793457" lon="7.24018001556396">
    <ele>1188.93786621094</ele>
    <time>2012-04-30T15:47:10Z</time>
   </trkpt>
   <trkpt lat="46.2710990905762" lon="7.24007081985474">
    <ele>1189.39306640625</ele>
    <time>2012-04-30T15:47:13Z</time>
   </trkpt>
   <trkpt lat="46.2710914611816" lon="7.24003505706787">
    <ele>1189.54479980469</ele>
    <time>2012-04-30T15:47:14Z</time>
   </trkpt>
   <trkpt lat="46.2710838317871" lon="7.24000072479248">
    <ele>1189.69653320312</ele>
    <time>2012-04-30T15:47:15Z</time>
   </trkpt>
   <trkpt lat="46.2710800170898" lon="7.23996019363403">
    <ele>1189.84826660156</ele>
    <time>2012-04-30T15:47:16Z</time>
   </trkpt>
   <trkpt lat="46.2710800170898" lon="7.23991584777832">
    <ele>1190</ele>
    <time>2012-04-30T15:47:17Z</time>
   </trkpt>
   <trkpt lat="46.2710723876953" lon="7.23984146118164">
    <ele>1190</ele>
    <time>2012-04-30T15:47:19Z</time>
   </trkpt>
   <trkpt lat="46.2710418701172" lon="7.23971891403198">
    <ele>1191.09997558594</ele>
    <time>2012-04-30T15:47:22Z</time>
   </trkpt>
   <trkpt lat="46.2710342407227" lon="7.23968648910522">
    <ele>1191.46667480469</ele>
    <time>2012-04-30T15:47:23Z</time>
   </trkpt>
   <trkpt lat="46.2710304260254" lon="7.23964738845825">
    <ele>1191.83325195312</ele>
    <time>2012-04-30T15:47:24Z</time>
   </trkpt>
   <trkpt lat="46.2710266113281" lon="7.23960399627686">
    <ele>1192.19995117188</ele>
    <time>2012-04-30T15:47:25Z</time>
   </trkpt>
   <trkpt lat="46.2710304260254" lon="7.2394847869873">
    <ele>1192.19995117188</ele>
    <time>2012-04-30T15:47:28Z</time>
   </trkpt>
   <trkpt lat="46.2710304260254" lon="7.239417552948">
    <ele>1192.76000976562</ele>
    <time>2012-04-30T15:47:30Z</time>
   </trkpt>
   <trkpt lat="46.2710342407227" lon="7.23932266235352">
    <ele>1193.31994628906</ele>
    <time>2012-04-30T15:47:32Z</time>
   </trkpt>
   <trkpt lat="46.2710418701172" lon="7.23927688598633">
    <ele>1193.59997558594</ele>
    <time>2012-04-30T15:47:33Z</time>
   </trkpt>
   <trkpt lat="46.2710456848144" lon="7.23923873901367">
    <ele>1193.88000488281</ele>
    <time>2012-04-30T15:47:34Z</time>
   </trkpt>
   <trkpt lat="46.2710494995117" lon="7.23919630050659">
    <ele>1194.16003417969</ele>
    <time>2012-04-30T15:47:35Z</time>
   </trkpt>
   <trkpt lat="46.2710609436035" lon="7.23916387557983">
    <ele>1194.43994140625</ele>
    <time>2012-04-30T15:47:36Z</time>
   </trkpt>
   <trkpt lat="46.2711067199707" lon="7.23907947540283">
    <ele>1195.28002929688</ele>
    <time>2012-04-30T15:47:39Z</time>
   </trkpt>
   <trkpt lat="46.271125793457" lon="7.23905181884766">
    <ele>1195.56005859375</ele>
    <time>2012-04-30T15:47:40Z</time>
   </trkpt>
   <trkpt lat="46.2711410522461" lon="7.23902988433838">
    <ele>1195.83996582031</ele>
    <time>2012-04-30T15:47:41Z</time>
   </trkpt>
   <trkpt lat="46.2711563110352" lon="7.23900556564331">
    <ele>1196.11999511719</ele>
    <time>2012-04-30T15:47:42Z</time>
   </trkpt>
   <trkpt lat="46.2711715698242" lon="7.23898601531982">
    <ele>1196.40002441406</ele>
    <time>2012-04-30T15:47:43Z</time>
   </trkpt>
   <trkpt lat="46.2712020874023" lon="7.2389349937439">
    <ele>1196.40002441406</ele>
    <time>2012-04-30T15:47:45Z</time>
   </trkpt>
   <trkpt lat="46.2712440490723" lon="7.23891448974609">
    <ele>1197.13330078125</ele>
    <time>2012-04-30T15:47:47Z</time>
   </trkpt>
   <trkpt lat="46.2712669372559" lon="7.23891019821167">
    <ele>1197.5</ele>
    <time>2012-04-30T15:47:48Z</time>
   </trkpt>
   <trkpt lat="46.2712898254394" lon="7.23890686035156">
    <ele>1197.86669921875</ele>
    <time>2012-04-30T15:47:49Z</time>
   </trkpt>
   <trkpt lat="46.2713165283203" lon="7.23890352249146">
    <ele>1198.23327636719</ele>
    <time>2012-04-30T15:47:50Z</time>
   </trkpt>
   <trkpt lat="46.2713394165039" lon="7.23891067504883">
    <ele>1198.59997558594</ele>
    <time>2012-04-30T15:47:51Z</time>
   </trkpt>
   <trkpt lat="46.2714385986328" lon="7.23896884918213">
    <ele>1198.59997558594</ele>
    <time>2012-04-30T15:47:56Z</time>
   </trkpt>
   <trkpt lat="46.2714805603027" lon="7.2389874458313">
    <ele>1199.17138671875</ele>
    <time>2012-04-30T15:47:58Z</time>
   </trkpt>
   <trkpt lat="46.2714996337891" lon="7.23900079727173">
    <ele>1199.45715332031</ele>
    <time>2012-04-30T15:47:59Z</time>
   </trkpt>
   <trkpt lat="46.2715225219727" lon="7.23901414871216">
    <ele>1199.74279785156</ele>
    <time>2012-04-30T15:48:00Z</time>
   </trkpt>
   <trkpt lat="46.271541595459" lon="7.23902606964111">
    <ele>1200.02856445312</ele>
    <time>2012-04-30T15:48:01Z</time>
   </trkpt>
   <trkpt lat="46.2715644836426" lon="7.23903322219849">
    <ele>1200.31420898438</ele>
    <time>2012-04-30T15:48:02Z</time>
   </trkpt>
   <trkpt lat="46.2715873718262" lon="7.23904418945312">
    <ele>1200.59997558594</ele>
    <time>2012-04-30T15:48:03Z</time>
   </trkpt>
   <trkpt lat="46.2716751098633" lon="7.23909091949463">
    <ele>1200.59997558594</ele>
    <time>2012-04-30T15:48:07Z</time>
   </trkpt>
   <trkpt lat="46.2716941833496" lon="7.23910474777222">
    <ele>1201.09997558594</ele>
    <time>2012-04-30T15:48:08Z</time>
   </trkpt>
   <trkpt lat="46.2717170715332" lon="7.23911571502686">
    <ele>1201.59997558594</ele>
    <time>2012-04-30T15:48:09Z</time>
   </trkpt>
   <trkpt lat="46.2717437744141" lon="7.23912286758423">
    <ele>1202.09997558594</ele>
    <time>2012-04-30T15:48:10Z</time>
   </trkpt>
   <trkpt lat="46.2717704772949" lon="7.23913335800171">
    <ele>1202.59997558594</ele>
    <time>2012-04-30T15:48:11Z</time>
   </trkpt>
   <trkpt lat="46.2718162536621" lon="7.23914813995361">
    <ele>1202.59997558594</ele>
    <time>2012-04-30T15:48:13Z</time>
   </trkpt>
   <trkpt lat="46.2718849182129" lon="7.23914957046509">
    <ele>1203.62854003906</ele>
    <time>2012-04-30T15:48:16Z</time>
   </trkpt>
   <trkpt lat="46.2719078063965" lon="7.23914957046509">
    <ele>1203.97143554688</ele>
    <time>2012-04-30T15:48:17Z</time>
   </trkpt>
   <trkpt lat="46.2719306945801" lon="7.23915386199951">
    <ele>1204.31433105469</ele>
    <time>2012-04-30T15:48:18Z</time>
   </trkpt>
   <trkpt lat="46.2719535827637" lon="7.23915910720825">
    <ele>1204.65710449219</ele>
    <time>2012-04-30T15:48:19Z</time>
   </trkpt>
   <trkpt lat="46.2719764709473" lon="7.23915910720825">
    <ele>1205</ele>
    <time>2012-04-30T15:48:20Z</time>
   </trkpt>
   <trkpt lat="46.272087097168" lon="7.23914241790772">
    <ele>1205</ele>
    <time>2012-04-30T15:48:25Z</time>
   </trkpt>
   <trkpt lat="46.2721328735352" lon="7.23912286758423">
    <ele>1205.66662597656</ele>
    <time>2012-04-30T15:48:27Z</time>
   </trkpt>
   <trkpt lat="46.2721557617188" lon="7.23911476135254">
    <ele>1206</ele>
    <time>2012-04-30T15:48:28Z</time>
   </trkpt>
   <trkpt lat="46.2721748352051" lon="7.23909950256348">
    <ele>1206.33337402344</ele>
    <time>2012-04-30T15:48:29Z</time>
   </trkpt>
   <trkpt lat="46.2721977233887" lon="7.23908424377441">
    <ele>1206.66662597656</ele>
    <time>2012-04-30T15:48:30Z</time>
   </trkpt>
   <trkpt lat="46.2722206115723" lon="7.23906993865967">
    <ele>1207</ele>
    <time>2012-04-30T15:48:31Z</time>
   </trkpt>
   <trkpt lat="46.2722434997559" lon="7.23905897140503">
    <ele>1207</ele>
    <time>2012-04-30T15:48:32Z</time>
   </trkpt>
   <trkpt lat="46.2723426818848" lon="7.23898601531982">
    <ele>1208.11108398438</ele>
    <time>2012-04-30T15:48:37Z</time>
   </trkpt>
   <trkpt lat="46.2723579406738" lon="7.23896551132202">
    <ele>1208.33337402344</ele>
    <time>2012-04-30T15:48:38Z</time>
   </trkpt>
   <trkpt lat="46.2723770141602" lon="7.23894834518433">
    <ele>1208.55554199219</ele>
    <time>2012-04-30T15:48:39Z</time>
   </trkpt>
   <trkpt lat="46.2723922729492" lon="7.23892736434936">
    <ele>1208.77783203125</ele>
    <time>2012-04-30T15:48:40Z</time>
   </trkpt>
   <trkpt lat="46.272403717041" lon="7.23890352249146">
    <ele>1209</ele>
    <time>2012-04-30T15:48:41Z</time>
   </trkpt>
   <trkpt lat="46.2724685668945" lon="7.23880481719971">
    <ele>1209</ele>
    <time>2012-04-30T15:48:45Z</time>
   </trkpt>
   <trkpt lat="46.2724838256836" lon="7.23878526687622">
    <ele>1209.43994140625</ele>
    <time>2012-04-30T15:48:46Z</time>
   </trkpt>
   <trkpt lat="46.2724990844727" lon="7.23876523971558">
    <ele>1209.88000488281</ele>
    <time>2012-04-30T15:48:47Z</time>
   </trkpt>
   <trkpt lat="46.2725219726562" lon="7.23873710632324">
    <ele>1210.31994628906</ele>
    <time>2012-04-30T15:48:48Z</time>
   </trkpt>
   <trkpt lat="46.2725410461426" lon="7.23870944976807">
    <ele>1210.76000976562</ele>
    <time>2012-04-30T15:48:49Z</time>
   </trkpt>
   <trkpt lat="46.2725601196289" lon="7.23868751525879">
    <ele>1211.19995117188</ele>
    <time>2012-04-30T15:48:50Z</time>
   </trkpt>
   <trkpt lat="46.2725830078125" lon="7.23866748809814">
    <ele>1211.19995117188</ele>
    <time>2012-04-30T15:48:51Z</time>
   </trkpt>
   <trkpt lat="46.2726783752441" lon="7.2385721206665">
    <ele>1212.31103515625</ele>
    <time>2012-04-30T15:48:56Z</time>
   </trkpt>
   <trkpt lat="46.2727012634277" lon="7.23856210708618">
    <ele>1212.53332519531</ele>
    <time>2012-04-30T15:48:57Z</time>
   </trkpt>
   <trkpt lat="46.2727241516113" lon="7.23855638504028">
    <ele>1212.75549316406</ele>
    <time>2012-04-30T15:48:58Z</time>
   </trkpt>
   <trkpt lat="46.2727470397949" lon="7.23854970932007">
    <ele>1212.97778320312</ele>
    <time>2012-04-30T15:48:59Z</time>
   </trkpt>
   <trkpt lat="46.2727699279785" lon="7.23854303359985">
    <ele>1213.19995117188</ele>
    <time>2012-04-30T15:49:00Z</time>
   </trkpt>
   <trkpt lat="46.2728424072266" lon="7.23853778839111">
    <ele>1213.19995117188</ele>
    <time>2012-04-30T15:49:03Z</time>
   </trkpt>
   <trkpt lat="46.2728652954102" lon="7.23854207992554">
    <ele>1213.59997558594</ele>
    <time>2012-04-30T15:49:04Z</time>
   </trkpt>
   <trkpt lat="46.2728881835938" lon="7.23854494094849">
    <ele>1214</ele>
    <time>2012-04-30T15:49:05Z</time>
   </trkpt>
   <trkpt lat="46.2729110717773" lon="7.23854923248291">
    <ele>1214.39990234375</ele>
    <time>2012-04-30T15:49:06Z</time>
   </trkpt>
   <trkpt lat="46.2729339599609" lon="7.23855113983154">
    <ele>1214.79992675781</ele>
    <time>2012-04-30T15:49:07Z</time>
   </trkpt>
   <trkpt lat="46.2729568481445" lon="7.23855829238892">
    <ele>1215.19995117188</ele>
    <time>2012-04-30T15:49:08Z</time>
   </trkpt>
   <trkpt lat="46.2730026245117" lon="7.23857641220093">
    <ele>1215.19995117188</ele>
    <time>2012-04-30T15:49:10Z</time>
   </trkpt>
   <trkpt lat="46.2730827331543" lon="7.23859786987305">
    <ele>1216.11999511719</ele>
    <time>2012-04-30T15:49:13Z</time>
   </trkpt>
   <trkpt lat="46.2731056213379" lon="7.23860168457031">
    <ele>1216.42663574219</ele>
    <time>2012-04-30T15:49:14Z</time>
   </trkpt>
   <trkpt lat="46.2731323242188" lon="7.23860597610474">
    <ele>1216.73327636719</ele>
    <time>2012-04-30T15:49:15Z</time>
   </trkpt>
   <trkpt lat="46.2731552124023" lon="7.23860883712768">
    <ele>1217.0400390625</ele>
    <time>2012-04-30T15:49:16Z</time>
   </trkpt>
   <trkpt lat="46.2731781005859" lon="7.23861026763916">
    <ele>1217.3466796875</ele>
    <time>2012-04-30T15:49:17Z</time>
   </trkpt>
   <trkpt lat="46.2732772827148" lon="7.23861646652222">
    <ele>1218.57336425781</ele>
    <time>2012-04-30T15:49:21Z</time>
   </trkpt>
   <trkpt lat="46.2733039855957" lon="7.23860740661621">
    <ele>1218.88000488281</ele>
    <time>2012-04-30T15:49:22Z</time>
   </trkpt>
   <trkpt lat="46.2733268737793" lon="7.23859977722168">
    <ele>1219.18664550781</ele>
    <time>2012-04-30T15:49:23Z</time>
   </trkpt>
   <trkpt lat="46.2733497619629" lon="7.2385983467102">
    <ele>1219.49340820312</ele>
    <time>2012-04-30T15:49:24Z</time>
   </trkpt>
   <trkpt lat="46.2733726501465" lon="7.23858594894409">
    <ele>1219.80004882812</ele>
    <time>2012-04-30T15:49:25Z</time>
   </trkpt>
   <trkpt lat="46.2734336853027" lon="7.23853015899658">
    <ele>1219.80004882812</ele>
    <time>2012-04-30T15:49:28Z</time>
   </trkpt>
   <trkpt lat="46.2734794616699" lon="7.2384729385376">
    <ele>1220.40002441406</ele>
    <time>2012-04-30T15:49:30Z</time>
   </trkpt>
   <trkpt lat="46.2735061645508" lon="7.23845291137695">
    <ele>1220.70007324219</ele>
    <time>2012-04-30T15:49:31Z</time>
   </trkpt>
   <trkpt lat="46.2735252380371" lon="7.23843288421631">
    <ele>1221</ele>
    <time>2012-04-30T15:49:32Z</time>
   </trkpt>
   <trkpt lat="46.2735443115234" lon="7.23840761184692">
    <ele>1221.30004882812</ele>
    <time>2012-04-30T15:49:33Z</time>
   </trkpt>
   <trkpt lat="46.2735595703125" lon="7.23837852478027">
    <ele>1221.59997558594</ele>
    <time>2012-04-30T15:49:34Z</time>
   </trkpt>
   <trkpt lat="46.2736206054688" lon="7.23827791213989">
    <ele>1222.80004882812</ele>
    <time>2012-04-30T15:49:38Z</time>
   </trkpt>
   <trkpt lat="46.2736320495606" lon="7.23825073242188">
    <ele>1223.09997558594</ele>
    <time>2012-04-30T15:49:39Z</time>
   </trkpt>
   <trkpt lat="46.2736511230469" lon="7.23822498321533">
    <ele>1223.40002441406</ele>
    <time>2012-04-30T15:49:40Z</time>
   </trkpt>
   <trkpt lat="46.2736663818359" lon="7.23820161819458">
    <ele>1223.69995117188</ele>
    <time>2012-04-30T15:49:41Z</time>
   </trkpt>
   <trkpt lat="46.2736778259277" lon="7.2381739616394">
    <ele>1224</ele>
    <time>2012-04-30T15:49:42Z</time>
   </trkpt>
   <trkpt lat="46.2737579345703" lon="7.2380747795105">
    <ele>1224</ele>
    <time>2012-04-30T15:49:46Z</time>
   </trkpt>
   <trkpt lat="46.2737770080566" lon="7.23805618286133">
    <ele>1224.5</ele>
    <time>2012-04-30T15:49:47Z</time>
   </trkpt>
   <trkpt lat="46.2737922668457" lon="7.23803329467774">
    <ele>1225</ele>
    <time>2012-04-30T15:49:48Z</time>
   </trkpt>
   <trkpt lat="46.2738075256348" lon="7.23800849914551">
    <ele>1225.5</ele>
    <time>2012-04-30T15:49:49Z</time>
   </trkpt>
   <trkpt lat="46.2738227844238" lon="7.23798751831055">
    <ele>1226</ele>
    <time>2012-04-30T15:49:50Z</time>
   </trkpt>
   <trkpt lat="46.2738571166992" lon="7.23794412612915">
    <ele>1226</ele>
    <time>2012-04-30T15:49:52Z</time>
   </trkpt>
   <trkpt lat="46.2739181518555" lon="7.23787641525268">
    <ele>1226.94287109375</ele>
    <time>2012-04-30T15:49:55Z</time>
   </trkpt>
   <trkpt lat="46.2739372253418" lon="7.23785924911499">
    <ele>1227.25708007812</ele>
    <time>2012-04-30T15:49:56Z</time>
   </trkpt>
   <trkpt lat="46.2739562988281" lon="7.2378396987915">
    <ele>1227.57141113281</ele>
    <time>2012-04-30T15:49:57Z</time>
   </trkpt>
   <trkpt lat="46.2739715576172" lon="7.23782205581665">
    <ele>1227.88562011719</ele>
    <time>2012-04-30T15:49:58Z</time>
   </trkpt>
   <trkpt lat="46.2739906311035" lon="7.23779916763306">
    <ele>1228.19995117188</ele>
    <time>2012-04-30T15:49:59Z</time>
   </trkpt>
   <trkpt lat="46.2741088867188" lon="7.23765897750854">
    <ele>1228.19995117188</ele>
    <time>2012-04-30T15:50:05Z</time>
   </trkpt>
   <trkpt lat="46.2741355895996" lon="7.23764038085938">
    <ele>1228.48571777344</ele>
    <time>2012-04-30T15:50:06Z</time>
   </trkpt>
   <trkpt lat="46.2741508483887" lon="7.23762035369873">
    <ele>1228.77136230469</ele>
    <time>2012-04-30T15:50:07Z</time>
   </trkpt>
   <trkpt lat="46.2741661071777" lon="7.23759984970093">
    <ele>1229.05712890625</ele>
    <time>2012-04-30T15:50:08Z</time>
   </trkpt>
   <trkpt lat="46.2741813659668" lon="7.23757553100586">
    <ele>1229.3427734375</ele>
    <time>2012-04-30T15:50:09Z</time>
   </trkpt>
   <trkpt lat="46.2742004394531" lon="7.23755645751953">
    <ele>1229.62854003906</ele>
    <time>2012-04-30T15:50:10Z</time>
   </trkpt>
   <trkpt lat="46.2742958068848" lon="7.23742389678955">
    <ele>1231.05712890625</ele>
    <time>2012-04-30T15:50:15Z</time>
   </trkpt>
   <trkpt lat="46.2743148803711" lon="7.23739910125732">
    <ele>1231.3427734375</ele>
    <time>2012-04-30T15:50:16Z</time>
   </trkpt>
   <trkpt lat="46.2743339538574" lon="7.2373833656311">
    <ele>1231.62854003906</ele>
    <time>2012-04-30T15:50:17Z</time>
   </trkpt>
   <trkpt lat="46.2743492126465" lon="7.23736095428467">
    <ele>1231.91418457031</ele>
    <time>2012-04-30T15:50:18Z</time>
   </trkpt>
   <trkpt lat="46.2743644714356" lon="7.23733425140381">
    <ele>1232.19995117188</ele>
    <time>2012-04-30T15:50:19Z</time>
   </trkpt>
   <trkpt lat="46.2743797302246" lon="7.23730707168579">
    <ele>1232.19995117188</ele>
    <time>2012-04-30T15:50:20Z</time>
   </trkpt>
   <trkpt lat="46.2744102478027" lon="7.23712778091431">
    <ele>1233.30004882812</ele>
    <time>2012-04-30T15:50:25Z</time>
   </trkpt>
   <trkpt lat="46.2744064331055" lon="7.23708724975586">
    <ele>1233.52001953125</ele>
    <time>2012-04-30T15:50:26Z</time>
   </trkpt>
   <trkpt lat="46.2744026184082" lon="7.23704862594604">
    <ele>1233.73999023438</ele>
    <time>2012-04-30T15:50:27Z</time>
   </trkpt>
   <trkpt lat="46.2743949890137" lon="7.23701000213623">
    <ele>1233.9599609375</ele>
    <time>2012-04-30T15:50:28Z</time>
   </trkpt>
   <trkpt lat="46.2743835449219" lon="7.23697137832642">
    <ele>1234.18005371094</ele>
    <time>2012-04-30T15:50:29Z</time>
   </trkpt>
   <trkpt lat="46.2743759155273" lon="7.23693037033081">
    <ele>1234.40002441406</ele>
    <time>2012-04-30T15:50:30Z</time>
   </trkpt>
   <trkpt lat="46.274356842041" lon="7.23683404922485">
    <ele>1234.40002441406</ele>
    <time>2012-04-30T15:50:32Z</time>
   </trkpt>
   <trkpt lat="46.2743034362793" lon="7.23653507232666">
    <ele>1235.10595703125</ele>
    <time>2012-04-30T15:50:38Z</time>
   </trkpt>
   <trkpt lat="46.2742691040039" lon="7.2362813949585">
    <ele>1235.69409179688</ele>
    <time>2012-04-30T15:50:43Z</time>
   </trkpt>
   <trkpt lat="46.2742576599121" lon="7.2361855506897">
    <ele>1235.92944335938</ele>
    <time>2012-04-30T15:50:45Z</time>
   </trkpt>
   <trkpt lat="46.2742500305176" lon="7.23614025115967">
    <ele>1236.04711914062</ele>
    <time>2012-04-30T15:50:46Z</time>
   </trkpt>
   <trkpt lat="46.274242401123" lon="7.23609113693237">
    <ele>1236.16467285156</ele>
    <time>2012-04-30T15:50:47Z</time>
   </trkpt>
   <trkpt lat="46.2742347717285" lon="7.2360429763794">
    <ele>1236.28234863281</ele>
    <time>2012-04-30T15:50:48Z</time>
   </trkpt>
   <trkpt lat="46.274227142334" lon="7.2359938621521">
    <ele>1236.40002441406</ele>
    <time>2012-04-30T15:50:49Z</time>
   </trkpt>
   <trkpt lat="46.2741966247559" lon="7.23569965362549">
    <ele>1236.40002441406</ele>
    <time>2012-04-30T15:50:55Z</time>
   </trkpt>
   <trkpt lat="46.2742233276367" lon="7.23552751541138">
    <ele>1237.59997558594</ele>
    <time>2012-04-30T15:50:59Z</time>
   </trkpt>
   <trkpt lat="46.2742347717285" lon="7.23549365997314">
    <ele>1237.90002441406</ele>
    <time>2012-04-30T15:51:00Z</time>
   </trkpt>
   <trkpt lat="46.2742500305176" lon="7.2354621887207">
    <ele>1238.19995117188</ele>
    <time>2012-04-30T15:51:01Z</time>
   </trkpt>
   <trkpt lat="46.2742652893066" lon="7.23543500900268">
    <ele>1238.5</ele>
    <time>2012-04-30T15:51:02Z</time>
   </trkpt>
   <trkpt lat="46.2742805480957" lon="7.23540782928467">
    <ele>1238.80004882812</ele>
    <time>2012-04-30T15:51:03Z</time>
   </trkpt>
   <trkpt lat="46.2743072509766" lon="7.23535490036011">
    <ele>1239.40002441406</ele>
    <time>2012-04-30T15:51:05Z</time>
   </trkpt>
   <trkpt lat="46.2743186950684" lon="7.23532962799072">
    <ele>1239.69995117188</ele>
    <time>2012-04-30T15:51:06Z</time>
   </trkpt>
   <trkpt lat="46.2743301391602" lon="7.23530626296997">
    <ele>1240</ele>
    <time>2012-04-30T15:51:07Z</time>
   </trkpt>
   <trkpt lat="46.2743453979492" lon="7.23528051376343">
    <ele>1240.29992675781</ele>
    <time>2012-04-30T15:51:08Z</time>
   </trkpt>
   <trkpt lat="46.2743606567383" lon="7.23525714874268">
    <ele>1240.59997558594</ele>
    <time>2012-04-30T15:51:09Z</time>
   </trkpt>
   <trkpt lat="46.2744293212891" lon="7.23516654968262">
    <ele>1240.59997558594</ele>
    <time>2012-04-30T15:51:12Z</time>
   </trkpt>
   <trkpt lat="46.2744560241699" lon="7.23514127731323">
    <ele>1240.87268066406</ele>
    <time>2012-04-30T15:51:13Z</time>
   </trkpt>
   <trkpt lat="46.274486541748" lon="7.23513746261597">
    <ele>1241.14538574219</ele>
    <time>2012-04-30T15:51:14Z</time>
   </trkpt>
   <trkpt lat="46.2745170593262" lon="7.23512887954712">
    <ele>1241.41821289062</ele>
    <time>2012-04-30T15:51:15Z</time>
   </trkpt>
   <trkpt lat="46.2745475769043" lon="7.2351245880127">
    <ele>1241.69091796875</ele>
    <time>2012-04-30T15:51:16Z</time>
   </trkpt>
   <trkpt lat="46.2745704650879" lon="7.2351188659668">
    <ele>1241.96362304688</ele>
    <time>2012-04-30T15:51:17Z</time>
   </trkpt>
   <trkpt lat="46.2746696472168" lon="7.23507738113403">
    <ele>1243.05456542969</ele>
    <time>2012-04-30T15:51:21Z</time>
   </trkpt>
   <trkpt lat="46.2746887207031" lon="7.23506689071655">
    <ele>1243.32727050781</ele>
    <time>2012-04-30T15:51:22Z</time>
   </trkpt>
   <trkpt lat="46.2747077941894" lon="7.2350549697876">
    <ele>1243.59997558594</ele>
    <time>2012-04-30T15:51:23Z</time>
   </trkpt>
   <trkpt lat="46.274730682373" lon="7.23505020141602">
    <ele>1243.87268066406</ele>
    <time>2012-04-30T15:51:24Z</time>
   </trkpt>
   <trkpt lat="46.2747497558594" lon="7.2350435256958">
    <ele>1244.14538574219</ele>
    <time>2012-04-30T15:51:25Z</time>
   </trkpt>
   <trkpt lat="46.2748794555664" lon="7.23499298095703">
    <ele>1245.78173828125</ele>
    <time>2012-04-30T15:51:31Z</time>
   </trkpt>
   <trkpt lat="46.2748985290527" lon="7.23497486114502">
    <ele>1246.05456542969</ele>
    <time>2012-04-30T15:51:32Z</time>
   </trkpt>
   <trkpt lat="46.2749176025391" lon="7.23496961593628">
    <ele>1246.32727050781</ele>
    <time>2012-04-30T15:51:33Z</time>
   </trkpt>
   <trkpt lat="46.2749366760254" lon="7.23496627807617">
    <ele>1246.59997558594</ele>
    <time>2012-04-30T15:51:34Z</time>
   </trkpt>
   <trkpt lat="46.274959564209" lon="7.23495864868164">
    <ele>1246.87268066406</ele>
    <time>2012-04-30T15:51:35Z</time>
   </trkpt>
   <trkpt lat="46.2751121520996" lon="7.23496389389038">
    <ele>1248.50903320312</ele>
    <time>2012-04-30T15:51:41Z</time>
   </trkpt>
   <trkpt lat="46.2751350402832" lon="7.23495721817017">
    <ele>1248.78173828125</ele>
    <time>2012-04-30T15:51:42Z</time>
   </trkpt>
   <trkpt lat="46.2751579284668" lon="7.23495197296143">
    <ele>1249.05456542969</ele>
    <time>2012-04-30T15:51:43Z</time>
   </trkpt>
   <trkpt lat="46.2751808166504" lon="7.23494720458984">
    <ele>1249.32727050781</ele>
    <time>2012-04-30T15:51:44Z</time>
   </trkpt>
   <trkpt lat="46.2751998901367" lon="7.23494577407837">
    <ele>1249.59997558594</ele>
    <time>2012-04-30T15:51:45Z</time>
   </trkpt>
   <trkpt lat="46.2752723693848" lon="7.23494005203247">
    <ele>1249.59997558594</ele>
    <time>2012-04-30T15:51:48Z</time>
   </trkpt>
   <trkpt lat="46.2753982543945" lon="7.23495721817017">
    <ele>1250.97497558594</ele>
    <time>2012-04-30T15:51:53Z</time>
   </trkpt>
   <trkpt lat="46.2754173278809" lon="7.23497104644775">
    <ele>1251.25</ele>
    <time>2012-04-30T15:51:54Z</time>
   </trkpt>
   <trkpt lat="46.2754402160644" lon="7.23498392105102">
    <ele>1251.52502441406</ele>
    <time>2012-04-30T15:51:55Z</time>
   </trkpt>
   <trkpt lat="46.2754554748535" lon="7.23501253128052">
    <ele>1251.80004882812</ele>
    <time>2012-04-30T15:51:56Z</time>
   </trkpt>
   <trkpt lat="46.2754745483398" lon="7.23511028289795">
    <ele>1251.80004882812</ele>
    <time>2012-04-30T15:51:59Z</time>
   </trkpt>
   <trkpt lat="46.2755165100098" lon="7.23526620864868">
    <ele>1252.9111328125</ele>
    <time>2012-04-30T15:52:04Z</time>
   </trkpt>
   <trkpt lat="46.2755241394043" lon="7.23529148101807">
    <ele>1253.13342285156</ele>
    <time>2012-04-30T15:52:05Z</time>
   </trkpt>
   <trkpt lat="46.2755355834961" lon="7.23531484603882">
    <ele>1253.35559082031</ele>
    <time>2012-04-30T15:52:06Z</time>
   </trkpt>
   <trkpt lat="46.2755508422852" lon="7.23533916473389">
    <ele>1253.57788085938</ele>
    <time>2012-04-30T15:52:07Z</time>
   </trkpt>
   <trkpt lat="46.2755699157715" lon="7.23535823822022">
    <ele>1253.80004882812</ele>
    <time>2012-04-30T15:52:08Z</time>
   </trkpt>
   <trkpt lat="46.2756080627441" lon="7.23539400100708">
    <ele>1253.80004882812</ele>
    <time>2012-04-30T15:52:10Z</time>
   </trkpt>
   <trkpt lat="46.2756729125977" lon="7.23543643951416">
    <ele>1254.64001464844</ele>
    <time>2012-04-30T15:52:13Z</time>
   </trkpt>
   <trkpt lat="46.2756958007812" lon="7.23544073104858">
    <ele>1254.92004394531</ele>
    <time>2012-04-30T15:52:14Z</time>
   </trkpt>
   <trkpt lat="46.2757186889648" lon="7.23543977737427">
    <ele>1255.20007324219</ele>
    <time>2012-04-30T15:52:15Z</time>
   </trkpt>
   <trkpt lat="46.2757415771484" lon="7.23543548583984">
    <ele>1255.47998046875</ele>
    <time>2012-04-30T15:52:16Z</time>
   </trkpt>
   <trkpt lat="46.2757682800293" lon="7.23543453216553">
    <ele>1255.76000976562</ele>
    <time>2012-04-30T15:52:17Z</time>
   </trkpt>
   <trkpt lat="46.2758522033691" lon="7.23539924621582">
    <ele>1256.88000488281</ele>
    <time>2012-04-30T15:52:21Z</time>
   </trkpt>
   <trkpt lat="46.2758712768555" lon="7.23538160324097">
    <ele>1257.16003417969</ele>
    <time>2012-04-30T15:52:22Z</time>
   </trkpt>
   <trkpt lat="46.2758903503418" lon="7.23536491394043">
    <ele>1257.44006347656</ele>
    <time>2012-04-30T15:52:23Z</time>
   </trkpt>
   <trkpt lat="46.2759056091309" lon="7.23534727096558">
    <ele>1257.71997070312</ele>
    <time>2012-04-30T15:52:24Z</time>
   </trkpt>
   <trkpt lat="46.2759246826172" lon="7.23532676696777">
    <ele>1258</ele>
    <time>2012-04-30T15:52:25Z</time>
   </trkpt>
   <trkpt lat="46.2759971618652" lon="7.23524236679077">
    <ele>1258</ele>
    <time>2012-04-30T15:52:29Z</time>
   </trkpt>
   <trkpt lat="46.276050567627" lon="7.23516416549683">
    <ele>1258.94287109375</ele>
    <time>2012-04-30T15:52:32Z</time>
   </trkpt>
   <trkpt lat="46.2760696411133" lon="7.23514366149902">
    <ele>1259.25708007812</ele>
    <time>2012-04-30T15:52:33Z</time>
   </trkpt>
   <trkpt lat="46.2760887145996" lon="7.2351245880127">
    <ele>1259.57141113281</ele>
    <time>2012-04-30T15:52:34Z</time>
   </trkpt>
   <trkpt lat="46.2761077880859" lon="7.23510503768921">
    <ele>1259.88562011719</ele>
    <time>2012-04-30T15:52:35Z</time>
   </trkpt>
   <trkpt lat="46.276123046875" lon="7.23508739471436">
    <ele>1260.19995117188</ele>
    <time>2012-04-30T15:52:36Z</time>
   </trkpt>
   <trkpt lat="46.2761611938477" lon="7.23504638671875">
    <ele>1260.19995117188</ele>
    <time>2012-04-30T15:52:38Z</time>
   </trkpt>
   <trkpt lat="46.276195526123" lon="7.23500204086304">
    <ele>1261.07995605469</ele>
    <time>2012-04-30T15:52:40Z</time>
   </trkpt>
   <trkpt lat="46.2762145996094" lon="7.23498153686524">
    <ele>1261.52001953125</ele>
    <time>2012-04-30T15:52:41Z</time>
   </trkpt>
   <trkpt lat="46.2762336730957" lon="7.23496246337891">
    <ele>1261.9599609375</ele>
    <time>2012-04-30T15:52:42Z</time>
   </trkpt>
   <trkpt lat="46.2762489318848" lon="7.2349443435669">
    <ele>1262.40002441406</ele>
    <time>2012-04-30T15:52:43Z</time>
   </trkpt>
   <trkpt lat="46.2762832641602" lon="7.23490619659424">
    <ele>1262.40002441406</ele>
    <time>2012-04-30T15:52:45Z</time>
   </trkpt>
   <trkpt lat="46.2763366699219" lon="7.23485040664673">
    <ele>1263.42858886719</ele>
    <time>2012-04-30T15:52:48Z</time>
   </trkpt>
   <trkpt lat="46.2763557434082" lon="7.23482894897461">
    <ele>1263.771484375</ele>
    <time>2012-04-30T15:52:49Z</time>
   </trkpt>
   <trkpt lat="46.2763748168945" lon="7.23480606079102">
    <ele>1264.11437988281</ele>
    <time>2012-04-30T15:52:50Z</time>
   </trkpt>
   <trkpt lat="46.2763938903809" lon="7.23478364944458">
    <ele>1264.45715332031</ele>
    <time>2012-04-30T15:52:51Z</time>
   </trkpt>
   <trkpt lat="46.2764129638672" lon="7.23475980758667">
    <ele>1264.80004882812</ele>
    <time>2012-04-30T15:52:52Z</time>
   </trkpt>
   <trkpt lat="46.2764472961426" lon="7.23471546173096">
    <ele>1264.80004882812</ele>
    <time>2012-04-30T15:52:54Z</time>
   </trkpt>
   <trkpt lat="46.2765235900879" lon="7.23462915420532">
    <ele>1265.68896484375</ele>
    <time>2012-04-30T15:52:58Z</time>
   </trkpt>
   <trkpt lat="46.276538848877" lon="7.23460531234741">
    <ele>1265.9111328125</ele>
    <time>2012-04-30T15:52:59Z</time>
   </trkpt>
   <trkpt lat="46.2765579223633" lon="7.23457908630371">
    <ele>1266.13342285156</ele>
    <time>2012-04-30T15:53:00Z</time>
   </trkpt>
   <trkpt lat="46.2765808105469" lon="7.23455905914307">
    <ele>1266.35559082031</ele>
    <time>2012-04-30T15:53:01Z</time>
   </trkpt>
   <trkpt lat="46.2766036987305" lon="7.23453903198242">
    <ele>1266.57788085938</ele>
    <time>2012-04-30T15:53:02Z</time>
   </trkpt>
   <trkpt lat="46.2767181396484" lon="7.23439836502075">
    <ele>1267.9111328125</ele>
    <time>2012-04-30T15:53:08Z</time>
   </trkpt>
   <trkpt lat="46.2767372131348" lon="7.23437595367432">
    <ele>1268.13342285156</ele>
    <time>2012-04-30T15:53:09Z</time>
   </trkpt>
   <trkpt lat="46.2767562866211" lon="7.23435020446777">
    <ele>1268.35559082031</ele>
    <time>2012-04-30T15:53:10Z</time>
   </trkpt>
   <trkpt lat="46.2767753601074" lon="7.23432445526123">
    <ele>1268.57788085938</ele>
    <time>2012-04-30T15:53:11Z</time>
   </trkpt>
   <trkpt lat="46.276798248291" lon="7.23429870605469">
    <ele>1268.80004882812</ele>
    <time>2012-04-30T15:53:12Z</time>
   </trkpt>
   <trkpt lat="46.2768821716309" lon="7.2342095375061">
    <ele>1268.80004882812</ele>
    <time>2012-04-30T15:53:16Z</time>
   </trkpt>
   <trkpt lat="46.2769241333008" lon="7.23417139053345">
    <ele>1269.40954589844</ele>
    <time>2012-04-30T15:53:18Z</time>
   </trkpt>
   <trkpt lat="46.2769470214844" lon="7.23415851593018">
    <ele>1269.71435546875</ele>
    <time>2012-04-30T15:53:19Z</time>
   </trkpt>
   <trkpt lat="46.276969909668" lon="7.2341480255127">
    <ele>1270.01904296875</ele>
    <time>2012-04-30T15:53:20Z</time>
   </trkpt>
   <trkpt lat="46.2769927978516" lon="7.23414611816406">
    <ele>1270.32385253906</ele>
    <time>2012-04-30T15:53:21Z</time>
   </trkpt>
   <trkpt lat="46.2770195007324" lon="7.23414182662964">
    <ele>1270.62854003906</ele>
    <time>2012-04-30T15:53:22Z</time>
   </trkpt>
   <trkpt lat="46.277099609375" lon="7.23411798477173">
    <ele>1271.84765625</ele>
    <time>2012-04-30T15:53:26Z</time>
   </trkpt>
   <trkpt lat="46.2771224975586" lon="7.23411464691162">
    <ele>1272.15234375</ele>
    <time>2012-04-30T15:53:27Z</time>
   </trkpt>
   <trkpt lat="46.2771453857422" lon="7.23411273956299">
    <ele>1272.45715332031</ele>
    <time>2012-04-30T15:53:28Z</time>
   </trkpt>
   <trkpt lat="46.277172088623" lon="7.2341103553772">
    <ele>1272.76184082031</ele>
    <time>2012-04-30T15:53:29Z</time>
   </trkpt>
   <trkpt lat="46.2771949768066" lon="7.23410987854004">
    <ele>1273.06665039062</ele>
    <time>2012-04-30T15:53:30Z</time>
   </trkpt>
   <trkpt lat="46.2772750854492" lon="7.23412179946899">
    <ele>1273.98095703125</ele>
    <time>2012-04-30T15:53:33Z</time>
   </trkpt>
   <trkpt lat="46.2773017883301" lon="7.23412561416626">
    <ele>1274.28564453125</ele>
    <time>2012-04-30T15:53:34Z</time>
   </trkpt>
   <trkpt lat="46.2773284912109" lon="7.23412370681763">
    <ele>1274.59045410156</ele>
    <time>2012-04-30T15:53:35Z</time>
   </trkpt>
   <trkpt lat="46.2773551940918" lon="7.23412084579468">
    <ele>1274.89514160156</ele>
    <time>2012-04-30T15:53:36Z</time>
   </trkpt>
   <trkpt lat="46.2773780822754" lon="7.23412179946899">
    <ele>1275.19995117188</ele>
    <time>2012-04-30T15:53:37Z</time>
   </trkpt>
   <trkpt lat="46.2774200439453" lon="7.23411846160889">
    <ele>1275.19995117188</ele>
    <time>2012-04-30T15:53:39Z</time>
   </trkpt>
   <trkpt lat="46.2774887084961" lon="7.23410892486572">
    <ele>1275.94116210938</ele>
    <time>2012-04-30T15:53:42Z</time>
   </trkpt>
   <trkpt lat="46.2775192260742" lon="7.23411321640015">
    <ele>1276.18823242188</ele>
    <time>2012-04-30T15:53:43Z</time>
   </trkpt>
   <trkpt lat="46.2775459289551" lon="7.23410844802856">
    <ele>1276.43530273438</ele>
    <time>2012-04-30T15:53:44Z</time>
   </trkpt>
   <trkpt lat="46.2775688171387" lon="7.23410081863403">
    <ele>1276.68237304688</ele>
    <time>2012-04-30T15:53:45Z</time>
   </trkpt>
   <trkpt lat="46.2775955200195" lon="7.23409366607666">
    <ele>1276.92944335938</ele>
    <time>2012-04-30T15:53:46Z</time>
   </trkpt>
   <trkpt lat="46.2777290344238" lon="7.23401737213135">
    <ele>1278.41174316406</ele>
    <time>2012-04-30T15:53:52Z</time>
   </trkpt>
   <trkpt lat="46.2777519226074" lon="7.23400259017944">
    <ele>1278.65881347656</ele>
    <time>2012-04-30T15:53:53Z</time>
   </trkpt>
   <trkpt lat="46.2777709960938" lon="7.23398447036743">
    <ele>1278.90588378906</ele>
    <time>2012-04-30T15:53:54Z</time>
   </trkpt>
   <trkpt lat="46.2777938842773" lon="7.23396921157837">
    <ele>1279.15295410156</ele>
    <time>2012-04-30T15:53:55Z</time>
   </trkpt>
   <trkpt lat="46.2778167724609" lon="7.23395490646362">
    <ele>1279.40002441406</ele>
    <time>2012-04-30T15:53:56Z</time>
   </trkpt>
   <trkpt lat="46.2778396606445" lon="7.2339358329773">
    <ele>1279.40002441406</ele>
    <time>2012-04-30T15:53:57Z</time>
   </trkpt>
   <trkpt lat="46.2779197692871" lon="7.2338662147522">
    <ele>1280.38830566406</ele>
    <time>2012-04-30T15:54:01Z</time>
   </trkpt>
   <trkpt lat="46.2779426574707" lon="7.2338433265686">
    <ele>1280.63525390625</ele>
    <time>2012-04-30T15:54:02Z</time>
   </trkpt>
   <trkpt lat="46.2779579162598" lon="7.23382377624512">
    <ele>1280.88232421875</ele>
    <time>2012-04-30T15:54:03Z</time>
   </trkpt>
   <trkpt lat="46.2779808044434" lon="7.23380756378174">
    <ele>1281.12939453125</ele>
    <time>2012-04-30T15:54:04Z</time>
   </trkpt>
   <trkpt lat="46.278003692627" lon="7.23379468917847">
    <ele>1281.37646484375</ele>
    <time>2012-04-30T15:54:05Z</time>
   </trkpt>
   <trkpt lat="46.2781066894531" lon="7.23370981216431">
    <ele>1282.61169433594</ele>
    <time>2012-04-30T15:54:10Z</time>
   </trkpt>
   <trkpt lat="46.2781295776367" lon="7.23368978500366">
    <ele>1282.85876464844</ele>
    <time>2012-04-30T15:54:11Z</time>
   </trkpt>
   <trkpt lat="46.278148651123" lon="7.23366928100586">
    <ele>1283.10583496094</ele>
    <time>2012-04-30T15:54:12Z</time>
   </trkpt>
   <trkpt lat="46.2781677246094" lon="7.23364877700806">
    <ele>1283.35290527344</ele>
    <time>2012-04-30T15:54:13Z</time>
   </trkpt>
   <trkpt lat="46.2781944274902" lon="7.2336277961731">
    <ele>1283.59997558594</ele>
    <time>2012-04-30T15:54:14Z</time>
   </trkpt>
   <trkpt lat="46.2782859802246" lon="7.23357009887695">
    <ele>1283.59997558594</ele>
    <time>2012-04-30T15:54:18Z</time>
   </trkpt>
   <trkpt lat="46.2783317565918" lon="7.23354339599609">
    <ele>1284.40002441406</ele>
    <time>2012-04-30T15:54:20Z</time>
   </trkpt>
   <trkpt lat="46.2783584594727" lon="7.23353052139282">
    <ele>1284.79992675781</ele>
    <time>2012-04-30T15:54:21Z</time>
   </trkpt>
   <trkpt lat="46.2783889770508" lon="7.23352241516113">
    <ele>1285.19995117188</ele>
    <time>2012-04-30T15:54:22Z</time>
   </trkpt>
   <trkpt lat="46.2784156799316" lon="7.23351621627808">
    <ele>1285.59997558594</ele>
    <time>2012-04-30T15:54:23Z</time>
   </trkpt>
   <trkpt lat="46.2784690856934" lon="7.23351287841797">
    <ele>1285.59997558594</ele>
    <time>2012-04-30T15:54:25Z</time>
   </trkpt>
   <trkpt lat="46.2785568237305" lon="7.23351287841797">
    <ele>1286.19995117188</ele>
    <time>2012-04-30T15:54:28Z</time>
   </trkpt>
   <trkpt lat="46.2786598205566" lon="7.23352813720703">
    <ele>1287</ele>
    <time>2012-04-30T15:54:32Z</time>
   </trkpt>
   <trkpt lat="46.2786827087402" lon="7.23353147506714">
    <ele>1287.20007324219</ele>
    <time>2012-04-30T15:54:33Z</time>
   </trkpt>
   <trkpt lat="46.2787055969238" lon="7.23353624343872">
    <ele>1287.40002441406</ele>
    <time>2012-04-30T15:54:34Z</time>
   </trkpt>
   <trkpt lat="46.2787322998047" lon="7.2335410118103">
    <ele>1287.60009765625</ele>
    <time>2012-04-30T15:54:35Z</time>
   </trkpt>
   <trkpt lat="46.2787590026856" lon="7.23354244232178">
    <ele>1287.80004882812</ele>
    <time>2012-04-30T15:54:36Z</time>
   </trkpt>
   <trkpt lat="46.2788734436035" lon="7.23356437683106">
    <ele>1287.80004882812</ele>
    <time>2012-04-30T15:54:41Z</time>
   </trkpt>
   <trkpt lat="46.2788963317871" lon="7.23356676101685">
    <ele>1288.20007324219</ele>
    <time>2012-04-30T15:54:42Z</time>
   </trkpt>
   <trkpt lat="46.2789154052734" lon="7.2335786819458">
    <ele>1288.60009765625</ele>
    <time>2012-04-30T15:54:43Z</time>
   </trkpt>
   <trkpt lat="46.278938293457" lon="7.23358488082886">
    <ele>1289</ele>
    <time>2012-04-30T15:54:44Z</time>
   </trkpt>
   <trkpt lat="46.2789573669434" lon="7.23359870910644">
    <ele>1289.40002441406</ele>
    <time>2012-04-30T15:54:45Z</time>
   </trkpt>
   <trkpt lat="46.2789688110352" lon="7.23360872268677">
    <ele>1289.80004882812</ele>
    <time>2012-04-30T15:54:46Z</time>
   </trkpt>
   <trkpt lat="46.2790184020996" lon="7.23371171951294">
    <ele>1289.80004882812</ele>
    <time>2012-04-30T15:54:50Z</time>
   </trkpt>
   <trkpt lat="46.2790298461914" lon="7.23374366760254">
    <ele>1290.23999023438</ele>
    <time>2012-04-30T15:54:51Z</time>
   </trkpt>
   <trkpt lat="46.2790336608887" lon="7.23378038406372">
    <ele>1290.68005371094</ele>
    <time>2012-04-30T15:54:52Z</time>
   </trkpt>
   <trkpt lat="46.2790374755859" lon="7.23381423950195">
    <ele>1291.11999511719</ele>
    <time>2012-04-30T15:54:53Z</time>
   </trkpt>
   <trkpt lat="46.2790336608887" lon="7.2338433265686">
    <ele>1291.56005859375</ele>
    <time>2012-04-30T15:54:54Z</time>
   </trkpt>
   <trkpt lat="46.2790260314941" lon="7.23388051986694">
    <ele>1292</ele>
    <time>2012-04-30T15:54:55Z</time>
   </trkpt>
   <trkpt lat="46.2790184020996" lon="7.2339129447937">
    <ele>1292</ele>
    <time>2012-04-30T15:54:56Z</time>
   </trkpt>
   <trkpt lat="46.2789916992188" lon="7.23402690887451">
    <ele>1292.85717773438</ele>
    <time>2012-04-30T15:54:59Z</time>
   </trkpt>
   <trkpt lat="46.2789878845215" lon="7.23406553268433">
    <ele>1293.14282226562</ele>
    <time>2012-04-30T15:55:00Z</time>
   </trkpt>
   <trkpt lat="46.2789840698242" lon="7.23409986495972">
    <ele>1293.42858886719</ele>
    <time>2012-04-30T15:55:01Z</time>
   </trkpt>
   <trkpt lat="46.2789878845215" lon="7.23412656784058">
    <ele>1293.71423339844</ele>
    <time>2012-04-30T15:55:02Z</time>
   </trkpt>
   <trkpt lat="46.2789916992188" lon="7.23415994644165">
    <ele>1294</ele>
    <time>2012-04-30T15:55:03Z</time>
   </trkpt>
   <trkpt lat="46.2790679931641" lon="7.2343168258667">
    <ele>1294</ele>
    <time>2012-04-30T15:55:08Z</time>
   </trkpt>
   <trkpt lat="46.2790908813477" lon="7.2343430519104">
    <ele>1294.55004882812</ele>
    <time>2012-04-30T15:55:09Z</time>
   </trkpt>
   <trkpt lat="46.2791175842285" lon="7.23435688018799">
    <ele>1295.09997558594</ele>
    <time>2012-04-30T15:55:10Z</time>
   </trkpt>
   <trkpt lat="46.2791442871094" lon="7.23436737060547">
    <ele>1295.64990234375</ele>
    <time>2012-04-30T15:55:11Z</time>
   </trkpt>
   <trkpt lat="46.2791709899902" lon="7.23437595367432">
    <ele>1296.19995117188</ele>
    <time>2012-04-30T15:55:12Z</time>
   </trkpt>
   <trkpt lat="46.2792015075684" lon="7.23438215255737">
    <ele>1296.19995117188</ele>
    <time>2012-04-30T15:55:13Z</time>
   </trkpt>
   <trkpt lat="46.2792701721191" lon="7.23439311981201">
    <ele>1296.98742675781</ele>
    <time>2012-04-30T15:55:16Z</time>
   </trkpt>
   <trkpt lat="46.2792930603027" lon="7.23439264297485">
    <ele>1297.25</ele>
    <time>2012-04-30T15:55:17Z</time>
   </trkpt>
   <trkpt lat="46.2793159484863" lon="7.23439168930054">
    <ele>1297.51245117188</ele>
    <time>2012-04-30T15:55:18Z</time>
   </trkpt>
   <trkpt lat="46.2793350219727" lon="7.23438262939453">
    <ele>1297.77502441406</ele>
    <time>2012-04-30T15:55:19Z</time>
   </trkpt>
   <trkpt lat="46.279354095459" lon="7.23437452316284">
    <ele>1298.03747558594</ele>
    <time>2012-04-30T15:55:20Z</time>
   </trkpt>
   <trkpt lat="46.2794761657715" lon="7.23432016372681">
    <ele>1299.34997558594</ele>
    <time>2012-04-30T15:55:25Z</time>
   </trkpt>
   <trkpt lat="46.2795028686523" lon="7.23431921005249">
    <ele>1299.61254882812</ele>
    <time>2012-04-30T15:55:26Z</time>
   </trkpt>
   <trkpt lat="46.2795257568359" lon="7.23430967330933">
    <ele>1299.875</ele>
    <time>2012-04-30T15:55:27Z</time>
   </trkpt>
   <trkpt lat="46.2795448303223" lon="7.23430013656616">
    <ele>1300.13757324219</ele>
    <time>2012-04-30T15:55:28Z</time>
   </trkpt>
   <trkpt lat="46.2795715332031" lon="7.23429107666016">
    <ele>1300.40002441406</ele>
    <time>2012-04-30T15:55:29Z</time>
   </trkpt>
   <trkpt lat="46.2796096801758" lon="7.2342643737793">
    <ele>1300.40002441406</ele>
    <time>2012-04-30T15:55:31Z</time>
   </trkpt>
   <trkpt lat="46.2796821594238" lon="7.23417806625366">
    <ele>1301.5</ele>
    <time>2012-04-30T15:55:35Z</time>
   </trkpt>
   <trkpt lat="46.2797012329102" lon="7.23414754867554">
    <ele>1301.77502441406</ele>
    <time>2012-04-30T15:55:36Z</time>
   </trkpt>
   <trkpt lat="46.2797203063965" lon="7.23411703109741">
    <ele>1302.05004882812</ele>
    <time>2012-04-30T15:55:37Z</time>
   </trkpt>
   <trkpt lat="46.2797355651856" lon="7.23409509658814">
    <ele>1302.32495117188</ele>
    <time>2012-04-30T15:55:38Z</time>
   </trkpt>
   <trkpt lat="46.2797431945801" lon="7.23407411575317">
    <ele>1302.59997558594</ele>
    <time>2012-04-30T15:55:39Z</time>
   </trkpt>
   <trkpt lat="46.2797698974609" lon="7.23400020599365">
    <ele>1302.59997558594</ele>
    <time>2012-04-30T15:55:42Z</time>
   </trkpt>
   <trkpt lat="46.2797775268555" lon="7.23393440246582">
    <ele>1303.125</ele>
    <time>2012-04-30T15:55:44Z</time>
   </trkpt>
   <trkpt lat="46.27978515625" lon="7.23389673233032">
    <ele>1303.38745117188</ele>
    <time>2012-04-30T15:55:45Z</time>
   </trkpt>
   <trkpt lat="46.2797927856445" lon="7.23386144638062">
    <ele>1303.65002441406</ele>
    <time>2012-04-30T15:55:46Z</time>
   </trkpt>
   <trkpt lat="46.2797966003418" lon="7.23382997512817">
    <ele>1303.91247558594</ele>
    <time>2012-04-30T15:55:47Z</time>
   </trkpt>
   <trkpt lat="46.2798004150391" lon="7.23379850387573">
    <ele>1304.17504882812</ele>
    <time>2012-04-30T15:55:48Z</time>
   </trkpt>
   <trkpt lat="46.2798309326172" lon="7.23358774185181">
    <ele>1305.75</ele>
    <time>2012-04-30T15:55:54Z</time>
   </trkpt>
   <trkpt lat="46.2798385620117" lon="7.23355674743652">
    <ele>1306.01257324219</ele>
    <time>2012-04-30T15:55:55Z</time>
   </trkpt>
   <trkpt lat="46.2798500061035" lon="7.23352479934692">
    <ele>1306.27502441406</ele>
    <time>2012-04-30T15:55:56Z</time>
   </trkpt>
   <trkpt lat="46.2798614501953" lon="7.23349332809448">
    <ele>1306.53759765625</ele>
    <time>2012-04-30T15:55:57Z</time>
   </trkpt>
   <trkpt lat="46.2798728942871" lon="7.23346757888794">
    <ele>1306.80004882812</ele>
    <time>2012-04-30T15:55:58Z</time>
   </trkpt>
   <trkpt lat="46.2798957824707" lon="7.23341464996338">
    <ele>1306.80004882812</ele>
    <time>2012-04-30T15:56:00Z</time>
   </trkpt>
   <trkpt lat="46.2799224853516" lon="7.23336124420166">
    <ele>1307.53332519531</ele>
    <time>2012-04-30T15:56:02Z</time>
   </trkpt>
   <trkpt lat="46.2799339294434" lon="7.23333311080933">
    <ele>1307.90002441406</ele>
    <time>2012-04-30T15:56:03Z</time>
   </trkpt>
   <trkpt lat="46.2799453735352" lon="7.23330163955688">
    <ele>1308.26672363281</ele>
    <time>2012-04-30T15:56:04Z</time>
   </trkpt>
   <trkpt lat="46.2799606323242" lon="7.23327159881592">
    <ele>1308.63330078125</ele>
    <time>2012-04-30T15:56:05Z</time>
   </trkpt>
   <trkpt lat="46.279972076416" lon="7.23323965072632">
    <ele>1309</ele>
    <time>2012-04-30T15:56:06Z</time>
   </trkpt>
   <trkpt lat="46.2800598144531" lon="7.23305177688599">
    <ele>1309</ele>
    <time>2012-04-30T15:56:12Z</time>
   </trkpt>
   <trkpt lat="46.2800788879394" lon="7.23302316665649">
    <ele>1309.40002441406</ele>
    <time>2012-04-30T15:56:13Z</time>
   </trkpt>
   <trkpt lat="46.2800979614258" lon="7.232994556427">
    <ele>1309.80004882812</ele>
    <time>2012-04-30T15:56:14Z</time>
   </trkpt>
   <trkpt lat="46.2801170349121" lon="7.23296213150024">
    <ele>1310.19995117188</ele>
    <time>2012-04-30T15:56:15Z</time>
   </trkpt>
   <trkpt lat="46.2801322937012" lon="7.23292827606201">
    <ele>1310.59997558594</ele>
    <time>2012-04-30T15:56:16Z</time>
   </trkpt>
   <trkpt lat="46.2801475524902" lon="7.23289918899536">
    <ele>1311</ele>
    <time>2012-04-30T15:56:17Z</time>
   </trkpt>
   <trkpt lat="46.2801818847656" lon="7.23284578323364">
    <ele>1311</ele>
    <time>2012-04-30T15:56:19Z</time>
   </trkpt>
   <trkpt lat="46.2802200317383" lon="7.23279714584351">
    <ele>1311.73327636719</ele>
    <time>2012-04-30T15:56:21Z</time>
   </trkpt>
   <trkpt lat="46.2802352905273" lon="7.23276901245117">
    <ele>1312.09997558594</ele>
    <time>2012-04-30T15:56:22Z</time>
   </trkpt>
   <trkpt lat="46.2802505493164" lon="7.232741355896">
    <ele>1312.46667480469</ele>
    <time>2012-04-30T15:56:23Z</time>
   </trkpt>
   <trkpt lat="46.2802696228027" lon="7.23271989822388">
    <ele>1312.83325195312</ele>
    <time>2012-04-30T15:56:24Z</time>
   </trkpt>
   <trkpt lat="46.2802886962891" lon="7.23269939422607">
    <ele>1313.19995117188</ele>
    <time>2012-04-30T15:56:25Z</time>
   </trkpt>
   <trkpt lat="46.2803344726562" lon="7.23266744613648">
    <ele>1313.19995117188</ele>
    <time>2012-04-30T15:56:27Z</time>
   </trkpt>
   <trkpt lat="46.280445098877" lon="7.23259735107422">
    <ele>1314.42224121094</ele>
    <time>2012-04-30T15:56:32Z</time>
   </trkpt>
   <trkpt lat="46.2804679870606" lon="7.2325849533081">
    <ele>1314.66662597656</ele>
    <time>2012-04-30T15:56:33Z</time>
   </trkpt>
   <trkpt lat="46.2804908752441" lon="7.23257732391357">
    <ele>1314.9111328125</ele>
    <time>2012-04-30T15:56:34Z</time>
   </trkpt>
   <trkpt lat="46.280517578125" lon="7.23256587982178">
    <ele>1315.15551757812</ele>
    <time>2012-04-30T15:56:35Z</time>
   </trkpt>
   <trkpt lat="46.2805404663086" lon="7.23255395889282">
    <ele>1315.40002441406</ele>
    <time>2012-04-30T15:56:36Z</time>
   </trkpt>
   <trkpt lat="46.2806777954102" lon="7.23248815536499">
    <ele>1315.40002441406</ele>
    <time>2012-04-30T15:56:41Z</time>
   </trkpt>
   <trkpt lat="46.2808685302734" lon="7.23238754272461">
    <ele>1316.67272949219</ele>
    <time>2012-04-30T15:56:48Z</time>
   </trkpt>
   <trkpt lat="46.2808990478516" lon="7.23235988616943">
    <ele>1316.85461425781</ele>
    <time>2012-04-30T15:56:49Z</time>
   </trkpt>
   <trkpt lat="46.2809257507324" lon="7.23233318328857">
    <ele>1317.03637695312</ele>
    <time>2012-04-30T15:56:50Z</time>
   </trkpt>
   <trkpt lat="46.2809562683106" lon="7.2323055267334">
    <ele>1317.21826171875</ele>
    <time>2012-04-30T15:56:51Z</time>
   </trkpt>
   <trkpt lat="46.2809791564941" lon="7.23227548599243">
    <ele>1317.40002441406</ele>
    <time>2012-04-30T15:56:52Z</time>
   </trkpt>
   <trkpt lat="46.2810363769531" lon="7.23221635818482">
    <ele>1317.40002441406</ele>
    <time>2012-04-30T15:56:54Z</time>
   </trkpt>
   <trkpt lat="46.28125" lon="7.23197317123413">
    <ele>1318.20007324219</ele>
    <time>2012-04-30T15:57:02Z</time>
   </trkpt>
   <trkpt lat="46.2813568115234" lon="7.23183965682983">
    <ele>1318.59997558594</ele>
    <time>2012-04-30T15:57:06Z</time>
   </trkpt>
   <trkpt lat="46.2814979553223" lon="7.23167610168457">
    <ele>1319.09997558594</ele>
    <time>2012-04-30T15:57:11Z</time>
   </trkpt>
   <trkpt lat="46.2815246582031" lon="7.23164367675781">
    <ele>1319.20007324219</ele>
    <time>2012-04-30T15:57:12Z</time>
   </trkpt>
   <trkpt lat="46.281551361084" lon="7.23160457611084">
    <ele>1319.30004882812</ele>
    <time>2012-04-30T15:57:13Z</time>
   </trkpt>
   <trkpt lat="46.2815818786621" lon="7.23156881332398">
    <ele>1319.40002441406</ele>
    <time>2012-04-30T15:57:14Z</time>
   </trkpt>
   <trkpt lat="46.2816429138184" lon="7.23150205612183">
    <ele>1319.40002441406</ele>
    <time>2012-04-30T15:57:16Z</time>
   </trkpt>
   <trkpt lat="46.2818450927734" lon="7.23136186599732">
    <ele>1320.34289550781</ele>
    <time>2012-04-30T15:57:22Z</time>
   </trkpt>
   <trkpt lat="46.2819938659668" lon="7.23128175735474">
    <ele>1320.97143554688</ele>
    <time>2012-04-30T15:57:26Z</time>
   </trkpt>
   <trkpt lat="46.2820320129394" lon="7.23127222061157">
    <ele>1321.12854003906</ele>
    <time>2012-04-30T15:57:27Z</time>
   </trkpt>
   <trkpt lat="46.2820663452148" lon="7.23126697540283">
    <ele>1321.28564453125</ele>
    <time>2012-04-30T15:57:28Z</time>
   </trkpt>
   <trkpt lat="46.2821044921875" lon="7.23126125335693">
    <ele>1321.44287109375</ele>
    <time>2012-04-30T15:57:29Z</time>
   </trkpt>
   <trkpt lat="46.2821388244629" lon="7.23125982284546">
    <ele>1321.59997558594</ele>
    <time>2012-04-30T15:57:30Z</time>
   </trkpt>
   <trkpt lat="46.2823143005371" lon="7.23120164871216">
    <ele>1321.59997558594</ele>
    <time>2012-04-30T15:57:35Z</time>
   </trkpt>
   <trkpt lat="46.2824668884277" lon="7.2311053276062">
    <ele>1322.43334960938</ele>
    <time>2012-04-30T15:57:40Z</time>
   </trkpt>
   <trkpt lat="46.2825584411621" lon="7.23104429244995">
    <ele>1322.93334960938</ele>
    <time>2012-04-30T15:57:43Z</time>
   </trkpt>
   <trkpt lat="46.2825889587402" lon="7.23102617263794">
    <ele>1323.09997558594</ele>
    <time>2012-04-30T15:57:44Z</time>
   </trkpt>
   <trkpt lat="46.2826194763184" lon="7.23100471496582">
    <ele>1323.2666015625</ele>
    <time>2012-04-30T15:57:45Z</time>
   </trkpt>
   <trkpt lat="46.2826499938965" lon="7.23098707199097">
    <ele>1323.43334960938</ele>
    <time>2012-04-30T15:57:46Z</time>
   </trkpt>
   <trkpt lat="46.2826843261719" lon="7.23097229003906">
    <ele>1323.59997558594</ele>
    <time>2012-04-30T15:57:47Z</time>
   </trkpt>
   <trkpt lat="46.2827491760254" lon="7.23093795776367">
    <ele>1323.59997558594</ele>
    <time>2012-04-30T15:57:49Z</time>
   </trkpt>
   <trkpt lat="46.2830085754394" lon="7.23083400726318">
    <ele>1324.95385742188</ele>
    <time>2012-04-30T15:57:57Z</time>
   </trkpt>
   <trkpt lat="46.2830352783203" lon="7.2308177947998">
    <ele>1325.123046875</ele>
    <time>2012-04-30T15:57:58Z</time>
   </trkpt>
   <trkpt lat="46.2830619812012" lon="7.23080492019653">
    <ele>1325.29235839844</ele>
    <time>2012-04-30T15:57:59Z</time>
   </trkpt>
   <trkpt lat="46.2830924987793" lon="7.23079204559326">
    <ele>1325.46154785156</ele>
    <time>2012-04-30T15:58:00Z</time>
   </trkpt>
   <trkpt lat="46.2831268310547" lon="7.23077535629272">
    <ele>1325.630859375</ele>
    <time>2012-04-30T15:58:01Z</time>
   </trkpt>
   <trkpt lat="46.2831573486328" lon="7.23075819015503">
    <ele>1325.80004882812</ele>
    <time>2012-04-30T15:58:02Z</time>
   </trkpt>
   <trkpt lat="46.2832145690918" lon="7.23071908950806">
    <ele>1325.80004882812</ele>
    <time>2012-04-30T15:58:04Z</time>
   </trkpt>
   <trkpt lat="46.283275604248" lon="7.23069334030151">
    <ele>1326.48803710938</ele>
    <time>2012-04-30T15:58:06Z</time>
   </trkpt>
   <trkpt lat="46.2833061218262" lon="7.23068475723267">
    <ele>1326.83203125</ele>
    <time>2012-04-30T15:58:07Z</time>
   </trkpt>
   <trkpt lat="46.283332824707" lon="7.23067426681518">
    <ele>1327.17602539062</ele>
    <time>2012-04-30T15:58:08Z</time>
   </trkpt>
   <trkpt lat="46.2833633422852" lon="7.23065280914307">
    <ele>1327.52001953125</ele>
    <time>2012-04-30T15:58:09Z</time>
   </trkpt>
   <trkpt lat="46.283390045166" lon="7.23063611984253">
    <ele>1327.86401367188</ele>
    <time>2012-04-30T15:58:10Z</time>
   </trkpt>
   <trkpt lat="46.2834510803223" lon="7.23061418533325">
    <ele>1328.55200195312</ele>
    <time>2012-04-30T15:58:12Z</time>
   </trkpt>
   <trkpt lat="46.2834777832031" lon="7.23060417175293">
    <ele>1328.89599609375</ele>
    <time>2012-04-30T15:58:13Z</time>
   </trkpt>
   <trkpt lat="46.2835083007812" lon="7.23059511184692">
    <ele>1329.23999023438</ele>
    <time>2012-04-30T15:58:14Z</time>
   </trkpt>
   <trkpt lat="46.2835388183594" lon="7.23058891296387">
    <ele>1329.583984375</ele>
    <time>2012-04-30T15:58:15Z</time>
   </trkpt>
   <trkpt lat="46.2835655212402" lon="7.23058319091797">
    <ele>1329.92797851562</ele>
    <time>2012-04-30T15:58:16Z</time>
   </trkpt>
   <trkpt lat="46.283618927002" lon="7.23056888580322">
    <ele>1330.61608886719</ele>
    <time>2012-04-30T15:58:18Z</time>
   </trkpt>
   <trkpt lat="46.2836418151856" lon="7.23056650161743">
    <ele>1330.96008300781</ele>
    <time>2012-04-30T15:58:19Z</time>
   </trkpt>
   <trkpt lat="46.2836647033691" lon="7.23056888580322">
    <ele>1331.30407714844</ele>
    <time>2012-04-30T15:58:20Z</time>
   </trkpt>
   <trkpt lat="46.2836952209473" lon="7.23059129714966">
    <ele>1331.64807128906</ele>
    <time>2012-04-30T15:58:21Z</time>
   </trkpt>
   <trkpt lat="46.2837181091309" lon="7.2306079864502">
    <ele>1331.99206542969</ele>
    <time>2012-04-30T15:58:22Z</time>
   </trkpt>
   <trkpt lat="46.283805847168" lon="7.23071384429932">
    <ele>1333.36804199219</ele>
    <time>2012-04-30T15:58:26Z</time>
   </trkpt>
   <trkpt lat="46.2838249206543" lon="7.23073196411133">
    <ele>1333.71203613281</ele>
    <time>2012-04-30T15:58:27Z</time>
   </trkpt>
   <trkpt lat="46.2838478088379" lon="7.23075580596924">
    <ele>1334.05603027344</ele>
    <time>2012-04-30T15:58:28Z</time>
   </trkpt>
   <trkpt lat="46.2838706970215" lon="7.23078346252441">
    <ele>1334.40002441406</ele>
    <time>2012-04-30T15:58:29Z</time>
   </trkpt>
   <trkpt lat="46.2839851379394" lon="7.2308931350708">
    <ele>1334.40002441406</ele>
    <time>2012-04-30T15:58:33Z</time>
   </trkpt>
   <trkpt lat="46.2840347290039" lon="7.23094034194946">
    <ele>1335.13330078125</ele>
    <time>2012-04-30T15:58:35Z</time>
   </trkpt>
   <trkpt lat="46.2840614318848" lon="7.23096323013306">
    <ele>1335.5</ele>
    <time>2012-04-30T15:58:36Z</time>
   </trkpt>
   <trkpt lat="46.2840805053711" lon="7.2309832572937">
    <ele>1335.86669921875</ele>
    <time>2012-04-30T15:58:37Z</time>
   </trkpt>
   <trkpt lat="46.2841033935547" lon="7.23100328445435">
    <ele>1336.23327636719</ele>
    <time>2012-04-30T15:58:38Z</time>
   </trkpt>
   <trkpt lat="46.284122467041" lon="7.23102331161499">
    <ele>1336.59997558594</ele>
    <time>2012-04-30T15:58:39Z</time>
   </trkpt>
   <trkpt lat="46.2841415405273" lon="7.23104858398438">
    <ele>1336.59997558594</ele>
    <time>2012-04-30T15:58:40Z</time>
   </trkpt>
   <trkpt lat="46.2841796875" lon="7.23108768463135">
    <ele>1337.2666015625</ele>
    <time>2012-04-30T15:58:42Z</time>
   </trkpt>
   <trkpt lat="46.2842025756836" lon="7.23110818862915">
    <ele>1337.59997558594</ele>
    <time>2012-04-30T15:58:43Z</time>
   </trkpt>
   <trkpt lat="46.2842216491699" lon="7.23112916946411">
    <ele>1337.93334960938</ele>
    <time>2012-04-30T15:58:44Z</time>
   </trkpt>
   <trkpt lat="46.2842445373535" lon="7.23114728927612">
    <ele>1338.2666015625</ele>
    <time>2012-04-30T15:58:45Z</time>
   </trkpt>
   <trkpt lat="46.2842674255371" lon="7.23116779327393">
    <ele>1338.59997558594</ele>
    <time>2012-04-30T15:58:46Z</time>
   </trkpt>
   <trkpt lat="46.2843055725098" lon="7.23120594024658">
    <ele>1338.59997558594</ele>
    <time>2012-04-30T15:58:48Z</time>
   </trkpt>
   <trkpt lat="46.2843437194824" lon="7.2312445640564">
    <ele>1339.40002441406</ele>
    <time>2012-04-30T15:58:50Z</time>
   </trkpt>
   <trkpt lat="46.284366607666" lon="7.23126602172852">
    <ele>1339.79992675781</ele>
    <time>2012-04-30T15:58:51Z</time>
   </trkpt>
   <trkpt lat="46.2843856811523" lon="7.23128700256348">
    <ele>1340.19995117188</ele>
    <time>2012-04-30T15:58:52Z</time>
   </trkpt>
   <trkpt lat="46.2844123840332" lon="7.23130035400391">
    <ele>1340.59997558594</ele>
    <time>2012-04-30T15:58:53Z</time>
   </trkpt>
   <trkpt lat="46.2844467163086" lon="7.23134469985962">
    <ele>1340.59997558594</ele>
    <time>2012-04-30T15:58:55Z</time>
   </trkpt>
   <trkpt lat="46.2845001220703" lon="7.23140239715576">
    <ele>1341.54284667969</ele>
    <time>2012-04-30T15:58:58Z</time>
   </trkpt>
   <trkpt lat="46.2845153808594" lon="7.23142051696777">
    <ele>1341.85717773438</ele>
    <time>2012-04-30T15:58:59Z</time>
   </trkpt>
   <trkpt lat="46.284538269043" lon="7.23144102096558">
    <ele>1342.17150878906</ele>
    <time>2012-04-30T15:59:00Z</time>
   </trkpt>
   <trkpt lat="46.284553527832" lon="7.23146486282349">
    <ele>1342.48571777344</ele>
    <time>2012-04-30T15:59:01Z</time>
   </trkpt>
   <trkpt lat="46.2845764160156" lon="7.23148393630982">
    <ele>1342.80004882812</ele>
    <time>2012-04-30T15:59:02Z</time>
   </trkpt>
   <trkpt lat="46.2845993041992" lon="7.23150491714478">
    <ele>1342.80004882812</ele>
    <time>2012-04-30T15:59:03Z</time>
   </trkpt>
   <trkpt lat="46.2847175598144" lon="7.23162984848022">
    <ele>1344.21179199219</ele>
    <time>2012-04-30T15:59:09Z</time>
   </trkpt>
   <trkpt lat="46.2847366333008" lon="7.23165225982666">
    <ele>1344.44714355469</ele>
    <time>2012-04-30T15:59:10Z</time>
   </trkpt>
   <trkpt lat="46.2847557067871" lon="7.23167371749878">
    <ele>1344.68237304688</ele>
    <time>2012-04-30T15:59:11Z</time>
   </trkpt>
   <trkpt lat="46.2847747802734" lon="7.23170185089111">
    <ele>1344.91772460938</ele>
    <time>2012-04-30T15:59:12Z</time>
   </trkpt>
   <trkpt lat="46.284797668457" lon="7.23172760009766">
    <ele>1345.15295410156</ele>
    <time>2012-04-30T15:59:13Z</time>
   </trkpt>
   <trkpt lat="46.2848777770996" lon="7.2318263053894">
    <ele>1346.09411621094</ele>
    <time>2012-04-30T15:59:17Z</time>
   </trkpt>
   <trkpt lat="46.2848968505859" lon="7.23185443878174">
    <ele>1346.32946777344</ele>
    <time>2012-04-30T15:59:18Z</time>
   </trkpt>
   <trkpt lat="46.2849159240723" lon="7.2318754196167">
    <ele>1346.56469726562</ele>
    <time>2012-04-30T15:59:19Z</time>
   </trkpt>
   <trkpt lat="46.2849311828613" lon="7.23190450668335">
    <ele>1346.80004882812</ele>
    <time>2012-04-30T15:59:20Z</time>
   </trkpt>
   <trkpt lat="46.2849960327148" lon="7.23197793960571">
    <ele>1346.80004882812</ele>
    <time>2012-04-30T15:59:23Z</time>
   </trkpt>
   <trkpt lat="46.2850570678711" lon="7.23204946517944">
    <ele>1347.74291992188</ele>
    <time>2012-04-30T15:59:26Z</time>
   </trkpt>
   <trkpt lat="46.2850761413574" lon="7.23207426071167">
    <ele>1348.05712890625</ele>
    <time>2012-04-30T15:59:27Z</time>
   </trkpt>
   <trkpt lat="46.2850952148438" lon="7.23209428787232">
    <ele>1348.37145996094</ele>
    <time>2012-04-30T15:59:28Z</time>
   </trkpt>
   <trkpt lat="46.2851142883301" lon="7.23211812973022">
    <ele>1348.68566894531</ele>
    <time>2012-04-30T15:59:29Z</time>
   </trkpt>
   <trkpt lat="46.2851333618164" lon="7.23213720321655">
    <ele>1349</ele>
    <time>2012-04-30T15:59:30Z</time>
   </trkpt>
   <trkpt lat="46.2851524353027" lon="7.23216009140015">
    <ele>1349</ele>
    <time>2012-04-30T15:59:31Z</time>
   </trkpt>
   <trkpt lat="46.2852897644043" lon="7.2322793006897">
    <ele>1350.64990234375</ele>
    <time>2012-04-30T15:59:37Z</time>
   </trkpt>
   <trkpt lat="46.2853202819824" lon="7.23228168487549">
    <ele>1350.92492675781</ele>
    <time>2012-04-30T15:59:38Z</time>
   </trkpt>
   <trkpt lat="46.2853736877441" lon="7.23228359222412">
    <ele>1351.19995117188</ele>
    <time>2012-04-30T15:59:39Z</time>
   </trkpt>
   <trkpt lat="46.2854461669922" lon="7.23224973678589">
    <ele>1351.19995117188</ele>
    <time>2012-04-30T15:59:43Z</time>
   </trkpt>
   <trkpt lat="46.2854690551758" lon="7.23223447799683">
    <ele>1351.59997558594</ele>
    <time>2012-04-30T15:59:44Z</time>
   </trkpt>
   <trkpt lat="46.2854881286621" lon="7.23220777511597">
    <ele>1352</ele>
    <time>2012-04-30T15:59:45Z</time>
   </trkpt>
   <trkpt lat="46.2855072021484" lon="7.23218441009522">
    <ele>1352.39990234375</ele>
    <time>2012-04-30T15:59:46Z</time>
   </trkpt>
   <trkpt lat="46.2855262756348" lon="7.23216152191162">
    <ele>1352.79992675781</ele>
    <time>2012-04-30T15:59:47Z</time>
   </trkpt>
   <trkpt lat="46.2855415344238" lon="7.23213052749634">
    <ele>1353.19995117188</ele>
    <time>2012-04-30T15:59:48Z</time>
   </trkpt>
   <trkpt lat="46.2855529785156" lon="7.23209476470947">
    <ele>1353.19995117188</ele>
    <time>2012-04-30T15:59:49Z</time>
   </trkpt>
   <trkpt lat="46.285587310791" lon="7.23189783096314">
    <ele>1354.42224121094</ele>
    <time>2012-04-30T15:59:54Z</time>
   </trkpt>
   <trkpt lat="46.285587310791" lon="7.23185968399048">
    <ele>1354.66662597656</ele>
    <time>2012-04-30T15:59:55Z</time>
   </trkpt>
   <trkpt lat="46.2855834960938" lon="7.23182773590088">
    <ele>1354.9111328125</ele>
    <time>2012-04-30T15:59:56Z</time>
   </trkpt>
   <trkpt lat="46.2855834960938" lon="7.23179197311401">
    <ele>1355.15551757812</ele>
    <time>2012-04-30T15:59:57Z</time>
   </trkpt>
   <trkpt lat="46.2855834960938" lon="7.23175668716431">
    <ele>1355.40002441406</ele>
    <time>2012-04-30T15:59:58Z</time>
   </trkpt>
   <trkpt lat="46.2855911254883" lon="7.23160123825073">
    <ele>1355.40002441406</ele>
    <time>2012-04-30T16:00:02Z</time>
   </trkpt>
   <trkpt lat="46.2855834960938" lon="7.23152208328247">
    <ele>1356.02856445312</ele>
    <time>2012-04-30T16:00:04Z</time>
   </trkpt>
   <trkpt lat="46.285587310791" lon="7.23147678375244">
    <ele>1356.34289550781</ele>
    <time>2012-04-30T16:00:05Z</time>
   </trkpt>
   <trkpt lat="46.285587310791" lon="7.23143720626831">
    <ele>1356.6572265625</ele>
    <time>2012-04-30T16:00:06Z</time>
   </trkpt>
   <trkpt lat="46.285587310791" lon="7.23140096664429">
    <ele>1356.97143554688</ele>
    <time>2012-04-30T16:00:07Z</time>
   </trkpt>
   <trkpt lat="46.2855911254883" lon="7.23120403289795">
    <ele>1358.54284667969</ele>
    <time>2012-04-30T16:00:12Z</time>
   </trkpt>
   <trkpt lat="46.2855911254883" lon="7.23116207122803">
    <ele>1358.85717773438</ele>
    <time>2012-04-30T16:00:13Z</time>
   </trkpt>
   <trkpt lat="46.285587310791" lon="7.2311224937439">
    <ele>1359.17150878906</ele>
    <time>2012-04-30T16:00:14Z</time>
   </trkpt>
   <trkpt lat="46.2855758666992" lon="7.23108053207398">
    <ele>1359.48571777344</ele>
    <time>2012-04-30T16:00:15Z</time>
   </trkpt>
   <trkpt lat="46.285572052002" lon="7.23103713989258">
    <ele>1359.80004882812</ele>
    <time>2012-04-30T16:00:16Z</time>
   </trkpt>
   <trkpt lat="46.2855567932129" lon="7.23091697692871">
    <ele>1359.80004882812</ele>
    <time>2012-04-30T16:00:19Z</time>
   </trkpt>
   <trkpt lat="46.2855491638184" lon="7.23088264465332">
    <ele>1360.23999023438</ele>
    <time>2012-04-30T16:00:20Z</time>
   </trkpt>
   <trkpt lat="46.2855415344238" lon="7.23084878921509">
    <ele>1360.68005371094</ele>
    <time>2012-04-30T16:00:21Z</time>
   </trkpt>
   <trkpt lat="46.2855262756348" lon="7.23081350326538">
    <ele>1361.11999511719</ele>
    <time>2012-04-30T16:00:22Z</time>
   </trkpt>
   <trkpt lat="46.285514831543" lon="7.23077774047852">
    <ele>1361.56005859375</ele>
    <time>2012-04-30T16:00:23Z</time>
   </trkpt>
   <trkpt lat="46.2855033874512" lon="7.23074007034302">
    <ele>1362</ele>
    <time>2012-04-30T16:00:24Z</time>
   </trkpt>
   <trkpt lat="46.2854766845703" lon="7.23067235946655">
    <ele>1362</ele>
    <time>2012-04-30T16:00:26Z</time>
   </trkpt>
   <trkpt lat="46.2854156494141" lon="7.23049879074097">
    <ele>1363.23999023438</ele>
    <time>2012-04-30T16:00:31Z</time>
   </trkpt>
   <trkpt lat="46.2854080200195" lon="7.23046350479126">
    <ele>1363.48803710938</ele>
    <time>2012-04-30T16:00:32Z</time>
   </trkpt>
   <trkpt lat="46.285400390625" lon="7.2304253578186">
    <ele>1363.73596191406</ele>
    <time>2012-04-30T16:00:33Z</time>
   </trkpt>
   <trkpt lat="46.2853889465332" lon="7.2303900718689">
    <ele>1363.98400878906</ele>
    <time>2012-04-30T16:00:34Z</time>
   </trkpt>
   <trkpt lat="46.2853775024414" lon="7.23024272918701">
    <ele>1364.97595214844</ele>
    <time>2012-04-30T16:00:38Z</time>
   </trkpt>
   <trkpt lat="46.2853736877441" lon="7.23020553588867">
    <ele>1365.22399902344</ele>
    <time>2012-04-30T16:00:39Z</time>
   </trkpt>
   <trkpt lat="46.2853698730469" lon="7.23017311096191">
    <ele>1365.47192382812</ele>
    <time>2012-04-30T16:00:40Z</time>
   </trkpt>
   <trkpt lat="46.2853660583496" lon="7.23013544082642">
    <ele>1365.71997070312</ele>
    <time>2012-04-30T16:00:41Z</time>
   </trkpt>
   <trkpt lat="46.2853660583496" lon="7.23009872436524">
    <ele>1365.96801757812</ele>
    <time>2012-04-30T16:00:42Z</time>
   </trkpt>
   <trkpt lat="46.2853622436523" lon="7.22990655899048">
    <ele>1367.2080078125</ele>
    <time>2012-04-30T16:00:47Z</time>
   </trkpt>
   <trkpt lat="46.2853622436523" lon="7.22986936569214">
    <ele>1367.45593261719</ele>
    <time>2012-04-30T16:00:48Z</time>
   </trkpt>
   <trkpt lat="46.2853660583496" lon="7.22983551025391">
    <ele>1367.70397949219</ele>
    <time>2012-04-30T16:00:49Z</time>
   </trkpt>
   <trkpt lat="46.2853660583496" lon="7.22980451583862">
    <ele>1367.95190429688</ele>
    <time>2012-04-30T16:00:50Z</time>
   </trkpt>
   <trkpt lat="46.2853660583496" lon="7.2297682762146">
    <ele>1368.19995117188</ele>
    <time>2012-04-30T16:00:51Z</time>
   </trkpt>
   <trkpt lat="46.2853736877441" lon="7.22962617874146">
    <ele>1368.19995117188</ele>
    <time>2012-04-30T16:00:55Z</time>
   </trkpt>
   <trkpt lat="46.2853736877441" lon="7.22959041595459">
    <ele>1368.69995117188</ele>
    <time>2012-04-30T16:00:56Z</time>
   </trkpt>
   <trkpt lat="46.2853698730469" lon="7.22955369949341">
    <ele>1369.19995117188</ele>
    <time>2012-04-30T16:00:57Z</time>
   </trkpt>
   <trkpt lat="46.2853698730469" lon="7.22951555252075">
    <ele>1369.69995117188</ele>
    <time>2012-04-30T16:00:58Z</time>
   </trkpt>
   <trkpt lat="46.2853698730469" lon="7.22947549819946">
    <ele>1370.19995117188</ele>
    <time>2012-04-30T16:00:59Z</time>
   </trkpt>
   <trkpt lat="46.2853660583496" lon="7.22943830490112">
    <ele>1370.19995117188</ele>
    <time>2012-04-30T16:01:00Z</time>
   </trkpt>
   <trkpt lat="46.2853469848633" lon="7.22921800613403">
    <ele>1371.64697265625</ele>
    <time>2012-04-30T16:01:06Z</time>
   </trkpt>
   <trkpt lat="46.2853355407715" lon="7.2291841506958">
    <ele>1371.88818359375</ele>
    <time>2012-04-30T16:01:07Z</time>
   </trkpt>
   <trkpt lat="46.2853317260742" lon="7.22915124893188">
    <ele>1372.12939453125</ele>
    <time>2012-04-30T16:01:08Z</time>
   </trkpt>
   <trkpt lat="46.2853202819824" lon="7.2291202545166">
    <ele>1372.37060546875</ele>
    <time>2012-04-30T16:01:09Z</time>
   </trkpt>
   <trkpt lat="46.2853164672852" lon="7.22908735275268">
    <ele>1372.61169433594</ele>
    <time>2012-04-30T16:01:10Z</time>
   </trkpt>
   <trkpt lat="46.2852821350098" lon="7.22891235351562">
    <ele>1373.81762695312</ele>
    <time>2012-04-30T16:01:15Z</time>
   </trkpt>
   <trkpt lat="46.2852745056152" lon="7.22887754440308">
    <ele>1374.05883789062</ele>
    <time>2012-04-30T16:01:16Z</time>
   </trkpt>
   <trkpt lat="46.2852668762207" lon="7.22884559631348">
    <ele>1374.30004882812</ele>
    <time>2012-04-30T16:01:17Z</time>
   </trkpt>
   <trkpt lat="46.2852592468262" lon="7.22881317138672">
    <ele>1374.54113769531</ele>
    <time>2012-04-30T16:01:18Z</time>
   </trkpt>
   <trkpt lat="46.2852516174316" lon="7.22878074645996">
    <ele>1374.78234863281</ele>
    <time>2012-04-30T16:01:19Z</time>
   </trkpt>
   <trkpt lat="46.2852249145508" lon="7.2286810874939">
    <ele>1375.505859375</ele>
    <time>2012-04-30T16:01:22Z</time>
   </trkpt>
   <trkpt lat="46.2852172851562" lon="7.22864580154419">
    <ele>1375.7470703125</ele>
    <time>2012-04-30T16:01:23Z</time>
   </trkpt>
   <trkpt lat="46.2852096557617" lon="7.22861099243164">
    <ele>1375.98828125</ele>
    <time>2012-04-30T16:01:24Z</time>
   </trkpt>
   <trkpt lat="46.2852020263672" lon="7.22857475280762">
    <ele>1376.22937011719</ele>
    <time>2012-04-30T16:01:25Z</time>
   </trkpt>
   <trkpt lat="46.2851524353027" lon="7.22840595245361">
    <ele>1377.43530273438</ele>
    <time>2012-04-30T16:01:30Z</time>
   </trkpt>
   <trkpt lat="46.2851448059082" lon="7.22837114334106">
    <ele>1377.67651367188</ele>
    <time>2012-04-30T16:01:31Z</time>
   </trkpt>
   <trkpt lat="46.2851371765137" lon="7.22833824157715">
    <ele>1377.91772460938</ele>
    <time>2012-04-30T16:01:32Z</time>
   </trkpt>
   <trkpt lat="46.2851295471191" lon="7.22830581665039">
    <ele>1378.15881347656</ele>
    <time>2012-04-30T16:01:33Z</time>
   </trkpt>
   <trkpt lat="46.2851181030273" lon="7.228271484375">
    <ele>1378.40002441406</ele>
    <time>2012-04-30T16:01:34Z</time>
   </trkpt>
   <trkpt lat="46.285099029541" lon="7.2281665802002">
    <ele>1378.40002441406</ele>
    <time>2012-04-30T16:01:37Z</time>
   </trkpt>
   <trkpt lat="46.2850914001465" lon="7.22809505462646">
    <ele>1379.13330078125</ele>
    <time>2012-04-30T16:01:39Z</time>
   </trkpt>
   <trkpt lat="46.2850875854492" lon="7.22805738449097">
    <ele>1379.5</ele>
    <time>2012-04-30T16:01:40Z</time>
   </trkpt>
   <trkpt lat="46.285083770752" lon="7.22802066802978">
    <ele>1379.86669921875</ele>
    <time>2012-04-30T16:01:41Z</time>
   </trkpt>
   <trkpt lat="46.2850761413574" lon="7.22798538208008">
    <ele>1380.23327636719</ele>
    <time>2012-04-30T16:01:42Z</time>
   </trkpt>
   <trkpt lat="46.2850761413574" lon="7.227952003479">
    <ele>1380.59997558594</ele>
    <time>2012-04-30T16:01:43Z</time>
   </trkpt>
   <trkpt lat="46.285083770752" lon="7.22784519195557">
    <ele>1380.59997558594</ele>
    <time>2012-04-30T16:01:46Z</time>
   </trkpt>
   <trkpt lat="46.2850914001465" lon="7.22781324386597">
    <ele>1381.0400390625</ele>
    <time>2012-04-30T16:01:47Z</time>
   </trkpt>
   <trkpt lat="46.2850952148438" lon="7.2277774810791">
    <ele>1381.47998046875</ele>
    <time>2012-04-30T16:01:48Z</time>
   </trkpt>
   <trkpt lat="46.2851028442383" lon="7.22775030136108">
    <ele>1381.92004394531</ele>
    <time>2012-04-30T16:01:49Z</time>
   </trkpt>
   <trkpt lat="46.2851066589356" lon="7.22772073745728">
    <ele>1382.35998535156</ele>
    <time>2012-04-30T16:01:50Z</time>
   </trkpt>
   <trkpt lat="46.2851181030273" lon="7.22768497467041">
    <ele>1382.80004882812</ele>
    <time>2012-04-30T16:01:51Z</time>
   </trkpt>
   <trkpt lat="46.2851295471191" lon="7.2276463508606">
    <ele>1382.80004882812</ele>
    <time>2012-04-30T16:01:52Z</time>
   </trkpt>
   <trkpt lat="46.2851638793945" lon="7.2275013923645">
    <ele>1383.78833007812</ele>
    <time>2012-04-30T16:01:56Z</time>
   </trkpt>
   <trkpt lat="46.2851715087891" lon="7.2274661064148">
    <ele>1384.03527832031</ele>
    <time>2012-04-30T16:01:57Z</time>
   </trkpt>
   <trkpt lat="46.2851791381836" lon="7.2274284362793">
    <ele>1384.28234863281</ele>
    <time>2012-04-30T16:01:58Z</time>
   </trkpt>
   <trkpt lat="46.2851867675781" lon="7.22739505767822">
    <ele>1384.52941894531</ele>
    <time>2012-04-30T16:01:59Z</time>
   </trkpt>
   <trkpt lat="46.2851943969727" lon="7.22735500335693">
    <ele>1384.77648925781</ele>
    <time>2012-04-30T16:02:00Z</time>
   </trkpt>
   <trkpt lat="46.2852401733398" lon="7.22715616226196">
    <ele>1386.01171875</ele>
    <time>2012-04-30T16:02:05Z</time>
   </trkpt>
   <trkpt lat="46.2852439880371" lon="7.22711944580078">
    <ele>1386.2587890625</ele>
    <time>2012-04-30T16:02:06Z</time>
   </trkpt>
   <trkpt lat="46.2852478027344" lon="7.22707462310791">
    <ele>1386.505859375</ele>
    <time>2012-04-30T16:02:07Z</time>
   </trkpt>
   <trkpt lat="46.2852516174316" lon="7.22703647613525">
    <ele>1386.7529296875</ele>
    <time>2012-04-30T16:02:08Z</time>
   </trkpt>
   <trkpt lat="46.2852592468262" lon="7.22699451446533">
    <ele>1387</ele>
    <time>2012-04-30T16:02:09Z</time>
   </trkpt>
   <trkpt lat="46.285270690918" lon="7.22694969177246">
    <ele>1387</ele>
    <time>2012-04-30T16:02:10Z</time>
   </trkpt>
   <trkpt lat="46.2852783203125" lon="7.22690486907959">
    <ele>1387.40002441406</ele>
    <time>2012-04-30T16:02:11Z</time>
   </trkpt>
   <trkpt lat="46.2852897644043" lon="7.2268590927124">
    <ele>1387.80004882812</ele>
    <time>2012-04-30T16:02:12Z</time>
   </trkpt>
   <trkpt lat="46.2852897644043" lon="7.2268180847168">
    <ele>1388.19995117188</ele>
    <time>2012-04-30T16:02:13Z</time>
   </trkpt>
   <trkpt lat="46.2852973937988" lon="7.22678804397583">
    <ele>1388.59997558594</ele>
    <time>2012-04-30T16:02:14Z</time>
   </trkpt>
   <trkpt lat="46.2853012084961" lon="7.2267541885376">
    <ele>1389</ele>
    <time>2012-04-30T16:02:15Z</time>
   </trkpt>
   <trkpt lat="46.2853088378906" lon="7.226722240448">
    <ele>1389</ele>
    <time>2012-04-30T16:02:16Z</time>
   </trkpt>
   <trkpt lat="46.2853317260742" lon="7.22662162780762">
    <ele>1389.94287109375</ele>
    <time>2012-04-30T16:02:19Z</time>
   </trkpt>
   <trkpt lat="46.2853393554688" lon="7.22659111022949">
    <ele>1390.25708007812</ele>
    <time>2012-04-30T16:02:20Z</time>
   </trkpt>
   <trkpt lat="46.2853507995606" lon="7.2265567779541">
    <ele>1390.57141113281</ele>
    <time>2012-04-30T16:02:21Z</time>
   </trkpt>
   <trkpt lat="46.2853622436523" lon="7.22652578353882">
    <ele>1390.88562011719</ele>
    <time>2012-04-30T16:02:22Z</time>
   </trkpt>
   <trkpt lat="46.2853660583496" lon="7.2264928817749">
    <ele>1391.19995117188</ele>
    <time>2012-04-30T16:02:23Z</time>
   </trkpt>
   <trkpt lat="46.2854232788086" lon="7.2263240814209">
    <ele>1391.19995117188</ele>
    <time>2012-04-30T16:02:28Z</time>
   </trkpt>
   <trkpt lat="46.2854347229004" lon="7.22629261016846">
    <ele>1391.56665039062</ele>
    <time>2012-04-30T16:02:29Z</time>
   </trkpt>
   <trkpt lat="46.2854461669922" lon="7.22625923156738">
    <ele>1391.93334960938</ele>
    <time>2012-04-30T16:02:30Z</time>
   </trkpt>
   <trkpt lat="46.285457611084" lon="7.22622537612915">
    <ele>1392.29992675781</ele>
    <time>2012-04-30T16:02:31Z</time>
   </trkpt>
   <trkpt lat="46.2854690551758" lon="7.22619390487671">
    <ele>1392.66662597656</ele>
    <time>2012-04-30T16:02:32Z</time>
   </trkpt>
   <trkpt lat="46.2854766845703" lon="7.22616243362427">
    <ele>1393.03332519531</ele>
    <time>2012-04-30T16:02:33Z</time>
   </trkpt>
   <trkpt lat="46.2855072021484" lon="7.2260684967041">
    <ele>1394.13330078125</ele>
    <time>2012-04-30T16:02:36Z</time>
   </trkpt>
   <trkpt lat="46.2855224609375" lon="7.22603416442871">
    <ele>1394.5</ele>
    <time>2012-04-30T16:02:37Z</time>
   </trkpt>
   <trkpt lat="46.2855339050293" lon="7.22599744796753">
    <ele>1394.86669921875</ele>
    <time>2012-04-30T16:02:38Z</time>
   </trkpt>
   <trkpt lat="46.2855453491211" lon="7.22596216201782">
    <ele>1395.23327636719</ele>
    <time>2012-04-30T16:02:39Z</time>
   </trkpt>
   <trkpt lat="46.2855567932129" lon="7.22593116760254">
    <ele>1395.59997558594</ele>
    <time>2012-04-30T16:02:40Z</time>
   </trkpt>
   <trkpt lat="46.2855834960938" lon="7.22582674026489">
    <ele>1395.59997558594</ele>
    <time>2012-04-30T16:02:43Z</time>
   </trkpt>
   <trkpt lat="46.2856025695801" lon="7.2257513999939">
    <ele>1396.16003417969</ele>
    <time>2012-04-30T16:02:45Z</time>
   </trkpt>
   <trkpt lat="46.2856063842773" lon="7.22571754455566">
    <ele>1396.43994140625</ele>
    <time>2012-04-30T16:02:46Z</time>
   </trkpt>
   <trkpt lat="46.2856216430664" lon="7.22567892074585">
    <ele>1396.71997070312</ele>
    <time>2012-04-30T16:02:47Z</time>
   </trkpt>
   <trkpt lat="46.2856330871582" lon="7.2256498336792">
    <ele>1397</ele>
    <time>2012-04-30T16:02:48Z</time>
   </trkpt>
   <trkpt lat="46.28564453125" lon="7.22560691833496">
    <ele>1397.28002929688</ele>
    <time>2012-04-30T16:02:49Z</time>
   </trkpt>
   <trkpt lat="46.2856826782227" lon="7.22544097900391">
    <ele>1398.68005371094</ele>
    <time>2012-04-30T16:02:54Z</time>
   </trkpt>
   <trkpt lat="46.2856826782227" lon="7.2254114151001">
    <ele>1398.96008300781</ele>
    <time>2012-04-30T16:02:55Z</time>
   </trkpt>
   <trkpt lat="46.2856864929199" lon="7.22537708282471">
    <ele>1399.23999023438</ele>
    <time>2012-04-30T16:02:56Z</time>
   </trkpt>
   <trkpt lat="46.2856864929199" lon="7.22533845901489">
    <ele>1399.52001953125</ele>
    <time>2012-04-30T16:02:57Z</time>
   </trkpt>
   <trkpt lat="46.2856979370117" lon="7.22530364990234">
    <ele>1399.80004882812</ele>
    <time>2012-04-30T16:02:58Z</time>
   </trkpt>
   <trkpt lat="46.2857131958008" lon="7.2251992225647">
    <ele>1399.80004882812</ele>
    <time>2012-04-30T16:03:01Z</time>
   </trkpt>
   <trkpt lat="46.2857284545898" lon="7.22512149810791">
    <ele>1400.35998535156</ele>
    <time>2012-04-30T16:03:03Z</time>
   </trkpt>
   <trkpt lat="46.2857322692871" lon="7.22507810592651">
    <ele>1400.64001464844</ele>
    <time>2012-04-30T16:03:04Z</time>
   </trkpt>
   <trkpt lat="46.2857437133789" lon="7.22503995895386">
    <ele>1400.92004394531</ele>
    <time>2012-04-30T16:03:05Z</time>
   </trkpt>
   <trkpt lat="46.2857513427734" lon="7.22500371932983">
    <ele>1401.20007324219</ele>
    <time>2012-04-30T16:03:06Z</time>
   </trkpt>
   <trkpt lat="46.285758972168" lon="7.22497034072876">
    <ele>1401.47998046875</ele>
    <time>2012-04-30T16:03:07Z</time>
   </trkpt>
   <trkpt lat="46.2857933044434" lon="7.22478437423706">
    <ele>1402.88000488281</ele>
    <time>2012-04-30T16:03:12Z</time>
   </trkpt>
   <trkpt lat="46.2858009338379" lon="7.22474956512451">
    <ele>1403.16003417969</ele>
    <time>2012-04-30T16:03:13Z</time>
   </trkpt>
   <trkpt lat="46.2858123779297" lon="7.22471284866333">
    <ele>1403.44006347656</ele>
    <time>2012-04-30T16:03:14Z</time>
   </trkpt>
   <trkpt lat="46.2858238220215" lon="7.22467470169067">
    <ele>1403.71997070312</ele>
    <time>2012-04-30T16:03:15Z</time>
   </trkpt>
   <trkpt lat="46.285831451416" lon="7.22463941574097">
    <ele>1404</ele>
    <time>2012-04-30T16:03:16Z</time>
   </trkpt>
   <trkpt lat="46.2859001159668" lon="7.22448539733887">
    <ele>1404</ele>
    <time>2012-04-30T16:03:21Z</time>
   </trkpt>
   <trkpt lat="46.2859230041504" lon="7.2244086265564">
    <ele>1404.88000488281</ele>
    <time>2012-04-30T16:03:23Z</time>
   </trkpt>
   <trkpt lat="46.2859306335449" lon="7.22436571121216">
    <ele>1405.31994628906</ele>
    <time>2012-04-30T16:03:24Z</time>
   </trkpt>
   <trkpt lat="46.2859268188477" lon="7.2243242263794">
    <ele>1405.76000976562</ele>
    <time>2012-04-30T16:03:25Z</time>
   </trkpt>
   <trkpt lat="46.2859115600586" lon="7.22428941726685">
    <ele>1406.19995117188</ele>
    <time>2012-04-30T16:03:26Z</time>
   </trkpt>
   <trkpt lat="46.2858352661133" lon="7.22427463531494">
    <ele>1406.19995117188</ele>
    <time>2012-04-30T16:03:29Z</time>
   </trkpt>
   <trkpt lat="46.2857627868652" lon="7.22438192367554">
    <ele>1407.19995117188</ele>
    <time>2012-04-30T16:03:33Z</time>
   </trkpt>
   <trkpt lat="46.2857437133789" lon="7.22440910339356">
    <ele>1407.44995117188</ele>
    <time>2012-04-30T16:03:34Z</time>
   </trkpt>
   <trkpt lat="46.2857284545898" lon="7.22443914413452">
    <ele>1407.69995117188</ele>
    <time>2012-04-30T16:03:35Z</time>
   </trkpt>
   <trkpt lat="46.2857131958008" lon="7.22446966171265">
    <ele>1407.94995117188</ele>
    <time>2012-04-30T16:03:36Z</time>
   </trkpt>
   <trkpt lat="46.2856903076172" lon="7.22449493408203">
    <ele>1408.19995117188</ele>
    <time>2012-04-30T16:03:37Z</time>
   </trkpt>
   <trkpt lat="46.2856254577637" lon="7.22456884384155">
    <ele>1408.19995117188</ele>
    <time>2012-04-30T16:03:40Z</time>
   </trkpt>
   <trkpt lat="46.285530090332" lon="7.22464370727539">
    <ele>1408.98742675781</ele>
    <time>2012-04-30T16:03:43Z</time>
   </trkpt>
   <trkpt lat="46.2854957580566" lon="7.22465991973877">
    <ele>1409.51245117188</ele>
    <time>2012-04-30T16:03:45Z</time>
   </trkpt>
   <trkpt lat="46.2854690551758" lon="7.22466230392456">
    <ele>1409.77502441406</ele>
    <time>2012-04-30T16:03:46Z</time>
   </trkpt>
   <trkpt lat="46.2854461669922" lon="7.22466516494751">
    <ele>1410.03747558594</ele>
    <time>2012-04-30T16:03:47Z</time>
   </trkpt>
   <trkpt lat="46.2853317260742" lon="7.22460985183716">
    <ele>1411.34997558594</ele>
    <time>2012-04-30T16:03:52Z</time>
   </trkpt>
   <trkpt lat="46.2853126525879" lon="7.22459173202515">
    <ele>1411.61254882812</ele>
    <time>2012-04-30T16:03:53Z</time>
   </trkpt>
   <trkpt lat="46.2852897644043" lon="7.22457885742188">
    <ele>1411.875</ele>
    <time>2012-04-30T16:03:54Z</time>
   </trkpt>
   <trkpt lat="46.285270690918" lon="7.22455883026123">
    <ele>1412.13757324219</ele>
    <time>2012-04-30T16:03:55Z</time>
   </trkpt>
   <trkpt lat="46.2852516174316" lon="7.22454071044922">
    <ele>1412.40002441406</ele>
    <time>2012-04-30T16:03:56Z</time>
   </trkpt>
   <trkpt lat="46.2852096557617" lon="7.22449779510498">
    <ele>1412.40002441406</ele>
    <time>2012-04-30T16:03:58Z</time>
   </trkpt>
   <trkpt lat="46.2851448059082" lon="7.2244291305542">
    <ele>1413.27270507812</ele>
    <time>2012-04-30T16:04:01Z</time>
   </trkpt>
   <trkpt lat="46.2851295471191" lon="7.22439956665039">
    <ele>1413.56372070312</ele>
    <time>2012-04-30T16:04:02Z</time>
   </trkpt>
   <trkpt lat="46.2851142883301" lon="7.22437429428101">
    <ele>1413.85461425781</ele>
    <time>2012-04-30T16:04:03Z</time>
   </trkpt>
   <trkpt lat="46.285083770752" lon="7.22435712814331">
    <ele>1414.1455078125</ele>
    <time>2012-04-30T16:04:04Z</time>
   </trkpt>
   <trkpt lat="46.2850608825684" lon="7.22434139251709">
    <ele>1414.43640136719</ele>
    <time>2012-04-30T16:04:05Z</time>
   </trkpt>
   <trkpt lat="46.2849731445312" lon="7.22426605224609">
    <ele>1415.60009765625</ele>
    <time>2012-04-30T16:04:09Z</time>
   </trkpt>
   <trkpt lat="46.2849540710449" lon="7.22424650192261">
    <ele>1415.89099121094</ele>
    <time>2012-04-30T16:04:10Z</time>
   </trkpt>
   <trkpt lat="46.2849349975586" lon="7.22423505783081">
    <ele>1416.18188476562</ele>
    <time>2012-04-30T16:04:11Z</time>
   </trkpt>
   <trkpt lat="46.2849082946777" lon="7.22422790527344">
    <ele>1416.47277832031</ele>
    <time>2012-04-30T16:04:12Z</time>
   </trkpt>
   <trkpt lat="46.2848091125488" lon="7.22421789169312">
    <ele>1417.63635253906</ele>
    <time>2012-04-30T16:04:16Z</time>
   </trkpt>
   <trkpt lat="46.284782409668" lon="7.22421836853027">
    <ele>1417.92736816406</ele>
    <time>2012-04-30T16:04:17Z</time>
   </trkpt>
   <trkpt lat="46.2847595214844" lon="7.22420358657837">
    <ele>1418.21826171875</ele>
    <time>2012-04-30T16:04:18Z</time>
   </trkpt>
   <trkpt lat="46.2847366333008" lon="7.22420787811279">
    <ele>1418.50915527344</ele>
    <time>2012-04-30T16:04:19Z</time>
   </trkpt>
   <trkpt lat="46.2847099304199" lon="7.22421026229858">
    <ele>1418.80004882812</ele>
    <time>2012-04-30T16:04:20Z</time>
   </trkpt>
   <trkpt lat="46.2846908569336" lon="7.22421312332153">
    <ele>1418.80004882812</ele>
    <time>2012-04-30T16:04:21Z</time>
   </trkpt>
   <trkpt lat="46.2845497131348" lon="7.22428131103516">
    <ele>1420.11999511719</ele>
    <time>2012-04-30T16:04:27Z</time>
   </trkpt>
   <trkpt lat="46.2845268249512" lon="7.22430515289307">
    <ele>1420.33996582031</ele>
    <time>2012-04-30T16:04:28Z</time>
   </trkpt>
   <trkpt lat="46.2845001220703" lon="7.22432374954224">
    <ele>1420.56005859375</ele>
    <time>2012-04-30T16:04:29Z</time>
   </trkpt>
   <trkpt lat="46.284481048584" lon="7.22433567047119">
    <ele>1420.78002929688</ele>
    <time>2012-04-30T16:04:30Z</time>
   </trkpt>
   <trkpt lat="46.2844619750977" lon="7.2243480682373">
    <ele>1421</ele>
    <time>2012-04-30T16:04:31Z</time>
   </trkpt>
   <trkpt lat="46.2844009399414" lon="7.22440242767334">
    <ele>1421</ele>
    <time>2012-04-30T16:04:34Z</time>
   </trkpt>
   <trkpt lat="46.2842483520508" lon="7.22441816329956">
    <ele>1422.57495117188</ele>
    <time>2012-04-30T16:04:40Z</time>
   </trkpt>
   <trkpt lat="46.2842216491699" lon="7.22439765930176">
    <ele>1422.83752441406</ele>
    <time>2012-04-30T16:04:41Z</time>
   </trkpt>
   <trkpt lat="46.2842063903809" lon="7.22437620162964">
    <ele>1423.09997558594</ele>
    <time>2012-04-30T16:04:42Z</time>
   </trkpt>
   <trkpt lat="46.2841873168945" lon="7.22435474395752">
    <ele>1423.36242675781</ele>
    <time>2012-04-30T16:04:43Z</time>
   </trkpt>
   <trkpt lat="46.2841720581055" lon="7.22432374954224">
    <ele>1423.625</ele>
    <time>2012-04-30T16:04:44Z</time>
   </trkpt>
   <trkpt lat="46.2841529846191" lon="7.22430181503296">
    <ele>1423.88745117188</ele>
    <time>2012-04-30T16:04:45Z</time>
   </trkpt>
   <trkpt lat="46.2841339111328" lon="7.22428321838379">
    <ele>1424.14990234375</ele>
    <time>2012-04-30T16:04:46Z</time>
   </trkpt>
   <trkpt lat="46.2841148376465" lon="7.22426462173462">
    <ele>1424.41247558594</ele>
    <time>2012-04-30T16:04:47Z</time>
   </trkpt>
   <trkpt lat="46.2840957641602" lon="7.22425413131714">
    <ele>1424.67492675781</ele>
    <time>2012-04-30T16:04:48Z</time>
   </trkpt>
   <trkpt lat="46.2840766906738" lon="7.22423791885376">
    <ele>1424.9375</ele>
    <time>2012-04-30T16:04:49Z</time>
   </trkpt>
   <trkpt lat="46.2840538024902" lon="7.22422218322754">
    <ele>1425.19995117188</ele>
    <time>2012-04-30T16:04:50Z</time>
   </trkpt>
   <trkpt lat="46.2839965820312" lon="7.22417116165161">
    <ele>1425.19995117188</ele>
    <time>2012-04-30T16:04:53Z</time>
   </trkpt>
   <trkpt lat="46.2839736938477" lon="7.22415494918823">
    <ele>1425.58178710938</ele>
    <time>2012-04-30T16:04:54Z</time>
   </trkpt>
   <trkpt lat="46.2839584350586" lon="7.22412776947022">
    <ele>1425.96362304688</ele>
    <time>2012-04-30T16:04:55Z</time>
   </trkpt>
   <trkpt lat="46.2839393615723" lon="7.22410869598389">
    <ele>1426.34545898438</ele>
    <time>2012-04-30T16:04:56Z</time>
   </trkpt>
   <trkpt lat="46.2839164733887" lon="7.22409152984619">
    <ele>1426.72729492188</ele>
    <time>2012-04-30T16:04:57Z</time>
   </trkpt>
   <trkpt lat="46.2838973999023" lon="7.22407531738281">
    <ele>1427.10913085938</ele>
    <time>2012-04-30T16:04:58Z</time>
   </trkpt>
   <trkpt lat="46.2838592529297" lon="7.22403717041016">
    <ele>1427.87268066406</ele>
    <time>2012-04-30T16:05:00Z</time>
   </trkpt>
   <trkpt lat="46.2838363647461" lon="7.22401762008667">
    <ele>1428.25451660156</ele>
    <time>2012-04-30T16:05:01Z</time>
   </trkpt>
   <trkpt lat="46.2838172912598" lon="7.22399950027466">
    <ele>1428.63635253906</ele>
    <time>2012-04-30T16:05:02Z</time>
   </trkpt>
   <trkpt lat="46.2837982177734" lon="7.22398090362549">
    <ele>1429.01818847656</ele>
    <time>2012-04-30T16:05:03Z</time>
   </trkpt>
   <trkpt lat="46.2837791442871" lon="7.22395944595337">
    <ele>1429.40002441406</ele>
    <time>2012-04-30T16:05:04Z</time>
   </trkpt>
   <trkpt lat="46.2837066650391" lon="7.22390842437744">
    <ele>1429.40002441406</ele>
    <time>2012-04-30T16:05:07Z</time>
   </trkpt>
   <trkpt lat="46.2836647033691" lon="7.22388362884522">
    <ele>1430.06665039062</ele>
    <time>2012-04-30T16:05:09Z</time>
   </trkpt>
   <trkpt lat="46.2836418151856" lon="7.22386598587036">
    <ele>1430.40002441406</ele>
    <time>2012-04-30T16:05:10Z</time>
   </trkpt>
   <trkpt lat="46.283618927002" lon="7.22384834289551">
    <ele>1430.7333984375</ele>
    <time>2012-04-30T16:05:11Z</time>
   </trkpt>
   <trkpt lat="46.2835960388184" lon="7.22383642196655">
    <ele>1431.06665039062</ele>
    <time>2012-04-30T16:05:12Z</time>
   </trkpt>
   <trkpt lat="46.283576965332" lon="7.2238187789917">
    <ele>1431.40002441406</ele>
    <time>2012-04-30T16:05:13Z</time>
   </trkpt>
   <trkpt lat="46.2835311889648" lon="7.22378635406494">
    <ele>1431.40002441406</ele>
    <time>2012-04-30T16:05:15Z</time>
   </trkpt>
   <trkpt lat="46.2834510803223" lon="7.22371578216553">
    <ele>1432.39599609375</ele>
    <time>2012-04-30T16:05:19Z</time>
   </trkpt>
   <trkpt lat="46.2834243774414" lon="7.22370386123657">
    <ele>1432.64489746094</ele>
    <time>2012-04-30T16:05:20Z</time>
   </trkpt>
   <trkpt lat="46.2833976745606" lon="7.22369289398193">
    <ele>1432.89392089844</ele>
    <time>2012-04-30T16:05:21Z</time>
   </trkpt>
   <trkpt lat="46.2833786010742" lon="7.22367477416992">
    <ele>1433.14282226562</ele>
    <time>2012-04-30T16:05:22Z</time>
   </trkpt>
   <trkpt lat="46.2833595275879" lon="7.22365713119507">
    <ele>1433.39184570312</ele>
    <time>2012-04-30T16:05:23Z</time>
   </trkpt>
   <trkpt lat="46.2832107543945" lon="7.22357559204102">
    <ele>1434.8857421875</ele>
    <time>2012-04-30T16:05:29Z</time>
   </trkpt>
   <trkpt lat="46.2831802368164" lon="7.2235517501831">
    <ele>1435.13464355469</ele>
    <time>2012-04-30T16:05:30Z</time>
   </trkpt>
   <trkpt lat="46.2831573486328" lon="7.22353506088257">
    <ele>1435.38366699219</ele>
    <time>2012-04-30T16:05:31Z</time>
   </trkpt>
   <trkpt lat="46.2831344604492" lon="7.22352123260498">
    <ele>1435.63269042969</ele>
    <time>2012-04-30T16:05:32Z</time>
   </trkpt>
   <trkpt lat="46.2831115722656" lon="7.22350645065308">
    <ele>1435.88159179688</ele>
    <time>2012-04-30T16:05:33Z</time>
   </trkpt>
   <trkpt lat="46.2830390930176" lon="7.22341537475586">
    <ele>1436.87756347656</ele>
    <time>2012-04-30T16:05:37Z</time>
   </trkpt>
   <trkpt lat="46.2830200195312" lon="7.22339200973511">
    <ele>1437.12658691406</ele>
    <time>2012-04-30T16:05:38Z</time>
   </trkpt>
   <trkpt lat="46.2830009460449" lon="7.22336721420288">
    <ele>1437.37548828125</ele>
    <time>2012-04-30T16:05:39Z</time>
   </trkpt>
   <trkpt lat="46.2829856872559" lon="7.22333908081055">
    <ele>1437.62451171875</ele>
    <time>2012-04-30T16:05:40Z</time>
   </trkpt>
   <trkpt lat="46.2829742431641" lon="7.22330951690674">
    <ele>1437.87341308594</ele>
    <time>2012-04-30T16:05:41Z</time>
   </trkpt>
   <trkpt lat="46.2829360961914" lon="7.22320985794067">
    <ele>1438.62036132812</ele>
    <time>2012-04-30T16:05:44Z</time>
   </trkpt>
   <trkpt lat="46.2829132080078" lon="7.22314548492432">
    <ele>1438.86938476562</ele>
    <time>2012-04-30T16:05:45Z</time>
   </trkpt>
   <trkpt lat="46.2828941345215" lon="7.22309732437134">
    <ele>1439.61633300781</ele>
    <time>2012-04-30T16:05:48Z</time>
   </trkpt>
   <trkpt lat="46.2828483581543" lon="7.2229528427124">
    <ele>1440.61218261719</ele>
    <time>2012-04-30T16:05:52Z</time>
   </trkpt>
   <trkpt lat="46.2828407287598" lon="7.22291469573975">
    <ele>1440.86120605469</ele>
    <time>2012-04-30T16:05:53Z</time>
   </trkpt>
   <trkpt lat="46.2828369140625" lon="7.22287321090698">
    <ele>1441.11022949219</ele>
    <time>2012-04-30T16:05:54Z</time>
   </trkpt>
   <trkpt lat="46.2828369140625" lon="7.22283267974854">
    <ele>1441.35913085938</ele>
    <time>2012-04-30T16:05:55Z</time>
   </trkpt>
   <trkpt lat="46.2828369140625" lon="7.2227931022644">
    <ele>1441.60815429688</ele>
    <time>2012-04-30T16:05:56Z</time>
   </trkpt>
   <trkpt lat="46.2828636169434" lon="7.22261762619018">
    <ele>1442.60400390625</ele>
    <time>2012-04-30T16:06:00Z</time>
   </trkpt>
   <trkpt lat="46.2828712463379" lon="7.22257661819458">
    <ele>1442.85302734375</ele>
    <time>2012-04-30T16:06:01Z</time>
   </trkpt>
   <trkpt lat="46.2828826904297" lon="7.22253656387329">
    <ele>1443.10205078125</ele>
    <time>2012-04-30T16:06:02Z</time>
   </trkpt>
   <trkpt lat="46.2828941345215" lon="7.22249746322632">
    <ele>1443.35095214844</ele>
    <time>2012-04-30T16:06:03Z</time>
   </trkpt>
   <trkpt lat="46.2829093933106" lon="7.22245979309082">
    <ele>1443.59997558594</ele>
    <time>2012-04-30T16:06:04Z</time>
   </trkpt>
   <trkpt lat="46.2829437255859" lon="7.2223858833313">
    <ele>1443.59997558594</ele>
    <time>2012-04-30T16:06:06Z</time>
   </trkpt>
   <trkpt lat="46.2830123901367" lon="7.2221565246582">
    <ele>1444.92004394531</ele>
    <time>2012-04-30T16:06:12Z</time>
   </trkpt>
   <trkpt lat="46.2830200195312" lon="7.22211313247681">
    <ele>1445.14001464844</ele>
    <time>2012-04-30T16:06:13Z</time>
   </trkpt>
   <trkpt lat="46.2830238342285" lon="7.22206830978394">
    <ele>1445.35998535156</ele>
    <time>2012-04-30T16:06:14Z</time>
   </trkpt>
   <trkpt lat="46.2830238342285" lon="7.22202491760254">
    <ele>1445.580078125</ele>
    <time>2012-04-30T16:06:15Z</time>
   </trkpt>
   <trkpt lat="46.2830276489258" lon="7.22197341918945">
    <ele>1445.80004882812</ele>
    <time>2012-04-30T16:06:16Z</time>
   </trkpt>
   <trkpt lat="46.283016204834" lon="7.22183895111084">
    <ele>1445.80004882812</ele>
    <time>2012-04-30T16:06:19Z</time>
   </trkpt>
   <trkpt lat="46.2829742431641" lon="7.22158908843994">
    <ele>1447.11999511719</ele>
    <time>2012-04-30T16:06:25Z</time>
   </trkpt>
   <trkpt lat="46.2829627990723" lon="7.22154808044434">
    <ele>1447.33996582031</ele>
    <time>2012-04-30T16:06:26Z</time>
   </trkpt>
   <trkpt lat="46.2829551696777" lon="7.22150182723999">
    <ele>1447.56005859375</ele>
    <time>2012-04-30T16:06:27Z</time>
   </trkpt>
   <trkpt lat="46.2829437255859" lon="7.2214560508728">
    <ele>1447.78002929688</ele>
    <time>2012-04-30T16:06:28Z</time>
   </trkpt>
   <trkpt lat="46.2829322814941" lon="7.22141218185425">
    <ele>1448</ele>
    <time>2012-04-30T16:06:29Z</time>
   </trkpt>
   <trkpt lat="46.2828941345215" lon="7.22124814987183">
    <ele>1448</ele>
    <time>2012-04-30T16:06:33Z</time>
   </trkpt>
   <trkpt lat="46.2828636169434" lon="7.22111988067627">
    <ele>1448.94287109375</ele>
    <time>2012-04-30T16:06:36Z</time>
   </trkpt>
   <trkpt lat="46.2828559875488" lon="7.22107553482056">
    <ele>1449.25708007812</ele>
    <time>2012-04-30T16:06:37Z</time>
   </trkpt>
   <trkpt lat="46.282844543457" lon="7.22103404998779">
    <ele>1449.57141113281</ele>
    <time>2012-04-30T16:06:38Z</time>
   </trkpt>
   <trkpt lat="46.2828407287598" lon="7.22099208831787">
    <ele>1449.88562011719</ele>
    <time>2012-04-30T16:06:39Z</time>
   </trkpt>
   <trkpt lat="46.2828369140625" lon="7.22095012664795">
    <ele>1450.19995117188</ele>
    <time>2012-04-30T16:06:40Z</time>
   </trkpt>
   <trkpt lat="46.282829284668" lon="7.22090291976929">
    <ele>1450.19995117188</ele>
    <time>2012-04-30T16:06:41Z</time>
   </trkpt>
   <trkpt lat="46.2828063964844" lon="7.22068881988525">
    <ele>1451.57495117188</ele>
    <time>2012-04-30T16:06:46Z</time>
   </trkpt>
   <trkpt lat="46.2828063964844" lon="7.22064638137817">
    <ele>1451.84997558594</ele>
    <time>2012-04-30T16:06:47Z</time>
   </trkpt>
   <trkpt lat="46.2828025817871" lon="7.2206072807312">
    <ele>1452.125</ele>
    <time>2012-04-30T16:06:48Z</time>
   </trkpt>
   <trkpt lat="46.2828063964844" lon="7.22056484222412">
    <ele>1452.40002441406</ele>
    <time>2012-04-30T16:06:49Z</time>
   </trkpt>
   <trkpt lat="46.2828102111816" lon="7.22047519683838">
    <ele>1452.40002441406</ele>
    <time>2012-04-30T16:06:51Z</time>
   </trkpt>
   <trkpt lat="46.2828140258789" lon="7.22030067443848">
    <ele>1453.40002441406</ele>
    <time>2012-04-30T16:06:55Z</time>
   </trkpt>
   <trkpt lat="46.2828178405762" lon="7.22025632858276">
    <ele>1453.65002441406</ele>
    <time>2012-04-30T16:06:56Z</time>
   </trkpt>
   <trkpt lat="46.2828178405762" lon="7.22021627426148">
    <ele>1453.90002441406</ele>
    <time>2012-04-30T16:06:57Z</time>
   </trkpt>
   <trkpt lat="46.2828178405762" lon="7.2201771736145">
    <ele>1454.15002441406</ele>
    <time>2012-04-30T16:06:58Z</time>
   </trkpt>
   <trkpt lat="46.2828178405762" lon="7.22013759613037">
    <ele>1454.40002441406</ele>
    <time>2012-04-30T16:06:59Z</time>
   </trkpt>
   <trkpt lat="46.2828178405762" lon="7.21996974945068">
    <ele>1455.40002441406</ele>
    <time>2012-04-30T16:07:03Z</time>
   </trkpt>
   <trkpt lat="46.2828254699707" lon="7.21993112564087">
    <ele>1455.65002441406</ele>
    <time>2012-04-30T16:07:04Z</time>
   </trkpt>
   <trkpt lat="46.282829284668" lon="7.2198920249939">
    <ele>1455.90002441406</ele>
    <time>2012-04-30T16:07:05Z</time>
   </trkpt>
   <trkpt lat="46.282829284668" lon="7.21985673904419">
    <ele>1456.15002441406</ele>
    <time>2012-04-30T16:07:06Z</time>
   </trkpt>
   <trkpt lat="46.2828330993652" lon="7.21981906890869">
    <ele>1456.40002441406</ele>
    <time>2012-04-30T16:07:07Z</time>
   </trkpt>
   <trkpt lat="46.2828140258789" lon="7.21968603134155">
    <ele>1456.40002441406</ele>
    <time>2012-04-30T16:07:10Z</time>
   </trkpt>
   <trkpt lat="46.2827682495117" lon="7.21942901611328">
    <ele>1457.71997070312</ele>
    <time>2012-04-30T16:07:16Z</time>
   </trkpt>
   <trkpt lat="46.2827682495117" lon="7.21938610076904">
    <ele>1457.93994140625</ele>
    <time>2012-04-30T16:07:17Z</time>
   </trkpt>
   <trkpt lat="46.2827682495117" lon="7.21934413909912">
    <ele>1458.16003417969</ele>
    <time>2012-04-30T16:07:18Z</time>
   </trkpt>
   <trkpt lat="46.282772064209" lon="7.21930265426636">
    <ele>1458.38000488281</ele>
    <time>2012-04-30T16:07:19Z</time>
   </trkpt>
   <trkpt lat="46.2827796936035" lon="7.21925973892212">
    <ele>1458.59997558594</ele>
    <time>2012-04-30T16:07:20Z</time>
   </trkpt>
   <trkpt lat="46.2828025817871" lon="7.21913433074951">
    <ele>1458.59997558594</ele>
    <time>2012-04-30T16:07:23Z</time>
   </trkpt>
   <trkpt lat="46.2828712463379" lon="7.21896696090698">
    <ele>1459.59997558594</ele>
    <time>2012-04-30T16:07:27Z</time>
   </trkpt>
   <trkpt lat="46.282886505127" lon="7.21891164779663">
    <ele>1459.84997558594</ele>
    <time>2012-04-30T16:07:28Z</time>
   </trkpt>
   <trkpt lat="46.2828979492188" lon="7.21885538101196">
    <ele>1460.09997558594</ele>
    <time>2012-04-30T16:07:29Z</time>
   </trkpt>
   <trkpt lat="46.2829132080078" lon="7.2187967300415">
    <ele>1460.34997558594</ele>
    <time>2012-04-30T16:07:30Z</time>
   </trkpt>
   <trkpt lat="46.2829246520996" lon="7.21873331069946">
    <ele>1460.59997558594</ele>
    <time>2012-04-30T16:07:31Z</time>
   </trkpt>
   <trkpt lat="46.2829322814941" lon="7.21867370605469">
    <time>2012-04-30T16:07:32Z</time>
   </trkpt>
  </trkseg>
 </trk>
</gpx>